# Wetter Temperatur Luftdruck Luftfeuchtigkeit Sichtweite Windgeschwindigkeit Windrichtung Zeit
1 Clouds 21 1011 73 10000 12.3 10 07:23 11.07.2020
2 Clouds 21 1011 73 10000 12.3 10 06:56 11.07.2020
3 Clouds 21 1011 73 10000 11.8 10 06:22 11.07.2020
4 Clouds 21 1011 73 10000 13.9 10 05:22 11.07.2020
5 Clouds 21 1011 73 10000 11.8 10 04:55 11.07.2020
6 Clouds 21 1012 73 10000 11.8 10 04:33 11.07.2020
7 Clouds 22 1012 73 10000 12.3 360 03:32 11.07.2020
8 Clouds 22 1012 73 10000 13.4 10 02:40 11.07.2020
9 Clouds 22 1012 69 10000 11.3 10 01:49 11.07.2020
10 Clouds 22 1013 69 10000 12.3 10 01:18 11.07.2020
11 Clouds 22 1012 69 10000 12.3 10 00:41 11.07.2020
12 Clouds 22 1012 69 10000 12.3 10 00:22 11.07.2020
13 Clouds 22 1012 73 10000 13.4 10 23:57 10.07.2020
14 Clouds 22 1012 69 10000 12.3 10 23:39 10.07.2020
15 Clouds 23 1012 69 10000 12.3 10 23:19 10.07.2020
16 Clouds 23 1012 69 10000 11.8 360 22:46 10.07.2020
17 Clouds 23 1012 69 10000 11.8 360 22:21 10.07.2020
18 Clouds 23 1011 69 10000 14.4 10 21:58 10.07.2020
19 Clouds 24 1011 64 10000 15.4 10 21:37 10.07.2020
20 Clouds 24 1011 64 10000 15.4 10 21:18 10.07.2020
21 Clouds 24 1011 65 10000 13.4 20 20:43 10.07.2020
22 Clouds 25 1011 65 10000 13.4 20 20:23 10.07.2020
23 Clouds 25 1011 57 10000 13.4 360 19:58 10.07.2020
24 Clouds 25 1012 61 10000 15.4 20 19:40 10.07.2020
25 Clouds 25 1012 61 10000 15.4 20 19:21 10.07.2020
26 Clouds 25 1012 61 10000 13.4 20 18:42 10.07.2020
27 Clouds 26 1012 61 10000 13.4 20 18:22 10.07.2020
28 Clouds 26 1012 57 10000 14.9 20 17:59 10.07.2020
29 Clouds 26 1012 54 10000 14.4 20 17:40 10.07.2020
30 Clouds 27 1012 54 10000 14.4 20 17:21 10.07.2020
31 Clouds 26 1013 61 10000 15.9 20 16:44 10.07.2020
32 Clouds 26 1013 61 10000 15.9 20 16:21 10.07.2020
33 Clouds 27 1013 57 10000 15.4 20 15:55 10.07.2020
34 Clouds 26 1013 57 10000 15.4 20 15:37 10.07.2020
35 Clouds 26 1013 57 10000 15.4 20 15:18 10.07.2020
36 Clouds 25 1013 57 10000 14.9 20 14:41 10.07.2020
37 Clouds 25 1013 57 10000 14.9 20 14:21 10.07.2020
38 Clouds 25 1013 57 10000 13.9 20 13:58 10.07.2020
39 Clouds 26 1013 57 10000 13.9 10 13:39 10.07.2020
40 Clouds 26 1013 57 10000 13.9 10 13:21 10.07.2020
41 Clouds 26 1013 57 10000 13.4 360 12:57 10.07.2020
42 Clouds 25 1013 57 10000 14.4 10 12:37 10.07.2020
43 Clouds 25 1013 57 10000 14.4 10 12:19 10.07.2020
44 Clouds 24 1014 60 10000 13.9 10 11:42 10.07.2020
45 Clouds 23 1014 69 10000 11.3 10 11:21 10.07.2020
46 Clouds 23 1014 69 10000 11.3 10 10:58 10.07.2020
47 Clouds 22 1014 68 10000 11.8 360 10:39 10.07.2020
48 Clouds 22 1014 68 10000 11.3 360 10:20 10.07.2020
49 Clouds 22 1014 73 10000 12.9 10 09:41 10.07.2020
50 Clouds 22 1014 73 10000 12.9 10 09:23 10.07.2020
51 Clouds 21 1014 68 10000 10.3 360 08:59 10.07.2020
52 Clouds 21 1014 68 10000 12.3 10 08:41 10.07.2020
53 Clouds 21 1014 68 10000 12.3 10 08:23 10.07.2020
54 Clouds 21 1014 68 10000 12.3 10 08:23 10.07.2020
55 Clouds 21 1014 73 10000 12.3 10 07:47 10.07.2020
56 Clouds 21 1014 73 10000 12.3 10 07:24 10.07.2020
57 Clouds 21 1014 68 10000 12.3 10 06:57 10.07.2020
58 Clouds 21 1014 68 10000 11.3 10 06:39 10.07.2020
59 Clouds 22 1014 68 10000 11.8 10 05:28 10.07.2020
60 Clouds 22 1016 73 10000 11.3 10 03:54 10.07.2020
61 Clouds 22 1016 73 10000 10.8 360 02:54 10.07.2020
62 Clouds 22 1017 73 10000 11.3 10 01:57 10.07.2020
63 Clouds 22 1017 73 10000 10.8 10 00:55 10.07.2020
64 Clouds 22 1016 73 10000 13.4 20 00:23 10.07.2020
65 Clouds 22 1016 73 10000 13.4 20 23:56 09.07.2020
66 Clouds 22 1016 73 10000 14.9 20 23:37 09.07.2020
67 Clouds 22 1016 73 10000 14.9 20 23:19 09.07.2020
68 Clouds 22 1016 73 10000 13.4 20 22:56 09.07.2020
69 Clouds 22 1015 73 10000 14.9 20 22:38 09.07.2020
70 Clouds 23 1015 73 10000 14.9 20 22:19 09.07.2020
71 Clouds 23 1015 73 10000 13.9 10 21:39 09.07.2020
72 Clouds 23 1015 73 10000 13.9 10 21:20 09.07.2020
73 Clouds 24 1015 69 10000 13.4 10 20:59 09.07.2020
74 Clouds 24 1015 69 10000 13.9 20 20:40 09.07.2020
75 Clouds 24 1015 69 10000 13.9 20 20:22 09.07.2020
76 Clouds 24 1015 69 10000 15.4 20 19:43 09.07.2020
77 Clouds 25 1015 69 10000 15.4 20 19:22 09.07.2020
78 Clouds 25 1015 69 10000 15.4 20 19:22 09.07.2020
79 Clouds 25 1015 65 10000 15.9 20 18:56 09.07.2020
80 Clouds 25 1015 65 10000 15.9 20 18:56 09.07.2020
81 Clouds 25 1015 65 10000 17 20 18:38 09.07.2020
82 Clouds 25 1015 65 10000 17 20 18:18 09.07.2020
83 Clouds 25 1015 65 10000 15.4 20 17:43 09.07.2020
84 Clouds 25 1015 65 10000 15.4 20 17:22 09.07.2020
85 Clouds 26 1016 61 10000 15.9 20 16:56 09.07.2020
86 Clouds 26 1016 61 10000 15.9 30 16:38 09.07.2020
87 Clouds 26 1016 61 10000 15.9 30 16:19 09.07.2020
88 Clouds 26 1016 65 10000 15.9 30 15:57 09.07.2020
89 Clouds 26 1016 61 10000 16.5 20 15:37 09.07.2020
90 Clouds 26 1017 61 10000 15.9 30 15:18 09.07.2020
91 Clouds 26 1017 61 10000 15.9 30 14:57 09.07.2020
92 Clouds 26 1017 61 10000 15.9 20 14:39 09.07.2020
93 Clouds 26 1017 61 10000 15.9 20 14:39 09.07.2020
94 Clouds 25 1017 69 10000 15.4 30 14:20 09.07.2020
95 Clouds 25 1017 69 10000 15.4 30 13:56 09.07.2020
96 Clouds 25 1017 69 10000 15.4 30 13:38 09.07.2020
97 Clouds 25 1017 69 10000 15.4 30 13:18 09.07.2020
98 Clouds 25 1017 69 10000 15.4 20 12:41 09.07.2020
99 Clouds 25 1017 69 10000 15.4 20 12:23 09.07.2020
100 Clouds 24 1017 69 10000 15.9 20 11:57 09.07.2020
101 Clouds 24 1017 64 10000 14.9 20 11:38 09.07.2020
102 Clouds 24 1017 64 10000 14.9 20 11:18 09.07.2020
103 Clouds 24 1017 73 10000 15.4 20 10:55 09.07.2020
104 Clouds 23 1016 73 10000 13.9 20 10:37 09.07.2020
105 Clouds 23 1016 73 10000 13.9 20 10:37 09.07.2020
106 Clouds 24 1016 73 10000 13.9 20 10:19 09.07.2020
107 Clouds 23 1016 73 10000 12.9 30 09:42 09.07.2020
108 Clouds 23 1016 73 10000 12.9 30 09:22 09.07.2020
109 Clouds 22 1016 77 10000 11.8 20 08:49 09.07.2020
110 Clouds 21 1016 83 10000 13.4 20 08:26 09.07.2020
111 Clear 21 1015 83 10000 12.9 20 07:50 09.07.2020
112 Clear 22 1015 83 10000 13.4 20 07:30 09.07.2020
113 Clear 23 1015 83 10000 13.4 20 06:59 09.07.2020
114 Clear 23 1015 78 10000 12.3 20 06:20 09.07.2020
115 Clear 22 1015 78 10000 12.9 20 05:50 09.07.2020
116 Clear 24 1015 78 10000 11.3 20 04:28 09.07.2020
117 Clear 24 1016 73 10000 10.3 20 02:45 09.07.2020
118 Clear 24 1016 64 10000 9.8 20 01:54 09.07.2020
119 Clear 24 1016 78 10000 10.8 20 00:56 09.07.2020
120 Clear 25 1016 69 10000 10.3 20 00:37 09.07.2020
121 Clear 26 1016 61 10000 10.3 20 00:18 09.07.2020
122 Clear 25 1016 61 10000 10.3 20 23:43 08.07.2020
123 Clear 25 1016 61 10000 10.3 20 23:24 08.07.2020
124 Clouds 26 1015 44 10000 9.8 20 22:55 08.07.2020
125 Clear 27 1015 42 10000 10.3 10 22:36 08.07.2020
126 Clear 26 1015 42 10000 10.3 10 22:18 08.07.2020
127 Clear 28 1015 37 10000 11.3 10 21:39 08.07.2020
128 Clear 28 1015 37 10000 11.3 10 21:21 08.07.2020
129 Clear 29 1015 33 10000 10.8 20 20:59 08.07.2020
130 Clear 30 1015 31 10000 10.8 10 20:41 08.07.2020
131 Clear 30 1015 31 10000 10.8 10 20:23 08.07.2020
132 Clear 29 1015 45 10000 11.8 20 19:43 08.07.2020
133 Clear 29 1015 45 10000 11.8 20 19:25 08.07.2020
134 Clear 28 1015 48 10000 12.3 20 18:59 08.07.2020
135 Clouds 27 1015 54 10000 13.4 30 18:40 08.07.2020
136 Clouds 29 1015 54 10000 13.4 30 18:21 08.07.2020
137 Clouds 26 1015 65 10000 13.4 30 17:57 08.07.2020
138 Clouds 29 1015 61 10000 14.9 20 17:38 08.07.2020
139 Clouds 29 1015 61 10000 14.9 20 17:38 08.07.2020
140 Clouds 29 1015 61 10000 14.9 20 17:20 08.07.2020
141 Clouds 29 1015 61 10000 14.9 20 17:20 08.07.2020
142 Clouds 27 1015 65 10000 14.4 20 16:56 08.07.2020
143 Clouds 27 1015 61 10000 14.4 20 16:37 08.07.2020
144 Clouds 27 1015 61 10000 14.4 20 16:18 08.07.2020
145 Clouds 27 1015 61 10000 14.4 20 15:56 08.07.2020
146 Clouds 26 1015 65 10000 14.4 20 15:38 08.07.2020
147 Clouds 26 1015 65 10000 14.4 20 15:18 08.07.2020
148 Clear 27 1015 61 10000 14.4 20 14:42 08.07.2020
149 Clear 27 1015 61 10000 14.4 20 14:21 08.07.2020
150 Clear 27 1015 61 10000 13.4 30 13:46 08.07.2020
151 Clear 27 1015 61 10000 13.4 30 13:28 08.07.2020
152 Clear 27 1015 61 10000 11.8 20 12:58 08.07.2020
153 Clouds 27 1015 61 10000 10.8 10 12:40 08.07.2020
154 Clouds 26 1015 65 10000 10.8 10 12:19 08.07.2020
155 Clouds 25 1015 69 10000 11.3 10 11:39 08.07.2020
156 Clouds 25 1015 69 10000 11.3 10 11:21 08.07.2020
157 Clouds 25 1015 73 10000 11.8 10 10:59 08.07.2020
158 Clouds 24 1015 78 10000 11.3 10 10:41 08.07.2020
159 Clouds 25 1015 78 10000 11.3 10 10:22 08.07.2020
160 Clouds 24 1014 83 10000 10.8 20 09:44 08.07.2020
161 Clouds 24 1014 83 10000 10.8 20 09:24 08.07.2020
162 Clouds 24 1013 73 10000 10.3 10 08:44 08.07.2020
163 Clouds 24 1013 73 10000 10.3 10 08:25 08.07.2020
164 Clouds 24 1013 73 10000 10.3 10 08:25 08.07.2020
165 Clear 25 1013 69 10000 9.8 20 07:50 08.07.2020
166 Clear 25 1013 64 10000 8.7 30 07:25 08.07.2020
167 Clear 25 1013 60 10000 8.2 20 06:58 08.07.2020
168 Clear 26 1013 47 10000 6.7 360 06:39 08.07.2020
169 Clear 26 1013 47 10000 6.7 360 06:20 08.07.2020
170 Clear 23 1013 78 10000 7.7 20 05:38 08.07.2020
171 Clouds 23 1013 78 10000 6.7 10 04:38 08.07.2020
172 Clouds 24 1014 83 10000 8.2 10 03:25 08.07.2020
173 Clouds 24 1015 83 10000 9.3 20 01:57 08.07.2020
174 Clouds 24 1014 83 10000 9.3 10 01:37 08.07.2020
175 Clouds 25 1014 83 10000 9.3 20 00:39 08.07.2020
176 Clouds 25 1014 83 10000 9.3 20 00:19 08.07.2020
177 Clouds 25 1014 78 10000 9.8 20 23:41 07.07.2020
178 Clouds 25 1014 78 10000 9.8 20 23:21 07.07.2020
179 Clouds 26 1014 78 10000 9.8 20 22:54 07.07.2020
180 Clouds 25 1014 78 10000 10.8 20 22:36 07.07.2020
181 Clouds 25 1014 78 10000 10.8 20 22:18 07.07.2020
182 Clouds 25 1013 73 10000 9.3 20 21:41 07.07.2020
183 Clouds 25 1013 73 10000 9.3 20 21:22 07.07.2020
184 Clouds 26 1013 69 10000 8.2 30 20:58 07.07.2020
185 Clouds 27 1013 69 10000 9.3 30 20:40 07.07.2020
186 Clouds 27 1013 69 10000 9.3 30 20:22 07.07.2020
187 Clouds 27 1013 69 10000 9.8 30 19:43 07.07.2020
188 Clouds 28 1013 65 10000 9.3 30 19:22 07.07.2020
189 Clouds 28 1013 65 10000 9.3 30 18:59 07.07.2020
190 Clouds 28 1013 65 10000 9.3 30 18:41 07.07.2020
191 Clouds 28 1013 65 10000 9.3 30 18:23 07.07.2020
192 Clouds 29 1013 62 10000 9.3 20 17:59 07.07.2020
193 Clouds 28 1013 65 10000 10.3 30 17:40 07.07.2020
194 Clouds 28 1013 65 10000 10.3 30 17:22 07.07.2020
195 Clouds 27 1013 69 10000 10.3 30 16:58 07.07.2020
196 Clouds 27 1013 69 10000 10.3 30 16:40 07.07.2020
197 Clouds 27 1013 69 10000 10.3 30 16:20 07.07.2020
198 Clouds 27 1014 69 10000 10.8 30 15:42 07.07.2020
199 Clouds 27 1014 69 10000 10.8 30 15:21 07.07.2020
200 Clouds 27 1014 69 10000 10.3 30 14:56 07.07.2020
201 Clouds 26 1013 74 10000 12.3 30 14:38 07.07.2020
202 Clouds 26 1013 74 10000 12.3 30 14:19 07.07.2020
203 Clouds 25 1013 74 10000 11.3 30 13:40 07.07.2020
204 Clouds 26 1013 74 10000 11.3 30 13:19 07.07.2020
205 Clouds 25 1013 69 10000 8.7 30 12:41 07.07.2020
206 Clouds 26 1013 69 10000 8.7 30 12:22 07.07.2020
207 Clouds 26 1013 69 10000 8.7 30 12:22 07.07.2020
208 Clouds 27 1013 69 10000 7.2 20 11:58 07.07.2020
209 Clouds 25 1013 73 10000 7.2 10 11:40 07.07.2020
210 Clouds 25 1013 73 10000 7.2 10 11:20 07.07.2020
211 Clouds 26 1013 73 9000 6.2 10 10:57 07.07.2020
212 Clouds 23 1013 83 9000 6.7 30 10:37 07.07.2020
213 Clouds 24 1013 83 9000 6.7 30 10:18 07.07.2020
214 Clouds 23 1013 83 9000 2.6 170 09:40 07.07.2020
215 Clouds 23 1013 83 9000 2.6 170 09:20 07.07.2020
216 Clouds 23 1012 88 10000 6.2 30 08:42 07.07.2020
217 Clouds 22 1012 88 10000 6.2 30 08:23 07.07.2020
218 Clouds 23 1012 83 10000 1 0 07:47 07.07.2020
219 Clouds 22 1012 83 10000 1 0 07:24 07.07.2020
220 Clouds 22 1011 88 10000 2.1 10 06:49 07.07.2020
221 Clouds 23 1011 83 10000 2.1 180 06:31 07.07.2020
222 Clouds 23 1011 78 10000 1.5 0 05:54 07.07.2020
223 Clouds 23 1011 78 10000 7.2 360 05:23 07.07.2020
224 Clouds 23 1010 83 10000 11.8 10 04:40 07.07.2020
225 Clouds 23 1011 83 10000 10.3 20 03:40 07.07.2020
226 Clouds 23 1011 83 10000 9.8 10 02:28 07.07.2020
227 Clouds 23 1012 83 10000 11.8 20 01:25 07.07.2020
228 Clouds 23 1012 83 10000 11.3 10 00:44 07.07.2020
229 Clouds 23 1012 83 10000 11.3 10 00:24 07.07.2020
230 Clouds 23 1012 83 10000 11.3 20 23:59 06.07.2020
231 Clouds 23 1012 83 10000 10.8 20 23:40 06.07.2020
232 Clouds 23 1012 83 10000 10.8 20 23:22 06.07.2020
233 Clouds 24 1012 83 10000 9.3 20 22:41 06.07.2020
234 Clouds 24 1012 83 10000 9.3 20 22:20 06.07.2020
235 Clouds 25 1012 78 10000 9.8 20 21:58 06.07.2020
236 Clouds 24 1011 78 10000 10.3 20 21:39 06.07.2020
237 Clouds 24 1011 78 10000 10.3 20 21:19 06.07.2020
238 Clouds 24 1011 78 10000 10.3 20 21:19 06.07.2020
239 Clouds 24 1011 78 10000 11.3 20 20:59 06.07.2020
240 Clouds 25 1011 73 10000 11.8 20 20:39 06.07.2020
241 Clouds 25 1011 73 10000 11.8 20 20:20 06.07.2020
242 Clouds 25 1011 69 10000 12.3 20 19:57 06.07.2020
243 Clouds 25 1011 69 10000 12.3 20 19:39 06.07.2020
244 Clouds 26 1011 69 10000 12.3 20 19:20 06.07.2020
245 Clouds 26 1011 69 10000 12.9 20 18:55 06.07.2020
246 Clouds 27 1012 65 10000 12.3 20 18:37 06.07.2020
247 Clouds 26 1012 65 10000 12.3 30 18:18 06.07.2020
248 Clouds 26 1012 69 10000 14.4 30 17:42 06.07.2020
249 Clouds 26 1012 69 10000 14.4 30 17:24 06.07.2020
250 Clouds 28 1011 65 10000 14.9 20 16:55 06.07.2020
251 Clouds 29 1011 61 10000 13.4 30 16:37 06.07.2020
252 Clouds 29 1011 61 10000 13.4 30 16:18 06.07.2020
253 Clouds 29 1012 54 10000 12.9 30 15:42 06.07.2020
254 Clouds 29 1012 54 10000 12.9 30 15:24 06.07.2020
255 Clouds 28 1012 61 10000 11.8 20 14:57 06.07.2020
256 Clouds 27 1013 65 10000 12.3 20 14:37 06.07.2020
257 Clouds 27 1013 65 10000 12.3 20 14:19 06.07.2020
258 Clouds 27 1013 65 10000 13.4 10 13:48 06.07.2020
259 Clouds 26 1012 69 10000 14.4 20 13:28 06.07.2020
260 Clouds 26 1012 69 10000 13.4 10 12:58 06.07.2020
261 Clouds 25 1012 73 10000 13.9 20 12:39 06.07.2020
262 Clouds 26 1011 61 10000 10.8 20 12:18 06.07.2020
263 Clouds 27 1011 61 10000 10.8 20 11:57 06.07.2020
264 Clouds 26 1011 65 10000 11.3 10 11:37 06.07.2020
265 Clouds 27 1011 65 10000 11.3 10 11:19 06.07.2020
266 Clouds 24 1012 78 10000 11.3 10 10:42 06.07.2020
267 Clouds 24 1012 78 10000 10.3 20 10:22 06.07.2020
268 Clouds 25 1012 78 10000 10.3 20 09:57 06.07.2020
269 Clouds 23 1012 73 10000 10.3 10 09:39 06.07.2020
270 Clouds 24 1012 73 10000 10.3 10 09:21 06.07.2020
271 Clouds 24 1011 64 10000 10.3 20 08:42 06.07.2020
272 Clouds 24 1011 64 10000 10.3 20 08:24 06.07.2020
273 Clouds 24 1011 64 10000 10.8 10 07:58 06.07.2020
274 Clouds 24 1011 60 10000 10.8 10 07:40 06.07.2020
275 Clouds 24 1011 60 10000 10.8 10 07:21 06.07.2020
276 Clouds 24 1011 57 10000 10.3 20 06:39 06.07.2020
277 Clear 24 1011 57 10000 10.3 20 06:19 06.07.2020
278 Clear 24 1012 57 10000 9.8 20 05:29 06.07.2020
279 Clear 24 1013 57 10000 10.3 20 04:48 06.07.2020
280 Clear 24 1013 53 10000 12.3 10 03:25 06.07.2020
281 Clouds 24 1014 53 10000 11.3 10 02:21 06.07.2020
282 Clouds 24 1014 57 10000 14.4 10 01:22 06.07.2020
283 Clouds 24 1013 53 10000 13.9 10 00:33 06.07.2020
284 Clouds 25 1013 50 10000 13.4 10 23:59 05.07.2020
285 Clouds 25 1014 54 10000 12.9 10 23:40 05.07.2020
286 Clouds 24 1014 54 10000 12.9 10 23:22 05.07.2020
287 Clouds 24 1013 50 10000 12.3 10 22:58 05.07.2020
288 Clouds 24 1013 57 10000 12.3 10 22:39 05.07.2020
289 Clouds 24 1013 57 10000 12.3 10 22:19 05.07.2020
290 Clouds 24 1013 61 10000 13.4 10 21:57 05.07.2020
291 Clouds 26 1012 57 10000 14.4 20 21:37 05.07.2020
292 Clouds 26 1012 57 10000 14.4 20 21:18 05.07.2020
293 Clouds 27 1012 51 10000 14.4 10 20:55 05.07.2020
294 Clouds 27 1012 54 10000 13.4 10 20:37 05.07.2020
295 Clouds 27 1012 54 10000 13.4 10 20:19 05.07.2020
296 Clouds 28 1013 54 10000 11.8 20 19:41 05.07.2020
297 Clouds 27 1013 54 10000 11.8 20 19:21 05.07.2020
298 Clouds 27 1013 54 10000 12.9 20 18:55 05.07.2020
299 Clouds 28 1013 51 10000 12.3 20 18:37 05.07.2020
300 Clouds 28 1013 45 10000 12.3 10 18:18 05.07.2020
301 Clouds 28 1013 51 10000 13.9 10 17:42 05.07.2020
302 Clouds 28 1013 51 10000 13.9 10 17:19 05.07.2020
303 Clouds 28 1014 51 10000 13.4 20 16:46 05.07.2020
304 Clouds 29 1014 51 10000 13.4 20 16:26 05.07.2020
305 Clouds 28 1014 51 10000 13.4 10 15:59 05.07.2020
306 Clouds 27 1014 57 10000 13.4 30 15:40 05.07.2020
307 Clouds 27 1014 57 10000 13.4 30 15:40 05.07.2020
308 Clouds 27 1014 57 10000 13.4 30 15:20 05.07.2020
309 Clouds 26 1015 57 10000 12.9 30 14:43 05.07.2020
310 Clouds 27 1014 42 10000 11.8 10 14:23 05.07.2020
311 Clouds 28 1014 42 10000 11.8 10 13:59 05.07.2020
312 Clouds 27 1015 57 10000 12.9 20 13:40 05.07.2020
313 Clouds 26 1015 57 10000 12.9 20 13:22 05.07.2020
314 Clouds 25 1015 57 10000 12.9 20 12:45 05.07.2020
315 Clouds 25 1015 57 10000 12.9 20 12:21 05.07.2020
316 Clouds 24 1014 64 10000 13.9 10 11:56 05.07.2020
317 Clouds 23 1015 69 10000 13.4 10 11:38 05.07.2020
318 Clouds 23 1015 69 10000 13.4 10 11:19 05.07.2020
319 Clouds 23 1015 64 10000 11.8 20 10:55 05.07.2020
320 Clouds 22 1015 68 10000 12.3 20 10:36 05.07.2020
321 Clouds 22 1015 68 10000 12.3 20 10:18 05.07.2020
322 Clouds 21 1016 73 10000 10.8 10 09:41 05.07.2020
323 Clouds 21 1016 73 10000 10.8 10 09:20 05.07.2020
324 Clouds 21 1015 73 10000 10.3 10 08:57 05.07.2020
325 Clouds 21 1015 73 10000 12.3 10 08:38 05.07.2020
326 Clouds 21 1015 73 10000 12.3 10 08:18 05.07.2020
327 Clouds 21 1015 73 10000 13.4 10 07:39 05.07.2020
328 Clouds 21 1015 73 10000 13.4 10 07:21 05.07.2020
329 Clouds 21 1015 73 10000 12.9 10 06:30 05.07.2020
330 Clouds 21 1015 73 10000 13.4 360 04:27 05.07.2020
331 Clouds 21 1016 73 10000 14.4 10 03:18 05.07.2020
332 Clouds 22 1017 68 10000 12.9 10 02:40 05.07.2020
333 Clouds 22 1016 68 10000 14.9 10 01:59 05.07.2020
334 Clouds 22 1017 68 10000 13.4 360 01:28 05.07.2020
335 Clouds 22 1016 73 10000 15.4 10 00:51 05.07.2020
336 Clouds 22 1016 68 10000 14.9 10 00:30 05.07.2020
337 Clouds 22 1016 68 10000 14.4 10 23:57 04.07.2020
338 Clouds 22 1016 68 10000 14.9 10 23:33 04.07.2020
339 Clouds 22 1016 68 10000 14.9 10 22:59 04.07.2020
340 Clouds 22 1016 73 10000 14.4 10 22:41 04.07.2020
341 Clouds 22 1016 73 10000 14.4 10 22:23 04.07.2020
342 Clouds 23 1016 69 10000 13.4 360 21:58 04.07.2020
343 Clouds 23 1016 69 10000 14.9 10 21:40 04.07.2020
344 Clouds 24 1016 69 10000 14.9 10 21:22 04.07.2020
345 Clouds 25 1017 64 10000 13.9 10 20:43 04.07.2020
346 Clouds 25 1017 64 10000 13.9 10 20:21 04.07.2020
347 Clouds 25 1017 64 10000 15.4 20 19:57 04.07.2020
348 Clouds 25 1017 64 10000 15.4 10 19:39 04.07.2020
349 Clouds 24 1017 64 10000 15.4 10 19:20 04.07.2020
350 Clouds 25 1017 61 10000 15.4 20 18:44 04.07.2020
351 Clouds 25 1017 61 10000 15.4 20 18:23 04.07.2020
352 Clouds 25 1018 61 10000 16.5 20 17:55 04.07.2020
353 Clouds 25 1018 57 10000 16.5 20 17:37 04.07.2020
354 Clouds 25 1018 57 10000 17 20 17:18 04.07.2020
355 Clouds 25 1018 57 10000 17 20 16:55 04.07.2020
356 Clouds 25 1018 61 10000 15.9 20 16:36 04.07.2020
357 Clouds 26 1018 61 10000 15.9 20 16:18 04.07.2020
358 Clouds 25 1018 57 10000 17.5 20 15:41 04.07.2020
359 Clouds 25 1018 57 10000 17.5 20 15:21 04.07.2020
360 Clouds 25 1019 57 10000 14.9 10 14:57 04.07.2020
361 Clouds 25 1019 61 10000 15.4 10 14:37 04.07.2020
362 Clouds 25 1019 61 10000 15.4 10 14:18 04.07.2020
363 Clouds 25 1019 61 10000 15.4 10 13:42 04.07.2020
364 Clouds 24 1019 64 10000 14.4 10 13:19 04.07.2020
365 Clouds 24 1019 64 10000 14.4 10 12:56 04.07.2020
366 Clouds 24 1019 69 10000 14.4 10 12:38 04.07.2020
367 Clouds 24 1019 69 10000 14.4 10 12:19 04.07.2020
368 Clouds 23 1019 73 10000 14.4 10 11:44 04.07.2020
369 Clouds 23 1019 73 10000 14.4 10 11:23 04.07.2020
370 Clouds 22 1018 73 10000 14.4 10 10:56 04.07.2020
371 Clouds 22 1018 73 10000 13.9 10 10:37 04.07.2020
372 Clouds 22 1018 73 10000 13.9 10 10:19 04.07.2020
373 Clouds 21 1017 77 10000 12.3 10 09:41 04.07.2020
374 Clouds 21 1017 77 10000 12.3 10 09:22 04.07.2020
375 Clouds 21 1017 77 10000 12.9 10 08:58 04.07.2020
376 Clouds 21 1017 77 10000 12.3 360 08:39 04.07.2020
377 Clouds 21 1017 77 10000 12.3 360 08:20 04.07.2020
378 Clouds 21 1017 77 10000 12.3 360 07:40 04.07.2020
379 Clouds 21 1017 77 10000 14.4 360 07:18 04.07.2020
380 Clouds 21 1017 77 10000 12.9 360 06:38 04.07.2020
381 Clouds 21 1017 77 10000 11.8 10 06:18 04.07.2020
382 Clouds 21 1017 77 10000 12.9 10 05:28 04.07.2020
383 Clouds 22 1018 73 10000 13.9 10 04:21 04.07.2020
384 Clouds 22 1019 73 10000 13.9 360 02:41 04.07.2020
385 Clouds 22 1020 73 10000 12.9 360 01:40 04.07.2020
386 Clouds 22 1019 73 10000 13.4 10 00:54 04.07.2020
387 Clouds 22 1019 78 10000 14.4 10 00:36 04.07.2020
388 Clouds 22 1019 73 10000 13.9 10 00:18 04.07.2020
389 Clouds 22 1019 73 10000 14.9 10 23:39 03.07.2020
390 Clouds 23 1019 73 10000 14.9 10 23:18 03.07.2020
391 Clouds 23 1018 69 10000 14.9 10 22:42 03.07.2020
392 Clouds 23 1018 69 10000 14.9 10 22:24 03.07.2020
393 Clouds 23 1018 69 10000 14.4 10 21:59 03.07.2020
394 Clouds 24 1018 64 10000 15.4 10 21:38 03.07.2020
395 Clouds 24 1018 64 10000 15.4 10 21:19 03.07.2020
396 Clouds 26 1017 61 10000 13.9 10 20:43 03.07.2020
397 Clouds 26 1017 61 10000 13.9 10 20:43 03.07.2020
398 Clouds 26 1017 61 10000 13.9 10 20:43 03.07.2020
399 Clouds 26 1017 61 10000 13.9 10 20:42 03.07.2020
400 Clouds 26 1017 61 10000 13.9 10 20:24 03.07.2020
401 Clouds 26 1018 61 10000 15.9 10 19:55 03.07.2020
402 Clouds 26 1018 61 10000 15.9 10 19:55 03.07.2020
403 Clouds 27 1018 61 10000 15.9 10 19:37 03.07.2020
404 Clouds 26 1018 61 10000 13.4 10 19:18 03.07.2020
405 Clouds 27 1018 57 10000 14.9 10 18:42 03.07.2020
406 Clouds 27 1018 57 10000 14.9 10 18:23 03.07.2020
407 Clouds 26 1018 61 10000 15.4 10 17:47 03.07.2020
408 Clouds 26 1018 61 10000 15.4 10 17:24 03.07.2020
409 Clouds 26 1018 61 10000 17 10 16:59 03.07.2020
410 Clouds 26 1019 61 10000 15.9 20 16:39 03.07.2020
411 Clouds 26 1019 61 10000 16.5 10 16:20 03.07.2020
412 Clouds 26 1019 61 10000 15.4 20 15:42 03.07.2020
413 Clouds 26 1019 61 10000 15.4 20 15:22 03.07.2020
414 Clouds 26 1019 57 10000 15.4 20 14:55 03.07.2020
415 Clouds 26 1019 61 10000 14.9 10 14:37 03.07.2020
416 Clouds 26 1019 61 10000 14.9 10 14:18 03.07.2020
417 Clouds 26 1019 61 10000 15.9 10 13:41 03.07.2020
418 Clouds 26 1019 61 10000 15.9 10 13:23 03.07.2020
419 Clouds 25 1019 61 10000 14.9 10 12:45 03.07.2020
420 Clouds 25 1019 61 10000 14.9 10 12:23 03.07.2020
421 Clouds 24 1018 69 10000 13.9 10 11:57 03.07.2020
422 Clouds 24 1018 64 10000 14.4 10 11:39 03.07.2020
423 Clouds 24 1018 64 10000 14.4 10 11:19 03.07.2020
424 Clouds 23 1018 73 10000 13.4 10 10:54 03.07.2020
425 Clouds 23 1018 73 10000 12.9 10 10:36 03.07.2020
426 Clouds 23 1017 78 10000 12.9 360 10:18 03.07.2020
427 Clouds 22 1017 73 10000 13.4 10 09:40 03.07.2020
428 Clouds 22 1017 73 10000 13.4 10 09:22 03.07.2020
429 Clouds 22 1017 78 10000 12.9 10 08:57 03.07.2020
430 Clouds 22 1017 73 10000 11.8 360 08:38 03.07.2020
431 Clouds 22 1017 73 10000 11.8 360 08:18 03.07.2020
432 Clouds 22 1017 78 10000 13.4 10 07:43 03.07.2020
433 Clouds 22 1017 78 10000 13.4 10 07:22 03.07.2020
434 Clouds 22 1016 73 10000 12.9 360 06:37 03.07.2020
435 Clouds 22 1017 78 10000 12.9 10 05:53 03.07.2020
436 Clouds 22 1018 78 10000 12.3 10 03:59 03.07.2020
437 Clouds 22 1018 78 10000 12.3 10 02:56 03.07.2020
438 Clouds 22 1018 73 10000 12.3 360 02:31 03.07.2020
439 Clouds 22 1019 78 10000 11.8 360 01:41 03.07.2020
440 Clouds 22 1019 78 10000 11.8 360 01:20 03.07.2020
441 Clouds 23 1018 73 10000 12.9 10 00:41 03.07.2020
442 Clouds 23 1018 73 10000 13.4 10 23:58 02.07.2020
443 Clouds 23 1018 69 10000 14.4 10 23:39 02.07.2020
444 Clouds 23 1018 69 10000 14.4 10 23:19 02.07.2020
445 Clouds 22 1017 78 10000 15.4 10 22:55 02.07.2020
446 Clouds 23 1017 73 10000 14.4 10 22:37 02.07.2020
447 Clouds 23 1017 73 10000 14.4 10 22:19 02.07.2020
448 Clouds 23 1017 69 10000 14.9 10 21:42 02.07.2020
449 Clouds 23 1017 69 10000 14.9 10 21:20 02.07.2020
450 Clouds 24 1017 69 10000 15.9 10 20:59 02.07.2020
451 Clouds 24 1017 69 10000 14.4 10 20:41 02.07.2020
452 Clouds 24 1017 69 10000 14.4 10 20:20 02.07.2020
453 Clouds 25 1017 69 10000 14.9 10 19:45 02.07.2020
454 Clouds 25 1017 69 10000 14.9 10 19:26 02.07.2020
455 Clouds 25 1017 65 10000 13.9 360 18:59 02.07.2020
456 Clouds 25 1017 65 10000 15.4 10 18:41 02.07.2020
457 Clouds 25 1017 65 10000 15.4 10 18:41 02.07.2020
458 Clouds 25 1017 65 10000 15.4 10 18:22 02.07.2020
459 Clouds 26 1017 61 10000 13.4 10 17:58 02.07.2020
460 Clouds 25 1017 65 10000 14.9 10 17:39 02.07.2020
461 Clouds 25 1017 65 10000 14.9 10 17:18 02.07.2020
462 Clouds 25 1018 65 10000 13.9 20 16:43 02.07.2020
463 Clouds 25 1018 65 10000 13.9 20 16:21 02.07.2020
464 Clouds 24 1018 69 10000 14.9 20 15:59 02.07.2020
465 Clouds 25 1017 65 10000 15.4 10 15:38 02.07.2020
466 Clouds 25 1017 65 10000 15.4 10 15:20 02.07.2020
467 Clouds 24 1017 69 10000 16.5 10 14:46 02.07.2020
468 Clouds 24 1017 69 10000 16.5 10 14:23 02.07.2020
469 Clouds 24 1020 69 10000 12.9 20 13:57 02.07.2020
470 Clouds 24 1020 69 10000 12.9 20 13:57 02.07.2020
471 Clouds 24 1019 69 10000 14.4 30 13:39 02.07.2020
472 Clouds 24 1019 69 10000 14.4 30 13:19 02.07.2020
473 Clouds 24 1019 69 10000 13.4 10 12:56 02.07.2020
474 Clouds 24 1018 69 10000 12.9 10 12:38 02.07.2020
475 Clouds 24 1018 69 10000 12.9 10 12:38 02.07.2020
476 Clouds 24 1018 69 10000 12.9 10 12:19 02.07.2020
477 Clouds 23 1018 69 10000 11.8 10 11:41 02.07.2020
478 Clouds 23 1018 69 10000 11.8 10 11:23 02.07.2020
479 Clouds 22 1019 73 10000 8.7 10 10:45 02.07.2020
480 Clouds 22 1019 73 10000 8.7 10 10:27 02.07.2020
481 Clouds 22 1017 73 10000 13.4 10 09:56 02.07.2020
482 Clouds 22 1015 73 10000 15.9 10 09:37 02.07.2020
483 Clouds 22 1015 73 10000 15.9 10 09:19 02.07.2020
484 Clouds 22 1015 73 10000 14.4 10 08:42 02.07.2020
485 Clouds 22 1015 73 10000 14.4 10 08:22 02.07.2020
486 Clouds 21 1015 88 10000 12.9 10 07:45 02.07.2020
487 Clouds 21 1015 88 10000 12.9 10 07:27 02.07.2020
488 Rain 21 1016 88 10000 12.9 10 06:58 02.07.2020
489 Clouds 22 1015 78 10000 11.8 360 06:39 02.07.2020
490 Clouds 22 1015 78 10000 11.8 360 06:19 02.07.2020
491 Clouds 21 1016 88 10000 13.4 20 05:42 02.07.2020
492 Clouds 22 1017 78 10000 11.8 10 03:35 02.07.2020
493 Clouds 22 1016 78 10000 13.9 10 02:38 02.07.2020
494 Clouds 22 1016 73 10000 11.8 10 00:46 02.07.2020
495 Clouds 22 1016 73 10000 11.8 10 00:22 02.07.2020
496 Clouds 22 1015 73 10000 13.4 10 23:45 01.07.2020
497 Clouds 22 1015 73 10000 13.4 10 23:27 01.07.2020
498 Clouds 23 1016 73 10000 12.9 10 22:56 01.07.2020
499 Clouds 23 1015 73 10000 11.8 10 22:38 01.07.2020
500 Clouds 23 1015 73 10000 11.8 10 22:19 01.07.2020
501 Clouds 23 1015 73 10000 13.9 10 21:58 01.07.2020
502 Clouds 23 1015 73 10000 13.4 10 21:40 01.07.2020
503 Clouds 23 1015 73 10000 13.4 10 21:21 01.07.2020
504 Clouds 24 1015 69 10000 12.3 10 20:54 01.07.2020
505 Clouds 24 1015 69 10000 12.9 10 20:36 01.07.2020
506 Clouds 24 1015 69 10000 12.9 10 20:18 01.07.2020
507 Clouds 24 1015 65 10000 14.4 20 19:42 01.07.2020
508 Clouds 25 1015 65 10000 14.4 20 19:23 01.07.2020
509 Clouds 25 1015 65 10000 13.9 30 18:59 01.07.2020
510 Clouds 25 1015 65 10000 14.4 30 18:40 01.07.2020
511 Clouds 25 1015 65 10000 14.4 30 18:21 01.07.2020
512 Clouds 25 1015 61 10000 14.9 30 17:55 01.07.2020
513 Clouds 25 1015 61 10000 15.4 20 17:37 01.07.2020
514 Clouds 25 1015 61 10000 15.4 20 17:18 01.07.2020
515 Clouds 25 1014 57 10000 15.4 20 16:42 01.07.2020
516 Clouds 25 1014 57 10000 15.4 20 16:24 01.07.2020
517 Clouds 26 1015 61 10000 15.4 20 15:43 01.07.2020
518 Clouds 25 1015 61 10000 15.4 20 15:25 01.07.2020
519 Clouds 25 1015 61 10000 14.4 20 14:58 01.07.2020
520 Clouds 25 1016 61 10000 13.4 20 14:39 01.07.2020
521 Clouds 26 1016 61 10000 13.4 20 14:20 01.07.2020
522 Clouds 25 1016 65 10000 13.9 30 13:55 01.07.2020
523 Clouds 25 1016 65 10000 13.4 20 13:37 01.07.2020
524 Clouds 25 1016 65 10000 13.4 20 13:18 01.07.2020
525 Clouds 24 1016 64 10000 11.3 10 12:41 01.07.2020
526 Clouds 24 1016 64 10000 11.3 10 12:23 01.07.2020
527 Clouds 24 1016 64 10000 11.8 10 11:59 01.07.2020
528 Clouds 23 1015 69 10000 10.8 10 11:40 01.07.2020
529 Clouds 23 1015 69 10000 10.8 10 11:21 01.07.2020
530 Clouds 23 1016 73 10000 10.8 10 10:56 01.07.2020
531 Clouds 22 1015 73 10000 9.8 10 10:38 01.07.2020
532 Clouds 22 1015 73 10000 9.8 10 10:20 01.07.2020
533 Clouds 22 1015 73 10000 9.8 20 09:38 01.07.2020
534 Clouds 22 1015 73 10000 9.8 20 09:20 01.07.2020
535 Clouds 21 1015 73 10000 9.8 10 08:57 01.07.2020
536 Clouds 21 1015 78 10000 9.8 10 08:39 01.07.2020
537 Clouds 21 1015 78 10000 9.8 10 08:19 01.07.2020
538 Clouds 21 1014 73 10000 10.3 10 07:41 01.07.2020
539 Clouds 21 1014 73 10000 10.3 10 07:23 01.07.2020
540 Clouds 22 1014 73 10000 10.8 20 06:55 01.07.2020
541 Clouds 22 1014 73 10000 9.8 10 06:32 01.07.2020
542 Clouds 22 1014 73 10000 9.8 20 05:46 01.07.2020
543 Clouds 22 1014 73 10000 10.3 360 04:29 01.07.2020
544 Clouds 22 1015 73 10000 9.8 360 03:41 01.07.2020
545 Clouds 22 1015 73 10000 9.8 360 03:21 01.07.2020
546 Clouds 22 1015 73 10000 11.8 10 01:56 01.07.2020
547 Clouds 22 1015 73 10000 11.3 20 00:48 01.07.2020
548 Clouds 22 1015 73 10000 8.2 10 00:28 01.07.2020
549 Clouds 22 1015 73 10000 10.8 20 23:59 30.06.2020
550 Clouds 22 1015 73 10000 10.8 10 23:39 30.06.2020
551 Clouds 22 1015 73 10000 10.8 10 23:19 30.06.2020
552 Clouds 23 1014 69 10000 12.3 20 22:42 30.06.2020
553 Clouds 23 1014 69 10000 12.3 20 22:19 30.06.2020
554 Clouds 24 1014 64 10000 11.3 20 21:43 30.06.2020
555 Clouds 24 1014 64 10000 11.3 20 21:19 30.06.2020
556 Clouds 24 1014 69 10000 12.3 20 20:59 30.06.2020
557 Clouds 24 1014 64 10000 12.3 20 20:40 30.06.2020
558 Clouds 24 1014 64 10000 12.3 20 20:20 30.06.2020
559 Clouds 25 1014 61 10000 12.3 30 19:43 30.06.2020
560 Clouds 25 1014 61 10000 12.3 30 19:20 30.06.2020
561 Clouds 25 1014 65 10000 13.4 30 18:55 30.06.2020
562 Clouds 25 1014 65 10000 13.4 30 18:36 30.06.2020
563 Clouds 26 1014 69 10000 13.9 30 18:18 30.06.2020
564 Clouds 27 1014 57 10000 13.9 20 17:39 30.06.2020
565 Clouds 27 1014 57 10000 13.9 20 17:20 30.06.2020
566 Clouds 26 1014 61 10000 13.9 30 16:56 30.06.2020
567 Clouds 26 1014 61 10000 13.9 30 16:37 30.06.2020
568 Clouds 26 1014 61 10000 13.9 30 16:19 30.06.2020
569 Clouds 26 1015 61 10000 13.4 20 15:42 30.06.2020
570 Clouds 25 1015 61 10000 13.4 20 15:23 30.06.2020
571 Clouds 25 1015 65 10000 13.9 30 14:58 30.06.2020
572 Clouds 25 1015 65 10000 13.9 30 14:40 30.06.2020
573 Clouds 25 1015 65 10000 13.9 30 14:21 30.06.2020
574 Clouds 25 1015 65 10000 12.9 20 13:42 30.06.2020
575 Clouds 24 1015 65 10000 12.9 20 13:21 30.06.2020
576 Clouds 25 1015 69 10000 12.9 20 12:59 30.06.2020
577 Clouds 25 1015 65 10000 12.9 10 12:41 30.06.2020
578 Clouds 25 1015 65 10000 12.9 10 12:23 30.06.2020
579 Clouds 24 1015 73 10000 12.9 20 11:59 30.06.2020
580 Clouds 23 1015 64 10000 12.3 10 11:39 30.06.2020
581 Clouds 23 1015 64 10000 12.3 10 11:20 30.06.2020
582 Clouds 23 1015 64 10000 12.3 10 11:20 30.06.2020
583 Clouds 23 1015 69 10000 11.8 10 10:59 30.06.2020
584 Clouds 25 1018 65 10000 14.4 20 16:44 28.06.2020
585 Clouds 25 1018 65 10000 14.4 20 16:26 28.06.2020
586 Clouds 26 1018 57 10000 13.9 20 15:57 28.06.2020
587 Clouds 26 1019 61 10000 13.4 20 15:38 28.06.2020
588 Clouds 26 1019 61 10000 13.4 20 15:19 28.06.2020
589 Clouds 26 1019 65 10000 14.4 30 14:46 28.06.2020
590 Clouds 25 1019 65 10000 14.4 30 14:28 28.06.2020
591 Clouds 25 1019 61 10000 12.9 10 13:58 28.06.2020
592 Clouds 25 1019 69 10000 13.9 20 13:38 28.06.2020
593 Clouds 25 1019 69 10000 13.9 20 13:19 28.06.2020
594 Clouds 24 1019 61 10000 11.3 10 12:56 28.06.2020
595 Clouds 23 1019 73 10000 12.9 20 12:37 28.06.2020
596 Clouds 23 1019 73 10000 12.9 20 12:19 28.06.2020
597 Clouds 23 1019 69 10000 13.9 20 11:56 28.06.2020
598 Clouds 23 1019 64 10000 12.3 10 11:37 28.06.2020
599 Clouds 23 1019 64 10000 12.3 10 11:19 28.06.2020
600 Clouds 23 1019 64 10000 11.8 10 10:55 28.06.2020
601 Clouds 23 1018 64 10000 12.3 10 10:36 28.06.2020
602 Clouds 23 1018 64 10000 12.3 10 10:18 28.06.2020
603 Clouds 22 1018 68 10000 11.8 10 09:39 28.06.2020
604 Clouds 22 1018 68 10000 11.8 10 09:20 28.06.2020
605 Clouds 21 1018 64 10000 11.3 360 08:47 28.06.2020
606 Clouds 21 1018 64 10000 11.3 360 08:25 28.06.2020
607 Clouds 21 1018 68 10000 12.3 10 07:47 28.06.2020
608 Clouds 21 1018 68 10000 12.3 10 07:47 28.06.2020
609 Clouds 21 1017 68 10000 11.8 10 07:28 28.06.2020
610 Clouds 21 1017 68 10000 12.3 10 06:41 28.06.2020
611 Clouds 21 1017 68 10000 12.3 10 06:22 28.06.2020
612 Clouds 21 1018 68 10000 11.3 10 05:26 28.06.2020
613 Clouds 22 1018 64 10000 10.3 10 03:32 28.06.2020
614 Clouds 22 1019 64 10000 10.3 10 02:39 28.06.2020
615 Clouds 22 1019 64 10000 10.8 360 01:52 28.06.2020
616 Clouds 22 1019 68 10000 12.9 10 01:25 28.06.2020
617 Clouds 22 1019 68 10000 11.3 10 00:44 28.06.2020
618 Clouds 22 1019 68 10000 11.3 10 00:24 28.06.2020
619 Clouds 23 1018 60 10000 12.9 10 23:41 27.06.2020
620 Clouds 23 1018 60 10000 12.9 10 23:22 27.06.2020
621 Clouds 23 1018 64 10000 12.3 10 22:58 27.06.2020
622 Clouds 23 1018 64 10000 12.9 20 22:39 27.06.2020
623 Clouds 23 1018 64 10000 12.9 20 22:19 27.06.2020
624 Clouds 23 1018 60 10000 12.9 10 21:43 27.06.2020
625 Clouds 24 1017 57 10000 13.4 20 21:21 27.06.2020
626 Clouds 24 1017 57 10000 13.4 20 20:57 27.06.2020
627 Clouds 24 1017 57 10000 13.4 20 20:57 27.06.2020
628 Clouds 24 1018 57 10000 14.4 10 20:37 27.06.2020
629 Clouds 24 1018 57 10000 14.4 10 20:18 27.06.2020
630 Clouds 24 1018 60 10000 14.4 20 19:54 27.06.2020
631 Clouds 24 1017 57 10000 14.4 20 19:36 27.06.2020
632 Clouds 25 1017 57 10000 13.9 10 19:18 27.06.2020
633 Clouds 25 1017 53 10000 14.9 20 18:43 27.06.2020
634 Clouds 25 1017 53 10000 14.9 20 18:22 27.06.2020
635 Clouds 25 1018 53 10000 14.9 20 17:54 27.06.2020
636 Clouds 25 1018 53 10000 15.4 20 17:36 27.06.2020
637 Clouds 25 1018 53 10000 15.4 20 17:18 27.06.2020
638 Clouds 25 1018 57 10000 14.9 20 16:41 27.06.2020
639 Clouds 25 1018 57 10000 14.9 20 16:23 27.06.2020
640 Clouds 25 1018 53 10000 14.4 20 15:46 27.06.2020
641 Clouds 25 1018 53 10000 14.4 20 15:24 27.06.2020
642 Clouds 25 1018 53 10000 14.4 20 15:24 27.06.2020
643 Clouds 25 1019 53 10000 14.9 20 14:59 27.06.2020
644 Clouds 25 1019 57 10000 12.9 10 14:40 27.06.2020
645 Clouds 25 1019 57 10000 12.9 10 14:21 27.06.2020
646 Clouds 24 1019 57 10000 13.4 20 13:55 27.06.2020
647 Clouds 24 1019 57 10000 12.9 20 13:37 27.06.2020
648 Clouds 23 1019 56 10000 12.3 10 13:19 27.06.2020
649 Clouds 24 1019 60 10000 12.3 10 12:41 27.06.2020
650 Clouds 23 1019 56 10000 12.3 10 12:22 27.06.2020
651 Clouds 23 1019 56 10000 12.3 10 11:59 27.06.2020
652 Clouds 22 1019 60 10000 10.8 10 11:40 27.06.2020
653 Clouds 22 1019 60 10000 10.8 10 11:40 27.06.2020
654 Clouds 22 1019 60 10000 10.8 10 11:22 27.06.2020
655 Clouds 22 1019 60 10000 10.8 10 11:22 27.06.2020
656 Clouds 22 1018 60 10000 11.3 10 10:42 27.06.2020
657 Clouds 22 1018 60 10000 11.3 10 10:20 27.06.2020
658 Clouds 22 1018 60 10000 10.8 10 09:59 27.06.2020
659 Clouds 21 1018 64 10000 12.3 10 09:39 27.06.2020
660 Clouds 21 1018 64 10000 12.3 10 09:21 27.06.2020
661 Clouds 20 1018 64 10000 10.3 360 08:44 27.06.2020
662 Clouds 20 1018 64 10000 10.3 360 08:23 27.06.2020
663 Clouds 20 1018 64 10000 10.3 360 07:48 27.06.2020
664 Clouds 20 1017 64 10000 11.8 360 07:27 27.06.2020
665 Clouds 20 1017 68 10000 13.4 10 06:53 27.06.2020
666 Clouds 21 1017 64 10000 10.8 10 06:33 27.06.2020
667 Clouds 21 1018 64 10000 11.8 10 04:55 27.06.2020
668 Clouds 21 1018 64 10000 10.8 10 04:18 27.06.2020
669 Clouds 21 1018 64 10000 10.8 10 03:51 27.06.2020
670 Clouds 22 1019 64 10000 10.8 360 02:43 27.06.2020
671 Clouds 22 1019 64 10000 10.8 360 02:24 27.06.2020
672 Clouds 22 1019 68 10000 11.3 10 01:34 27.06.2020
673 Clouds 22 1018 68 10000 10.3 360 00:47 27.06.2020
674 Clouds 22 1018 68 10000 10.3 10 23:48 26.06.2020
675 Clouds 22 1018 68 10000 11.3 10 23:29 26.06.2020
676 Clouds 22 1018 68 10000 12.3 20 22:59 26.06.2020
677 Clouds 22 1018 68 10000 12.3 10 22:41 26.06.2020
678 Clouds 22 1018 68 10000 12.3 10 22:23 26.06.2020
679 Clouds 23 1018 69 10000 12.9 10 21:58 26.06.2020
680 Clouds 23 1018 69 10000 12.9 10 21:58 26.06.2020
681 Clouds 24 1018 64 10000 11.8 10 21:39 26.06.2020
682 Clouds 24 1018 64 10000 11.8 10 21:21 26.06.2020
683 Clouds 24 1018 64 10000 11.8 10 21:21 26.06.2020
684 Clouds 24 1018 64 10000 12.3 10 20:57 26.06.2020
685 Clouds 25 1018 64 10000 12.9 10 20:37 26.06.2020
686 Clouds 25 1018 64 10000 12.9 10 20:18 26.06.2020
687 Clouds 25 1018 61 10000 13.9 20 19:40 26.06.2020
688 Clouds 25 1018 61 10000 13.4 10 19:20 26.06.2020
689 Clouds 25 1018 61 10000 14.4 10 18:42 26.06.2020
690 Clouds 25 1018 61 10000 14.4 10 18:23 26.06.2020
691 Clouds 27 1018 51 10000 13.4 360 17:46 26.06.2020
692 Clouds 27 1018 51 10000 13.4 360 17:28 26.06.2020
693 Clouds 26 1018 57 10000 13.4 20 16:59 26.06.2020
694 Clouds 26 1019 54 10000 13.9 20 16:41 26.06.2020
695 Clouds 26 1019 54 10000 13.9 20 16:22 26.06.2020
696 Clouds 25 1019 54 10000 13.9 20 15:41 26.06.2020
697 Clouds 25 1019 54 10000 13.9 20 15:22 26.06.2020
698 Clouds 25 1019 61 10000 13.4 10 14:58 26.06.2020
699 Clouds 25 1019 65 10000 13.4 20 14:39 26.06.2020
700 Clouds 25 1019 65 10000 13.4 20 14:21 26.06.2020
701 Clouds 25 1019 53 10000 12.9 10 13:46 26.06.2020
702 Clouds 25 1019 53 10000 12.9 10 13:24 26.06.2020
703 Clouds 25 1019 53 10000 13.4 20 12:57 26.06.2020
704 Clouds 24 1018 53 10000 13.9 10 12:38 26.06.2020
705 Clouds 24 1018 53 10000 13.4 10 12:19 26.06.2020
706 Clouds 23 1018 53 10000 13.4 10 11:56 26.06.2020
707 Clouds 23 1018 60 10000 12.3 10 11:38 26.06.2020
708 Clouds 23 1018 56 10000 12.9 10 11:19 26.06.2020
709 Clouds 23 1018 56 10000 12.9 10 10:56 26.06.2020
710 Clouds 22 1018 60 10000 10.8 360 10:37 26.06.2020
711 Clouds 22 1018 60 10000 11.8 10 10:18 26.06.2020
712 Clouds 22 1018 60 10000 11.8 10 10:18 26.06.2020
713 Clouds 22 1018 60 10000 11.3 10 09:42 26.06.2020
714 Clouds 22 1018 60 10000 11.3 10 09:22 26.06.2020
715 Clouds 20 1018 68 10000 11.3 20 08:49 26.06.2020
716 Clouds 21 1018 64 10000 10.8 10 08:28 26.06.2020
717 Clouds 21 1018 73 10000 10.8 360 07:49 26.06.2020
718 Clouds 21 1018 73 10000 11.8 360 07:24 26.06.2020
719 Clouds 21 1018 68 10000 9.3 360 06:57 26.06.2020
720 Clouds 21 1017 68 10000 9.3 360 06:35 26.06.2020
721 Clouds 21 1018 68 10000 10.8 360 05:57 26.06.2020
722 Clouds 20 1018 68 10000 10.3 10 05:30 26.06.2020
723 Clouds 20 1019 73 10000 11.3 10 02:41 26.06.2020
724 Clouds 20 1019 73 10000 11.3 10 02:21 26.06.2020
725 Clouds 21 1019 73 10000 10.3 360 00:55 26.06.2020
726 Clouds 23 1019 64 10000 10.3 350 00:32 26.06.2020
727 Clouds 21 1019 64 10000 10.3 360 23:48 25.06.2020
728 Clouds 23 1019 64 10000 10.3 360 23:23 25.06.2020
729 Clouds 22 1019 73 10000 10.8 20 22:58 25.06.2020
730 Clouds 23 1018 69 10000 11.3 20 22:39 25.06.2020
731 Clouds 23 1018 69 10000 11.3 20 22:20 25.06.2020
732 Clouds 22 1018 69 10000 11.8 10 21:58 25.06.2020
733 Clouds 22 1018 60 10000 10.3 360 21:39 25.06.2020
734 Clouds 24 1018 60 10000 10.3 360 21:21 25.06.2020
735 Clouds 23 1018 60 10000 12.3 20 20:57 25.06.2020
736 Clouds 25 1018 64 10000 12.9 20 20:39 25.06.2020
737 Clouds 25 1018 64 10000 12.9 20 20:21 25.06.2020
738 Clouds 25 1018 61 10000 14.4 20 19:41 25.06.2020
739 Clouds 25 1018 54 10000 14.9 20 19:21 25.06.2020
740 Clouds 25 1018 54 10000 15.4 20 19:00 25.06.2020
741 Clouds 25 1018 54 10000 15.4 20 18:59 25.06.2020
742 Clouds 25 1018 54 10000 15.4 20 18:39 25.06.2020
743 Clouds 25 1018 54 10000 15.4 20 18:20 25.06.2020
744 Clouds 25 1018 57 10000 14.9 20 17:45 25.06.2020
745 Clouds 25 1018 54 10000 14.9 20 17:20 25.06.2020
746 Clouds 26 1018 54 10000 14.9 20 16:58 25.06.2020
747 Clouds 27 1018 51 10000 15.9 30 16:38 25.06.2020
748 Clouds 27 1018 51 10000 15.9 30 16:19 25.06.2020
749 Clouds 26 1018 54 10000 13.4 10 15:43 25.06.2020
750 Clouds 26 1018 54 10000 13.4 10 15:25 25.06.2020
751 Clouds 25 1018 54 10000 13.9 20 14:55 25.06.2020
752 Clouds 25 1019 57 10000 12.3 20 14:37 25.06.2020
753 Clouds 25 1019 53 10000 12.9 10 14:18 25.06.2020
754 Clouds 25 1019 57 10000 14.4 20 13:42 25.06.2020
755 Clouds 25 1019 57 10000 14.4 20 13:20 25.06.2020
756 Clouds 25 1019 53 10000 12.9 20 12:58 25.06.2020
757 Clouds 24 1019 57 10000 12.3 10 12:40 25.06.2020
758 Clouds 24 1019 64 10000 11.3 10 12:19 25.06.2020
759 Clouds 23 1018 60 10000 11.3 10 11:42 25.06.2020
760 Clouds 23 1018 60 10000 11.3 10 11:22 25.06.2020
761 Clouds 23 1018 60 10000 10.8 10 10:44 25.06.2020
762 Clouds 23 1018 60 10000 10.8 10 10:26 25.06.2020
763 Clouds 22 1018 68 10000 11.8 10 09:58 25.06.2020
764 Clouds 22 1018 68 10000 9.8 360 09:40 25.06.2020
765 Clouds 22 1018 68 10000 9.8 360 09:19 25.06.2020
766 Clouds 21 1017 68 10000 9.3 360 08:43 25.06.2020
767 Clouds 21 1017 60 10000 8.2 360 08:19 25.06.2020
768 Clouds 21 1017 64 10000 9.8 360 07:44 25.06.2020
769 Clouds 21 1017 64 10000 9.8 360 07:26 25.06.2020
770 Clouds 21 1017 64 10000 9.8 360 07:26 25.06.2020
771 Clouds 21 1017 68 10000 9.8 10 06:46 25.06.2020
772 Clouds 21 1017 68 10000 9.8 10 06:26 25.06.2020
773 Clouds 21 1017 68 10000 9.8 10 05:51 25.06.2020
774 Clouds 22 1018 60 10000 9.8 360 03:56 25.06.2020
775 Clouds 22 1018 64 10000 10.8 10 03:26 25.06.2020
776 Clouds 22 1018 73 10000 11.3 10 02:41 25.06.2020
777 Clouds 22 1018 68 10000 10.8 10 01:46 25.06.2020
778 Clouds 22 1018 68 10000 11.3 10 01:19 25.06.2020
779 Clouds 22 1018 68 10000 11.3 10 01:19 25.06.2020
780 Clouds 22 1018 64 10000 9.8 360 00:40 25.06.2020
781 Clouds 23 1018 64 10000 9.8 360 00:18 25.06.2020
782 Clouds 23 1017 69 10000 10.8 360 23:42 24.06.2020
783 Clouds 23 1017 69 10000 10.8 360 23:42 24.06.2020
784 Clouds 23 1017 69 10000 10.8 360 23:23 24.06.2020
785 Clouds 23 1017 64 10000 11.8 10 22:57 24.06.2020
786 Clouds 23 1017 69 10000 11.3 10 22:37 24.06.2020
787 Clouds 23 1017 69 10000 11.3 10 22:19 24.06.2020
788 Clouds 23 1017 64 10000 11.8 360 21:55 24.06.2020
789 Clouds 24 1016 60 10000 12.3 10 21:36 24.06.2020
790 Clouds 24 1016 60 10000 12.3 10 21:18 24.06.2020
791 Clouds 25 1016 53 10000 11.3 10 20:56 24.06.2020
792 Clouds 24 1016 57 10000 13.9 20 20:37 24.06.2020
793 Clouds 25 1016 57 10000 13.9 20 20:19 24.06.2020
794 Clouds 24 1017 61 10000 12.9 20 19:55 24.06.2020
795 Clouds 25 1017 57 10000 11.3 20 19:36 24.06.2020
796 Clouds 25 1017 61 10000 11.8 20 19:18 24.06.2020
797 Clouds 25 1017 61 10000 11.8 20 18:56 24.06.2020
798 Clouds 25 1017 57 10000 12.9 20 18:37 24.06.2020
799 Clouds 25 1017 57 10000 12.9 20 18:18 24.06.2020
800 Clouds 25 1018 54 10000 13.4 10 17:41 24.06.2020
801 Clouds 25 1018 54 10000 13.4 10 17:41 24.06.2020
802 Clouds 25 1018 54 10000 13.4 10 17:19 24.06.2020
803 Clouds 26 1018 61 10000 12.9 20 16:56 24.06.2020
804 Clouds 26 1018 61 10000 12.9 20 16:56 24.06.2020
805 Clouds 25 1018 61 10000 12.3 10 16:38 24.06.2020
806 Clouds 25 1018 61 10000 12.3 10 16:20 24.06.2020
807 Clouds 24 1018 60 10000 11.8 10 15:56 24.06.2020
808 Clouds 25 1018 61 10000 13.9 30 15:38 24.06.2020
809 Clouds 25 1018 61 10000 13.9 30 15:19 24.06.2020
810 Clouds 25 1017 54 10000 14.4 20 14:43 24.06.2020
811 Clouds 25 1017 54 10000 14.4 20 14:24 24.06.2020
812 Clouds 25 1017 57 10000 14.4 20 13:43 24.06.2020
813 Clouds 25 1017 57 10000 14.4 20 13:23 24.06.2020
814 Clouds 24 1017 60 10000 12.9 360 12:59 24.06.2020
815 Clouds 24 1017 57 10000 11.8 350 12:41 24.06.2020
816 Clouds 24 1017 57 10000 11.8 350 12:20 24.06.2020
817 Clouds 24 1017 57 10000 14.4 10 11:56 24.06.2020
818 Clouds 23 1017 60 10000 12.3 10 11:38 24.06.2020
819 Clouds 23 1017 60 10000 12.3 10 11:18 24.06.2020
820 Clouds 22 1016 64 10000 10.8 360 10:43 24.06.2020
821 Clouds 22 1016 64 10000 10.8 360 10:19 24.06.2020
822 Clouds 22 1016 68 10000 9.8 10 09:43 24.06.2020
823 Clouds 22 1016 68 10000 9.8 10 09:22 24.06.2020
824 Clouds 21 1016 68 10000 11.3 10 08:43 24.06.2020
825 Clouds 21 1016 68 10000 11.3 10 08:21 24.06.2020
826 Clouds 21 1016 64 10000 9.8 360 07:51 24.06.2020
827 Clouds 21 1016 64 10000 9.8 10 07:32 24.06.2020
828 Clouds 21 1016 68 10000 9.8 10 06:51 24.06.2020
829 Clouds 21 1015 68 10000 9.8 360 06:26 24.06.2020
830 Clouds 21 1016 64 10000 10.3 10 05:58 24.06.2020
831 Clouds 21 1016 68 10000 9.8 360 05:20 24.06.2020
832 Clouds 21 1017 64 10000 10.3 10 04:35 24.06.2020
833 Clouds 22 1017 64 10000 9.8 360 03:35 24.06.2020
834 Clouds 22 1017 68 10000 8.7 360 02:51 24.06.2020
835 Clouds 22 1017 68 10000 9.8 10 01:45 24.06.2020
836 Clouds 22 1017 68 10000 11.8 10 00:48 24.06.2020
837 Clouds 22 1017 68 10000 11.8 10 00:27 24.06.2020
838 Clouds 22 1017 68 10000 11.8 10 00:27 24.06.2020
839 Clouds 23 1017 64 10000 10.3 10 23:46 23.06.2020
840 Clouds 23 1017 64 10000 10.3 10 23:20 23.06.2020
841 Clouds 23 1017 64 10000 11.3 20 22:54 23.06.2020
842 Clouds 23 1017 64 10000 11.3 10 22:36 23.06.2020
843 Clouds 23 1017 69 10000 11.8 20 22:18 23.06.2020
844 Clouds 24 1016 60 10000 12.3 20 21:41 23.06.2020
845 Clouds 24 1016 60 10000 12.3 20 21:20 23.06.2020
846 Clouds 24 1016 60 10000 12.3 20 21:20 23.06.2020
847 Clouds 24 1016 60 10000 12.3 10 20:56 23.06.2020
848 Clouds 24 1016 60 10000 12.3 10 20:56 23.06.2020
849 Clouds 24 1016 64 10000 12.9 20 20:37 23.06.2020
850 Clouds 25 1016 61 10000 13.4 20 20:19 23.06.2020
851 Clouds 25 1016 61 10000 13.4 20 19:49 23.06.2020
852 Clouds 25 1016 57 10000 12.3 10 19:28 23.06.2020
853 Clouds 25 1016 61 10000 14.4 20 18:42 23.06.2020
854 Clouds 25 1016 61 10000 14.4 20 18:19 23.06.2020
855 Clouds 25 1016 61 10000 14.4 20 18:19 23.06.2020
856 Clouds 26 1016 57 10000 14.9 30 17:59 23.06.2020
857 Clouds 26 1015 57 10000 15.4 20 17:39 23.06.2020
858 Clouds 25 1015 57 10000 15.4 20 17:20 23.06.2020
859 Clouds 26 1016 54 10000 16.5 20 16:56 23.06.2020
860 Clouds 25 1016 57 10000 15.9 30 16:37 23.06.2020
861 Clouds 25 1016 57 10000 15.4 20 16:18 23.06.2020
862 Clouds 26 1016 57 10000 15.9 30 16:18 23.06.2020
863 Clouds 26 1016 61 10000 13.9 10 15:45 23.06.2020
864 Clouds 26 1016 61 10000 13.9 10 15:25 23.06.2020
865 Clouds 26 1016 57 10000 13.9 20 14:58 23.06.2020
866 Clouds 26 1017 57 10000 13.9 10 14:40 23.06.2020
867 Clouds 26 1017 54 10000 14.4 20 14:18 23.06.2020
868 Clouds 25 1017 54 10000 14.4 20 13:55 23.06.2020
869 Clouds 25 1017 54 10000 13.9 10 13:37 23.06.2020
870 Clouds 25 1017 57 10000 13.9 10 13:18 23.06.2020
871 Clouds 24 1017 57 10000 11.3 10 12:40 23.06.2020
872 Clouds 24 1017 57 10000 11.3 10 12:22 23.06.2020
873 Clouds 24 1017 60 10000 11.3 360 11:44 23.06.2020
874 Clouds 24 1017 60 10000 11.3 360 11:23 23.06.2020
875 Clouds 23 1017 60 10000 10.8 360 10:59 23.06.2020
876 Clouds 23 1017 64 10000 10.8 10 10:41 23.06.2020
877 Clouds 23 1017 64 10000 10.8 10 10:41 23.06.2020
878 Clouds 23 1017 64 10000 10.8 10 10:22 23.06.2020
879 Clouds 22 1017 68 10000 11.3 10 09:59 23.06.2020
880 Clouds 22 1016 68 10000 9.8 10 09:41 23.06.2020
881 Clouds 22 1016 68 10000 9.8 10 09:20 23.06.2020
882 Clouds 20 1016 68 10000 9.8 360 08:47 23.06.2020
883 Clouds 21 1016 68 10000 10.8 10 08:27 23.06.2020
884 Clouds 21 1016 68 10000 10.8 10 07:56 23.06.2020
885 Clouds 21 1016 68 10000 9.3 10 07:38 23.06.2020
886 Clouds 21 1016 64 10000 9.8 360 07:19 23.06.2020
887 Clouds 21 1016 64 10000 9.8 360 07:19 23.06.2020
888 Clouds 21 1016 68 10000 9.3 10 06:43 23.06.2020
889 Clouds 21 1016 68 10000 9.3 10 06:25 23.06.2020
890 Clouds 21 1017 68 10000 9.8 10 05:39 23.06.2020
891 Clouds 22 1018 68 10000 9.8 360 03:29 23.06.2020
892 Clouds 22 1018 68 10000 10.3 360 02:54 23.06.2020
893 Clouds 22 1018 68 10000 9.8 360 02:35 23.06.2020
894 Clouds 22 1018 68 10000 10.8 10 01:46 23.06.2020
895 Clouds 22 1018 68 10000 10.8 10 01:28 23.06.2020
896 Clouds 22 1018 68 10000 10.8 10 00:53 23.06.2020
897 Clouds 22 1018 68 10000 10.8 10 00:22 23.06.2020
898 Clouds 22 1018 68 10000 9.8 360 23:55 22.06.2020
899 Clouds 22 1018 68 10000 9.8 360 23:55 22.06.2020
900 Clouds 22 1018 68 10000 11.3 10 23:37 22.06.2020
901 Clouds 22 1018 68 10000 11.3 10 23:18 22.06.2020
902 Clouds 22 1017 68 10000 10.8 10 22:55 22.06.2020
903 Clouds 22 1017 68 10000 12.9 10 22:37 22.06.2020
904 Clouds 22 1017 69 10000 12.3 10 22:18 22.06.2020
905 Clouds 23 1017 69 10000 12.3 10 21:54 22.06.2020
906 Clouds 24 1016 60 10000 13.4 10 21:36 22.06.2020
907 Clouds 24 1016 64 10000 11.8 10 21:18 22.06.2020
908 Clouds 24 1016 61 10000 12.3 20 20:41 22.06.2020
909 Clouds 25 1016 61 10000 12.3 20 20:21 22.06.2020
910 Clouds 25 1016 61 10000 13.4 20 19:44 22.06.2020
911 Clouds 25 1016 61 10000 13.4 20 19:20 22.06.2020
912 Clouds 26 1017 57 10000 13.4 20 18:59 22.06.2020
913 Clouds 26 1017 61 10000 13.9 30 18:39 22.06.2020
914 Clouds 26 1017 61 10000 13.9 30 18:21 22.06.2020
915 Clouds 26 1017 61 10000 13.9 30 17:56 22.06.2020
916 Clouds 26 1017 57 10000 12.9 20 17:38 22.06.2020
917 Clouds 26 1017 57 10000 12.9 20 17:19 22.06.2020
918 Clouds 26 1017 57 10000 13.4 30 16:55 22.06.2020
919 Clouds 26 1018 57 10000 13.4 30 16:37 22.06.2020
920 Clouds 26 1018 57 10000 13.4 30 16:18 22.06.2020
921 Clouds 26 1018 54 10000 13.4 20 15:41 22.06.2020
922 Clouds 26 1018 54 10000 13.4 20 15:23 22.06.2020
923 Clouds 26 1018 57 10000 13.4 20 14:54 22.06.2020
924 Clouds 26 1019 54 10000 14.9 20 14:36 22.06.2020
925 Clouds 26 1019 54 10000 14.9 20 14:18 22.06.2020
926 Clouds 25 1019 57 10000 13.9 20 13:39 22.06.2020
927 Clouds 25 1019 57 10000 13.9 20 13:21 22.06.2020
928 Clouds 25 1019 61 10000 12.9 20 12:56 22.06.2020
929 Clouds 25 1019 61 10000 12.3 10 12:37 22.06.2020
930 Clouds 25 1019 61 10000 12.3 10 12:19 22.06.2020
931 Clouds 23 1019 64 10000 11.3 10 11:37 22.06.2020
932 Clouds 23 1019 64 10000 11.3 10 11:19 22.06.2020
933 Clouds 22 1019 68 10000 9.8 10 10:56 22.06.2020
934 Clouds 22 1019 73 10000 9.8 360 10:37 22.06.2020
935 Clouds 22 1019 73 10000 9.8 360 10:37 22.06.2020
936 Clouds 22 1019 73 10000 9.8 360 10:18 22.06.2020
937 Clouds 22 1019 68 10000 9.3 10 09:56 22.06.2020
938 Clouds 21 1019 73 10000 9.3 10 09:38 22.06.2020
939 Clouds 21 1019 73 10000 9.3 10 09:18 22.06.2020
940 Clouds 20 1019 73 10000 11.3 10 08:54 22.06.2020
941 Clouds 20 1018 73 10000 10.3 10 08:36 22.06.2020
942 Clouds 20 1018 73 10000 10.3 10 08:18 22.06.2020
943 Clouds 20 1018 73 10000 10.3 10 07:44 22.06.2020
944 Clouds 20 1018 73 10000 9.3 10 07:23 22.06.2020
945 Clouds 20 1019 73 10000 10.3 10 06:38 22.06.2020
946 Clouds 20 1019 73 10000 10.3 10 06:19 22.06.2020
947 Clouds 21 1019 73 10000 9.3 10 05:41 22.06.2020
948 Clouds 22 1021 73 10000 9.8 10 02:59 22.06.2020
949 Clouds 22 1021 68 10000 9.8 360 01:38 22.06.2020
950 Clouds 22 1021 68 10000 11.3 10 00:43 22.06.2020
951 Clouds 22 1021 73 10000 10.8 10 00:22 22.06.2020
952 Clouds 22 1021 73 10000 11.3 10 23:55 21.06.2020
953 Clouds 22 1021 73 10000 11.3 10 23:55 21.06.2020
954 Clouds 23 1021 69 10000 11.3 10 23:36 21.06.2020
955 Clouds 23 1021 69 10000 11.3 10 23:18 21.06.2020
956 Clouds 23 1021 69 10000 12.9 10 22:55 21.06.2020
957 Clouds 23 1020 69 10000 11.3 10 22:36 21.06.2020
958 Clouds 23 1020 69 10000 11.3 10 22:36 21.06.2020
959 Clouds 23 1020 69 10000 11.3 10 22:36 21.06.2020
960 Clouds 23 1020 69 10000 11.3 10 22:18 21.06.2020
961 Clouds 23 1020 69 10000 11.3 10 21:54 21.06.2020
962 Clouds 24 1020 69 10000 11.8 20 21:36 21.06.2020
963 Clouds 24 1020 69 10000 11.8 20 21:18 21.06.2020
964 Clouds 24 1020 69 10000 13.4 20 20:39 21.06.2020
965 Clouds 24 1020 69 10000 13.4 20 20:19 21.06.2020
966 Clouds 25 1020 65 10000 13.9 30 19:57 21.06.2020
967 Clouds 25 1020 61 10000 13.9 20 19:39 21.06.2020
968 Clouds 25 1020 61 10000 13.9 20 19:20 21.06.2020
969 Clouds 25 1021 57 10000 14.4 20 18:55 21.06.2020
970 Clouds 25 1021 57 10000 13.4 20 18:37 21.06.2020
971 Clouds 25 1021 57 10000 13.4 20 18:37 21.06.2020
972 Clouds 26 1021 57 10000 13.4 20 18:19 21.06.2020
973 Clouds 26 1021 57 10000 13.4 20 18:19 21.06.2020
974 Clouds 25 1021 54 10000 14.4 20 17:40 21.06.2020
975 Clouds 25 1021 54 10000 14.4 20 17:21 21.06.2020
976 Clouds 25 1021 57 10000 14.4 20 16:57 21.06.2020
977 Clouds 26 1022 57 10000 14.4 30 16:38 21.06.2020
978 Clouds 26 1022 57 10000 14.4 30 16:20 21.06.2020
979 Clouds 25 1022 57 10000 13.9 20 15:39 21.06.2020
980 Clouds 26 1022 57 10000 13.9 20 15:21 21.06.2020
981 Clouds 25 1022 57 10000 13.9 20 14:55 21.06.2020
982 Clouds 25 1023 57 10000 13.9 20 14:36 21.06.2020
983 Clouds 26 1023 57 10000 13.9 20 14:18 21.06.2020
984 Clouds 25 1023 57 10000 13.4 20 13:42 21.06.2020
985 Clouds 25 1023 57 10000 13.4 20 13:42 21.06.2020
986 Clouds 25 1023 54 10000 12.9 30 13:23 21.06.2020
987 Clouds 24 1023 61 10000 11.8 20 12:58 21.06.2020
988 Clouds 24 1023 61 10000 11.8 20 12:58 21.06.2020
989 Clouds 24 1023 60 10000 12.9 20 12:39 21.06.2020
990 Clouds 24 1023 60 10000 12.9 20 12:21 21.06.2020
991 Clouds 24 1022 60 10000 11.8 20 11:42 21.06.2020
992 Clouds 23 1022 64 10000 10.8 20 11:24 21.06.2020
993 Clouds 23 1022 64 10000 10.8 10 10:58 21.06.2020
994 Clouds 22 1022 68 10000 11.3 10 10:39 21.06.2020
995 Clouds 22 1022 68 10000 11.3 10 10:21 21.06.2020
996 Clouds 23 1022 69 10000 10.8 10 09:44 21.06.2020
997 Clouds 22 1021 68 10000 10.3 10 09:24 21.06.2020
998 Clouds 22 1021 68 10000 9.3 10 08:59 21.06.2020
999 Clouds 21 1021 64 10000 9.8 360 08:41 21.06.2020
1000 Clouds 21 1021 64 10000 9.8 360 08:20 21.06.2020
1001 Clouds 21 1021 68 10000 8.7 360 07:58 21.06.2020
1002 Clouds 21 1021 68 10000 10.8 10 07:39 21.06.2020
1003 Clouds 21 1021 68 10000 10.8 10 07:18 21.06.2020
1004 Clouds 21 1021 68 10000 9.3 10 06:45 21.06.2020
1005 Clouds 22 1021 64 10000 10.3 10 05:57 21.06.2020
1006 Clouds 22 1021 64 10000 8.7 10 04:45 21.06.2020
1007 Clouds 22 1022 64 10000 8.2 360 03:20 21.06.2020
1008 Clouds 22 1023 64 10000 12.3 10 02:38 21.06.2020
1009 Clouds 22 1023 64 10000 11.8 10 01:47 21.06.2020
1010 Clouds 22 1023 64 10000 10.8 20 01:20 21.06.2020
1011 Clouds 22 1023 64 10000 10.8 10 00:46 21.06.2020
1012 Clouds 23 1022 64 10000 11.3 20 00:26 21.06.2020
1013 Clouds 23 1022 64 10000 10.8 10 23:46 20.06.2020
1014 Clouds 23 1022 64 10000 10.3 10 23:23 20.06.2020
1015 Clouds 23 1022 69 10000 11.3 10 22:59 20.06.2020
1016 Clouds 23 1022 69 10000 11.8 20 22:41 20.06.2020
1017 Clouds 23 1022 69 10000 11.8 20 22:21 20.06.2020
1018 Clouds 23 1022 69 10000 11.8 10 21:58 20.06.2020
1019 Clouds 24 1022 64 10000 11.8 20 21:40 20.06.2020
1020 Clouds 24 1022 64 10000 11.8 20 21:21 20.06.2020
1021 Clouds 24 1021 60 10000 12.3 20 20:59 20.06.2020
1022 Clouds 24 1021 57 10000 12.3 10 20:41 20.06.2020
1023 Clouds 25 1021 57 10000 12.3 10 20:21 20.06.2020
1024 Clouds 25 1021 57 10000 13.9 30 19:59 20.06.2020
1025 Clouds 25 1021 54 10000 11.8 20 19:40 20.06.2020
1026 Clouds 26 1021 54 10000 11.8 20 19:20 20.06.2020
1027 Clouds 25 1022 61 10000 13.4 30 18:43 20.06.2020
1028 Clouds 25 1022 53 10000 12.9 20 18:21 20.06.2020
1029 Clouds 25 1022 53 10000 12.3 20 17:58 20.06.2020
1030 Clouds 25 1022 57 10000 13.9 30 17:39 20.06.2020
1031 Clouds 25 1022 57 10000 13.9 30 17:20 20.06.2020
1032 Clouds 25 1022 54 10000 13.4 30 16:55 20.06.2020
1033 Clouds 25 1022 54 10000 13.9 20 16:37 20.06.2020
1034 Clouds 25 1022 54 10000 13.9 20 16:18 20.06.2020
1035 Clouds 25 1022 57 10000 13.9 30 15:41 20.06.2020
1036 Clouds 26 1022 57 10000 13.9 30 15:18 20.06.2020
1037 Clouds 26 1022 50 10000 13.4 20 14:43 20.06.2020
1038 Clouds 25 1022 53 10000 13.9 30 14:21 20.06.2020
1039 Clouds 25 1022 54 10000 12.9 30 13:46 20.06.2020
1040 Clouds 25 1023 61 10000 12.9 30 13:27 20.06.2020
1041 Clouds 24 1023 53 10000 11.8 20 12:59 20.06.2020
1042 Clouds 24 1022 60 10000 12.9 30 12:40 20.06.2020
1043 Clouds 24 1022 60 10000 12.9 30 12:20 20.06.2020
1044 Clouds 24 1022 60 10000 11.8 20 11:55 20.06.2020
1045 Clouds 24 1022 64 10000 10.3 10 11:37 20.06.2020
1046 Clouds 24 1022 64 10000 10.3 10 11:19 20.06.2020
1047 Clouds 23 1022 73 10000 8.7 360 10:46 20.06.2020
1048 Clouds 23 1022 69 10000 10.3 20 10:22 20.06.2020
1049 Clouds 23 1022 64 10000 10.3 20 09:55 20.06.2020
1050 Clouds 23 1021 64 10000 9.8 20 09:36 20.06.2020
1051 Clouds 22 1021 64 10000 9.8 20 09:18 20.06.2020
1052 Clouds 21 1021 73 10000 9.3 10 08:45 20.06.2020
1053 Clouds 21 1021 68 10000 8.2 10 08:27 20.06.2020
1054 Clouds 21 1021 68 10000 8.7 10 07:51 20.06.2020
1055 Clouds 21 1021 73 10000 9.3 20 07:27 20.06.2020
1056 Clouds 21 1021 68 10000 8.2 10 06:54 20.06.2020
1057 Clouds 21 1021 68 10000 9.3 10 06:23 20.06.2020
1058 Clouds 21 1021 73 10000 8.2 10 05:52 20.06.2020
1059 Clouds 21 1021 73 10000 7.7 360 04:52 20.06.2020
1060 Clouds 22 1022 73 10000 9.3 10 02:27 20.06.2020
1061 Clouds 22 1022 69 10000 9.3 10 01:48 20.06.2020
1062 Clouds 22 1022 73 10000 10.3 10 00:52 20.06.2020
1063 Clouds 23 1021 73 10000 10.3 20 00:21 20.06.2020
1064 Clouds 23 1021 69 10000 10.8 10 23:55 19.06.2020
1065 Clouds 23 1020 69 10000 11.8 10 23:36 19.06.2020
1066 Clouds 23 1020 69 10000 11.8 10 23:18 19.06.2020
1067 Clouds 23 1020 69 10000 12.3 10 22:40 19.06.2020
1068 Clouds 23 1020 69 10000 12.3 10 22:22 19.06.2020
1069 Clouds 23 1020 60 10000 12.9 10 21:58 19.06.2020
1070 Clouds 24 1020 64 10000 11.3 20 21:38 19.06.2020
1071 Clouds 24 1020 64 10000 11.3 20 21:18 19.06.2020
1072 Clouds 24 1020 64 10000 12.3 20 20:58 19.06.2020
1073 Clouds 24 1020 57 10000 11.8 20 20:40 19.06.2020
1074 Clouds 25 1020 57 10000 11.8 20 20:20 19.06.2020
1075 Clouds 25 1019 65 10000 11.8 20 19:57 19.06.2020
1076 Clouds 25 1019 61 10000 12.9 20 19:38 19.06.2020
1077 Clouds 25 1019 61 10000 12.9 20 19:19 19.06.2020
1078 Clouds 25 1019 57 10000 11.8 10 18:41 19.06.2020
1079 Clouds 26 1019 57 10000 11.8 10 18:21 19.06.2020
1080 Clouds 26 1019 54 10000 11.8 30 17:58 19.06.2020
1081 Clouds 25 1020 61 10000 11.8 30 17:38 19.06.2020
1082 Clouds 25 1020 61 10000 11.8 30 17:20 19.06.2020
1083 Clouds 26 1020 57 10000 12.3 30 16:41 19.06.2020
1084 Clouds 26 1020 57 10000 12.3 30 16:23 19.06.2020
1085 Clouds 26 1020 57 10000 12.3 30 15:59 19.06.2020
1086 Clouds 26 1020 61 10000 11.8 30 15:40 19.06.2020
1087 Clouds 26 1020 61 10000 11.8 30 15:20 19.06.2020
1088 Clouds 26 1020 61 10000 11.3 30 14:56 19.06.2020
1089 Clouds 25 1021 61 10000 10.8 30 14:37 19.06.2020
1090 Clouds 26 1021 61 10000 10.8 30 14:18 19.06.2020
1091 Clouds 25 1021 61 10000 10.8 30 13:42 19.06.2020
1092 Clouds 25 1021 69 10000 11.3 30 13:24 19.06.2020
1093 Clouds 25 1020 65 10000 10.3 20 12:47 19.06.2020
1094 Clouds 24 1020 69 10000 10.3 20 12:22 19.06.2020
1095 Clouds 24 1020 69 10000 8.7 20 11:57 19.06.2020
1096 Clouds 24 1020 69 10000 8.7 20 11:38 19.06.2020
1097 Clouds 24 1020 69 10000 8.7 20 11:18 19.06.2020
1098 Clouds 23 1020 73 10000 9.3 20 10:45 19.06.2020
1099 Clouds 23 1020 73 10000 9.3 20 10:26 19.06.2020
1100 Clouds 23 1020 73 10000 8.7 30 09:58 19.06.2020
1101 Clouds 22 1019 78 10000 7.7 30 09:40 19.06.2020
1102 Clouds 21 1019 78 10000 7.7 30 09:20 19.06.2020
1103 Clouds 20 1019 88 10000 6.2 10 08:43 19.06.2020
1104 Clouds 20 1019 88 10000 6.2 10 08:24 19.06.2020
1105 Clouds 20 1019 83 10000 5.1 360 07:56 19.06.2020
1106 Clouds 20 1019 77 10000 7.2 350 07:37 19.06.2020
1107 Clouds 21 1019 77 10000 7.2 350 07:18 19.06.2020
1108 Clouds 21 1019 83 10000 6.2 360 06:23 19.06.2020
1109 Clouds 21 1019 83 10000 6.2 10 05:43 19.06.2020
1110 Rain 21 1019 78 10000 5.7 10 04:23 19.06.2020
1111 Clouds 22 1019 73 10000 6.7 360 02:50 19.06.2020
1112 Clouds 23 1019 64 10000 8.2 350 00:49 19.06.2020
1113 Clouds 23 1019 64 10000 7.7 360 00:22 19.06.2020
1114 Clouds 23 1019 64 10000 8.2 350 23:59 18.06.2020
1115 Clouds 22 1019 73 10000 9.3 10 23:41 18.06.2020
1116 Clouds 22 1019 73 10000 9.3 10 23:23 18.06.2020
1117 Clouds 23 1018 69 10000 8.2 10 22:58 18.06.2020
1118 Clouds 23 1018 64 10000 9.3 10 22:36 18.06.2020
1119 Clouds 23 1018 64 10000 9.3 10 22:18 18.06.2020
1120 Clouds 24 1018 57 10000 9.8 10 21:38 18.06.2020
1121 Clouds 24 1018 57 10000 9.8 10 21:19 18.06.2020
1122 Clouds 24 1017 53 10000 11.3 10 20:55 18.06.2020
1123 Clouds 24 1017 61 10000 11.3 20 20:36 18.06.2020
1124 Clouds 25 1017 61 10000 11.3 20 20:18 18.06.2020
1125 Clouds 25 1017 65 10000 11.8 30 19:42 18.06.2020
1126 Clouds 25 1017 61 10000 12.3 30 19:20 18.06.2020
1127 Clouds 26 1017 54 10000 11.8 30 18:57 18.06.2020
1128 Clouds 26 1017 57 10000 12.9 30 18:37 18.06.2020
1129 Clouds 26 1017 57 10000 12.9 30 18:18 18.06.2020
1130 Clouds 26 1017 61 10000 12.3 30 17:43 18.06.2020
1131 Clouds 26 1017 61 10000 12.3 30 17:25 18.06.2020
1132 Clouds 26 1017 54 10000 13.4 30 16:55 18.06.2020
1133 Clouds 26 1017 57 10000 13.9 30 16:37 18.06.2020
1134 Clouds 25 1017 57 10000 13.9 30 16:18 18.06.2020
1135 Clouds 26 1017 54 10000 13.4 30 15:40 18.06.2020
1136 Clouds 26 1017 54 10000 13.4 30 15:21 18.06.2020
1137 Clouds 26 1017 48 10000 10.8 30 14:58 18.06.2020
1138 Clouds 26 1017 45 10000 10.3 10 14:39 18.06.2020
1139 Clouds 26 1017 45 10000 10.3 10 14:21 18.06.2020
1140 Clouds 25 1017 44 10000 10.8 10 13:55 18.06.2020
1141 Clouds 25 1017 47 10000 10.3 20 13:37 18.06.2020
1142 Clouds 25 1017 47 10000 10.3 20 13:18 18.06.2020
1143 Clouds 25 1017 47 10000 8.2 350 12:40 18.06.2020
1144 Clouds 25 1017 47 10000 8.2 350 12:20 18.06.2020
1145 Clouds 25 1018 50 10000 7.7 350 11:59 18.06.2020
1146 Clouds 24 1017 60 10000 8.7 350 11:40 18.06.2020
1147 Clouds 24 1017 60 10000 8.7 350 11:20 18.06.2020
1148 Clouds 24 1017 60 10000 8.7 350 11:20 18.06.2020
1149 Clouds 23 1017 69 10000 6.7 360 10:41 18.06.2020
1150 Clouds 23 1017 69 10000 6.7 360 10:19 18.06.2020
1151 Clouds 23 1017 69 10000 5.7 10 09:55 18.06.2020
1152 Clouds 22 1017 68 10000 5.1 360 09:37 18.06.2020
1153 Clouds 22 1017 68 10000 5.1 360 09:19 18.06.2020
1154 Clouds 21 1016 64 10000 3.6 360 08:40 18.06.2020
1155 Clouds 21 1016 64 10000 3.6 360 08:21 18.06.2020
1156 Clouds 21 1016 68 10000 3.6 360 07:46 18.06.2020
1157 Clouds 22 1016 68 10000 5.7 350 07:26 18.06.2020
1158 Clouds 21 1016 83 10000 1 0 06:54 18.06.2020
1159 Clouds 21 1016 83 10000 2.1 0 05:55 18.06.2020
1160 Clouds 22 1017 73 10000 1.5 60 04:22 18.06.2020
1161 Clouds 22 1017 83 10000 0.5 0 02:51 18.06.2020
1162 Clouds 22 1018 83 10000 4.6 40 01:28 18.06.2020
1163 Clouds 23 1018 83 10000 4.1 40 00:55 18.06.2020
1164 Clouds 23 1018 83 10000 3.6 40 00:33 18.06.2020
1165 Clouds 23 1018 83 10000 3.1 60 23:58 17.06.2020
1166 Clouds 23 1017 83 10000 3.1 40 23:39 17.06.2020
1167 Clouds 23 1017 83 10000 3.1 40 23:20 17.06.2020
1168 Clouds 23 1017 83 10000 4.1 40 22:57 17.06.2020
1169 Clouds 23 1017 83 10000 3.6 40 22:38 17.06.2020
1170 Clouds 23 1017 83 10000 3.6 40 22:20 17.06.2020
1171 Clouds 23 1017 83 10000 3.1 50 21:42 17.06.2020
1172 Clouds 23 1017 83 10000 3.1 50 21:24 17.06.2020
1173 Clouds 23 1017 83 10000 3.1 60 20:59 17.06.2020
1174 Clouds 23 1017 83 10000 3.1 60 20:59 17.06.2020
1175 Clouds 23 1017 83 10000 2.6 60 20:38 17.06.2020
1176 Clouds 23 1017 83 10000 2.6 60 20:19 17.06.2020
1177 Clouds 24 1017 78 10000 2.6 50 19:46 17.06.2020
1178 Clouds 24 1017 78 10000 2.6 60 19:23 17.06.2020
1179 Clouds 24 1017 73 10000 3.1 70 18:58 17.06.2020
1180 Clouds 24 1018 73 10000 3.1 50 18:40 17.06.2020
1181 Clouds 24 1018 73 10000 3.1 50 18:40 17.06.2020
1182 Clouds 24 1018 73 10000 3.1 50 18:21 17.06.2020
1183 Clouds 25 1018 73 10000 3.6 60 17:43 17.06.2020
1184 Clouds 25 1018 73 10000 3.6 60 17:22 17.06.2020
1185 Clouds 25 1018 78 10000 4.6 50 16:57 17.06.2020
1186 Clouds 25 1018 78 10000 3.6 70 16:38 17.06.2020
1187 Clouds 25 1018 78 10000 3.6 70 16:20 17.06.2020
1188 Clouds 25 1018 73 10000 5.7 50 15:56 17.06.2020
1189 Clouds 25 1019 73 10000 4.6 70 15:38 17.06.2020
1190 Clouds 25 1019 73 10000 4.6 70 15:18 17.06.2020
1191 Clouds 25 1019 73 10000 4.6 60 14:55 17.06.2020
1192 Clouds 25 1019 69 10000 6.2 50 14:36 17.06.2020
1193 Clouds 26 1019 69 10000 6.2 50 14:18 17.06.2020
1194 Clouds 26 1019 65 10000 6.2 50 13:41 17.06.2020
1195 Clouds 26 1019 65 10000 6.2 50 13:21 17.06.2020
1196 Clouds 25 1019 69 10000 6.2 50 12:56 17.06.2020
1197 Clouds 25 1019 69 10000 6.2 50 12:37 17.06.2020
1198 Clouds 25 1019 69 10000 6.2 50 12:19 17.06.2020
1199 Clouds 25 1019 69 10000 6.2 50 12:19 17.06.2020
1200 Clouds 24 1019 73 10000 8.2 30 11:44 17.06.2020
1201 Clouds 24 1019 73 10000 7.2 30 11:24 17.06.2020
1202 Clouds 24 1019 73 10000 6.2 40 10:55 17.06.2020
1203 Clouds 23 1020 83 10000 4.6 30 10:36 17.06.2020
1204 Clouds 23 1020 83 10000 4.6 30 10:18 17.06.2020
1205 Clouds 23 1019 83 10000 3.1 50 09:54 17.06.2020
1206 Clouds 23 1020 83 10000 2.1 10 09:36 17.06.2020
1207 Clouds 23 1020 83 10000 2.1 10 09:36 17.06.2020
1208 Clouds 22 1020 83 10000 2.1 10 09:18 17.06.2020
1209 Clouds 22 1019 88 10000 1.5 110 08:41 17.06.2020
1210 Clouds 22 1019 88 10000 1.5 110 08:19 17.06.2020
1211 Clouds 22 1019 88 10000 1.5 110 08:19 17.06.2020
1212 Clouds 22 1019 88 10000 4.1 10 07:43 17.06.2020
1213 Clouds 22 1019 88 10000 4.1 20 07:23 17.06.2020
1214 Clouds 22 1020 94 10000 5.1 40 06:57 17.06.2020
1215 Clouds 22 1020 94 10000 4.1 30 06:38 17.06.2020
1216 Clouds 22 1020 94 10000 4.1 30 06:20 17.06.2020
1217 Clouds 22 1018 94 10000 9.8 30 05:31 17.06.2020
1218 Clouds 25 1021 65 10000 1.5 0 03:30 17.06.2020
1219 Clouds 23 1022 88 10000 9.8 30 01:54 17.06.2020
1220 Clouds 23 1022 83 10000 7.7 30 00:48 17.06.2020
1221 Clouds 23 1021 88 10000 8.2 20 00:25 17.06.2020
1222 Clouds 23 1021 83 10000 8.7 20 23:57 16.06.2020
1223 Clouds 24 1021 61 10000 8.7 30 23:38 16.06.2020
1224 Clouds 24 1021 61 10000 8.7 30 23:20 16.06.2020
1225 Clouds 24 1021 57 10000 10.3 30 22:56 16.06.2020
1226 Clouds 24 1021 57 10000 10.3 30 22:37 16.06.2020
1227 Clouds 24 1021 57 10000 10.3 30 22:19 16.06.2020
1228 Clouds 24 1021 57 10000 10.8 30 21:54 16.06.2020
1229 Clouds 24 1021 53 10000 10.8 30 21:36 16.06.2020
1230 Clouds 24 1021 53 10000 10.8 30 21:18 16.06.2020
1231 Clouds 25 1021 50 10000 12.9 30 20:42 16.06.2020
1232 Clouds 26 1021 50 10000 12.9 30 20:19 16.06.2020
1233 Clouds 26 1021 47 10000 13.4 30 19:58 16.06.2020
1234 Clouds 26 1021 57 10000 13.9 30 19:39 16.06.2020
1235 Clouds 26 1021 57 10000 13.9 30 19:21 16.06.2020
1236 Clouds 26 1021 69 10000 12.9 30 18:55 16.06.2020
1237 Clouds 26 1021 69 10000 12.9 30 18:37 16.06.2020
1238 Clouds 26 1021 69 10000 12.9 30 18:19 16.06.2020
1239 Clouds 25 1022 73 10000 9.3 30 17:55 16.06.2020
1240 Clouds 25 1022 73 10000 7.2 30 17:36 16.06.2020
1241 Clouds 25 1022 73 10000 7.2 30 17:18 16.06.2020
1242 Clouds 26 1022 73 10000 5.7 40 16:42 16.06.2020
1243 Clouds 26 1022 73 10000 5.7 40 16:21 16.06.2020
1244 Clouds 26 1023 69 10000 5.7 40 15:58 16.06.2020
1245 Clouds 26 1023 73 10000 4.6 20 15:40 16.06.2020
1246 Clouds 26 1023 73 10000 4.6 20 15:22 16.06.2020
1247 Clouds 26 1023 69 10000 5.1 20 14:59 16.06.2020
1248 Clouds 26 1023 69 10000 5.1 30 14:41 16.06.2020
1249 Clouds 26 1023 69 10000 5.1 30 14:22 16.06.2020
1250 Clouds 26 1023 69 10000 6.2 30 13:48 16.06.2020
1251 Clouds 26 1023 61 10000 7.2 30 13:26 16.06.2020
1252 Clouds 26 1023 69 10000 6.2 30 12:57 16.06.2020
1253 Clouds 25 1024 73 10000 5.7 30 12:38 16.06.2020
1254 Clouds 25 1024 73 10000 5.7 30 12:38 16.06.2020
1255 Clouds 25 1024 73 10000 5.7 30 12:20 16.06.2020
1256 Clouds 25 1023 73 10000 6.7 20 11:54 16.06.2020
1257 Clouds 24 1023 73 10000 6.7 30 11:36 16.06.2020
1258 Clouds 24 1023 73 10000 6.7 30 11:36 16.06.2020
1259 Clouds 24 1023 73 10000 6.7 30 11:18 16.06.2020
1260 Clouds 24 1023 69 10000 7.2 20 10:42 16.06.2020
1261 Clouds 23 1023 78 10000 6.7 20 10:21 16.06.2020
1262 Clouds 23 1023 73 10000 6.7 10 09:57 16.06.2020
1263 Clouds 23 1023 69 10000 4.1 10 09:39 16.06.2020
1264 Clouds 22 1023 69 10000 4.1 10 09:21 16.06.2020
1265 Clouds 22 1023 83 10000 3.1 360 08:43 16.06.2020
1266 Clouds 22 1023 83 10000 3.1 360 08:25 16.06.2020
1267 Clouds 22 1023 88 10000 4.1 10 07:47 16.06.2020
1268 Clouds 22 1023 88 10000 3.6 20 07:26 16.06.2020
1269 Clouds 22 1022 88 10000 4.6 10 06:48 16.06.2020
1270 Clear 22 1023 88 10000 2.6 360 06:26 16.06.2020
1271 Clear 22 1023 88 10000 2.6 360 06:26 16.06.2020
1272 Clear 22 1023 88 10000 5.1 20 05:32 16.06.2020
1273 Clear 23 1023 83 10000 4.1 10 04:28 16.06.2020
1274 Clear 23 1024 88 10000 6.2 30 02:56 16.06.2020
1275 Clear 23 1024 83 10000 5.7 30 01:52 16.06.2020
1276 Clear 23 1024 88 10000 5.1 30 01:20 16.06.2020
1277 Clear 23 1024 83 10000 5.1 20 00:40 16.06.2020
1278 Clear 23 1024 83 10000 5.1 20 00:19 16.06.2020
1279 Clear 23 1023 88 10000 6.7 30 23:41 15.06.2020
1280 Clear 23 1023 88 10000 6.7 30 23:22 15.06.2020
1281 Clear 23 1023 88 10000 6.7 40 22:55 15.06.2020
1282 Clear 23 1023 88 10000 9.3 40 22:36 15.06.2020
1283 Clear 23 1023 88 10000 9.3 40 22:18 15.06.2020
1284 Clear 24 1022 83 10000 10.3 40 21:55 15.06.2020
1285 Clear 24 1022 78 10000 10.3 40 21:36 15.06.2020
1286 Clear 24 1022 78 10000 10.3 40 21:36 15.06.2020
1287 Clear 24 1022 78 10000 10.3 40 21:18 15.06.2020
1288 Clear 24 1022 78 10000 10.3 40 21:18 15.06.2020
1289 Clear 25 1022 73 10000 10.8 40 20:54 15.06.2020
1290 Clear 26 1022 65 10000 10.3 40 20:36 15.06.2020
1291 Clear 25 1022 65 10000 10.3 40 20:18 15.06.2020
1292 Clouds 25 1022 73 10000 4.6 60 19:41 15.06.2020
1293 Clouds 25 1022 73 10000 4.6 60 19:22 15.06.2020
1294 Clouds 25 1023 69 10000 3.1 70 18:58 15.06.2020
1295 Clouds 25 1023 69 10000 1.5 0 18:40 15.06.2020
1296 Clouds 25 1023 69 10000 1.5 0 18:21 15.06.2020
1297 Clouds 25 1022 73 10000 5.1 60 17:58 15.06.2020
1298 Clouds 26 1022 69 10000 9.3 50 17:40 15.06.2020
1299 Clouds 26 1022 69 10000 9.3 50 17:19 15.06.2020
1300 Clouds 26 1022 69 10000 8.2 40 16:56 15.06.2020
1301 Clouds 25 1023 78 10000 3.1 90 16:38 15.06.2020
1302 Clouds 25 1023 78 10000 3.1 90 16:18 15.06.2020
1303 Clouds 26 1023 69 10000 8.2 40 15:41 15.06.2020
1304 Clouds 26 1023 69 10000 8.2 40 15:20 15.06.2020
1305 Clouds 26 1023 69 10000 8.2 40 15:20 15.06.2020
1306 Clouds 26 1023 69 10000 9.8 40 14:57 15.06.2020
1307 Clouds 25 1023 73 10000 7.2 40 14:39 15.06.2020
1308 Clouds 25 1023 73 10000 7.2 40 14:19 15.06.2020
1309 Clouds 26 1023 69 10000 7.2 40 13:56 15.06.2020
1310 Clouds 25 1023 69 10000 5.7 40 13:37 15.06.2020
1311 Clouds 25 1023 69 10000 5.7 40 13:37 15.06.2020
1312 Clouds 24 1023 69 10000 5.7 40 13:18 15.06.2020
1313 Clouds 24 1023 69 10000 1.5 0 12:41 15.06.2020
1314 Clouds 24 1023 69 10000 1.5 0 12:22 15.06.2020
1315 Clouds 24 1023 65 10000 2.6 90 11:47 15.06.2020
1316 Clouds 24 1023 69 10000 2.1 110 11:27 15.06.2020
1317 Clouds 24 1022 64 10000 1.5 90 10:59 15.06.2020
1318 Clouds 24 1022 64 10000 1.5 0 10:41 15.06.2020
1319 Clouds 24 1022 64 10000 1.5 0 10:41 15.06.2020
1320 Clouds 24 1022 64 10000 1.5 0 10:21 15.06.2020
1321 Clouds 23 1022 69 10000 1 0 09:43 15.06.2020
1322 Clouds 22 1022 68 10000 1 0 09:23 15.06.2020
1323 Clouds 22 1022 68 10000 1 0 08:47 15.06.2020
1324 Clouds 22 1022 68 10000 4.42 75 08:27 15.06.2020
1325 Clouds 22 1021 73 10000 1 0 07:57 15.06.2020
1326 Clouds 22 1021 73 10000 2.1 250 07:37 15.06.2020
1327 Clouds 22 1021 73 10000 2.1 250 07:19 15.06.2020
1328 Clouds 22 1022 78 10000 2.1 210 06:27 15.06.2020
1329 Clouds 22 1021 83 10000 2.1 170 05:51 15.06.2020
1330 Clouds 22 1022 83 10000 1.5 180 05:29 15.06.2020
1331 Clouds 22 1022 83 10000 3.6 140 04:22 15.06.2020
1332 Clouds 22 1022 83 10000 2.6 360 03:48 15.06.2020
1333 Clouds 22 1023 83 10000 3.1 40 02:56 15.06.2020
1334 Clouds 22 1022 88 10000 5.7 30 02:29 15.06.2020
1335 Clouds 22 1022 88 10000 6.7 10 01:47 15.06.2020
1336 Rain 22 1022 88 10000 7.7 10 01:24 15.06.2020
1337 Rain 23 1022 83 10000 8.2 10 00:45 15.06.2020
1338 Rain 23 1021 88 10000 8.7 10 00:23 15.06.2020
1339 Rain 23 1022 78 10000 8.7 10 23:57 14.06.2020
1340 Clouds 23 1021 78 10000 8.2 10 23:39 14.06.2020
1341 Clouds 23 1021 78 10000 8.2 10 23:20 14.06.2020
1342 Rain 23 1021 78 10000 9.3 20 22:56 14.06.2020
1343 Clouds 23 1021 73 10000 9.3 20 22:37 14.06.2020
1344 Clouds 23 1021 73 10000 9.3 20 22:18 14.06.2020
1345 Clouds 23 1022 73 10000 8.2 20 21:55 14.06.2020
1346 Clouds 23 1021 73 10000 9.8 10 21:37 14.06.2020
1347 Clouds 23 1021 73 10000 9.8 10 21:18 14.06.2020
1348 Clouds 23 1021 73 10000 9.8 10 21:18 14.06.2020
1349 Clouds 23 1021 73 10000 8.7 30 20:55 14.06.2020
1350 Clouds 23 1021 69 10000 9.3 30 20:36 14.06.2020
1351 Clouds 23 1021 69 10000 9.3 30 20:18 14.06.2020
1352 Clouds 24 1020 64 10000 9.3 30 19:55 14.06.2020
1353 Clouds 24 1021 69 10000 6.7 20 19:36 14.06.2020
1354 Clouds 24 1021 69 10000 6.7 20 19:18 14.06.2020
1355 Clouds 24 1022 64 10000 4.1 30 18:55 14.06.2020
1356 Clouds 24 1022 69 10000 2.6 90 18:37 14.06.2020
1357 Clouds 23 1022 69 10000 2.6 90 18:18 14.06.2020
1358 Clouds 24 1022 64 10000 3.1 110 17:40 14.06.2020
1359 Clouds 24 1022 64 10000 3.1 110 17:40 14.06.2020
1360 Clouds 24 1022 64 10000 3.1 110 17:20 14.06.2020
1361 Clouds 24 1022 64 10000 2.6 80 16:58 14.06.2020
1362 Clouds 24 1023 69 10000 3.1 100 16:39 14.06.2020
1363 Clouds 24 1023 69 10000 3.1 100 16:19 14.06.2020
1364 Clouds 24 1023 64 10000 3.1 90 15:56 14.06.2020
1365 Clouds 24 1023 64 10000 3.1 90 15:37 14.06.2020
1366 Clear 24 1023 64 10000 3.1 90 15:18 14.06.2020
1367 Clouds 24 1023 60 10000 3.6 70 14:41 14.06.2020
1368 Clouds 24 1023 60 10000 3.6 70 14:23 14.06.2020
1369 Clouds 24 1023 64 10000 3.6 70 13:59 14.06.2020
1370 Clouds 24 1023 64 10000 4.1 60 13:40 14.06.2020
1371 Clouds 24 1023 64 10000 4.1 60 13:22 14.06.2020
1372 Clouds 24 1023 64 10000 4.1 70 12:57 14.06.2020
1373 Clouds 23 1023 69 10000 4.1 70 12:39 14.06.2020
1374 Clouds 23 1023 69 10000 4.1 70 12:21 14.06.2020
1375 Clouds 24 1023 64 10000 4.1 40 11:57 14.06.2020
1376 Clouds 23 1022 69 10000 5.7 30 11:38 14.06.2020
1377 Clouds 23 1022 69 10000 5.7 30 11:20 14.06.2020
1378 Clouds 23 1022 69 10000 5.1 30 10:42 14.06.2020
1379 Clouds 22 1022 73 10000 4.1 360 10:20 14.06.2020
1380 Clouds 22 1022 68 10000 3.6 360 09:56 14.06.2020
1381 Clouds 21 1022 73 10000 3.1 360 09:38 14.06.2020
1382 Clouds 20 1022 73 10000 3.1 360 09:20 14.06.2020
1383 Clouds 20 1021 72 10000 3.6 350 08:41 14.06.2020
1384 Clouds 19 1021 72 10000 3.6 350 08:19 14.06.2020
1385 Clouds 19 1021 77 10000 4.1 350 07:52 14.06.2020
1386 Clouds 19 1021 77 10000 5.1 350 07:34 14.06.2020
1387 Clouds 20 1020 72 10000 4.6 350 06:39 14.06.2020
1388 Clouds 20 1021 72 10000 3.6 350 05:47 14.06.2020
1389 Clouds 20 1021 72 10000 3.6 350 05:18 14.06.2020
1390 Clouds 20 1021 68 10000 3.6 350 04:35 14.06.2020
1391 Clouds 20 1021 72 10000 4.6 350 03:36 14.06.2020
1392 Clouds 20 1021 72 10000 3.6 340 02:31 14.06.2020
1393 Clouds 21 1022 73 10000 4.1 360 01:47 14.06.2020
1394 Clouds 21 1022 73 10000 4.1 10 01:24 14.06.2020
1395 Clouds 21 1021 68 10000 5.7 20 00:40 14.06.2020
1396 Clouds 22 1021 68 10000 5.7 20 00:19 14.06.2020
1397 Clouds 22 1020 68 10000 5.7 20 23:44 13.06.2020
1398 Clouds 22 1020 68 10000 5.7 20 23:24 13.06.2020
1399 Clouds 22 1020 68 10000 6.2 20 22:57 13.06.2020
1400 Clouds 22 1019 68 10000 6.2 30 22:37 13.06.2020
1401 Clouds 22 1019 68 10000 6.2 30 22:18 13.06.2020
1402 Clouds 23 1019 64 10000 6.7 30 21:56 13.06.2020
1403 Clouds 23 1019 64 10000 6.7 30 21:37 13.06.2020
1404 Clouds 23 1019 64 10000 6.7 30 21:19 13.06.2020
1405 Clouds 23 1019 64 10000 6.2 30 20:42 13.06.2020
1406 Clouds 23 1018 60 10000 7.2 30 20:42 13.06.2020
1407 Clouds 23 1018 60 10000 7.2 30 20:19 13.06.2020
1408 Clouds 23 1018 60 10000 7.2 30 20:19 13.06.2020
1409 Clouds 24 1019 60 10000 6.2 30 19:57 13.06.2020
1410 Clouds 23 1019 60 10000 4.6 30 19:36 13.06.2020
1411 Clouds 23 1019 60 10000 4.6 30 19:18 13.06.2020
1412 Clouds 23 1019 57 10000 3.6 60 18:55 13.06.2020
1413 Clouds 23 1019 53 10000 3.1 60 18:37 13.06.2020
1414 Clouds 23 1019 53 10000 3.1 60 18:18 13.06.2020
1415 Clouds 23 1019 60 10000 3.1 90 17:42 13.06.2020
1416 Clouds 23 1019 60 10000 3.1 90 17:23 13.06.2020
1417 Clouds 23 1019 60 10000 3.6 90 16:58 13.06.2020
1418 Clouds 24 1019 57 10000 4.1 90 16:39 13.06.2020
1419 Clouds 24 1019 57 10000 4.1 90 16:19 13.06.2020
1420 Clouds 24 1019 60 10000 4.1 70 15:54 13.06.2020
1421 Clouds 24 1018 64 10000 4.1 80 15:36 13.06.2020
1422 Clouds 24 1018 64 10000 4.1 80 15:18 13.06.2020
1423 Clouds 23 1019 64 10000 4.6 60 14:41 13.06.2020
1424 Clouds 23 1019 64 10000 4.6 60 14:20 13.06.2020
1425 Clouds 23 1020 64 10000 4.1 70 13:44 13.06.2020
1426 Clouds 23 1020 60 10000 3.6 60 13:26 13.06.2020
1427 Clouds 23 1019 64 10000 4.1 50 12:55 13.06.2020
1428 Clouds 22 1019 68 10000 4.1 30 12:37 13.06.2020
1429 Clouds 22 1019 68 10000 4.1 30 12:19 13.06.2020
1430 Clouds 22 1019 64 10000 2.6 50 11:40 13.06.2020
1431 Clouds 22 1019 64 10000 2.6 50 11:19 13.06.2020
1432 Clouds 22 1018 64 10000 5.1 30 10:58 13.06.2020
1433 Clouds 22 1019 64 10000 2.6 360 10:40 13.06.2020
1434 Clouds 22 1019 64 10000 2.6 360 10:22 13.06.2020
1435 Clouds 21 1018 68 10000 3.6 340 09:52 13.06.2020
1436 Clouds 20 1017 72 10000 3.6 350 09:32 13.06.2020
1437 Clouds 20 1018 72 10000 3.1 360 08:56 13.06.2020
1438 Clouds 20 1018 72 10000 2.6 320 08:37 13.06.2020
1439 Clouds 20 1018 72 10000 2.6 320 08:19 13.06.2020
1440 Clouds 20 1017 72 10000 4.1 350 07:42 13.06.2020
1441 Clouds 20 1017 72 10000 4.1 350 07:23 13.06.2020
1442 Clouds 20 1018 72 10000 2.6 340 06:44 13.06.2020
1443 Clouds 20 1018 72 10000 1.5 330 06:24 13.06.2020
1444 Clouds 21 1018 68 10000 2.6 30 05:27 13.06.2020
1445 Clouds 21 1018 68 10000 4.6 20 04:34 13.06.2020
1446 Clouds 21 1018 68 10000 5.1 20 03:33 13.06.2020
1447 Clouds 21 1019 68 10000 5.7 30 02:38 13.06.2020
1448 Clouds 21 1019 73 10000 7.2 10 01:48 13.06.2020
1449 Clouds 21 1020 68 10000 5.1 10 01:22 13.06.2020
1450 Clouds 21 1019 68 10000 8.7 20 00:48 13.06.2020
1451 Clouds 22 1019 60 10000 6.2 10 00:27 13.06.2020
1452 Clouds 22 1017 60 10000 8.2 10 23:57 12.06.2020
1453 Clouds 22 1018 60 10000 7.7 10 23:38 12.06.2020
1454 Clouds 22 1018 60 10000 7.7 10 23:18 12.06.2020
1455 Clouds 22 1018 56 10000 8.2 10 22:41 12.06.2020
1456 Clouds 22 1018 56 10000 8.2 10 22:19 12.06.2020
1457 Clouds 22 1017 56 10000 9.8 10 21:54 12.06.2020
1458 Clouds 22 1017 60 10000 9.8 20 21:36 12.06.2020
1459 Clouds 22 1017 60 10000 9.8 20 21:18 12.06.2020
1460 Clouds 22 1017 60 10000 9.3 30 20:55 12.06.2020
1461 Clouds 22 1017 60 10000 9.3 30 20:36 12.06.2020
1462 Clouds 22 1017 60 10000 9.3 30 20:18 12.06.2020
1463 Clouds 23 1018 56 10000 8.7 30 19:39 12.06.2020
1464 Clouds 23 1018 56 10000 8.7 30 19:20 12.06.2020
1465 Clouds 22 1018 57 10000 9.3 30 18:39 12.06.2020
1466 Clouds 22 1018 57 10000 9.3 30 18:19 12.06.2020
1467 Clouds 22 1018 56 10000 9.3 40 17:59 12.06.2020
1468 Clouds 23 1018 56 10000 9.8 30 17:39 12.06.2020
1469 Clouds 23 1018 56 10000 9.8 30 17:21 12.06.2020
1470 Clouds 24 1018 53 10000 8.7 40 16:45 12.06.2020
1471 Clouds 23 1018 60 10000 10.8 30 16:21 12.06.2020
1472 Clouds 23 1019 56 10000 10.3 30 15:49 12.06.2020
1473 Clouds 24 1018 53 10000 9.8 30 15:27 12.06.2020
1474 Clouds 22 1019 57 10000 8.7 30 14:58 12.06.2020
1475 Clouds 21 1019 60 10000 8.7 30 14:39 12.06.2020
1476 Clouds 23 1019 60 10000 8.7 30 14:21 12.06.2020
1477 Clouds 22 1019 53 10000 8.2 20 13:42 12.06.2020
1478 Clouds 23 1020 56 10000 7.7 20 13:22 12.06.2020
1479 Clouds 21 1019 56 10000 8.2 40 12:41 12.06.2020
1480 Clouds 21 1019 56 10000 8.2 40 12:20 12.06.2020
1481 Clouds 23 1019 56 10000 8.7 40 11:59 12.06.2020
1482 Clouds 20 1019 53 10000 5.7 10 11:40 12.06.2020
1483 Clouds 22 1019 53 10000 5.7 10 11:22 12.06.2020
1484 Clouds 22 1019 56 10000 7.2 360 10:46 12.06.2020
1485 Clouds 22 1019 60 10000 7.2 360 10:25 12.06.2020
1486 Clouds 18 1018 64 10000 6.2 360 09:47 12.06.2020
1487 Clouds 21 1018 64 10000 5.7 360 09:22 12.06.2020
1488 Clouds 21 1018 64 10000 5.7 10 08:46 12.06.2020
1489 Clouds 20 1018 64 10000 5.1 10 08:25 12.06.2020
1490 Clouds 20 1018 64 10000 4.6 360 07:56 12.06.2020
1491 Clouds 20 1018 64 10000 3.6 10 07:38 12.06.2020
1492 Clouds 20 1018 64 10000 3.6 10 07:19 12.06.2020
1493 Clouds 21 1018 64 10000 5.7 360 06:31 12.06.2020
1494 Clouds 18 1017 64 10000 5.7 350 05:57 12.06.2020
1495 Clouds 18 1017 64 10000 4.6 360 05:38 12.06.2020
1496 Clouds 21 1017 64 10000 4.6 360 05:19 12.06.2020
1497 Clouds 19 1018 68 10000 5.7 10 03:33 12.06.2020
1498 Clouds 19 1020 68 10000 3.6 360 01:57 12.06.2020
1499 Clouds 21 1019 68 10000 5.1 10 01:30 12.06.2020
1500 Clouds 19 1020 68 10000 3.6 360 00:47 12.06.2020
1501 Clouds 19 1019 68 10000 3.6 10 00:26 12.06.2020
1502 Clouds 19 1019 68 10000 5.1 10 23:59 11.06.2020
1503 Clouds 19 1019 68 10000 5.1 10 23:59 11.06.2020
1504 Clouds 19 1019 68 10000 5.7 20 23:41 11.06.2020
1505 Clouds 21 1019 68 10000 5.7 20 23:22 11.06.2020
1506 Clouds 20 1019 68 10000 4.6 10 22:59 11.06.2020
1507 Clouds 20 1018 64 10000 7.2 20 22:39 11.06.2020
1508 Clouds 22 1018 64 10000 7.2 20 22:20 11.06.2020
1509 Clouds 21 1018 64 10000 9.3 20 21:56 11.06.2020
1510 Clouds 21 1017 68 10000 7.7 20 21:38 11.06.2020
1511 Clouds 22 1017 68 10000 7.7 20 21:20 11.06.2020
1512 Clouds 22 1017 68 10000 7.7 20 21:20 11.06.2020
1513 Clouds 22 1018 68 10000 7.2 20 20:45 11.06.2020
1514 Clouds 20 1018 64 10000 7.2 20 20:22 11.06.2020
1515 Clouds 20 1019 68 10000 5.7 20 19:58 11.06.2020
1516 Clouds 22 1020 68 10000 5.1 20 19:40 11.06.2020
1517 Clouds 21 1020 68 10000 5.1 20 19:22 11.06.2020
1518 Clouds 21 1019 64 10000 5.7 30 18:42 11.06.2020
1519 Clouds 22 1019 64 10000 5.7 30 18:24 11.06.2020
1520 Clouds 22 1019 64 10000 6.7 20 17:57 11.06.2020
1521 Clouds 23 1019 64 10000 6.2 30 17:38 11.06.2020
1522 Clouds 23 1019 64 10000 6.2 30 17:19 11.06.2020
1523 Clouds 23 1020 60 10000 5.7 30 16:57 11.06.2020
1524 Clouds 22 1020 64 10000 6.2 20 16:38 11.06.2020
1525 Clouds 23 1020 64 10000 6.2 20 16:20 11.06.2020
1526 Clouds 22 1021 64 10000 4.6 40 15:43 11.06.2020
1527 Clouds 23 1021 64 10000 4.6 40 15:25 11.06.2020
1528 Clouds 22 1020 64 10000 5.7 40 14:58 11.06.2020
1529 Clouds 22 1021 68 10000 5.1 30 14:39 11.06.2020
1530 Clouds 23 1021 68 10000 5.1 30 14:20 11.06.2020
1531 Clouds 22 1020 60 10000 5.1 40 13:55 11.06.2020
1532 Clouds 23 1020 64 10000 6.2 30 13:37 11.06.2020
1533 Clouds 22 1020 64 10000 7.2 30 13:18 11.06.2020
1534 Clouds 22 1020 64 10000 7.2 30 12:54 11.06.2020
1535 Clouds 23 1020 64 10000 6.2 30 12:36 11.06.2020
1536 Clouds 21 1020 64 10000 5.7 30 12:18 11.06.2020
1537 Clouds 21 1020 64 10000 5.7 30 11:56 11.06.2020
1538 Clouds 21 1020 64 10000 4.1 30 11:37 11.06.2020
1539 Clouds 21 1020 64 10000 4.6 40 11:18 11.06.2020
1540 Clouds 20 1020 68 10000 5.1 40 10:42 11.06.2020
1541 Clouds 20 1020 73 10000 5.7 30 10:20 11.06.2020
1542 Clouds 21 1020 73 10000 5.1 30 09:45 11.06.2020
1543 Clouds 21 1020 73 10000 5.1 30 09:26 11.06.2020
1544 Clouds 19 1020 73 10000 5.1 40 08:55 11.06.2020
1545 Clouds 21 1019 73 10000 5.7 30 08:37 11.06.2020
1546 Clouds 19 1019 73 10000 5.7 30 08:18 11.06.2020
1547 Clouds 19 1019 73 10000 4.6 40 07:41 11.06.2020
1548 Clouds 19 1019 73 10000 4.6 40 07:23 11.06.2020
1549 Clouds 19 1019 73 10000 6.7 30 06:33 11.06.2020
1550 Clouds 19 1019 73 10000 6.7 30 06:33 11.06.2020
1551 Clouds 19 1019 73 10000 6.2 30 05:57 11.06.2020
1552 Clouds 21 1020 73 10000 6.2 30 04:41 11.06.2020
1553 Clouds 19 1021 68 10000 5.1 30 03:25 11.06.2020
1554 Clouds 21 1021 68 10000 7.2 30 02:46 11.06.2020
1555 Clouds 20 1021 68 10000 7.7 30 01:56 11.06.2020
1556 Clouds 22 1021 68 10000 6.2 20 01:35 11.06.2020
1557 Clouds 22 1021 68 10000 6.7 10 00:57 11.06.2020
1558 Clouds 20 1020 68 10000 5.7 10 00:38 11.06.2020
1559 Clouds 21 1020 73 10000 7.2 10 00:19 11.06.2020
1560 Clouds 22 1019 68 10000 8.2 20 23:40 10.06.2020
1561 Clouds 22 1019 68 10000 8.2 20 23:21 10.06.2020
1562 Clouds 22 1019 64 10000 7.2 20 22:41 10.06.2020
1563 Clouds 22 1019 64 10000 7.2 20 22:22 10.06.2020
1564 Clouds 22 1019 64 10000 8.2 20 21:59 10.06.2020
1565 Clouds 22 1019 64 10000 8.2 20 21:59 10.06.2020
1566 Clouds 22 1019 68 10000 8.2 20 21:41 10.06.2020
1567 Clouds 22 1019 68 10000 8.2 20 21:19 10.06.2020
1568 Clouds 22 1019 68 10000 8.2 20 20:59 10.06.2020
1569 Clouds 23 1019 64 10000 8.2 20 20:40 10.06.2020
1570 Clouds 23 1019 64 10000 8.2 20 20:22 10.06.2020
1571 Clouds 23 1019 64 10000 8.7 20 19:59 10.06.2020
1572 Clouds 23 1019 64 10000 8.7 20 19:38 10.06.2020
1573 Clouds 24 1020 57 10000 8.2 30 19:18 10.06.2020
1574 Clouds 23 1020 60 10000 8.7 30 18:42 10.06.2020
1575 Clouds 23 1020 60 10000 8.7 30 18:22 10.06.2020
1576 Clouds 24 1020 57 10000 8.7 30 17:59 10.06.2020
1577 Clouds 24 1020 57 10000 8.7 30 17:41 10.06.2020
1578 Clouds 24 1020 57 10000 8.7 30 17:20 10.06.2020
1579 Clouds 24 1020 57 10000 9.3 30 16:59 10.06.2020
1580 Clouds 24 1020 57 10000 9.8 30 16:41 10.06.2020
1581 Clouds 24 1020 57 10000 9.8 30 16:22 10.06.2020
1582 Clouds 24 1020 53 10000 9.3 20 15:57 10.06.2020
1583 Clouds 24 1021 53 10000 9.3 30 15:37 10.06.2020
1584 Clouds 24 1021 53 10000 8.2 30 15:19 10.06.2020
1585 Clouds 24 1021 53 10000 8.2 30 14:41 10.06.2020
1586 Clouds 24 1021 53 10000 8.2 30 14:22 10.06.2020
1587 Clouds 23 1021 53 10000 7.7 30 13:57 10.06.2020
1588 Clouds 24 1021 53 10000 6.7 30 13:39 10.06.2020
1589 Clouds 23 1021 53 10000 6.7 30 13:21 10.06.2020
1590 Clouds 22 1021 56 10000 6.7 30 12:41 10.06.2020
1591 Clouds 21 1021 60 10000 6.2 30 12:19 10.06.2020
1592 Clouds 21 1021 60 10000 6.2 30 11:55 10.06.2020
1593 Clouds 21 1021 60 10000 6.7 30 11:37 10.06.2020
1594 Clouds 19 1020 60 10000 6.2 40 11:19 10.06.2020
1595 Clouds 20 1020 64 10000 6.2 20 10:41 10.06.2020
1596 Clouds 20 1020 64 10000 6.2 20 10:22 10.06.2020
1597 Clouds 20 1020 64 10000 6.2 20 09:57 10.06.2020
1598 Clouds 19 1020 68 10000 7.7 20 09:37 10.06.2020
1599 Clouds 19 1020 68 10000 7.7 20 09:19 10.06.2020
1600 Clouds 21 1020 68 10000 7.7 20 08:42 10.06.2020
1601 Clouds 21 1019 73 10000 7.2 20 08:23 10.06.2020
1602 Clouds 21 1019 68 10000 6.7 20 07:43 10.06.2020
1603 Clouds 21 1019 68 10000 6.7 20 07:23 10.06.2020
1604 Clouds 21 1019 73 10000 5.7 20 06:55 10.06.2020
1605 Clouds 21 1020 73 10000 5.1 20 06:37 10.06.2020
1606 Clouds 21 1020 68 10000 5.1 10 06:18 10.06.2020
1607 Clouds 21 1020 68 10000 5.1 10 06:18 10.06.2020
1608 Clouds 21 1020 73 10000 6.2 20 05:32 10.06.2020
1609 Clouds 22 1020 68 10000 5.1 30 04:49 10.06.2020
1610 Clouds 22 1021 68 10000 4.6 30 04:28 10.06.2020
1611 Clouds 22 1020 68 10000 8.2 30 02:33 10.06.2020
1612 Clouds 22 1020 68 10000 9.3 30 01:42 10.06.2020
1613 Clouds 22 1020 68 10000 9.3 30 01:21 10.06.2020
1614 Clouds 22 1020 68 10000 8.2 30 00:38 10.06.2020
1615 Clouds 22 1020 68 10000 8.2 30 00:20 10.06.2020
1616 Clouds 22 1020 73 10000 7.2 30 23:41 09.06.2020
1617 Clouds 22 1020 73 10000 7.2 30 23:23 09.06.2020
1618 Clouds 22 1020 73 10000 8.2 30 22:57 09.06.2020
1619 Clouds 22 1019 73 10000 9.3 30 22:39 09.06.2020
1620 Clouds 22 1019 73 10000 9.3 30 22:20 09.06.2020
1621 Clouds 23 1019 69 10000 9.3 20 21:57 09.06.2020
1622 Clouds 23 1018 69 10000 7.7 20 21:39 09.06.2020
1623 Clouds 23 1018 69 10000 7.7 20 21:21 09.06.2020
1624 Clouds 23 1018 69 10000 8.7 20 20:57 09.06.2020
1625 Clouds 24 1018 73 10000 8.2 20 20:39 09.06.2020
1626 Clouds 24 1018 73 10000 8.2 20 20:20 09.06.2020
1627 Clouds 25 1018 64 10000 8.2 20 19:58 09.06.2020
1628 Clouds 25 1018 64 10000 8.2 20 19:39 09.06.2020
1629 Clouds 25 1018 64 10000 8.2 20 19:20 09.06.2020
1630 Clouds 25 1019 64 10000 8.2 20 18:57 09.06.2020
1631 Clouds 24 1019 60 10000 8.2 10 18:39 09.06.2020
1632 Clouds 26 1019 57 10000 7.2 10 18:19 09.06.2020
1633 Clouds 25 1019 57 10000 7.2 10 17:55 09.06.2020
1634 Clouds 25 1019 64 10000 7.2 20 17:37 09.06.2020
1635 Clouds 25 1019 64 10000 7.2 20 17:18 09.06.2020
1636 Clouds 25 1019 57 10000 7.2 30 16:42 09.06.2020
1637 Clouds 25 1019 57 10000 7.2 30 16:23 09.06.2020
1638 Clouds 25 1020 61 10000 7.7 30 15:57 09.06.2020
1639 Clouds 25 1020 57 10000 8.2 30 15:38 09.06.2020
1640 Clouds 25 1020 57 10000 8.2 30 15:19 09.06.2020
1641 Clouds 26 1020 57 10000 7.7 40 14:42 09.06.2020
1642 Clouds 26 1020 57 10000 7.7 40 14:21 09.06.2020
1643 Clouds 25 1020 61 10000 8.7 30 13:59 09.06.2020
1644 Clouds 25 1020 61 10000 9.3 30 13:41 09.06.2020
1645 Clouds 25 1020 61 10000 9.3 40 13:21 09.06.2020
1646 Clouds 25 1020 61 10000 9.3 40 12:58 09.06.2020
1647 Clouds 24 1020 64 10000 8.7 40 12:40 09.06.2020
1648 Clouds 24 1020 60 10000 9.3 30 12:18 09.06.2020
1649 Clouds 24 1020 60 10000 9.3 30 11:55 09.06.2020
1650 Clouds 24 1020 64 10000 9.3 30 11:37 09.06.2020
1651 Clouds 23 1020 69 10000 8.2 30 11:18 09.06.2020
1652 Clouds 23 1020 73 10000 8.2 30 10:43 09.06.2020
1653 Clouds 22 1020 73 10000 8.2 30 10:25 09.06.2020
1654 Clouds 22 1019 68 10000 7.7 10 09:44 09.06.2020
1655 Clouds 22 1019 68 10000 7.7 10 09:25 09.06.2020
1656 Clouds 21 1019 73 10000 8.2 20 08:57 09.06.2020
1657 Clouds 20 1018 77 10000 7.2 10 08:39 09.06.2020
1658 Clouds 20 1018 77 10000 7.2 10 08:20 09.06.2020
1659 Clouds 20 1018 77 10000 9.3 20 07:39 09.06.2020
1660 Clouds 21 1018 78 10000 8.2 30 07:20 09.06.2020
1661 Clouds 21 1018 78 10000 8.2 30 06:54 09.06.2020
1662 Clouds 21 1018 78 10000 7.2 30 06:35 09.06.2020
1663 Clouds 22 1019 78 10000 7.7 30 05:36 09.06.2020
1664 Clouds 22 1020 78 10000 6.7 20 03:47 09.06.2020
1665 Clouds 22 1020 78 10000 7.7 20 01:44 09.06.2020
1666 Clouds 22 1020 78 10000 7.7 20 01:20 09.06.2020
1667 Clouds 22 1020 78 10000 7.7 20 00:55 09.06.2020
1668 Clouds 22 1020 78 10000 7.2 20 00:37 09.06.2020
1669 Clouds 22 1019 78 10000 7.7 20 00:18 09.06.2020
1670 Clouds 22 1019 78 10000 7.2 20 23:40 08.06.2020
1671 Clouds 22 1019 78 10000 7.2 20 23:19 08.06.2020
1672 Clouds 23 1019 73 10000 7.7 10 22:54 08.06.2020
1673 Clouds 23 1019 73 10000 7.7 10 22:36 08.06.2020
1674 Clouds 23 1019 73 10000 7.2 10 22:18 08.06.2020
1675 Clouds 23 1019 73 10000 7.2 10 21:54 08.06.2020
1676 Clouds 23 1019 73 10000 8.2 20 21:36 08.06.2020
1677 Clouds 23 1018 73 10000 8.2 20 21:18 08.06.2020
1678 Clouds 23 1018 73 10000 8.2 20 20:54 08.06.2020
1679 Clouds 24 1018 64 10000 8.7 10 20:36 08.06.2020
1680 Clouds 25 1018 69 10000 8.7 20 20:18 08.06.2020
1681 Clouds 25 1018 69 10000 9.3 30 19:41 08.06.2020
1682 Clouds 24 1018 64 10000 9.3 20 19:20 08.06.2020
1683 Clouds 26 1018 65 10000 9.8 30 18:41 08.06.2020
1684 Clouds 26 1018 65 10000 10.3 20 18:20 08.06.2020
1685 Clouds 25 1018 65 10000 10.3 20 17:57 08.06.2020
1686 Clouds 26 1018 61 10000 10.3 30 17:39 08.06.2020
1687 Clouds 25 1018 61 10000 10.3 30 17:20 08.06.2020
1688 Clouds 25 1018 57 10000 10.8 30 16:46 08.06.2020
1689 Clouds 25 1018 57 10000 10.8 30 16:25 08.06.2020
1690 Clouds 25 1018 61 10000 11.3 30 15:59 08.06.2020
1691 Clouds 25 1019 65 10000 10.8 30 15:41 08.06.2020
1692 Clouds 25 1019 65 10000 10.8 30 15:21 08.06.2020
1693 Clouds 25 1019 65 10000 10.8 30 15:21 08.06.2020
1694 Clouds 25 1019 57 10000 10.8 30 14:56 08.06.2020
1695 Clouds 25 1019 61 10000 10.8 30 14:38 08.06.2020
1696 Clouds 25 1019 65 10000 11.8 30 14:18 08.06.2020
1697 Clouds 25 1019 65 10000 11.8 30 14:18 08.06.2020
1698 Clouds 24 1019 61 10000 11.8 30 13:42 08.06.2020
1699 Clouds 25 1019 61 10000 11.8 30 13:21 08.06.2020
1700 Clouds 25 1018 57 10000 10.8 20 12:42 08.06.2020
1701 Clouds 24 1018 64 10000 11.8 20 12:20 08.06.2020
1702 Clouds 24 1018 64 10000 11.8 20 12:19 08.06.2020
1703 Clouds 24 1018 64 10000 11.8 20 11:58 08.06.2020
1704 Clouds 23 1018 60 10000 9.8 10 11:39 08.06.2020
1705 Clouds 23 1018 60 10000 9.8 10 11:20 08.06.2020
1706 Clouds 23 1018 57 10000 9.8 10 10:56 08.06.2020
1707 Clouds 23 1018 64 10000 9.3 360 10:37 08.06.2020
1708 Clouds 23 1018 64 10000 9.3 360 10:19 08.06.2020
1709 Clouds 22 1017 60 10000 7.7 10 09:46 08.06.2020
1710 Clouds 21 1017 60 10000 7.7 10 09:23 08.06.2020
1711 Clouds 21 1017 64 10000 7.7 360 08:50 08.06.2020
1712 Clouds 20 1017 64 10000 7.2 10 08:24 08.06.2020
1713 Clouds 20 1016 64 10000 6.7 360 07:56 08.06.2020
1714 Clouds 20 1016 64 10000 6.7 360 07:56 08.06.2020
1715 Clouds 20 1016 64 10000 7.2 360 07:38 08.06.2020
1716 Clouds 20 1016 64 10000 6.7 340 07:19 08.06.2020
1717 Clouds 20 1017 68 10000 6.7 350 06:39 08.06.2020
1718 Clouds 20 1017 72 10000 3.6 360 05:55 08.06.2020
1719 Clouds 21 1018 73 10000 4.6 360 04:59 08.06.2020
1720 Clouds 21 1018 77 10000 7.2 20 03:24 08.06.2020
1721 Clouds 21 1018 77 10000 7.2 20 03:24 08.06.2020
1722 Clouds 22 1019 73 10000 4.6 20 02:26 08.06.2020
1723 Clouds 22 1019 73 10000 6.7 20 01:42 08.06.2020
1724 Clouds 22 1019 73 10000 7.2 20 00:57 08.06.2020
1725 Clouds 22 1019 73 10000 6.2 20 00:24 08.06.2020
1726 Clouds 22 1019 73 10000 7.7 20 23:38 07.06.2020
1727 Clouds 22 1019 73 10000 7.7 20 23:19 07.06.2020
1728 Clouds 22 1018 73 10000 9.3 20 22:57 07.06.2020
1729 Clouds 22 1018 73 10000 9.3 20 22:37 07.06.2020
1730 Clouds 23 1018 73 10000 9.3 20 22:18 07.06.2020
1731 Clouds 23 1018 73 10000 9.3 20 21:58 07.06.2020
1732 Clouds 23 1018 73 10000 9.3 30 21:36 07.06.2020
1733 Clouds 23 1018 73 10000 9.3 30 21:18 07.06.2020
1734 Clouds 24 1018 69 10000 9.8 30 20:39 07.06.2020
1735 Clouds 24 1018 69 10000 9.8 30 20:20 07.06.2020
1736 Clouds 23 1017 69 10000 10.3 30 19:57 07.06.2020
1737 Clouds 24 1017 69 10000 10.8 40 19:38 07.06.2020
1738 Clouds 24 1017 69 10000 10.8 40 19:20 07.06.2020
1739 Clouds 24 1017 61 10000 10.8 40 18:59 07.06.2020
1740 Clouds 24 1017 65 10000 10.8 40 18:38 07.06.2020
1741 Clouds 24 1017 61 10000 10.3 40 18:19 07.06.2020
1742 Clouds 25 1017 61 10000 10.3 40 17:57 07.06.2020
1743 Clouds 24 1018 69 10000 9.3 40 17:38 07.06.2020
1744 Clouds 24 1018 69 10000 9.3 40 17:19 07.06.2020
1745 Clouds 25 1018 61 10000 9.8 40 16:42 07.06.2020
1746 Clouds 25 1018 61 10000 9.8 40 16:21 07.06.2020
1747 Clouds 25 1018 61 10000 8.7 40 15:42 07.06.2020
1748 Clouds 25 1018 61 10000 8.7 40 15:22 07.06.2020
1749 Clouds 25 1018 61 10000 8.2 40 14:41 07.06.2020
1750 Clouds 26 1018 61 10000 8.2 40 14:22 07.06.2020
1751 Clouds 25 1018 65 10000 7.7 40 13:49 07.06.2020
1752 Clouds 25 1018 69 10000 7.7 50 13:22 07.06.2020
1753 Clouds 25 1018 65 10000 8.2 40 12:57 07.06.2020
1754 Clouds 24 1018 65 10000 9.3 40 12:39 07.06.2020
1755 Clouds 24 1018 65 10000 9.3 40 12:39 07.06.2020
1756 Clouds 24 1018 65 10000 8.2 40 12:20 07.06.2020
1757 Clouds 24 1018 65 10000 8.2 40 11:55 07.06.2020
1758 Clouds 24 1017 61 10000 7.7 20 11:36 07.06.2020
1759 Clouds 24 1017 61 10000 7.7 20 11:18 07.06.2020
1760 Clouds 23 1017 69 10000 6.7 10 10:45 07.06.2020
1761 Clouds 23 1017 69 10000 6.7 10 10:20 07.06.2020
1762 Clouds 23 1017 69 10000 6.7 10 10:20 07.06.2020
1763 Clouds 23 1017 69 10000 4.6 10 09:59 07.06.2020
1764 Clouds 22 1017 64 10000 3.6 350 09:39 07.06.2020
1765 Clouds 22 1017 64 10000 3.6 350 09:20 07.06.2020
1766 Clouds 21 1017 73 10000 1 0 08:57 07.06.2020
1767 Clouds 20 1017 73 10000 2.1 340 08:39 07.06.2020
1768 Clouds 20 1017 73 10000 2.1 340 08:21 07.06.2020
1769 Clouds 20 1016 83 10000 1 340 07:33 07.06.2020
1770 Clouds 21 1016 83 10000 1 0 06:53 07.06.2020
1771 Clouds 21 1016 88 10000 2.31 337 05:52 07.06.2020
1772 Clouds 21 1016 88 10000 1 0 04:21 07.06.2020
1773 Clouds 21 1016 83 10000 1.5 70 03:33 07.06.2020
1774 Clouds 22 1017 83 10000 3.6 70 02:18 07.06.2020
1775 Clouds 22 1017 78 10000 2.1 40 01:25 07.06.2020
1776 Clouds 22 1017 78 10000 3.1 10 00:47 07.06.2020
1777 Clouds 22 1017 78 10000 3.1 10 00:20 07.06.2020
1778 Clouds 22 1016 73 10000 3.1 10 23:58 06.06.2020
1779 Clouds 22 1016 73 10000 3.1 360 23:37 06.06.2020
1780 Clouds 22 1016 73 10000 3.1 360 23:37 06.06.2020
1781 Clouds 22 1016 73 10000 3.1 360 23:19 06.06.2020
1782 Clouds 22 1016 73 10000 3.1 20 22:56 06.06.2020
1783 Clouds 23 1015 78 10000 3.6 360 22:38 06.06.2020
1784 Clouds 23 1015 78 10000 3.6 360 22:19 06.06.2020
1785 Clouds 23 1015 78 10000 3.6 360 22:19 06.06.2020
1786 Clouds 23 1015 73 10000 4.6 30 21:45 06.06.2020
1787 Clouds 24 1015 73 10000 4.6 30 21:22 06.06.2020
1788 Clouds 24 1014 65 10000 5.7 30 20:57 06.06.2020
1789 Clouds 26 1014 54 10000 3.6 40 20:38 06.06.2020
1790 Clouds 26 1014 54 10000 3.6 40 20:18 06.06.2020
1791 Clouds 26 1014 57 10000 3.1 40 20:18 06.06.2020
1792 Clouds 26 1014 57 10000 3.1 40 19:57 06.06.2020
1793 Clouds 26 1014 54 10000 3.1 360 19:38 06.06.2020
1794 Clouds 26 1014 54 10000 2.1 30 19:19 06.06.2020
1795 Clouds 26 1014 61 10000 3.6 80 18:43 06.06.2020
1796 Clouds 26 1014 61 10000 3.6 80 18:24 06.06.2020
1797 Clouds 26 1014 61 10000 5.1 70 17:58 06.06.2020
1798 Clouds 25 1015 73 10000 4.6 90 17:39 06.06.2020
1799 Clouds 25 1015 69 10000 4.6 100 17:19 06.06.2020
1800 Clouds 25 1015 65 10000 5.1 70 16:44 06.06.2020
1801 Clouds 26 1015 65 10000 5.1 70 16:22 06.06.2020
1802 Clouds 26 1015 61 10000 6.2 40 15:56 06.06.2020
1803 Clouds 26 1015 57 10000 7.2 30 15:37 06.06.2020
1804 Clouds 26 1015 57 10000 7.2 30 15:19 06.06.2020
1805 Clouds 26 1015 57 10000 7.2 20 14:43 06.06.2020
1806 Clouds 26 1015 57 10000 7.2 20 14:24 06.06.2020
1807 Clouds 26 1015 61 10000 6.7 30 13:58 06.06.2020
1808 Clouds 26 1015 57 10000 5.1 30 13:40 06.06.2020
1809 Clouds 26 1015 57 10000 5.7 20 13:18 06.06.2020
1810 Clouds 25 1015 57 10000 6.7 30 12:43 06.06.2020
1811 Clouds 25 1015 57 10000 6.7 30 12:23 06.06.2020
1812 Clouds 24 1014 65 10000 6.2 40 11:58 06.06.2020
1813 Clouds 24 1014 65 10000 6.2 40 11:58 06.06.2020
1814 Clouds 25 1014 54 10000 3.6 0 11:38 06.06.2020
1815 Clouds 25 1014 54 10000 3.6 0 11:20 06.06.2020
1816 Clouds 24 1014 65 10000 5.1 210 10:58 06.06.2020
1817 Clouds 23 1014 69 10000 2.6 220 10:39 06.06.2020
1818 Clouds 23 1014 69 10000 2.6 220 10:21 06.06.2020
1819 Clouds 22 1013 68 10000 1 0 09:46 06.06.2020
1820 Clouds 22 1013 68 10000 1 0 09:28 06.06.2020
1821 Clouds 21 1013 73 10000 2.1 300 08:58 06.06.2020
1822 Clouds 21 1013 73 10000 2.1 260 08:40 06.06.2020
1823 Clouds 21 1013 73 10000 2.1 260 08:19 06.06.2020
1824 Clouds 21 1013 77 10000 2.6 340 07:45 06.06.2020
1825 Clouds 21 1013 77 10000 2.6 340 07:45 06.06.2020
1826 Clouds 21 1013 77 10000 2.6 340 07:22 06.06.2020
1827 Clear 22 1012 73 10000 1 0 06:46 06.06.2020
1828 Clear 22 1012 73 10000 1 0 06:27 06.06.2020
1829 Clear 22 1012 69 10000 3.1 310 05:53 06.06.2020
1830 Clear 22 1012 78 10000 4.6 320 05:27 06.06.2020
1831 Clear 22 1012 69 10000 3.6 20 04:42 06.06.2020
1832 Clouds 22 1013 78 10000 1 0 02:45 06.06.2020
1833 Clouds 23 1013 69 10000 4.6 310 01:45 06.06.2020
1834 Clouds 23 1013 69 10000 4.6 310 01:18 06.06.2020
1835 Clouds 24 1013 50 10000 4.1 230 00:43 06.06.2020
1836 Clouds 24 1013 50 10000 4.1 230 00:25 06.06.2020
1837 Clouds 24 1013 54 10000 3.6 230 23:40 05.06.2020
1838 Clouds 24 1013 54 10000 3.6 230 23:21 05.06.2020
1839 Clouds 24 1013 54 10000 6.2 220 22:59 05.06.2020
1840 Clouds 24 1013 54 10000 5.1 220 22:41 05.06.2020
1841 Clouds 24 1013 54 10000 5.1 220 22:23 05.06.2020
1842 Clouds 25 1013 51 10000 6.2 220 21:58 05.06.2020
1843 Clouds 25 1013 51 10000 7.2 230 21:40 05.06.2020
1844 Clouds 25 1013 51 10000 7.2 230 21:19 05.06.2020
1845 Clouds 25 1012 48 10000 8.7 220 20:56 05.06.2020
1846 Clouds 26 1012 48 10000 8.7 220 20:37 05.06.2020
1847 Clouds 26 1012 48 10000 8.7 220 20:19 05.06.2020
1848 Clouds 27 1012 45 10000 8.7 220 19:40 05.06.2020
1849 Clouds 27 1012 45 10000 8.7 220 19:40 05.06.2020
1850 Clouds 27 1012 45 10000 8.7 220 19:22 05.06.2020
1851 Clouds 27 1013 45 10000 9.3 230 18:54 05.06.2020
1852 Clouds 26 1013 51 10000 8.2 240 18:36 05.06.2020
1853 Clouds 26 1013 51 10000 9.3 220 18:18 05.06.2020
1854 Clouds 25 1013 51 10000 9.3 220 17:55 05.06.2020
1855 Clouds 26 1013 58 10000 8.7 210 17:37 05.06.2020
1856 Clouds 26 1013 58 10000 8.7 210 17:18 05.06.2020
1857 Clouds 24 1015 69 10000 8.7 190 16:37 05.06.2020
1858 Clouds 25 1015 69 10000 8.7 190 16:19 05.06.2020
1859 Clouds 25 1015 73 10000 8.7 170 15:40 05.06.2020
1860 Clouds 25 1015 73 10000 8.7 170 15:21 05.06.2020
1861 Clouds 25 1015 73 10000 8.7 170 14:58 05.06.2020
1862 Clouds 24 1015 73 10000 5.7 160 14:40 05.06.2020
1863 Clouds 24 1015 73 10000 5.7 160 14:39 05.06.2020
1864 Clouds 24 1015 73 10000 5.7 160 14:21 05.06.2020
1865 Clouds 25 1015 73 10000 6.7 160 13:47 05.06.2020
1866 Clouds 25 1015 73 10000 6.7 160 13:28 05.06.2020
1867 Clouds 23 1014 78 10000 3.6 150 12:57 05.06.2020
1868 Clouds 24 1014 73 10000 3.1 150 12:38 05.06.2020
1869 Clouds 24 1014 73 10000 3.1 150 12:19 05.06.2020
1870 Clouds 23 1015 78 10000 3.1 200 11:43 05.06.2020
1871 Clouds 23 1015 78 10000 3.1 200 11:24 05.06.2020
1872 Clouds 22 1015 83 10000 2.6 170 10:58 05.06.2020
1873 Clouds 22 1014 83 10000 0.5 0 10:39 05.06.2020
1874 Clouds 22 1014 83 10000 1 290 10:19 05.06.2020
1875 Clouds 22 1014 83 10000 1 290 09:57 05.06.2020
1876 Clouds 22 1014 83 10000 1 0 09:37 05.06.2020
1877 Clouds 22 1014 83 10000 1 0 09:19 05.06.2020
1878 Clouds 21 1014 83 10000 1.5 300 08:57 05.06.2020
1879 Clouds 20 1013 77 10000 1.5 310 08:38 05.06.2020
1880 Clouds 20 1013 77 10000 1.5 310 08:18 05.06.2020
1881 Clouds 20 1013 77 10000 1 0 07:48 05.06.2020
1882 Clear 21 1013 77 10000 1 0 07:30 05.06.2020
1883 Clear 21 1013 77 10000 1.41 134 06:37 05.06.2020
1884 Clouds 21 1014 83 10000 1.18 137 05:22 05.06.2020
1885 Clouds 22 1014 88 10000 0.5 0 04:27 05.06.2020
1886 Clouds 22 1015 88 10000 0.8 128 03:29 05.06.2020
1887 Clouds 22 1016 88 10000 0.5 0 02:28 05.06.2020
1888 Clouds 22 1016 83 10000 1 0 01:58 05.06.2020
1889 Clouds 22 1015 78 10000 2.6 20 01:30 05.06.2020
1890 Clouds 22 1015 78 10000 2.1 60 00:43 05.06.2020
1891 Clouds 23 1015 78 10000 2.1 60 00:21 05.06.2020
1892 Clouds 23 1015 78 10000 2.6 30 23:47 04.06.2020
1893 Clouds 23 1015 78 10000 2.6 30 23:29 04.06.2020
1894 Clouds 23 1015 78 10000 2.6 40 22:57 04.06.2020
1895 Clouds 23 1014 78 10000 3.6 30 22:37 04.06.2020
1896 Clouds 23 1014 78 10000 3.6 30 22:18 04.06.2020
1897 Clouds 23 1014 73 10000 3.6 40 21:56 04.06.2020
1898 Clouds 23 1014 73 10000 3.6 50 21:38 04.06.2020
1899 Clouds 23 1014 73 10000 3.6 50 21:38 04.06.2020
1900 Clouds 24 1014 73 10000 3.6 50 21:19 04.06.2020
1901 Clouds 24 1014 73 10000 3.6 60 20:55 04.06.2020
1902 Clouds 24 1014 73 10000 3.6 50 20:36 04.06.2020
1903 Clouds 24 1014 73 10000 3.6 50 20:18 04.06.2020
1904 Clouds 25 1014 73 10000 3.6 60 19:40 04.06.2020
1905 Clouds 25 1014 73 10000 4.1 60 19:21 04.06.2020
1906 Clouds 25 1014 73 10000 4.1 60 18:56 04.06.2020
1907 Clouds 25 1014 69 10000 4.6 70 18:38 04.06.2020
1908 Clouds 25 1014 69 10000 4.6 70 18:20 04.06.2020
1909 Clouds 25 1014 69 10000 4.1 70 17:42 04.06.2020
1910 Clouds 25 1014 69 10000 4.1 70 17:21 04.06.2020
1911 Clouds 25 1014 69 10000 5.1 70 16:56 04.06.2020
1912 Clouds 26 1014 73 10000 4.6 70 16:38 04.06.2020
1913 Clouds 25 1014 73 10000 4.6 70 16:18 04.06.2020
1914 Clouds 25 1015 69 10000 4.1 70 15:43 04.06.2020
1915 Clouds 26 1015 69 10000 4.1 70 15:24 04.06.2020
1916 Clouds 25 1015 73 10000 3.1 100 14:41 04.06.2020
1917 Clouds 25 1015 73 10000 3.1 100 14:22 04.06.2020
1918 Clouds 25 1015 73 10000 2.6 100 13:56 04.06.2020
1919 Clouds 24 1015 73 10000 3.1 110 13:38 04.06.2020
1920 Clouds 25 1015 73 10000 3.1 110 13:20 04.06.2020
1921 Clouds 25 1015 65 10000 3.1 90 12:56 04.06.2020
1922 Clouds 24 1015 65 10000 2.6 80 12:38 04.06.2020
1923 Clouds 24 1015 65 10000 2.6 80 12:20 04.06.2020
1924 Clouds 23 1015 73 10000 1.5 110 11:41 04.06.2020
1925 Clouds 23 1015 73 10000 1.5 110 11:41 04.06.2020
1926 Clouds 23 1015 73 10000 1.5 110 11:20 04.06.2020
1927 Clouds 23 1015 78 10000 1 0 10:59 04.06.2020
1928 Clouds 23 1015 73 10000 1 0 10:39 04.06.2020
1929 Clouds 23 1015 73 10000 1 0 10:21 04.06.2020
1930 Clouds 22 1014 78 10000 1.5 250 09:46 04.06.2020
1931 Clouds 22 1014 78 10000 1.5 250 09:28 04.06.2020
1932 Clouds 20 1014 77 10000 1.5 260 08:57 04.06.2020
1933 Clouds 20 1014 77 10000 1.5 260 08:38 04.06.2020
1934 Clouds 20 1014 77 10000 1.5 260 08:20 04.06.2020
1935 Clouds 20 1013 77 10000 2.1 320 07:31 04.06.2020
1936 Clouds 21 1013 73 10000 1.5 310 06:47 04.06.2020
1937 Clouds 21 1013 73 10000 1.5 310 06:27 04.06.2020
1938 Clouds 21 1013 77 10000 1 0 05:52 04.06.2020
1939 Clouds 21 1013 77 10000 1 0 05:31 04.06.2020
1940 Clouds 22 1014 78 10000 1 310 03:34 04.06.2020
1941 Clouds 22 1015 78 10000 1 210 02:19 04.06.2020
1942 Clouds 22 1016 73 10000 0.5 0 01:21 04.06.2020
1943 Clouds 22 1015 78 10000 1.98 291 00:59 04.06.2020
1944 Clouds 22 1015 78 10000 2.1 190 00:18 04.06.2020
1945 Clouds 23 1015 78 10000 2.6 170 23:37 03.06.2020
1946 Clouds 23 1015 78 10000 2.6 170 23:18 03.06.2020
1947 Clouds 23 1014 73 10000 1.5 130 22:40 03.06.2020
1948 Clouds 23 1014 73 10000 1.5 130 22:19 03.06.2020
1949 Clouds 23 1014 78 10000 2.1 130 21:59 03.06.2020
1950 Clouds 23 1014 78 10000 2.1 80 21:41 03.06.2020
1951 Clouds 23 1014 78 10000 2.1 80 21:22 03.06.2020
1952 Clouds 24 1013 73 10000 2.6 60 20:58 03.06.2020
1953 Clouds 24 1014 73 10000 4.1 60 20:40 03.06.2020
1954 Clouds 24 1014 73 10000 4.1 60 20:20 03.06.2020
1955 Clouds 25 1013 69 10000 4.1 40 19:57 03.06.2020
1956 Clouds 25 1013 69 10000 4.6 20 19:38 03.06.2020
1957 Clouds 25 1014 73 10000 4.1 30 19:19 03.06.2020
1958 Clouds 25 1014 73 10000 4.1 30 18:57 03.06.2020
1959 Clouds 25 1014 69 10000 4.6 20 18:38 03.06.2020
1960 Clouds 25 1014 65 10000 4.6 50 18:18 03.06.2020
1961 Clouds 25 1014 69 10000 4.1 70 17:44 03.06.2020
1962 Clouds 25 1014 69 10000 4.1 70 17:22 03.06.2020
1963 Clouds 25 1015 65 10000 4.1 70 16:57 03.06.2020
1964 Clouds 25 1015 69 10000 3.6 90 16:39 03.06.2020
1965 Clouds 25 1015 69 10000 3.6 90 16:19 03.06.2020
1966 Clouds 25 1015 69 10000 4.1 50 15:41 03.06.2020
1967 Clouds 24 1015 69 10000 4.1 50 15:21 03.06.2020
1968 Clouds 24 1015 73 10000 4.1 70 14:59 03.06.2020
1969 Clouds 24 1015 73 10000 4.1 60 14:40 03.06.2020
1970 Clouds 24 1015 73 10000 4.1 60 14:21 03.06.2020
1971 Clouds 25 1015 73 10000 4.6 60 13:40 03.06.2020
1972 Clouds 24 1015 65 10000 5.1 40 13:20 03.06.2020
1973 Clouds 24 1015 64 10000 4.6 50 12:44 03.06.2020
1974 Clouds 24 1015 64 10000 4.6 50 12:23 03.06.2020
1975 Clouds 24 1015 73 10000 2.6 80 11:59 03.06.2020
1976 Clouds 23 1015 73 10000 1.5 80 11:40 03.06.2020
1977 Clouds 23 1015 73 10000 1.5 80 11:22 03.06.2020
1978 Clouds 22 1014 73 10000 1.5 40 10:42 03.06.2020
1979 Clouds 22 1014 73 10000 1.5 40 10:24 03.06.2020
1980 Clouds 21 1014 68 10000 1.5 320 09:47 03.06.2020
1981 Clouds 21 1014 68 10000 1.5 320 09:47 03.06.2020
1982 Clouds 21 1014 68 10000 1.5 320 09:22 03.06.2020
1983 Clouds 20 1014 72 10000 1.5 310 08:59 03.06.2020
1984 Clouds 20 1014 72 10000 1 250 08:40 03.06.2020
1985 Clouds 20 1014 72 10000 1 250 08:20 03.06.2020
1986 Clouds 20 1014 72 10000 1.5 270 07:43 03.06.2020
1987 Clouds 20 1014 77 10000 2.1 270 07:22 03.06.2020
1988 Clouds 20 1014 77 10000 2.1 270 06:54 03.06.2020
1989 Clouds 20 1014 77 10000 2.6 290 06:33 03.06.2020
1990 Clouds 20 1014 77 10000 2.1 310 05:48 03.06.2020
1991 Clear 20 1014 77 10000 2.1 340 04:59 03.06.2020
1992 Clear 21 1014 73 10000 2.6 340 03:51 03.06.2020
1993 Clear 21 1014 73 10000 2.6 310 03:21 03.06.2020
1994 Clouds 21 1015 73 10000 2.1 340 02:23 03.06.2020
1995 Clouds 22 1015 73 10000 2.1 340 00:47 03.06.2020
1996 Clouds 22 1015 73 10000 2.1 340 00:25 03.06.2020
1997 Clouds 22 1015 78 10000 2.6 360 23:52 02.06.2020
1998 Clouds 22 1015 78 10000 2.6 10 23:28 02.06.2020
1999 Clouds 22 1015 78 10000 2.6 10 23:28 02.06.2020
2000 Clouds 22 1015 78 10000 2.1 20 22:57 02.06.2020
2001 Clouds 22 1015 73 10000 2.1 20 22:38 02.06.2020
2002 Clouds 22 1015 73 10000 2.1 20 22:19 02.06.2020
2003 Clouds 22 1014 69 10000 2.6 30 21:56 02.06.2020
2004 Clouds 22 1014 69 10000 3.6 40 21:38 02.06.2020
2005 Clouds 23 1014 69 10000 3.6 40 21:19 02.06.2020
2006 Clouds 23 1014 69 10000 3.6 60 20:57 02.06.2020
2007 Clouds 23 1014 64 10000 4.6 50 20:39 02.06.2020
2008 Clouds 23 1014 64 10000 4.6 50 20:20 02.06.2020
2009 Clouds 24 1014 64 10000 5.1 50 19:43 02.06.2020
2010 Clouds 24 1014 64 10000 5.1 50 19:25 02.06.2020
2011 Clouds 24 1014 60 10000 5.7 50 18:57 02.06.2020
2012 Clouds 24 1014 60 10000 5.7 50 18:57 02.06.2020
2013 Clouds 25 1014 61 10000 5.1 60 18:39 02.06.2020
2014 Clouds 24 1014 61 10000 5.1 60 18:20 02.06.2020
2015 Clouds 24 1014 60 10000 6.2 30 17:55 02.06.2020
2016 Clouds 24 1014 57 10000 6.2 30 17:37 02.06.2020
2017 Clouds 25 1015 61 10000 6.2 30 17:18 02.06.2020
2018 Clouds 24 1015 57 10000 6.2 30 16:41 02.06.2020
2019 Clouds 24 1015 57 10000 6.2 30 16:21 02.06.2020
2020 Clouds 24 1015 57 10000 6.7 30 15:58 02.06.2020
2021 Clouds 24 1015 57 10000 5.7 50 15:38 02.06.2020
2022 Clouds 24 1015 57 10000 5.7 50 15:20 02.06.2020
2023 Clouds 24 1016 64 10000 4.1 60 14:45 02.06.2020
2024 Clouds 23 1016 64 10000 4.1 60 14:27 02.06.2020
2025 Clouds 24 1015 57 10000 3.1 60 13:55 02.06.2020
2026 Clouds 23 1015 64 10000 4.1 110 13:36 02.06.2020
2027 Clouds 23 1016 60 10000 1.5 70 13:18 02.06.2020
2028 Clouds 23 1015 64 10000 2.1 0 12:40 02.06.2020
2029 Clouds 23 1015 64 10000 2.1 0 12:22 02.06.2020
2030 Clouds 22 1015 64 10000 3.1 140 11:59 02.06.2020
2031 Clouds 23 1015 69 10000 3.6 160 11:40 02.06.2020
2032 Clouds 22 1015 69 10000 3.6 160 11:20 02.06.2020
2033 Clouds 22 1015 68 10000 1 0 10:50 02.06.2020
2034 Clouds 22 1015 73 10000 1 0 10:29 02.06.2020
2035 Clouds 21 1015 77 10000 1 0 09:59 02.06.2020
2036 Clouds 20 1014 82 10000 3.1 10 09:40 02.06.2020
2037 Clouds 20 1014 82 10000 3.1 10 09:20 02.06.2020
2038 Clouds 19 1014 82 10000 2.6 320 08:53 02.06.2020
2039 Clouds 19 1014 77 10000 1.5 70 08:27 02.06.2020
2040 Clouds 19 1014 82 10000 0.5 0 07:54 02.06.2020
2041 Clouds 19 1014 82 10000 0.7 224 07:30 02.06.2020
2042 Clouds 19 1014 82 10000 1.5 220 06:51 02.06.2020
2043 Clouds 19 1014 82 10000 2.1 230 06:31 02.06.2020
2044 Clouds 19 1014 77 10000 2.1 230 05:28 02.06.2020
2045 Clouds 20 1015 77 10000 1.5 310 03:53 02.06.2020
2046 Clouds 20 1016 77 10000 1.5 330 02:30 02.06.2020
2047 Clouds 21 1016 77 10000 3.1 350 01:34 02.06.2020
2048 Clouds 22 1016 78 10000 3.6 350 00:26 02.06.2020
2049 Clouds 22 1016 78 10000 3.1 330 23:59 01.06.2020
2050 Clouds 22 1015 78 10000 4.1 340 23:38 01.06.2020
2051 Clouds 22 1015 78 10000 4.1 340 23:18 01.06.2020
2052 Clouds 22 1015 78 10000 4.1 340 22:56 01.06.2020
2053 Clouds 22 1014 78 10000 5.1 340 22:37 01.06.2020
2054 Clouds 22 1014 78 10000 5.1 340 22:18 01.06.2020
2055 Clouds 22 1014 73 10000 3.1 340 21:41 01.06.2020
2056 Clouds 22 1014 73 10000 3.1 340 21:20 01.06.2020
2057 Clouds 22 1014 83 10000 4.1 160 20:58 01.06.2020
2058 Clouds 22 1014 83 10000 6.7 160 20:40 01.06.2020
2059 Clouds 23 1014 83 10000 7.2 160 20:19 01.06.2020
2060 Clouds 23 1014 83 10000 7.2 160 19:57 01.06.2020
2061 Clouds 23 1014 78 10000 6.7 160 19:39 01.06.2020
2062 Clouds 23 1014 78 10000 6.7 160 19:20 01.06.2020
2063 Clouds 23 1014 78 10000 7.2 160 18:56 01.06.2020
2064 Clouds 23 1014 78 10000 7.2 160 18:56 01.06.2020
2065 Clouds 24 1015 73 10000 7.2 160 18:38 01.06.2020
2066 Clouds 23 1015 69 10000 6.2 170 18:18 01.06.2020
2067 Clouds 23 1015 78 10000 6.2 170 17:41 01.06.2020
2068 Clouds 23 1015 78 10000 6.2 170 17:20 01.06.2020
2069 Clouds 24 1015 69 10000 6.2 170 16:48 01.06.2020
2070 Clouds 24 1015 69 10000 6.7 160 16:26 01.06.2020
2071 Clouds 23 1015 69 10000 6.7 160 15:59 01.06.2020
2072 Clouds 24 1015 73 10000 6.2 160 15:40 01.06.2020
2073 Clouds 23 1015 73 10000 6.2 160 15:21 01.06.2020
2074 Clouds 23 1016 69 10000 5.1 150 14:58 01.06.2020
2075 Clouds 23 1016 73 10000 5.1 160 14:40 01.06.2020
2076 Clouds 23 1016 73 10000 5.1 160 14:21 01.06.2020
2077 Clouds 23 1016 69 10000 4.6 140 13:55 01.06.2020
2078 Clouds 23 1016 69 10000 4.6 140 13:55 01.06.2020
2079 Clouds 23 1016 73 10000 3.6 130 13:37 01.06.2020
2080 Clouds 23 1016 73 10000 3.6 130 13:37 01.06.2020
2081 Clouds 23 1016 73 10000 3.6 130 13:18 01.06.2020
2082 Clouds 23 1016 73 10000 3.6 130 13:18 01.06.2020
2083 Clouds 22 1016 78 10000 3.1 130 12:55 01.06.2020
2084 Clouds 23 1016 73 10000 3.1 130 12:36 01.06.2020
2085 Clouds 22 1016 73 10000 3.1 130 12:18 01.06.2020
2086 Clouds 22 1016 78 10000 2.1 100 11:39 01.06.2020
2087 Clouds 22 1016 78 10000 2.1 100 11:21 01.06.2020
2088 Clouds 22 1016 77 10000 1.5 110 10:57 01.06.2020
2089 Clouds 22 1015 73 10000 1 0 10:37 01.06.2020
2090 Clouds 22 1015 73 10000 1 0 10:18 01.06.2020
2091 Clouds 21 1015 77 10000 1 340 09:46 01.06.2020
2092 Clouds 20 1015 77 10000 1.5 300 09:27 01.06.2020
2093 Clouds 19 1015 77 10000 2.1 300 08:59 01.06.2020
2094 Clouds 18 1015 82 10000 2.1 300 08:40 01.06.2020
2095 Clouds 18 1015 82 10000 2.1 300 08:22 01.06.2020
2096 Clouds 18 1015 82 10000 2.1 290 07:42 01.06.2020
2097 Clouds 18 1014 82 10000 1.5 300 07:24 01.06.2020
2098 Clouds 18 1015 77 10000 1.23 343 06:51 01.06.2020
2099 Clouds 18 1015 72 10000 0.5 0 05:58 01.06.2020
2100 Clouds 18 1014 72 10000 0.5 0 05:22 01.06.2020
2101 Clouds 19 1015 72 10000 2.6 320 04:18 01.06.2020
2102 Clouds 19 1015 68 10000 3.1 340 03:44 01.06.2020
2103 Clouds 19 1016 77 10000 2.1 330 02:59 01.06.2020
2104 Clouds 20 1016 82 10000 3.1 20 01:47 01.06.2020
2105 Clouds 21 1016 73 10000 3.6 20 01:26 01.06.2020
2106 Clouds 21 1016 77 10000 3.1 10 00:56 01.06.2020
2107 Clouds 21 1016 77 10000 3.6 20 00:38 01.06.2020
2108 Clouds 21 1016 77 10000 3.6 20 00:19 01.06.2020
2109 Clouds 21 1016 73 10000 3.6 20 23:41 31.05.2020
2110 Clouds 22 1015 73 10000 3.1 360 23:22 31.05.2020
2111 Clouds 22 1015 78 10000 6.2 30 22:59 31.05.2020
2112 Clouds 22 1015 78 10000 6.2 30 22:41 31.05.2020
2113 Clouds 22 1015 78 10000 6.2 30 22:41 31.05.2020
2114 Clouds 22 1015 78 10000 6.2 30 22:22 31.05.2020
2115 Clouds 22 1014 78 10000 4.6 40 21:57 31.05.2020
2116 Clouds 22 1014 78 10000 6.7 30 21:39 31.05.2020
2117 Clouds 22 1014 78 10000 6.7 30 21:20 31.05.2020
2118 Clouds 22 1014 73 10000 6.7 30 20:45 31.05.2020
2119 Clouds 22 1014 78 10000 6.7 30 20:25 31.05.2020
2120 Clouds 22 1014 78 10000 6.7 30 19:56 31.05.2020
2121 Clouds 22 1014 73 10000 7.2 30 19:38 31.05.2020
2122 Clouds 22 1014 73 10000 7.2 30 19:20 31.05.2020
2123 Clouds 22 1014 73 10000 8.2 30 18:45 31.05.2020
2124 Clouds 22 1014 73 10000 8.7 30 18:25 31.05.2020
2125 Clouds 22 1014 73 10000 7.2 40 17:59 31.05.2020
2126 Clouds 23 1014 73 10000 6.7 40 17:40 31.05.2020
2127 Clouds 23 1014 73 10000 6.7 40 17:21 31.05.2020
2128 Clouds 23 1014 73 10000 6.7 40 16:41 31.05.2020
2129 Clouds 23 1014 73 10000 7.2 40 16:21 31.05.2020
2130 Clouds 22 1014 73 10000 7.7 40 15:56 31.05.2020
2131 Clouds 22 1014 73 10000 7.7 40 15:37 31.05.2020
2132 Clouds 22 1014 73 10000 7.7 40 15:18 31.05.2020
2133 Clouds 22 1014 73 10000 7.7 50 14:41 31.05.2020
2134 Clouds 22 1014 69 10000 8.7 40 14:19 31.05.2020
2135 Clouds 23 1014 64 10000 7.7 40 13:55 31.05.2020
2136 Clouds 23 1014 64 10000 6.2 40 13:37 31.05.2020
2137 Clouds 23 1014 64 10000 6.2 40 13:19 31.05.2020
2138 Clouds 23 1014 64 10000 7.2 40 12:46 31.05.2020
2139 Clouds 23 1014 60 10000 6.7 40 12:24 31.05.2020
2140 Clouds 24 1014 57 10000 5.7 40 11:56 31.05.2020
2141 Clouds 23 1014 53 10000 5.7 10 11:38 31.05.2020
2142 Clouds 23 1014 53 10000 5.7 10 11:19 31.05.2020
2143 Clouds 22 1014 56 10000 5.1 10 10:44 31.05.2020
2144 Clouds 22 1014 56 10000 5.1 10 10:44 31.05.2020
2145 Clouds 22 1013 60 10000 5.1 10 10:26 31.05.2020
2146 Clouds 21 1013 68 10000 3.1 30 09:58 31.05.2020
2147 Clouds 19 1013 72 10000 0.5 0 09:40 31.05.2020
2148 Clouds 19 1013 72 10000 0.5 0 09:20 31.05.2020
2149 Clouds 19 1012 77 10000 2.1 310 08:43 31.05.2020
2150 Clouds 19 1013 77 10000 2.6 280 08:24 31.05.2020
2151 Clouds 19 1013 82 10000 1.5 260 07:50 31.05.2020
2152 Clouds 18 1012 82 10000 0.5 0 07:22 31.05.2020
2153 Clouds 19 1012 82 10000 1 0 06:57 31.05.2020
2154 Clouds 18 1012 77 10000 1 220 06:35 31.05.2020
2155 Clouds 19 1012 77 10000 1.5 240 05:49 31.05.2020
2156 Clouds 19 1012 77 10000 4.5 337 05:31 31.05.2020
2157 Clouds 20 1013 72 10000 4.54 334 04:18 31.05.2020
2158 Clouds 20 1013 72 10000 2.1 340 03:39 31.05.2020
2159 Clouds 20 1014 72 10000 2.1 360 02:47 31.05.2020
2160 Clouds 20 1014 77 10000 4.6 20 01:46 31.05.2020
2161 Clouds 21 1014 73 10000 5.1 20 00:41 31.05.2020
2162 Clouds 21 1013 73 10000 4.6 30 00:23 31.05.2020
2163 Clouds 21 1013 68 10000 6.2 10 23:42 30.05.2020
2164 Clouds 21 1013 68 10000 6.2 10 23:23 30.05.2020
2165 Clouds 21 1013 73 10000 7.2 10 22:56 30.05.2020
2166 Clouds 21 1012 68 10000 7.2 20 22:37 30.05.2020
2167 Clouds 21 1012 68 10000 7.2 20 22:19 30.05.2020
2168 Clouds 21 1012 68 10000 7.7 30 21:42 30.05.2020
2169 Clouds 21 1012 68 10000 7.7 30 21:22 30.05.2020
2170 Clouds 21 1012 73 10000 8.7 40 20:57 30.05.2020
2171 Clouds 21 1012 73 10000 8.7 30 20:39 30.05.2020
2172 Clouds 22 1012 73 10000 8.7 30 20:21 30.05.2020
2173 Clouds 22 1012 73 10000 9.3 30 19:55 30.05.2020
2174 Clouds 22 1012 69 10000 8.7 40 19:37 30.05.2020
2175 Clouds 22 1012 69 10000 8.7 40 19:18 30.05.2020
2176 Clouds 22 1012 73 10000 8.7 40 18:43 30.05.2020
2177 Clouds 22 1012 73 10000 8.2 40 18:19 30.05.2020
2178 Clouds 22 1013 78 10000 7.7 40 17:42 30.05.2020
2179 Clouds 23 1013 69 10000 7.7 40 17:24 30.05.2020
2180 Clouds 23 1013 69 10000 7.7 40 17:24 30.05.2020
2181 Clouds 23 1013 69 10000 7.7 30 16:58 30.05.2020
2182 Clouds 23 1013 73 10000 7.7 30 16:38 30.05.2020
2183 Clouds 23 1013 73 10000 7.7 30 16:20 30.05.2020
2184 Clouds 23 1013 69 10000 7.7 30 15:42 30.05.2020
2185 Clouds 23 1014 69 10000 8.2 30 15:24 30.05.2020
2186 Clouds 23 1014 69 10000 8.2 30 15:24 30.05.2020
2187 Clouds 24 1014 69 10000 9.3 30 14:43 30.05.2020
2188 Clouds 24 1014 69 10000 9.3 30 14:24 30.05.2020
2189 Clouds 24 1013 57 10000 7.7 40 13:44 30.05.2020
2190 Clouds 24 1013 64 10000 7.7 40 13:24 30.05.2020
2191 Clouds 24 1013 60 10000 7.2 40 12:42 30.05.2020
2192 Clouds 24 1013 57 10000 6.7 40 12:21 30.05.2020
2193 Clouds 23 1013 57 10000 5.7 50 11:58 30.05.2020
2194 Clouds 22 1013 60 10000 5.7 40 11:39 30.05.2020
2195 Clouds 22 1013 60 10000 5.7 40 11:21 30.05.2020
2196 Clouds 22 1013 60 10000 3.6 360 10:41 30.05.2020
2197 Clouds 22 1013 60 10000 4.1 360 10:21 30.05.2020
2198 Clouds 21 1013 60 10000 3.1 350 09:51 30.05.2020
2199 Clouds 21 1013 64 10000 3.6 320 09:32 30.05.2020
2200 Clouds 21 1013 64 10000 3.6 320 08:52 30.05.2020
2201 Clouds 21 1013 64 10000 4.1 320 08:33 30.05.2020
2202 Clouds 21 1013 68 10000 4.6 350 07:49 30.05.2020
2203 Clouds 21 1013 68 10000 4.1 10 07:26 30.05.2020
2204 Clouds 21 1013 68 10000 3.6 360 06:58 30.05.2020
2205 Clouds 21 1013 73 10000 3.1 20 06:24 30.05.2020
2206 Clouds 21 1013 73 10000 3.6 20 05:49 30.05.2020
2207 Clouds 21 1014 68 10000 2.6 330 03:57 30.05.2020
2208 Clouds 21 1014 68 10000 5.1 360 02:31 30.05.2020
2209 Clouds 21 1015 68 10000 6.2 360 01:50 30.05.2020
2210 Clouds 21 1015 73 10000 6.7 20 00:40 30.05.2020
2211 Clouds 21 1015 73 10000 6.7 20 00:21 30.05.2020
2212 Clouds 21 1014 73 10000 6.7 10 23:58 29.05.2020
2213 Clouds 21 1014 73 10000 7.2 20 23:38 29.05.2020
2214 Clouds 21 1014 73 10000 7.2 20 23:18 29.05.2020
2215 Clouds 22 1014 68 10000 7.7 360 22:41 29.05.2020
2216 Clouds 22 1013 64 10000 8.7 10 22:20 29.05.2020
2217 Clouds 22 1013 68 10000 8.7 20 21:58 29.05.2020
2218 Clouds 22 1013 68 10000 10.3 20 21:39 29.05.2020
2219 Clouds 22 1013 68 10000 10.3 20 21:20 29.05.2020
2220 Clouds 22 1013 64 10000 11.3 30 20:45 29.05.2020
2221 Clouds 22 1013 64 10000 10.8 30 20:21 29.05.2020
2222 Clouds 23 1013 60 10000 11.3 30 19:59 29.05.2020
2223 Clouds 23 1013 60 10000 11.3 30 19:59 29.05.2020
2224 Clouds 23 1013 60 10000 11.3 30 19:41 29.05.2020
2225 Clouds 23 1013 60 10000 10.8 30 19:23 29.05.2020
2226 Clouds 24 1013 60 10000 11.3 30 18:47 29.05.2020
2227 Clouds 24 1013 60 10000 11.3 30 18:47 29.05.2020
2228 Clouds 24 1013 64 10000 11.3 40 18:21 29.05.2020
2229 Clouds 24 1013 57 10000 10.8 40 17:57 29.05.2020
2230 Clouds 24 1014 64 10000 10.8 40 17:38 29.05.2020
2231 Clouds 24 1014 64 10000 10.8 40 17:19 29.05.2020
2232 Clouds 24 1014 60 10000 11.3 30 16:44 29.05.2020
2233 Clouds 24 1014 60 10000 12.9 30 16:25 29.05.2020
2234 Clouds 24 1014 64 10000 12.3 30 15:57 29.05.2020
2235 Clouds 24 1014 60 10000 12.9 30 15:38 29.05.2020
2236 Clouds 24 1014 60 10000 12.9 30 15:19 29.05.2020
2237 Clouds 23 1015 64 10000 11.8 30 14:50 29.05.2020
2238 Clouds 24 1015 60 10000 12.3 30 14:23 29.05.2020
2239 Clouds 23 1015 64 10000 11.3 40 13:58 29.05.2020
2240 Clouds 23 1015 64 10000 11.3 40 13:58 29.05.2020
2241 Clouds 23 1016 64 10000 10.3 20 13:39 29.05.2020
2242 Clouds 23 1016 64 10000 10.3 20 13:18 29.05.2020
2243 Clouds 23 1016 64 10000 10.3 30 12:43 29.05.2020
2244 Clouds 22 1016 64 10000 10.3 30 12:24 29.05.2020
2245 Clouds 22 1016 69 10000 8.7 30 11:45 29.05.2020
2246 Clouds 22 1016 69 10000 8.7 30 11:45 29.05.2020
2247 Clouds 21 1016 68 10000 6.7 20 11:27 29.05.2020
2248 Clouds 21 1016 73 10000 7.2 10 10:58 29.05.2020
2249 Clouds 20 1016 77 10000 7.2 10 10:38 29.05.2020
2250 Clouds 20 1016 77 10000 7.2 10 10:19 29.05.2020
2251 Clouds 20 1016 77 10000 7.7 10 09:44 29.05.2020
2252 Clouds 20 1016 77 10000 4.6 360 09:20 29.05.2020
2253 Clouds 19 1016 77 10000 2.6 340 08:56 29.05.2020
2254 Clouds 19 1016 77 10000 2.6 340 08:37 29.05.2020
2255 Clouds 19 1016 77 10000 2.6 340 08:19 29.05.2020
2256 Clouds 19 1016 77 10000 5.7 360 07:40 29.05.2020
2257 Clouds 19 1016 77 10000 5.7 360 07:21 29.05.2020
2258 Clouds 19 1015 82 10000 4.1 360 06:48 29.05.2020
2259 Clouds 19 1015 77 10000 4.6 360 06:27 29.05.2020
2260 Clouds 19 1016 82 10000 4.1 360 05:51 29.05.2020
2261 Clouds 20 1017 77 10000 8.7 10 02:39 29.05.2020
2262 Clouds 20 1017 77 10000 9.3 10 01:30 29.05.2020
2263 Clouds 20 1017 77 10000 9.8 10 00:59 29.05.2020
2264 Clouds 20 1017 77 10000 9.8 10 00:40 29.05.2020
2265 Clouds 20 1017 77 10000 9.8 10 00:18 29.05.2020
2266 Clouds 20 1017 77 10000 10.3 10 23:39 28.05.2020
2267 Clouds 20 1017 77 10000 10.3 10 23:19 28.05.2020
2268 Clouds 20 1017 77 10000 9.8 20 22:44 28.05.2020
2269 Clouds 20 1016 77 10000 10.3 10 22:26 28.05.2020
2270 Clouds 21 1016 77 10000 9.8 10 21:57 28.05.2020
2271 Clouds 22 1016 73 10000 10.3 20 21:39 28.05.2020
2272 Clouds 22 1016 73 10000 10.3 20 21:20 28.05.2020
2273 Clouds 22 1016 73 10000 11.3 20 20:57 28.05.2020
2274 Clouds 23 1016 69 10000 10.8 20 20:39 28.05.2020
2275 Clouds 23 1016 69 10000 10.8 20 20:18 28.05.2020
2276 Clouds 23 1016 69 10000 11.8 30 19:55 28.05.2020
2277 Clouds 23 1016 69 10000 11.8 30 19:37 28.05.2020
2278 Clouds 23 1016 69 10000 11.8 30 19:18 28.05.2020
2279 Clouds 23 1016 69 10000 11.3 30 18:42 28.05.2020
2280 Clouds 23 1016 69 10000 11.3 30 18:22 28.05.2020
2281 Clouds 23 1016 69 10000 11.8 30 17:43 28.05.2020
2282 Clouds 23 1016 69 10000 11.8 30 17:23 28.05.2020
2283 Clouds 23 1016 69 10000 11.3 30 16:58 28.05.2020
2284 Clouds 23 1017 69 10000 11.3 30 16:39 28.05.2020
2285 Clouds 23 1017 69 10000 11.3 30 16:20 28.05.2020
2286 Clouds 23 1017 69 10000 11.3 30 15:45 28.05.2020
2287 Clouds 23 1017 69 10000 11.8 30 15:24 28.05.2020
2288 Clouds 23 1017 69 10000 12.3 30 14:57 28.05.2020
2289 Clouds 23 1017 69 10000 12.3 30 14:38 28.05.2020
2290 Clouds 23 1017 69 10000 12.3 30 14:20 28.05.2020
2291 Clouds 23 1017 73 10000 10.8 30 13:43 28.05.2020
2292 Clouds 22 1017 73 10000 10.8 30 13:24 28.05.2020
2293 Clouds 22 1017 73 10000 10.8 30 12:42 28.05.2020
2294 Clouds 22 1017 73 10000 11.3 30 12:19 28.05.2020
2295 Clouds 22 1017 73 10000 11.3 30 11:44 28.05.2020
2296 Clouds 22 1017 73 10000 10.8 30 11:26 28.05.2020
2297 Clouds 22 1017 73 10000 10.8 30 11:26 28.05.2020
2298 Clouds 21 1017 73 10000 9.8 20 10:58 28.05.2020
2299 Clouds 21 1017 77 10000 9.8 20 10:39 28.05.2020
2300 Clouds 20 1017 77 10000 9.8 20 10:21 28.05.2020
2301 Clouds 19 1017 82 10000 7.7 10 09:39 28.05.2020
2302 Clouds 19 1017 82 10000 7.7 10 09:21 28.05.2020
2303 Clouds 19 1016 88 10000 7.2 10 08:51 28.05.2020
2304 Clouds 19 1016 82 10000 7.2 10 08:31 28.05.2020
2305 Clouds 19 1016 88 10000 7.2 10 07:54 28.05.2020
2306 Clear 19 1016 82 10000 7.2 20 07:36 28.05.2020
2307 Clear 19 1016 82 10000 7.2 20 07:18 28.05.2020
2308 Clear 19 1016 82 10000 6.7 10 06:39 28.05.2020
2309 Clear 19 1016 82 10000 6.7 10 06:20 28.05.2020
2310 Clear 19 1016 82 10000 9.3 20 05:36 28.05.2020
2311 Clear 19 1017 88 10000 8.7 20 04:33 28.05.2020
2312 Clear 19 1017 88 10000 8.2 10 03:48 28.05.2020
2313 Clear 20 1017 82 10000 8.7 10 02:47 28.05.2020
2314 Clear 20 1018 82 10000 8.7 20 01:54 28.05.2020
2315 Clouds 20 1018 82 10000 7.7 10 00:56 28.05.2020
2316 Clouds 20 1018 82 10000 7.2 20 00:38 28.05.2020
2317 Clouds 20 1018 82 10000 7.2 20 00:18 28.05.2020
2318 Clouds 21 1017 83 10000 8.2 20 23:39 27.05.2020
2319 Clouds 21 1017 83 10000 8.2 20 23:21 27.05.2020
2320 Clouds 21 1017 83 10000 8.2 20 22:59 27.05.2020
2321 Clouds 21 1017 83 10000 9.3 20 22:40 27.05.2020
2322 Clouds 21 1017 83 10000 9.3 20 22:21 27.05.2020
2323 Clouds 22 1017 78 10000 8.7 20 21:42 27.05.2020
2324 Clouds 22 1016 78 10000 8.7 20 21:24 27.05.2020
2325 Clouds 23 1016 73 10000 9.8 30 20:59 27.05.2020
2326 Clouds 23 1016 73 10000 9.8 30 20:41 27.05.2020
2327 Clouds 23 1016 73 10000 10.3 30 20:21 27.05.2020
2328 Clouds 23 1016 73 10000 9.8 30 19:59 27.05.2020
2329 Clouds 23 1016 73 10000 8.7 30 19:40 27.05.2020
2330 Clouds 23 1016 73 10000 8.7 30 19:19 27.05.2020
2331 Clouds 23 1017 73 10000 8.2 30 18:40 27.05.2020
2332 Clouds 23 1017 73 10000 8.2 30 18:20 27.05.2020
2333 Clouds 24 1016 69 10000 8.7 30 17:56 27.05.2020
2334 Clouds 23 1017 69 10000 8.2 40 17:37 27.05.2020
2335 Clouds 23 1017 69 10000 8.2 40 17:18 27.05.2020
2336 Clouds 23 1017 69 10000 8.2 30 16:54 27.05.2020
2337 Clouds 23 1017 69 10000 7.7 40 16:36 27.05.2020
2338 Clouds 23 1017 69 10000 7.7 40 16:18 27.05.2020
2339 Clouds 23 1018 69 10000 7.2 40 15:40 27.05.2020
2340 Clouds 23 1018 69 10000 7.2 40 15:21 27.05.2020
2341 Clouds 23 1018 69 10000 7.7 30 14:43 27.05.2020
2342 Clouds 23 1018 69 10000 7.7 40 14:21 27.05.2020
2343 Clouds 23 1018 73 10000 8.2 30 13:55 27.05.2020
2344 Clouds 22 1018 73 10000 8.2 30 13:36 27.05.2020
2345 Clouds 22 1018 73 10000 8.2 30 13:18 27.05.2020
2346 Clouds 22 1017 73 10000 9.8 30 12:40 27.05.2020
2347 Clouds 22 1017 73 10000 9.8 30 12:22 27.05.2020
2348 Clouds 21 1017 73 10000 9.8 10 11:39 27.05.2020
2349 Clouds 21 1017 73 10000 9.8 10 11:21 27.05.2020
2350 Clouds 21 1017 77 10000 9.3 10 10:57 27.05.2020
2351 Clouds 21 1017 77 10000 9.3 10 10:57 27.05.2020
2352 Clouds 20 1017 82 10000 8.7 10 10:38 27.05.2020
2353 Clouds 20 1017 82 10000 8.7 10 10:19 27.05.2020
2354 Clouds 18 1017 82 10000 8.2 20 09:41 27.05.2020
2355 Clouds 18 1016 88 10000 8.2 20 09:22 27.05.2020
2356 Clouds 18 1016 88 10000 9.3 10 08:56 27.05.2020
2357 Clouds 18 1016 88 10000 9.8 10 08:36 27.05.2020
2358 Clouds 18 1016 88 10000 9.8 10 08:18 27.05.2020
2359 Clouds 18 1016 88 10000 9.3 20 07:49 27.05.2020
2360 Clouds 18 1016 88 10000 9.3 20 07:30 27.05.2020
2361 Clouds 18 1016 88 10000 9.3 20 07:30 27.05.2020
2362 Clouds 18 1016 88 10000 9.3 20 06:47 27.05.2020
2363 Clouds 19 1016 82 10000 9.3 20 06:20 27.05.2020
2364 Clouds 19 1016 82 10000 10.3 10 05:49 27.05.2020
2365 Clouds 19 1017 88 10000 9.3 20 04:38 27.05.2020
2366 Clouds 20 1018 82 10000 8.7 20 02:34 27.05.2020
2367 Clouds 20 1018 82 10000 8.7 20 01:53 27.05.2020
2368 Clouds 20 1018 82 10000 9.3 10 01:29 27.05.2020
2369 Clouds 21 1018 82 10000 8.7 10 00:46 27.05.2020
2370 Clouds 21 1018 77 10000 8.2 10 00:20 27.05.2020
2371 Clouds 21 1017 83 10000 9.3 10 23:55 26.05.2020
2372 Clouds 21 1017 83 10000 9.3 10 23:37 26.05.2020
2373 Clouds 21 1017 83 10000 9.3 10 23:37 26.05.2020
2374 Clouds 21 1017 83 10000 9.3 10 23:37 26.05.2020
2375 Clouds 21 1017 83 10000 9.3 10 23:18 26.05.2020
2376 Clouds 21 1017 83 10000 9.3 10 23:18 26.05.2020
2377 Clouds 21 1017 83 10000 8.7 20 22:40 26.05.2020
2378 Clouds 22 1017 83 10000 8.7 20 22:21 26.05.2020
2379 Clouds 23 1016 78 10000 9.8 20 21:58 26.05.2020
2380 Clouds 23 1016 78 10000 10.8 20 21:40 26.05.2020
2381 Clouds 23 1016 78 10000 10.8 20 21:21 26.05.2020
2382 Clouds 24 1016 78 10000 10.8 20 20:56 26.05.2020
2383 Clear 25 1016 73 10000 11.3 20 20:37 26.05.2020
2384 Clear 25 1016 73 10000 11.3 20 20:19 26.05.2020
2385 Clear 26 1016 73 10000 11.3 30 19:40 26.05.2020
2386 Clear 26 1016 73 10000 11.3 30 19:20 26.05.2020
2387 Clear 26 1016 73 10000 11.3 30 18:44 26.05.2020
2388 Clear 26 1016 73 10000 11.8 30 18:25 26.05.2020
2389 Clear 25 1017 73 10000 11.3 30 17:59 26.05.2020
2390 Clear 25 1017 73 10000 11.3 30 17:59 26.05.2020
2391 Clear 26 1017 69 10000 10.8 30 17:38 26.05.2020
2392 Clear 26 1017 69 10000 10.8 30 17:20 26.05.2020
2393 Clear 25 1017 69 10000 10.8 30 16:45 26.05.2020
2394 Clear 25 1017 69 10000 11.3 30 16:20 26.05.2020
2395 Clear 25 1017 69 10000 10.8 30 15:55 26.05.2020
2396 Clear 25 1018 69 10000 10.8 30 15:37 26.05.2020
2397 Clear 25 1018 69 10000 10.8 30 15:19 26.05.2020
2398 Clear 25 1018 73 10000 10.3 30 14:43 26.05.2020
2399 Clear 24 1018 73 10000 10.8 30 14:23 26.05.2020
2400 Clear 25 1018 69 10000 9.8 30 13:56 26.05.2020
2401 Clear 24 1018 73 10000 9.8 30 13:37 26.05.2020
2402 Clear 24 1018 73 10000 9.8 30 13:18 26.05.2020
2403 Clear 23 1018 73 10000 9.8 30 12:42 26.05.2020
2404 Clear 23 1018 73 10000 9.3 30 12:22 26.05.2020
2405 Clear 23 1018 73 10000 9.3 30 11:58 26.05.2020
2406 Clear 23 1018 73 10000 9.3 30 11:58 26.05.2020
2407 Clear 23 1017 73 10000 6.7 20 11:40 26.05.2020
2408 Clear 23 1017 73 10000 6.7 20 11:18 26.05.2020
2409 Clear 22 1017 78 10000 7.2 10 10:42 26.05.2020
2410 Clear 21 1017 83 10000 8.7 10 10:19 26.05.2020
2411 Clouds 20 1017 82 10000 6.2 360 09:40 26.05.2020
2412 Clouds 20 1017 82 10000 6.2 360 09:20 26.05.2020
2413 Clouds 19 1017 88 10000 8.7 20 08:43 26.05.2020
2414 Clouds 19 1017 88 10000 8.7 20 08:43 26.05.2020
2415 Clouds 19 1017 88 10000 9.3 20 08:22 26.05.2020
2416 Clouds 19 1016 88 10000 8.2 20 07:57 26.05.2020
2417 Clouds 19 1016 88 10000 8.7 10 07:38 26.05.2020
2418 Clouds 19 1016 88 10000 8.7 10 07:18 26.05.2020
2419 Clouds 19 1016 88 10000 7.7 20 06:45 26.05.2020
2420 Clouds 19 1016 88 10000 7.7 20 06:19 26.05.2020
2421 Clouds 20 1016 82 10000 9.3 10 05:35 26.05.2020
2422 Clouds 20 1016 82 10000 8.2 20 04:55 26.05.2020
2423 Clouds 20 1016 82 10000 7.2 20 04:34 26.05.2020
2424 Clouds 20 1016 82 10000 7.7 10 03:59 26.05.2020
2425 Clouds 21 1016 77 10000 7.2 10 02:49 26.05.2020
2426 Clouds 21 1017 77 10000 7.7 20 01:49 26.05.2020
2427 Clouds 21 1017 77 10000 7.7 20 01:28 26.05.2020
2428 Clouds 21 1017 83 10000 6.7 20 00:39 26.05.2020
2429 Clouds 21 1017 83 10000 6.7 20 00:19 26.05.2020
2430 Clouds 21 1017 83 10000 7.2 20 23:56 25.05.2020
2431 Clouds 21 1017 83 10000 7.2 20 23:37 25.05.2020
2432 Clouds 22 1017 83 10000 7.2 20 23:18 25.05.2020
2433 Clouds 22 1016 78 10000 7.2 20 22:55 25.05.2020
2434 Clouds 22 1016 78 10000 8.2 20 22:36 25.05.2020
2435 Clouds 23 1016 78 10000 8.2 20 22:18 25.05.2020
2436 Clouds 23 1016 78 10000 8.2 20 22:18 25.05.2020
2437 Clouds 23 1016 73 10000 7.7 20 21:55 25.05.2020
2438 Clouds 23 1016 73 10000 8.2 20 21:36 25.05.2020
2439 Clouds 24 1016 73 10000 8.2 20 21:18 25.05.2020
2440 Clouds 25 1016 69 10000 8.2 20 20:42 25.05.2020
2441 Clouds 25 1016 69 10000 9.8 30 20:22 25.05.2020
2442 Clouds 25 1016 69 10000 9.8 30 20:22 25.05.2020
2443 Clouds 25 1016 69 10000 10.3 30 19:59 25.05.2020
2444 Clouds 25 1016 73 10000 10.3 30 19:40 25.05.2020
2445 Clouds 25 1016 73 10000 10.3 30 19:18 25.05.2020
2446 Clear 25 1016 69 10000 10.3 30 18:55 25.05.2020
2447 Clear 26 1016 69 10000 10.3 30 18:36 25.05.2020
2448 Clear 26 1016 69 10000 10.3 30 18:18 25.05.2020
2449 Clear 26 1016 65 10000 9.8 30 17:42 25.05.2020
2450 Clear 25 1016 65 10000 9.8 30 17:23 25.05.2020
2451 Clouds 25 1017 69 10000 10.8 30 16:57 25.05.2020
2452 Clouds 25 1017 69 10000 10.8 40 16:39 25.05.2020
2453 Clouds 24 1017 69 10000 10.8 40 16:19 25.05.2020
2454 Clouds 24 1017 69 10000 10.8 40 16:19 25.05.2020
2455 Clouds 24 1017 73 10000 10.8 30 15:44 25.05.2020
2456 Clouds 24 1017 73 10000 11.3 30 15:19 25.05.2020
2457 Clouds 24 1018 69 10000 11.3 30 14:57 25.05.2020
2458 Clouds 24 1018 73 10000 11.3 30 14:38 25.05.2020
2459 Clouds 24 1018 73 10000 11.3 30 14:19 25.05.2020
2460 Clouds 24 1018 73 10000 11.8 30 13:39 25.05.2020
2461 Clouds 23 1018 73 10000 11.8 30 13:21 25.05.2020
2462 Clouds 23 1018 73 10000 11.3 30 12:57 25.05.2020
2463 Clouds 23 1017 73 10000 10.8 30 12:38 25.05.2020
2464 Clouds 23 1017 73 10000 10.8 30 12:20 25.05.2020
2465 Clouds 23 1017 78 10000 10.3 20 11:39 25.05.2020
2466 Clouds 22 1017 78 10000 10.3 20 11:20 25.05.2020
2467 Clouds 22 1017 83 10000 10.3 10 10:56 25.05.2020
2468 Clouds 22 1017 83 10000 10.3 20 10:37 25.05.2020
2469 Clouds 21 1017 83 10000 10.3 20 10:19 25.05.2020
2470 Clouds 20 1017 88 10000 9.8 20 09:54 25.05.2020
2471 Clouds 20 1017 82 10000 8.7 20 09:36 25.05.2020
2472 Clouds 20 1017 82 10000 8.7 20 09:18 25.05.2020
2473 Clouds 20 1017 82 10000 8.7 20 09:18 25.05.2020
2474 Clouds 19 1016 88 10000 8.7 10 08:39 25.05.2020
2475 Clouds 19 1016 88 10000 8.7 10 08:20 25.05.2020
2476 Clouds 19 1016 88 10000 8.2 10 07:48 25.05.2020
2477 Clouds 19 1016 88 10000 8.7 10 07:26 25.05.2020
2478 Clouds 19 1016 88 10000 9.3 10 06:56 25.05.2020
2479 Clouds 19 1016 88 10000 9.8 10 06:35 25.05.2020
2480 Clouds 20 1016 88 10000 11.3 10 05:20 25.05.2020
2481 Clear 20 1017 88 10000 9.8 10 03:25 25.05.2020
2482 Clear 20 1017 88 10000 9.3 20 02:46 25.05.2020
2483 Clear 21 1018 88 10000 8.7 20 01:59 25.05.2020
2484 Clear 21 1017 83 10000 8.7 10 01:40 25.05.2020
2485 Clear 22 1018 83 10000 8.7 10 00:45 25.05.2020
2486 Clear 22 1017 83 10000 9.3 10 00:23 25.05.2020
2487 Clear 22 1017 88 10000 9.3 10 23:57 24.05.2020
2488 Clear 22 1017 83 10000 8.2 10 23:38 24.05.2020
2489 Clear 22 1017 83 10000 8.2 10 23:19 24.05.2020
2490 Clear 22 1016 83 10000 8.2 20 22:41 24.05.2020
2491 Clear 23 1016 83 10000 8.2 20 22:19 24.05.2020
2492 Clear 23 1016 73 10000 6.2 20 21:58 24.05.2020
2493 Clear 23 1016 78 10000 8.7 30 21:40 24.05.2020
2494 Clouds 23 1016 78 10000 8.7 30 21:21 24.05.2020
2495 Clouds 23 1016 78 10000 8.2 20 20:57 24.05.2020
2496 Clouds 23 1016 78 10000 8.2 20 20:57 24.05.2020
2497 Clouds 24 1016 78 10000 9.8 30 20:38 24.05.2020
2498 Clear 24 1016 78 10000 9.8 30 20:18 24.05.2020
2499 Clear 26 1016 69 10000 9.8 30 19:55 24.05.2020
2500 Clear 26 1016 65 10000 9.3 10 19:36 24.05.2020
2501 Clear 26 1016 65 10000 9.3 10 19:18 24.05.2020
2502 Clear 26 1017 69 10000 9.3 30 18:41 24.05.2020
2503 Clear 26 1017 69 10000 9.3 30 18:23 24.05.2020
2504 Clear 26 1017 65 10000 10.8 30 17:57 24.05.2020
2505 Clear 25 1017 69 10000 11.3 30 17:37 24.05.2020
2506 Clear 24 1017 69 10000 11.3 30 17:19 24.05.2020
2507 Clouds 24 1018 69 10000 10.8 30 16:39 24.05.2020
2508 Clouds 24 1018 69 10000 10.8 30 16:21 24.05.2020
2509 Clouds 24 1018 73 10000 10.8 30 15:59 24.05.2020
2510 Clouds 24 1018 69 10000 10.3 40 15:40 24.05.2020
2511 Clouds 25 1018 69 10000 10.3 40 15:20 24.05.2020
2512 Clouds 26 1018 65 10000 9.8 30 14:58 24.05.2020
2513 Clouds 25 1019 64 10000 10.3 30 14:40 24.05.2020
2514 Clouds 25 1019 64 10000 10.3 30 14:21 24.05.2020
2515 Clouds 24 1019 64 10000 11.3 30 13:55 24.05.2020
2516 Clouds 24 1019 69 10000 10.8 40 13:36 24.05.2020
2517 Clouds 24 1019 69 10000 10.8 40 13:36 24.05.2020
2518 Clouds 24 1019 69 10000 10.8 40 13:36 24.05.2020
2519 Clouds 24 1019 69 10000 10.8 40 13:18 24.05.2020
2520 Clouds 24 1019 69 10000 10.8 40 12:54 24.05.2020
2521 Clouds 24 1018 69 10000 11.3 30 12:36 24.05.2020
2522 Clouds 24 1018 69 10000 11.3 30 12:36 24.05.2020
2523 Clouds 25 1018 69 10000 11.3 30 12:18 24.05.2020
2524 Clouds 24 1018 73 10000 12.3 30 11:42 24.05.2020
2525 Clouds 24 1018 73 10000 12.3 30 11:42 24.05.2020
2526 Clouds 26 1018 54 10000 9.8 30 11:23 24.05.2020
2527 Clouds 26 1018 44 10000 10.3 20 10:59 24.05.2020
2528 Clouds 25 1018 50 10000 10.8 20 10:40 24.05.2020
2529 Clouds 25 1018 50 10000 10.8 20 10:22 24.05.2020
2530 Clouds 25 1017 44 10000 9.3 20 09:55 24.05.2020
2531 Clouds 24 1017 47 10000 9.8 20 09:37 24.05.2020
2532 Clouds 25 1017 47 10000 9.8 20 09:18 24.05.2020
2533 Clouds 25 1017 36 10000 9.3 360 08:40 24.05.2020
2534 Clouds 24 1017 36 10000 9.3 360 08:22 24.05.2020
2535 Clouds 25 1017 36 10000 9.3 10 07:54 24.05.2020
2536 Clouds 25 1017 36 10000 8.7 360 07:36 24.05.2020
2537 Clouds 24 1017 36 10000 8.7 360 07:18 24.05.2020
2538 Clouds 25 1017 38 10000 9.3 360 06:38 24.05.2020
2539 Clouds 24 1017 41 10000 9.3 360 05:43 24.05.2020
2540 Clouds 22 1018 64 10000 10.3 20 03:46 24.05.2020
2541 Clear 22 1018 68 10000 9.8 10 03:26 24.05.2020
2542 Clouds 22 1019 68 10000 8.7 10 02:23 24.05.2020
2543 Clouds 22 1019 56 10000 9.3 10 00:49 24.05.2020
2544 Clouds 23 1019 53 10000 8.7 10 00:27 24.05.2020
2545 Clouds 23 1019 53 10000 8.7 10 00:27 24.05.2020
2546 Clouds 22 1018 68 10000 9.3 360 23:59 23.05.2020
2547 Clouds 22 1018 73 10000 9.8 360 23:37 23.05.2020
2548 Clouds 22 1018 73 10000 9.8 360 23:19 23.05.2020
2549 Clouds 22 1018 78 10000 10.3 10 22:55 23.05.2020
2550 Clouds 22 1018 78 10000 11.3 10 22:37 23.05.2020
2551 Clouds 22 1018 78 10000 11.3 10 22:18 23.05.2020
2552 Clouds 22 1017 78 10000 11.3 20 21:56 23.05.2020
2553 Clouds 23 1017 78 10000 12.9 20 21:36 23.05.2020
2554 Clouds 23 1017 78 10000 12.9 20 21:18 23.05.2020
2555 Clouds 24 1017 73 10000 12.9 20 20:39 23.05.2020
2556 Clouds 24 1017 73 10000 12.9 20 20:20 23.05.2020
2557 Clouds 24 1017 73 10000 12.9 20 19:59 23.05.2020
2558 Clouds 25 1018 69 10000 12.3 20 19:40 23.05.2020
2559 Clouds 25 1018 69 10000 12.3 20 19:19 23.05.2020
2560 Clouds 26 1018 73 10000 12.9 20 18:41 23.05.2020
2561 Clouds 26 1018 65 10000 12.3 20 18:23 23.05.2020
2562 Clouds 26 1018 65 10000 12.3 20 17:58 23.05.2020
2563 Clouds 27 1018 65 10000 12.3 20 17:40 23.05.2020
2564 Clouds 27 1018 65 10000 12.3 20 17:21 23.05.2020
2565 Clouds 27 1019 65 10000 12.9 20 16:59 23.05.2020
2566 Clouds 26 1019 65 10000 13.4 30 16:41 23.05.2020
2567 Clouds 27 1019 65 10000 13.4 30 16:20 23.05.2020
2568 Clouds 27 1019 61 10000 13.4 20 15:56 23.05.2020
2569 Clouds 27 1019 57 10000 13.4 20 15:38 23.05.2020
2570 Clouds 27 1019 57 10000 13.4 20 15:20 23.05.2020
2571 Clouds 25 1019 65 10000 13.9 30 14:41 23.05.2020
2572 Clouds 26 1020 57 10000 12.9 20 14:23 23.05.2020
2573 Clouds 26 1020 57 10000 12.9 20 14:23 23.05.2020
2574 Clouds 26 1020 57 10000 11.8 20 13:42 23.05.2020
2575 Clouds 27 1020 57 10000 11.8 20 13:19 23.05.2020
2576 Clouds 26 1020 61 10000 11.8 10 12:59 23.05.2020
2577 Clouds 26 1020 61 10000 11.8 10 12:59 23.05.2020
2578 Clouds 26 1020 61 10000 11.8 20 12:40 23.05.2020
2579 Clouds 26 1020 61 10000 11.8 20 12:40 23.05.2020
2580 Clouds 26 1020 61 10000 11.8 20 12:19 23.05.2020
2581 Clouds 24 1020 64 10000 11.3 10 11:54 23.05.2020
2582 Clouds 24 1020 60 10000 11.3 10 11:36 23.05.2020
2583 Clouds 24 1020 60 10000 11.3 10 11:18 23.05.2020
2584 Clouds 23 1020 64 10000 11.8 10 10:54 23.05.2020
2585 Clouds 22 1019 68 10000 11.8 10 10:36 23.05.2020
2586 Clouds 22 1019 68 10000 11.8 10 10:18 23.05.2020
2587 Clouds 21 1019 73 10000 10.8 10 09:41 23.05.2020
2588 Clouds 20 1019 77 10000 10.3 10 09:23 23.05.2020
2589 Clouds 20 1019 77 10000 11.3 10 08:44 23.05.2020
2590 Clouds 20 1019 72 10000 10.8 10 08:20 23.05.2020
2591 Clouds 20 1019 72 10000 10.8 10 08:20 23.05.2020
2592 Clouds 20 1018 68 10000 10.3 10 07:59 23.05.2020
2593 Clouds 21 1018 68 10000 9.3 10 07:40 23.05.2020
2594 Clouds 20 1018 68 10000 9.3 10 07:21 23.05.2020
2595 Clouds 20 1018 72 10000 12.3 10 06:40 23.05.2020
2596 Clouds 20 1018 72 10000 12.9 10 05:51 23.05.2020
2597 Clouds 20 1019 68 10000 13.4 10 03:51 23.05.2020
2598 Clouds 20 1019 64 10000 12.3 10 03:21 23.05.2020
2599 Clear 21 1019 60 10000 11.3 10 02:24 23.05.2020
2600 Clear 22 1019 49 10000 12.9 350 01:27 23.05.2020
2601 Clear 21 1018 49 10000 12.9 360 00:49 23.05.2020
2602 Clouds 21 1019 60 10000 12.3 360 00:29 23.05.2020
2603 Clouds 21 1019 68 10000 12.9 10 23:58 22.05.2020
2604 Clouds 21 1019 68 10000 12.9 10 23:58 22.05.2020
2605 Clouds 21 1019 68 10000 13.4 10 23:39 22.05.2020
2606 Clouds 21 1019 68 10000 13.4 10 23:19 22.05.2020
2607 Clouds 21 1018 68 10000 13.4 10 22:55 22.05.2020
2608 Clouds 21 1018 68 10000 13.4 10 22:55 22.05.2020
2609 Clouds 21 1018 68 10000 13.9 10 22:37 22.05.2020
2610 Clouds 21 1018 68 10000 13.9 10 22:18 22.05.2020
2611 Clouds 22 1018 64 10000 13.9 10 21:42 22.05.2020
2612 Clouds 22 1018 60 10000 13.9 10 21:21 22.05.2020
2613 Clouds 23 1018 56 10000 13.4 20 20:46 22.05.2020
2614 Clouds 24 1018 53 10000 13.9 20 20:22 22.05.2020
2615 Clouds 24 1018 57 10000 13.9 10 19:59 22.05.2020
2616 Clouds 24 1018 60 10000 14.4 20 19:41 22.05.2020
2617 Clouds 24 1018 60 10000 14.4 20 19:22 22.05.2020
2618 Clouds 24 1018 60 10000 13.9 30 18:40 22.05.2020
2619 Clouds 24 1018 60 10000 13.9 30 18:21 22.05.2020
2620 Clouds 25 1019 57 10000 13.9 20 17:58 22.05.2020
2621 Clouds 25 1019 57 10000 13.9 20 17:38 22.05.2020
2622 Clouds 24 1019 57 10000 13.9 20 17:18 22.05.2020
2623 Clouds 24 1019 57 10000 13.9 20 17:18 22.05.2020
2624 Clouds 25 1019 53 10000 13.9 20 16:43 22.05.2020
2625 Clouds 24 1020 60 10000 14.9 20 16:20 22.05.2020
2626 Clouds 24 1020 57 10000 14.9 20 15:59 22.05.2020
2627 Clouds 24 1020 57 10000 14.9 20 15:41 22.05.2020
2628 Clouds 24 1020 57 10000 14.4 20 15:19 22.05.2020
2629 Clouds 24 1020 57 10000 14.9 30 14:43 22.05.2020
2630 Clouds 24 1021 53 10000 14.9 20 14:24 22.05.2020
2631 Clouds 24 1021 53 10000 14.9 20 14:24 22.05.2020
2632 Clouds 23 1021 56 10000 14.9 20 13:46 22.05.2020
2633 Clouds 24 1021 53 10000 15.4 20 13:20 22.05.2020
2634 Clouds 23 1020 56 10000 14.4 10 12:54 22.05.2020
2635 Clouds 23 1020 56 10000 13.9 10 12:36 22.05.2020
2636 Clouds 23 1020 56 10000 13.9 10 12:18 22.05.2020
2637 Clouds 21 1020 64 10000 13.9 360 11:42 22.05.2020
2638 Clouds 22 1020 60 10000 13.9 10 11:42 22.05.2020
2639 Clouds 21 1020 64 10000 13.9 360 11:20 22.05.2020
2640 Clouds 21 1020 60 10000 13.4 10 10:55 22.05.2020
2641 Clouds 20 1020 64 10000 12.9 10 10:36 22.05.2020
2642 Clouds 20 1020 64 10000 12.9 10 10:18 22.05.2020
2643 Clouds 20 1020 64 10000 9.8 10 09:41 22.05.2020
2644 Clouds 19 1020 72 10000 9.8 10 09:19 22.05.2020
2645 Clouds 18 1020 72 10000 9.3 10 08:44 22.05.2020
2646 Clouds 18 1020 77 10000 9.8 10 08:21 22.05.2020
2647 Clouds 18 1020 77 10000 9.8 10 08:21 22.05.2020
2648 Clouds 18 1020 77 10000 9.8 10 07:57 22.05.2020
2649 Clouds 18 1019 77 10000 9.8 10 07:27 22.05.2020
2650 Clouds 18 1019 72 10000 11.8 10 06:58 22.05.2020
2651 Clouds 18 1019 77 10000 12.3 20 06:36 22.05.2020
2652 Clouds 18 1019 72 10000 10.3 10 05:40 22.05.2020
2653 Clouds 18 1019 72 10000 9.8 10 04:51 22.05.2020
2654 Clouds 18 1019 68 10000 11.3 10 04:28 22.05.2020
2655 Clouds 19 1020 68 10000 9.3 10 03:47 22.05.2020
2656 Clouds 19 1021 72 10000 10.3 10 02:59 22.05.2020
2657 Clouds 19 1021 68 10000 9.8 10 01:56 22.05.2020
2658 Clouds 19 1021 68 10000 11.3 10 01:28 22.05.2020
2659 Clouds 20 1021 68 10000 11.3 10 00:48 22.05.2020
2660 Clouds 20 1021 68 10000 10.8 10 00:28 22.05.2020
2661 Clouds 20 1021 68 10000 9.8 10 23:43 21.05.2020
2662 Clouds 19 1021 68 10000 11.8 360 23:25 21.05.2020
2663 Clouds 20 1021 64 10000 11.3 10 22:58 21.05.2020
2664 Clouds 20 1021 64 10000 11.3 10 22:58 21.05.2020
2665 Clouds 20 1021 64 10000 11.3 10 22:58 21.05.2020
2666 Clouds 20 1020 64 10000 11.8 10 22:40 21.05.2020
2667 Clouds 20 1020 64 10000 11.8 10 22:21 21.05.2020
2668 Clouds 20 1020 64 10000 12.3 10 21:58 21.05.2020
2669 Clouds 21 1020 60 10000 13.4 10 21:39 21.05.2020
2670 Clouds 21 1020 60 10000 13.4 10 21:19 21.05.2020
2671 Clouds 22 1020 60 10000 12.9 10 20:43 21.05.2020
2672 Clouds 22 1020 60 10000 12.9 10 20:22 21.05.2020
2673 Clouds 22 1020 56 10000 12.3 10 19:55 21.05.2020
2674 Clouds 22 1020 60 10000 13.4 20 19:36 21.05.2020
2675 Clouds 22 1020 60 10000 13.4 20 19:18 21.05.2020
2676 Clouds 23 1020 56 10000 14.4 20 18:39 21.05.2020
2677 Clouds 23 1020 56 10000 14.4 20 18:19 21.05.2020
2678 Clouds 23 1020 56 10000 14.4 20 17:58 21.05.2020
2679 Clouds 23 1020 56 10000 14.4 30 17:39 21.05.2020
2680 Clouds 23 1020 56 10000 14.4 30 17:21 21.05.2020
2681 Clouds 23 1020 56 10000 14.4 30 16:46 21.05.2020
2682 Clouds 23 1020 56 10000 14.4 30 16:24 21.05.2020
2683 Clouds 23 1020 60 10000 14.4 30 15:47 21.05.2020
2684 Clouds 23 1020 56 10000 13.9 30 15:24 21.05.2020
2685 Clouds 23 1020 56 10000 14.4 30 14:56 21.05.2020
2686 Clouds 23 1020 56 10000 13.4 30 14:37 21.05.2020
2687 Clouds 23 1020 56 10000 13.4 30 14:18 21.05.2020
2688 Clouds 22 1021 56 10000 13.4 30 13:40 21.05.2020
2689 Clouds 22 1021 56 10000 13.4 30 13:22 21.05.2020
2690 Clouds 22 1021 60 10000 12.3 30 12:55 21.05.2020
2691 Clouds 22 1020 60 10000 12.3 20 12:36 21.05.2020
2692 Clouds 22 1020 60 10000 12.3 20 12:18 21.05.2020
2693 Clouds 22 1020 60 10000 11.8 20 11:41 21.05.2020
2694 Clouds 21 1020 64 10000 11.8 20 11:23 21.05.2020
2695 Clouds 21 1020 64 10000 10.8 20 10:55 21.05.2020
2696 Clouds 20 1020 64 10000 9.3 10 10:37 21.05.2020
2697 Clouds 19 1020 64 10000 9.3 10 10:18 21.05.2020
2698 Clouds 19 1019 72 10000 8.7 20 09:42 21.05.2020
2699 Clouds 20 1019 72 10000 7.7 10 09:24 21.05.2020
2700 Clouds 18 1019 77 10000 8.7 10 08:58 21.05.2020
2701 Clouds 18 1019 77 10000 9.3 10 08:40 21.05.2020
2702 Clouds 18 1019 77 10000 9.3 10 08:22 21.05.2020
2703 Clouds 19 1019 72 10000 8.7 10 07:43 21.05.2020
2704 Clouds 19 1019 72 10000 8.7 360 07:24 21.05.2020
2705 Clouds 19 1019 72 10000 8.2 360 06:45 21.05.2020
2706 Clouds 19 1019 72 10000 8.7 360 05:52 21.05.2020
2707 Clouds 20 1019 60 10000 9.8 10 04:29 21.05.2020
2708 Clouds 20 1020 49 10000 7.7 10 03:21 21.05.2020
2709 Clouds 20 1020 49 10000 7.7 10 03:21 21.05.2020
2710 Clouds 20 1020 43 10000 8.2 10 02:33 21.05.2020
2711 Clouds 21 1021 49 10000 8.2 360 01:58 21.05.2020
2712 Clouds 20 1021 60 10000 9.3 360 01:39 21.05.2020
2713 Clouds 20 1021 60 10000 9.3 360 01:18 21.05.2020
2714 Clouds 20 1021 64 10000 9.3 360 00:41 21.05.2020
2715 Clouds 20 1021 64 10000 8.7 360 00:19 21.05.2020
2716 Clouds 20 1021 64 10000 8.7 360 00:19 21.05.2020
2717 Clouds 21 1020 68 10000 9.3 360 23:40 20.05.2020
2718 Clouds 21 1020 68 10000 9.3 360 23:19 20.05.2020
2719 Clouds 21 1020 68 10000 9.3 10 22:55 20.05.2020
2720 Clouds 21 1020 68 10000 9.3 10 22:55 20.05.2020
2721 Clouds 21 1019 73 10000 10.8 20 22:36 20.05.2020
2722 Clouds 21 1019 73 10000 10.8 20 22:18 20.05.2020
2723 Clouds 21 1019 73 10000 11.8 20 21:39 20.05.2020
2724 Clouds 21 1019 73 10000 11.8 20 21:20 20.05.2020
2725 Clouds 22 1018 68 10000 11.3 20 20:44 20.05.2020
2726 Clouds 22 1018 68 10000 11.3 20 20:44 20.05.2020
2727 Clouds 23 1018 64 10000 11.3 30 20:24 20.05.2020
2728 Clouds 23 1018 69 10000 11.8 20 19:44 20.05.2020
2729 Clouds 24 1018 60 10000 10.8 20 19:25 20.05.2020
2730 Clouds 24 1018 57 10000 10.3 10 18:59 20.05.2020
2731 Clouds 24 1019 57 10000 10.3 10 18:41 20.05.2020
2732 Clouds 25 1019 57 10000 10.3 10 18:21 20.05.2020
2733 Clouds 25 1019 53 10000 10.3 20 17:40 20.05.2020
2734 Clouds 25 1019 53 10000 10.3 20 17:22 20.05.2020
2735 Clouds 25 1019 53 10000 12.3 30 16:55 20.05.2020
2736 Clouds 25 1019 53 10000 10.8 20 16:37 20.05.2020
2737 Clouds 25 1019 53 10000 10.8 20 16:18 20.05.2020
2738 Clouds 24 1019 57 10000 12.3 30 15:42 20.05.2020
2739 Clouds 24 1019 57 10000 12.9 30 15:23 20.05.2020
2740 Clouds 24 1019 60 10000 13.4 30 14:44 20.05.2020
2741 Clouds 24 1019 60 10000 12.9 30 14:22 20.05.2020
2742 Clouds 23 1019 57 10000 12.9 30 13:55 20.05.2020
2743 Clouds 23 1019 57 10000 13.4 20 13:36 20.05.2020
2744 Clouds 23 1019 57 10000 13.4 20 13:18 20.05.2020
2745 Clouds 23 1018 60 10000 12.3 20 12:41 20.05.2020
2746 Clouds 22 1018 60 10000 12.3 20 12:20 20.05.2020
2747 Clouds 22 1018 60 10000 10.8 360 11:37 20.05.2020
2748 Clouds 22 1018 60 10000 10.8 360 11:19 20.05.2020
2749 Clouds 22 1017 64 10000 11.3 10 10:44 20.05.2020
2750 Clouds 21 1017 68 10000 10.8 360 10:22 20.05.2020
2751 Clouds 20 1017 72 10000 10.8 10 09:47 20.05.2020
2752 Clouds 19 1017 68 10000 9.8 360 09:23 20.05.2020
2753 Clouds 18 1016 77 10000 9.3 360 09:00 20.05.2020
2754 Clouds 18 1016 82 10000 9.3 10 08:41 20.05.2020
2755 Clouds 18 1016 82 10000 9.3 10 08:19 20.05.2020
2756 Clouds 18 1016 82 10000 9.3 10 07:49 20.05.2020
2757 Clouds 18 1016 82 10000 10.3 10 07:22 20.05.2020
2758 Clouds 18 1016 82 10000 10.3 10 06:49 20.05.2020
2759 Clouds 19 1016 77 10000 10.3 10 05:52 20.05.2020
2760 Clouds 19 1017 68 10000 8.2 10 04:37 20.05.2020
2761 Clouds 19 1017 72 10000 9.3 20 03:55 20.05.2020
2762 Clouds 19 1018 68 10000 7.2 10 03:25 20.05.2020
2763 Clouds 20 1018 64 10000 7.7 360 01:33 20.05.2020
2764 Clouds 21 1018 64 10000 9.3 360 00:46 20.05.2020
2765 Clouds 20 1018 64 10000 8.7 360 00:25 20.05.2020
2766 Clouds 21 1018 64 10000 8.2 360 23:47 19.05.2020
2767 Clouds 21 1018 68 10000 8.2 10 23:23 19.05.2020
2768 Clouds 21 1017 68 10000 8.2 10 22:58 19.05.2020
2769 Clouds 21 1017 68 10000 7.7 10 22:39 19.05.2020
2770 Clouds 21 1017 68 10000 7.7 10 22:20 19.05.2020
2771 Clouds 21 1016 64 10000 8.7 10 21:59 19.05.2020
2772 Clouds 22 1016 64 10000 10.3 10 21:40 19.05.2020
2773 Clouds 22 1016 64 10000 10.3 10 21:22 19.05.2020
2774 Clouds 22 1016 60 10000 10.8 10 20:59 19.05.2020
2775 Clouds 22 1016 60 10000 10.8 10 20:59 19.05.2020
2776 Clouds 23 1016 60 10000 10.3 20 20:40 19.05.2020
2777 Clouds 23 1016 60 10000 10.3 20 20:22 19.05.2020
2778 Clouds 23 1016 57 10000 10.8 10 19:59 19.05.2020
2779 Clouds 23 1016 57 10000 6.53 338 19:37 19.05.2020
2780 Clouds 23 1016 57 10000 6.6 341 19:19 19.05.2020
2781 Clouds 24 1016 57 10000 6.6 341 18:43 19.05.2020
2782 Clouds 23 1016 60 10000 6.68 342 18:22 19.05.2020
2783 Clouds 24 1016 60 10000 6.68 342 17:56 19.05.2020
2784 Clouds 23 1016 60 10000 6.68 342 17:38 19.05.2020
2785 Clouds 23 1016 60 10000 6.38 345 17:18 19.05.2020
2786 Clouds 23 1017 64 10000 12.9 30 16:40 19.05.2020
2787 Clouds 23 1017 64 10000 12.9 30 16:21 19.05.2020
2788 Clouds 24 1017 64 10000 12.9 30 15:56 19.05.2020
2789 Clouds 23 1017 64 10000 11.8 30 15:37 19.05.2020
2790 Clouds 23 1017 64 10000 11.8 30 15:19 19.05.2020
2791 Clouds 23 1017 64 10000 11.8 30 14:43 19.05.2020
2792 Clouds 23 1017 69 10000 11.8 30 14:21 19.05.2020
2793 Clouds 23 1017 64 10000 12.3 30 13:59 19.05.2020
2794 Clouds 23 1017 60 10000 11.8 30 13:40 19.05.2020
2795 Clouds 23 1017 60 10000 11.8 30 13:22 19.05.2020
2796 Clouds 23 1017 60 10000 10.8 30 12:59 19.05.2020
2797 Clouds 23 1017 60 10000 10.8 30 12:59 19.05.2020
2798 Clouds 23 1017 64 10000 11.3 30 12:40 19.05.2020
2799 Clouds 22 1017 64 10000 11.3 30 12:22 19.05.2020
2800 Clouds 22 1017 64 10000 10.3 30 11:58 19.05.2020
2801 Clouds 22 1017 73 10000 10.3 20 11:39 19.05.2020
2802 Clouds 22 1017 73 10000 10.3 20 11:21 19.05.2020
2803 Clouds 22 1017 68 10000 9.3 10 10:46 19.05.2020
2804 Clouds 20 1017 77 10000 8.7 10 10:28 19.05.2020
2805 Clouds 20 1017 82 10000 8.7 20 09:58 19.05.2020
2806 Clouds 20 1017 77 10000 8.2 10 09:40 19.05.2020
2807 Clouds 20 1017 77 10000 8.2 10 09:20 19.05.2020
2808 Clouds 18 1017 88 10000 6.7 20 08:43 19.05.2020
2809 Clouds 18 1017 88 10000 6.2 10 08:23 19.05.2020
2810 Clouds 18 1016 82 10000 5.7 10 07:44 19.05.2020
2811 Clouds 18 1016 82 10000 5.7 10 07:26 19.05.2020
2812 Clouds 19 1016 82 10000 4.6 360 06:50 19.05.2020
2813 Clouds 19 1016 82 10000 4.6 10 06:25 19.05.2020
2814 Clouds 19 1017 82 10000 5.1 360 05:41 19.05.2020
2815 Clouds 19 1017 82 10000 5.7 360 04:56 19.05.2020
2816 Clouds 20 1018 77 10000 5.7 360 04:18 19.05.2020
2817 Clouds 20 1019 77 10000 6.7 360 01:31 19.05.2020
2818 Clouds 20 1019 72 10000 6.7 360 00:44 19.05.2020
2819 Clouds 20 1018 72 10000 7.7 360 00:24 19.05.2020
2820 Clouds 20 1018 77 10000 8.2 360 23:56 18.05.2020
2821 Clouds 20 1018 68 10000 8.2 360 23:38 18.05.2020
2822 Clouds 20 1018 68 10000 8.2 360 23:19 18.05.2020
2823 Clouds 20 1018 68 10000 8.2 360 22:40 18.05.2020
2824 Clouds 20 1018 68 10000 8.2 360 22:21 18.05.2020
2825 Clouds 20 1017 68 10000 8.7 360 21:54 18.05.2020
2826 Clouds 21 1017 68 10000 10.3 10 21:36 18.05.2020
2827 Clouds 21 1017 68 10000 10.3 10 21:18 18.05.2020
2828 Clouds 22 1017 64 10000 9.8 360 20:42 18.05.2020
2829 Clouds 22 1017 68 10000 10.3 10 20:22 18.05.2020
2830 Clouds 22 1017 64 10000 9.8 10 19:58 18.05.2020
2831 Clouds 23 1018 56 10000 10.8 10 19:40 18.05.2020
2832 Clouds 22 1018 56 10000 10.8 10 19:19 18.05.2020
2833 Clouds 22 1018 56 10000 10.3 10 18:46 18.05.2020
2834 Clouds 22 1018 60 10000 11.8 20 18:24 18.05.2020
2835 Clouds 22 1018 56 10000 11.3 20 17:54 18.05.2020
2836 Clouds 22 1018 60 10000 12.3 20 17:36 18.05.2020
2837 Clouds 22 1018 60 10000 12.3 20 17:18 18.05.2020
2838 Clouds 22 1019 60 10000 12.3 20 16:42 18.05.2020
2839 Clouds 22 1019 60 10000 12.3 20 16:20 18.05.2020
2840 Clouds 23 1019 60 10000 11.3 30 15:57 18.05.2020
2841 Clouds 23 1019 60 10000 11.3 20 15:39 18.05.2020
2842 Clouds 22 1019 60 10000 11.3 20 15:20 18.05.2020
2843 Clouds 22 1019 60 10000 11.8 30 14:55 18.05.2020
2844 Clouds 23 1020 53 10000 9.8 20 14:37 18.05.2020
2845 Clouds 23 1020 53 10000 9.8 20 14:19 18.05.2020
2846 Clouds 22 1020 64 10000 11.3 30 13:40 18.05.2020
2847 Clouds 22 1020 64 10000 11.3 30 13:20 18.05.2020
2848 Clouds 22 1020 60 10000 10.8 30 12:58 18.05.2020
2849 Clouds 22 1020 60 10000 8.7 10 12:39 18.05.2020
2850 Clouds 22 1020 60 10000 8.7 10 12:19 18.05.2020
2851 Clouds 21 1020 64 10000 10.3 20 11:47 18.05.2020
2852 Clouds 21 1020 64 10000 9.8 20 11:27 18.05.2020
2853 Clouds 20 1020 68 10000 9.8 10 10:59 18.05.2020
2854 Clouds 20 1020 68 10000 8.2 360 10:40 18.05.2020
2855 Clouds 20 1020 68 10000 8.2 360 10:22 18.05.2020
2856 Clouds 19 1020 72 10000 6.7 350 09:44 18.05.2020
2857 Clouds 19 1020 68 10000 6.2 350 09:25 18.05.2020
2858 Clouds 18 1020 72 10000 5.7 360 08:46 18.05.2020
2859 Clouds 18 1019 72 10000 5.1 350 08:27 18.05.2020
2860 Clouds 18 1019 77 10000 5.1 350 07:58 18.05.2020
2861 Clouds 18 1019 72 10000 6.2 350 07:38 18.05.2020
2862 Clouds 18 1019 72 10000 6.2 350 07:18 18.05.2020
2863 Clouds 18 1019 77 10000 5.1 350 06:43 18.05.2020
2864 Clouds 18 1020 72 10000 6.7 10 05:49 18.05.2020
2865 Clouds 18 1020 72 10000 6.2 10 05:25 18.05.2020
2866 Clouds 19 1020 77 10000 8.2 20 03:34 18.05.2020
2867 Clouds 19 1021 77 10000 6.7 360 02:30 18.05.2020
2868 Clouds 19 1021 72 10000 6.2 360 01:22 18.05.2020
2869 Clouds 19 1021 72 10000 7.7 10 00:25 18.05.2020
2870 Clouds 19 1021 72 10000 8.2 10 23:57 17.05.2020
2871 Clouds 20 1020 68 10000 7.7 10 23:39 17.05.2020
2872 Clouds 20 1020 68 10000 7.7 10 23:20 17.05.2020
2873 Clouds 20 1020 68 10000 8.2 10 22:56 17.05.2020
2874 Clouds 20 1020 64 10000 8.7 10 22:37 17.05.2020
2875 Clouds 20 1020 64 10000 8.7 10 22:19 17.05.2020
2876 Clouds 20 1020 64 10000 9.3 20 21:55 17.05.2020
2877 Clouds 21 1020 64 10000 8.7 10 21:37 17.05.2020
2878 Clouds 21 1020 64 10000 8.7 10 21:18 17.05.2020
2879 Clouds 21 1020 64 10000 9.3 360 20:42 17.05.2020
2880 Clouds 22 1020 60 10000 9.3 360 20:21 17.05.2020
2881 Clouds 22 1020 56 10000 9.8 10 19:57 17.05.2020
2882 Clouds 22 1020 60 10000 10.3 20 19:39 17.05.2020
2883 Clouds 22 1020 60 10000 10.3 20 19:20 17.05.2020
2884 Clouds 22 1020 56 10000 9.8 10 18:43 17.05.2020
2885 Clouds 22 1020 60 10000 10.3 20 18:24 17.05.2020
2886 Clouds 22 1020 56 10000 10.8 20 17:59 17.05.2020
2887 Clouds 22 1020 60 10000 10.3 20 17:39 17.05.2020
2888 Clouds 22 1020 60 10000 10.3 20 17:21 17.05.2020
2889 Clouds 21 1020 64 10000 8.7 20 16:40 17.05.2020
2890 Clouds 21 1020 64 10000 8.7 20 16:21 17.05.2020
2891 Clouds 22 1020 60 10000 9.3 20 15:59 17.05.2020
2892 Clouds 22 1020 60 10000 9.3 20 15:59 17.05.2020
2893 Clouds 22 1020 60 10000 8.2 20 15:39 17.05.2020
2894 Clouds 22 1020 60 10000 8.2 20 15:20 17.05.2020
2895 Clouds 22 1021 56 10000 7.7 30 14:43 17.05.2020
2896 Clouds 22 1021 56 10000 8.2 20 14:25 17.05.2020
2897 Clouds 21 1021 64 10000 6.2 360 13:59 17.05.2020
2898 Clouds 21 1021 68 10000 9.8 30 13:40 17.05.2020
2899 Clouds 21 1021 68 10000 9.8 30 13:19 17.05.2020
2900 Clouds 19 1020 72 10000 7.2 10 04:47 17.05.2020
2901 Clouds 19 1021 68 10000 8.2 20 02:46 17.05.2020
2902 Clouds 19 1021 63 10000 8.2 10 02:20 17.05.2020
2903 Clouds 19 1021 68 10000 8.7 10 01:47 17.05.2020
2904 Clouds 20 1021 60 10000 8.2 10 00:40 17.05.2020
2905 Clouds 20 1021 60 10000 8.2 10 00:20 17.05.2020
2906 Clouds 19 1020 63 10000 8.7 10 23:40 16.05.2020
2907 Clouds 19 1020 63 10000 8.7 10 23:20 16.05.2020
2908 Clouds 20 1020 60 10000 8.2 10 22:58 16.05.2020
2909 Clouds 20 1020 60 10000 8.2 10 22:58 16.05.2020
2910 Clouds 20 1020 60 10000 9.3 10 22:40 16.05.2020
2911 Clouds 20 1020 60 10000 9.3 10 22:20 16.05.2020
2912 Clouds 20 1020 52 10000 8.7 360 21:46 16.05.2020
2913 Clouds 20 1020 56 10000 9.8 10 21:28 16.05.2020
2914 Clouds 21 1020 49 10000 9.3 360 20:59 16.05.2020
2915 Clouds 21 1020 49 10000 9.3 360 20:41 16.05.2020
2916 Clouds 21 1019 52 10000 11.8 20 20:22 16.05.2020
2917 Clouds 22 1019 46 10000 12.3 20 19:58 16.05.2020
2918 Clouds 22 1019 46 10000 12.3 20 19:40 16.05.2020
2919 Clouds 22 1019 46 10000 12.3 20 19:22 16.05.2020
2920 Clouds 22 1019 46 10000 12.3 20 18:42 16.05.2020
2921 Clouds 22 1019 49 10000 12.3 20 18:24 16.05.2020
2922 Clouds 23 1019 46 10000 12.3 30 17:57 16.05.2020
2923 Clouds 23 1020 43 10000 11.8 20 17:38 16.05.2020
2924 Clouds 23 1020 43 10000 11.8 20 17:19 16.05.2020
2925 Clouds 23 1020 38 10000 13.4 30 16:41 16.05.2020
2926 Clouds 23 1020 38 10000 13.4 30 16:22 16.05.2020
2927 Clouds 23 1020 40 10000 13.4 30 15:58 16.05.2020
2928 Clouds 23 1020 40 10000 12.9 30 15:39 16.05.2020
2929 Clouds 23 1020 40 10000 12.9 30 15:19 16.05.2020
2930 Clouds 23 1020 40 10000 12.9 30 14:46 16.05.2020
2931 Clouds 23 1020 43 10000 11.3 30 14:21 16.05.2020
2932 Clouds 22 1020 46 10000 12.9 30 13:58 16.05.2020
2933 Clouds 22 1020 49 10000 11.8 30 13:40 16.05.2020
2934 Clouds 22 1020 49 10000 11.8 30 13:22 16.05.2020
2935 Clouds 22 1021 43 10000 9.8 20 12:45 16.05.2020
2936 Clouds 22 1021 40 10000 9.8 10 12:22 16.05.2020
2937 Clouds 22 1021 37 10000 8.7 350 11:59 16.05.2020
2938 Clouds 21 1020 40 10000 7.2 340 11:38 16.05.2020
2939 Clouds 21 1020 40 10000 7.2 340 11:20 16.05.2020
2940 Clouds 20 1020 52 10000 8.7 20 10:56 16.05.2020
2941 Clouds 20 1020 52 10000 9.3 10 10:37 16.05.2020
2942 Clouds 20 1020 52 10000 9.3 10 10:18 16.05.2020
2943 Clouds 20 1020 60 10000 8.7 10 09:44 16.05.2020
2944 Clouds 18 1020 59 10000 8.7 10 09:26 16.05.2020
2945 Drizzle 18 1019 68 10000 4.6 360 08:43 16.05.2020
2946 Clouds 18 1019 68 10000 4.6 360 08:21 16.05.2020
2947 Clouds 18 1019 68 10000 4.1 10 07:46 16.05.2020
2948 Clouds 18 1019 72 10000 4.1 350 07:27 16.05.2020
2949 Clouds 18 1019 72 10000 4.6 360 06:59 16.05.2020
2950 Clouds 18 1019 72 10000 4.6 360 06:41 16.05.2020
2951 Clouds 18 1019 68 10000 6.2 10 06:18 16.05.2020
2952 Clouds 19 1019 68 10000 7.2 10 05:38 16.05.2020
2953 Clouds 19 1020 68 10000 4.1 350 04:30 16.05.2020
2954 Clouds 19 1021 68 10000 5.1 360 02:59 16.05.2020
2955 Clouds 19 1021 64 10000 5.7 360 02:22 16.05.2020
2956 Clouds 19 1021 64 10000 7.7 360 01:54 16.05.2020
2957 Clouds 19 1021 68 10000 5.1 350 01:27 16.05.2020
2958 Clouds 19 1021 63 10000 7.2 360 00:51 16.05.2020
2959 Clouds 20 1021 60 10000 7.7 10 00:23 16.05.2020
2960 Clouds 20 1020 64 10000 6.7 360 23:41 15.05.2020
2961 Clouds 20 1020 64 10000 6.7 360 23:20 15.05.2020
2962 Clouds 20 1020 64 10000 7.2 360 22:59 15.05.2020
2963 Clouds 20 1019 64 10000 7.7 350 22:40 15.05.2020
2964 Clouds 20 1019 64 10000 7.7 350 22:19 15.05.2020
2965 Clouds 21 1019 60 10000 9.3 360 21:40 15.05.2020
2966 Clouds 21 1019 60 10000 9.3 360 21:22 15.05.2020
2967 Clouds 21 1019 53 10000 8.2 360 20:59 15.05.2020
2968 Clouds 22 1019 49 10000 8.7 360 20:41 15.05.2020
2969 Clouds 22 1019 49 10000 8.7 360 20:22 15.05.2020
2970 Clouds 22 1019 53 10000 11.8 10 19:58 15.05.2020
2971 Clouds 22 1019 56 10000 9.3 360 19:40 15.05.2020
2972 Clouds 22 1019 56 10000 9.3 360 19:21 15.05.2020
2973 Clouds 22 1019 49 10000 11.3 10 18:45 15.05.2020
2974 Clouds 23 1019 53 10000 10.8 10 18:27 15.05.2020
2975 Clouds 23 1020 50 10000 10.3 360 17:40 15.05.2020
2976 Clouds 23 1020 50 10000 10.3 360 17:20 15.05.2020
2977 Clouds 23 1020 49 10000 10.3 10 16:58 15.05.2020
2978 Clouds 23 1020 44 10000 9.8 350 16:39 15.05.2020
2979 Clouds 23 1020 44 10000 9.8 350 16:19 15.05.2020
2980 Clouds 22 1020 49 10000 9.8 360 15:58 15.05.2020
2981 Clouds 22 1020 53 10000 10.8 350 15:39 15.05.2020
2982 Clouds 22 1020 53 10000 10.8 350 15:19 15.05.2020
2983 Clouds 21 1021 72 10000 8.7 360 14:42 15.05.2020
2984 Clouds 21 1021 72 10000 8.7 360 14:42 15.05.2020
2985 Clouds 22 1021 60 10000 7.7 340 14:24 15.05.2020
2986 Clouds 22 1021 53 10000 9.3 350 13:59 15.05.2020
2987 Rain 21 1021 60 10000 9.8 10 13:39 15.05.2020
2988 Rain 21 1021 60 10000 9.8 10 13:20 15.05.2020
2989 Clouds 21 1021 68 10000 8.2 360 12:40 15.05.2020
2990 Clouds 21 1021 68 10000 8.2 360 12:19 15.05.2020
2991 Drizzle 22 1020 53 10000 8.7 350 11:57 15.05.2020
2992 Clouds 22 1020 56 10000 7.2 350 11:39 15.05.2020
2993 Clouds 22 1020 56 10000 7.2 350 11:21 15.05.2020
2994 Clouds 21 1020 52 10000 7.7 350 10:59 15.05.2020
2995 Clouds 21 1020 52 10000 5.7 360 10:40 15.05.2020
2996 Clouds 21 1020 52 10000 5.7 360 10:40 15.05.2020
2997 Clouds 21 1020 52 10000 5.7 360 10:21 15.05.2020
2998 Clouds 20 1020 56 10000 5.7 10 09:58 15.05.2020
2999 Clouds 19 1020 55 10000 4.6 350 09:37 15.05.2020
3000 Clouds 19 1020 55 10000 4.6 350 09:18 15.05.2020
3001 Clouds 18 1019 52 10000 6.7 340 08:55 15.05.2020
3002 Clouds 18 1019 48 10000 6.2 320 08:37 15.05.2020
3003 Clouds 18 1019 48 10000 6.2 320 08:18 15.05.2020
3004 Clouds 17 1019 52 10000 6.7 330 07:42 15.05.2020
3005 Clouds 17 1019 55 10000 6.7 340 07:24 15.05.2020
3006 Clouds 18 1019 55 10000 4.6 350 06:35 15.05.2020
3007 Clouds 18 1019 55 10000 4.1 350 05:40 15.05.2020
3008 Clouds 18 1019 52 10000 7.7 340 04:25 15.05.2020
3009 Clouds 19 1020 55 10000 7.7 360 03:40 15.05.2020
3010 Clouds 19 1020 59 10000 5.1 350 01:38 15.05.2020
3011 Clouds 19 1020 59 10000 5.1 350 01:19 15.05.2020
3012 Clouds 19 1020 59 10000 4.6 340 00:44 15.05.2020
3013 Clouds 20 1020 55 10000 7.2 340 00:23 15.05.2020
3014 Clouds 20 1019 59 10000 5.7 340 23:43 14.05.2020
3015 Clouds 20 1019 55 10000 9.3 340 23:20 14.05.2020
3016 Clouds 20 1019 59 10000 8.7 350 22:55 14.05.2020
3017 Clouds 20 1018 52 10000 8.2 350 22:37 14.05.2020
3018 Clouds 20 1018 52 10000 8.2 350 22:19 14.05.2020
3019 Clouds 20 1018 52 10000 8.2 340 21:42 14.05.2020
3020 Clouds 20 1018 52 10000 8.2 340 21:20 14.05.2020
3021 Clouds 21 1018 49 10000 11.8 340 20:59 14.05.2020
3022 Clouds 21 1018 49 10000 11.8 340 20:59 14.05.2020
3023 Clouds 21 1017 49 10000 9.8 340 20:41 14.05.2020
3024 Clouds 21 1017 49 10000 9.8 340 20:20 14.05.2020
3025 Clouds 21 1017 56 10000 8.7 340 19:57 14.05.2020
3026 Clouds 20 1017 68 10000 3.1 0 19:39 14.05.2020
3027 Clouds 21 1017 68 10000 3.1 0 19:20 14.05.2020
3028 Clouds 20 1017 77 10000 2.1 130 18:57 14.05.2020
3029 Rain 21 1017 72 10000 1.5 70 18:38 14.05.2020
3030 Rain 21 1017 72 10000 1.5 70 18:19 14.05.2020
3031 Rain 21 1017 68 10000 3.1 150 17:57 14.05.2020
3032 Rain 22 1018 60 10000 3.6 140 17:37 14.05.2020
3033 Rain 22 1018 60 10000 3.6 140 17:18 14.05.2020
3034 Clouds 22 1018 60 10000 5.1 160 16:56 14.05.2020
3035 Clouds 22 1018 56 10000 5.7 200 16:37 14.05.2020
3036 Clouds 22 1018 56 10000 5.7 200 16:18 14.05.2020
3037 Clouds 22 1018 56 10000 6.2 170 15:41 14.05.2020
3038 Clouds 22 1018 56 10000 6.2 170 15:21 14.05.2020
3039 Clouds 22 1018 60 10000 5.7 160 14:57 14.05.2020
3040 Clouds 23 1018 56 10000 6.2 170 14:39 14.05.2020
3041 Clouds 23 1018 56 10000 6.2 170 14:20 14.05.2020
3042 Clouds 23 1018 56 10000 6.2 180 13:57 14.05.2020
3043 Clouds 22 1018 60 10000 4.6 170 13:38 14.05.2020
3044 Clouds 22 1018 60 10000 4.6 170 13:19 14.05.2020
3045 Clouds 22 1018 56 10000 5.1 170 12:57 14.05.2020
3046 Clouds 21 1018 60 10000 4.1 170 12:38 14.05.2020
3047 Clouds 21 1018 60 10000 4.1 170 12:18 14.05.2020
3048 Clouds 21 1018 56 10000 2.1 100 11:56 14.05.2020
3049 Clouds 21 1018 52 10000 1.5 140 11:38 14.05.2020
3050 Clouds 21 1018 52 10000 1.5 140 11:19 14.05.2020
3051 Clouds 21 1018 52 10000 1.5 140 10:44 14.05.2020
3052 Clouds 20 1018 49 10000 0.5 0 10:26 14.05.2020
3053 Clouds 19 1018 55 10000 1 0 09:56 14.05.2020
3054 Clouds 18 1017 59 10000 2.1 310 09:38 14.05.2020
3055 Clouds 18 1017 59 10000 2.1 310 09:18 14.05.2020
3056 Clouds 18 1017 55 10000 1.5 250 08:39 14.05.2020
3057 Clouds 18 1017 55 10000 1.5 250 08:19 14.05.2020
3058 Clouds 18 1017 55 10000 1 0 07:45 14.05.2020
3059 Clouds 18 1017 55 10000 4.1 300 07:22 14.05.2020
3060 Clouds 18 1017 45 10000 2.6 300 06:48 14.05.2020
3061 Clouds 18 1017 42 10000 4.1 340 06:26 14.05.2020
3062 Clouds 19 1017 52 10000 4.1 360 05:42 14.05.2020
3063 Clouds 19 1017 55 10000 7.2 350 04:56 14.05.2020
3064 Clouds 19 1018 55 10000 6.2 350 03:44 14.05.2020
3065 Clouds 19 1018 55 10000 6.2 350 03:20 14.05.2020
3066 Clouds 19 1018 52 10000 7.2 350 02:39 14.05.2020
3067 Clouds 19 1018 55 10000 9.3 350 01:52 14.05.2020
3068 Clouds 20 1019 56 10000 8.2 360 00:54 14.05.2020
3069 Clouds 20 1019 52 10000 9.3 360 00:28 14.05.2020
3070 Clouds 20 1018 56 10000 8.2 360 23:46 13.05.2020
3071 Clouds 20 1018 56 10000 8.2 350 23:25 13.05.2020
3072 Clouds 20 1018 56 10000 8.2 350 23:00 13.05.2020
3073 Clouds 20 1018 56 10000 8.2 350 22:41 13.05.2020
3074 Clouds 20 1018 52 10000 8.2 350 22:22 13.05.2020
3075 Clouds 21 1017 56 10000 9.3 360 21:58 13.05.2020
3076 Clouds 21 1017 60 10000 8.7 360 21:39 13.05.2020
3077 Clouds 21 1017 60 10000 8.7 360 21:19 13.05.2020
3078 Clouds 22 1017 60 10000 8.2 10 20:55 13.05.2020
3079 Clouds 22 1017 60 10000 8.2 10 20:55 13.05.2020
3080 Clouds 22 1017 56 10000 8.2 360 20:37 13.05.2020
3081 Clouds 22 1017 56 10000 8.2 360 20:37 13.05.2020
3082 Clouds 22 1017 56 10000 8.2 360 20:19 13.05.2020
3083 Clouds 23 1016 56 10000 7.7 10 19:41 13.05.2020
3084 Clouds 23 1016 56 10000 7.7 10 19:23 13.05.2020
3085 Clouds 22 1017 60 10000 1 0 18:44 13.05.2020
3086 Clouds 23 1017 64 10000 4.1 160 18:22 13.05.2020
3087 Clouds 23 1017 64 10000 5.7 170 17:58 13.05.2020
3088 Clouds 23 1016 64 10000 5.1 170 17:38 13.05.2020
3089 Clouds 23 1016 64 10000 5.1 170 17:18 13.05.2020
3090 Clouds 23 1017 64 10000 4.6 140 16:40 13.05.2020
3091 Clouds 23 1017 64 10000 4.6 140 16:19 13.05.2020
3092 Clouds 23 1017 69 10000 4.6 130 15:55 13.05.2020
3093 Clouds 23 1017 64 10000 4.6 150 15:36 13.05.2020
3094 Clouds 23 1017 64 10000 4.6 150 15:18 13.05.2020
3095 Clouds 23 1017 60 10000 6.2 160 14:42 13.05.2020
3096 Clouds 23 1017 60 10000 5.7 170 14:24 13.05.2020
3097 Clouds 23 1017 64 10000 4.6 0 13:59 13.05.2020
3098 Clouds 23 1017 64 10000 4.6 0 13:41 13.05.2020
3099 Clouds 23 1017 64 10000 6.7 160 13:22 13.05.2020
3100 Clouds 22 1017 64 10000 5.1 170 12:58 13.05.2020
3101 Clouds 23 1017 60 10000 3.6 160 12:39 13.05.2020
3102 Clouds 22 1017 60 10000 3.6 160 12:20 13.05.2020
3103 Clouds 22 1017 64 10000 2.6 150 11:56 13.05.2020
3104 Clouds 22 1017 64 10000 2.6 150 11:56 13.05.2020
3105 Clouds 21 1017 64 10000 1 0 11:37 13.05.2020
3106 Clouds 21 1017 64 10000 1 0 11:19 13.05.2020
3107 Clouds 22 1017 56 10000 1.5 50 10:57 13.05.2020
3108 Clouds 21 1017 60 10000 1 0 10:38 13.05.2020
3109 Clouds 21 1017 60 10000 1 0 10:19 13.05.2020
3110 Clouds 20 1016 64 10000 0.5 0 09:46 13.05.2020
3111 Clouds 19 1016 68 10000 1.5 290 09:23 13.05.2020
3112 Clouds 19 1016 68 10000 2.1 260 08:58 13.05.2020
3113 Clouds 19 1016 68 10000 2.6 270 08:37 13.05.2020
3114 Clouds 19 1016 68 10000 2.6 270 08:19 13.05.2020
3115 Clouds 20 1016 64 10000 2.6 330 07:48 13.05.2020
3116 Clouds 20 1016 64 10000 2.6 340 07:30 13.05.2020
3117 Clouds 19 1016 64 10000 2.6 320 06:51 13.05.2020
3118 Clouds 19 1016 64 10000 5.1 350 06:31 13.05.2020
3119 Clouds 19 1016 56 10000 1.5 350 05:33 13.05.2020
3120 Clouds 20 1017 60 10000 5.7 350 03:28 13.05.2020
3121 Clouds 20 1017 64 10000 6.2 360 02:34 13.05.2020
3122 Clouds 20 1017 60 10000 6.2 360 01:38 13.05.2020
3123 Clouds 20 1017 60 10000 6.7 350 00:53 13.05.2020
3124 Clouds 20 1017 60 10000 7.2 350 00:22 13.05.2020
3125 Clouds 20 1017 60 10000 6.7 360 23:40 12.05.2020
3126 Clouds 20 1017 60 10000 6.7 360 23:40 12.05.2020
3127 Clouds 20 1017 60 10000 6.7 360 23:22 12.05.2020
3128 Clouds 20 1017 60 10000 6.7 360 23:22 12.05.2020
3129 Clouds 20 1017 60 10000 5.7 340 22:59 12.05.2020
3130 Clouds 20 1016 56 10000 7.2 350 22:41 12.05.2020
3131 Clouds 21 1016 56 10000 7.2 350 22:21 12.05.2020
3132 Clouds 21 1016 53 10000 6.2 330 21:56 12.05.2020
3133 Clouds 22 1016 53 10000 6.7 350 21:37 12.05.2020
3134 Clouds 22 1016 53 10000 6.7 350 21:37 12.05.2020
3135 Clouds 22 1016 53 10000 6.7 350 21:19 12.05.2020
3136 Clouds 22 1016 53 10000 3.1 0 20:57 12.05.2020
3137 Clouds 22 1016 56 10000 2.6 150 20:38 12.05.2020
3138 Clouds 22 1016 56 10000 2.6 150 20:20 12.05.2020
3139 Clouds 22 1016 56 10000 3.1 180 19:56 12.05.2020
3140 Clouds 22 1016 56 10000 3.1 180 19:56 12.05.2020
3141 Clouds 22 1016 60 10000 3.1 170 19:38 12.05.2020
3142 Clouds 22 1016 60 10000 3.1 170 19:20 12.05.2020
3143 Clouds 22 1016 56 10000 2.6 140 18:43 12.05.2020
3144 Clouds 22 1017 60 10000 2.6 150 18:24 12.05.2020
3145 Clouds 23 1017 56 10000 4.1 160 17:59 12.05.2020
3146 Clouds 23 1017 53 10000 4.6 170 17:41 12.05.2020
3147 Clouds 23 1017 53 10000 4.6 170 17:22 12.05.2020
3148 Clouds 22 1017 64 10000 5.1 160 16:47 12.05.2020
3149 Clouds 22 1017 56 10000 5.1 140 16:24 12.05.2020
3150 Clouds 22 1018 64 10000 3.1 120 15:56 12.05.2020
3151 Clouds 22 1018 60 10000 3.6 140 15:37 12.05.2020
3152 Clouds 22 1018 60 10000 3.6 140 15:18 12.05.2020
3153 Clouds 23 1018 56 10000 4.1 140 14:55 12.05.2020
3154 Clouds 24 1018 38 10000 7.2 340 14:36 12.05.2020
3155 Clouds 24 1018 38 10000 7.2 340 14:18 12.05.2020
3156 Clouds 23 1018 44 10000 8.2 340 13:56 12.05.2020
3157 Clouds 22 1018 49 10000 9.8 350 13:37 12.05.2020
3158 Clouds 22 1018 49 10000 9.8 350 13:18 12.05.2020
3159 Clouds 22 1018 49 10000 10.3 350 12:57 12.05.2020
3160 Clouds 22 1018 53 10000 10.3 340 12:38 12.05.2020
3161 Clouds 22 1018 53 10000 10.3 340 12:20 12.05.2020
3162 Clouds 21 1018 64 10000 6.7 360 11:57 12.05.2020
3163 Clouds 21 1018 68 10000 7.7 360 11:37 12.05.2020
3164 Clouds 21 1018 68 10000 7.7 360 11:19 12.05.2020
3165 Rain 21 1018 60 10000 5.1 10 10:55 12.05.2020
3166 Clouds 21 1018 56 10000 6.7 360 10:37 12.05.2020
3167 Clouds 21 1018 56 10000 6.7 360 10:18 12.05.2020
3168 Clouds 21 1017 52 10000 7.2 350 09:57 12.05.2020
3169 Clouds 20 1017 52 10000 5.1 350 09:38 12.05.2020
3170 Clouds 20 1017 52 10000 5.1 350 09:19 12.05.2020
3171 Clouds 19 1017 49 10000 4.6 340 08:40 12.05.2020
3172 Clouds 19 1017 49 10000 4.6 340 08:21 12.05.2020
3173 Clouds 19 1017 49 10000 6.2 330 07:45 12.05.2020
3174 Clouds 19 1017 49 10000 5.7 340 07:27 12.05.2020
3175 Clouds 19 1017 49 10000 5.7 340 07:27 12.05.2020
3176 Clouds 19 1017 55 10000 7.2 340 06:56 12.05.2020
3177 Clouds 19 1016 52 10000 8.2 340 06:37 12.05.2020
3178 Clouds 19 1016 52 10000 8.2 340 06:19 12.05.2020
3179 Clouds 19 1016 59 10000 7.7 350 05:45 12.05.2020
3180 Clouds 20 1017 56 10000 6.7 350 03:53 12.05.2020
3181 Clouds 20 1018 60 10000 6.7 350 03:18 12.05.2020
3182 Clouds 20 1018 64 10000 8.7 350 02:26 12.05.2020
3183 Clouds 20 1018 68 10000 7.7 360 01:33 12.05.2020
3184 Clouds 20 1018 72 10000 7.2 350 00:57 12.05.2020
3185 Clouds 21 1018 73 10000 5.7 350 00:23 12.05.2020
3186 Rain 21 1018 77 10000 7.7 10 23:55 11.05.2020
3187 Clouds 21 1017 68 10000 4.6 360 23:37 11.05.2020
3188 Clouds 21 1017 68 10000 4.6 360 23:18 11.05.2020
3189 Rain 21 1018 73 10000 6.2 10 22:55 11.05.2020
3190 Clouds 21 1017 68 10000 2.1 140 22:36 11.05.2020
3191 Clouds 21 1017 68 10000 2.1 140 22:18 11.05.2020
3192 Clouds 22 1017 73 10000 3.6 150 21:54 11.05.2020
3193 Clouds 22 1017 64 10000 1.5 170 21:36 11.05.2020
3194 Clouds 22 1017 64 10000 1.5 170 21:18 11.05.2020
3195 Clouds 22 1017 64 10000 2.1 0 20:42 11.05.2020
3196 Clouds 23 1017 57 10000 4.6 190 20:21 11.05.2020
3197 Clouds 23 1017 57 10000 2.6 180 19:58 11.05.2020
3198 Clouds 23 1017 50 10000 6.7 10 19:40 11.05.2020
3199 Clouds 24 1017 50 10000 6.7 10 19:21 11.05.2020
3200 Clouds 24 1017 53 10000 2.6 0 18:57 11.05.2020
3201 Clouds 24 1017 53 10000 4.1 190 18:38 11.05.2020
3202 Clouds 24 1017 53 10000 4.1 190 18:19 11.05.2020
3203 Clouds 24 1017 53 10000 4.1 0 17:57 11.05.2020
3204 Clouds 23 1017 57 10000 3.6 100 17:38 11.05.2020
3205 Clouds 23 1017 57 10000 3.6 100 17:20 11.05.2020
3206 Clouds 24 1017 50 10000 4.1 60 16:56 11.05.2020
3207 Clouds 23 1018 57 10000 3.1 130 16:37 11.05.2020
3208 Clouds 23 1018 57 10000 3.1 130 16:18 11.05.2020
3209 Clouds 23 1018 64 10000 4.1 130 15:42 11.05.2020
3210 Clouds 23 1018 57 10000 4.6 150 15:20 11.05.2020
3211 Clouds 23 1018 57 10000 3.1 0 14:58 11.05.2020
3212 Clouds 24 1018 53 10000 4.1 0 14:40 11.05.2020
3213 Clouds 24 1018 53 10000 4.1 0 14:21 11.05.2020
3214 Clouds 24 1018 53 10000 4.1 0 14:21 11.05.2020
3215 Clouds 24 1018 50 10000 8.7 10 13:42 11.05.2020
3216 Clouds 24 1018 47 10000 9.3 20 13:22 11.05.2020
3217 Clouds 23 1018 47 10000 8.7 10 12:59 11.05.2020
3218 Clouds 23 1019 50 10000 10.3 340 12:41 11.05.2020
3219 Clouds 23 1019 50 10000 10.3 340 12:23 11.05.2020
3220 Clouds 22 1018 56 10000 9.3 10 11:57 11.05.2020
3221 Clouds 22 1018 60 10000 8.7 10 11:39 11.05.2020
3222 Clouds 22 1018 60 10000 8.7 10 11:21 11.05.2020
3223 Clouds 21 1018 64 10000 8.2 10 10:57 11.05.2020
3224 Clouds 21 1018 60 10000 9.3 360 10:39 11.05.2020
3225 Clouds 21 1018 60 10000 9.3 360 10:20 11.05.2020
3226 Clouds 21 1018 60 10000 9.3 360 10:20 11.05.2020
3227 Clouds 21 1018 73 10000 8.2 10 09:57 11.05.2020
3228 Clouds 21 1018 73 10000 8.2 10 09:57 11.05.2020
3229 Clouds 21 1018 73 10000 8.2 10 09:57 11.05.2020
3230 Clouds 20 1018 77 10000 6.7 20 09:39 11.05.2020
3231 Clouds 20 1018 77 10000 6.7 20 09:19 11.05.2020
3232 Clouds 20 1017 72 10000 5.1 20 08:42 11.05.2020
3233 Clouds 20 1017 72 10000 5.7 20 08:24 11.05.2020
3234 Clouds 19 1017 68 10000 4.6 360 07:56 11.05.2020
3235 Clouds 20 1017 68 10000 5.7 10 07:38 11.05.2020
3236 Clouds 20 1017 68 10000 5.7 10 07:20 11.05.2020
3237 Clouds 20 1018 68 10000 7.2 360 06:34 11.05.2020
3238 Clouds 20 1018 72 10000 6.7 360 05:53 11.05.2020
3239 Clouds 20 1018 72 10000 7.2 360 05:22 11.05.2020
3240 Clouds 20 1018 68 10000 10.3 20 03:56 11.05.2020
3241 Clouds 20 1019 72 10000 8.7 10 02:36 11.05.2020
3242 Clouds 20 1019 72 10000 10.8 10 01:59 11.05.2020
3243 Clouds 20 1019 72 10000 8.7 10 01:18 11.05.2020
3244 Clouds 20 1019 68 10000 8.7 360 00:40 11.05.2020
3245 Clouds 21 1019 68 10000 8.7 360 00:18 11.05.2020
3246 Clouds 20 1018 64 10000 9.3 360 23:39 10.05.2020
3247 Clouds 21 1018 64 10000 9.3 360 23:20 10.05.2020
3248 Clouds 20 1018 64 10000 11.3 360 22:54 10.05.2020
3249 Clouds 21 1018 68 10000 9.3 360 22:36 10.05.2020
3250 Clouds 21 1018 68 10000 9.3 360 22:18 10.05.2020
3251 Clouds 21 1018 68 10000 9.3 360 22:18 10.05.2020
3252 Clouds 21 1018 68 10000 10.3 360 21:42 10.05.2020
3253 Clouds 22 1018 60 10000 12.3 360 21:18 10.05.2020
3254 Clouds 22 1017 56 10000 12.9 360 20:43 10.05.2020
3255 Clouds 23 1017 53 10000 12.9 360 20:24 10.05.2020
3256 Clouds 23 1017 53 10000 12.3 350 19:57 10.05.2020
3257 Clouds 24 1017 53 10000 12.3 10 19:38 10.05.2020
3258 Clouds 24 1017 53 10000 12.3 10 19:20 10.05.2020
3259 Clouds 24 1017 53 10000 11.8 360 18:56 10.05.2020
3260 Clouds 24 1017 53 10000 11.8 360 18:36 10.05.2020
3261 Clouds 24 1017 53 10000 11.8 360 18:18 10.05.2020
3262 Clouds 24 1017 53 10000 11.8 360 18:18 10.05.2020
3263 Clouds 24 1017 50 10000 11.3 360 17:57 10.05.2020
3264 Clouds 24 1017 47 10000 12.3 10 17:39 10.05.2020
3265 Clouds 24 1017 47 10000 12.3 10 17:20 10.05.2020
3266 Clouds 24 1018 50 10000 13.4 30 16:43 10.05.2020
3267 Clouds 25 1018 42 10000 11.8 20 16:21 10.05.2020
3268 Clouds 24 1018 47 10000 10.8 20 15:58 10.05.2020
3269 Clouds 24 1019 47 10000 10.8 30 15:39 10.05.2020
3270 Clouds 25 1019 47 10000 10.8 30 15:21 10.05.2020
3271 Clouds 24 1019 39 10000 9.8 10 14:56 10.05.2020
3272 Clouds 24 1019 41 10000 8.7 360 14:37 10.05.2020
3273 Clouds 24 1019 41 10000 8.7 360 14:19 10.05.2020
3274 Clouds 24 1020 44 10000 9.3 350 13:57 10.05.2020
3275 Clouds 24 1020 44 10000 9.3 350 13:57 10.05.2020
3276 Clouds 23 1020 47 10000 9.8 360 13:36 10.05.2020
3277 Clouds 23 1020 47 10000 9.8 360 13:18 10.05.2020
3278 Clouds 22 1020 56 10000 9.3 350 12:42 10.05.2020
3279 Clouds 23 1020 53 10000 8.7 340 12:23 10.05.2020
3280 Clouds 22 1020 60 10000 8.2 340 11:59 10.05.2020
3281 Clouds 21 1019 56 10000 8.2 360 11:40 10.05.2020
3282 Clouds 21 1019 56 10000 8.2 360 11:21 10.05.2020
3283 Clouds 21 1019 56 10000 6.7 340 10:55 10.05.2020
3284 Clouds 21 1019 56 10000 6.7 340 10:55 10.05.2020
3285 Clouds 21 1019 60 10000 7.2 360 10:37 10.05.2020
3286 Clouds 21 1019 60 10000 7.2 360 10:19 10.05.2020
3287 Clouds 19 1019 72 10000 6.7 360 09:42 10.05.2020
3288 Clouds 20 1019 72 10000 6.7 360 09:23 10.05.2020
3289 Clouds 19 1019 68 10000 6.7 10 08:57 10.05.2020
3290 Clouds 19 1018 68 10000 4.6 360 08:39 10.05.2020
3291 Clouds 19 1018 68 10000 4.6 360 08:20 10.05.2020
3292 Clouds 19 1018 72 10000 5.1 350 07:40 10.05.2020
3293 Clouds 19 1018 72 10000 5.1 350 07:19 10.05.2020
3294 Clouds 19 1019 72 10000 5.7 360 06:50 10.05.2020
3295 Clouds 20 1019 72 10000 5.7 350 06:24 10.05.2020
3296 Clouds 20 1019 68 10000 6.7 360 05:45 10.05.2020
3297 Clouds 20 1019 64 10000 6.7 350 04:45 10.05.2020
3298 Clouds 20 1019 64 10000 6.2 350 04:25 10.05.2020
3299 Clouds 20 1019 68 10000 6.2 350 03:44 10.05.2020
3300 Clouds 20 1019 72 10000 7.2 360 02:59 10.05.2020
3301 Clouds 20 1019 68 10000 7.2 360 02:25 10.05.2020
3302 Clouds 20 1019 64 10000 7.2 350 01:57 10.05.2020
3303 Clouds 20 1019 68 10000 7.7 350 01:39 10.05.2020
3304 Clouds 20 1019 68 10000 7.7 350 01:18 10.05.2020
3305 Clouds 20 1019 64 10000 8.2 360 00:52 10.05.2020
3306 Clouds 20 1019 68 10000 9.8 360 00:20 10.05.2020
3307 Clouds 20 1019 68 10000 8.7 350 23:40 09.05.2020
3308 Clouds 20 1019 68 10000 8.7 350 23:21 09.05.2020
3309 Clouds 20 1019 64 10000 8.2 360 22:57 09.05.2020
3310 Clouds 20 1018 68 10000 8.7 360 22:39 09.05.2020
3311 Clouds 21 1018 68 10000 8.7 360 22:21 09.05.2020
3312 Clouds 21 1018 60 10000 9.8 360 21:55 09.05.2020
3313 Clouds 22 1018 60 10000 9.3 360 21:37 09.05.2020
3314 Clouds 22 1018 60 10000 9.3 360 21:19 09.05.2020
3315 Clouds 22 1018 60 10000 8.7 360 20:55 09.05.2020
3316 Clouds 23 1018 53 10000 9.3 360 20:36 09.05.2020
3317 Clouds 23 1018 53 10000 9.3 360 20:18 09.05.2020
3318 Clouds 23 1018 53 10000 3.1 0 19:40 09.05.2020
3319 Clouds 23 1018 53 10000 3.1 0 19:20 09.05.2020
3320 Clouds 23 1018 64 10000 1.5 220 18:55 09.05.2020
3321 Clouds 23 1018 64 10000 1.5 220 18:55 09.05.2020
3322 Clouds 23 1018 64 10000 4.6 0 18:37 09.05.2020
3323 Clouds 23 1018 64 10000 4.6 0 18:18 09.05.2020
3324 Clouds 23 1018 64 10000 4.6 0 18:18 09.05.2020
3325 Clouds 23 1018 64 10000 10.8 30 17:42 09.05.2020
3326 Clouds 23 1018 60 10000 11.3 20 17:22 09.05.2020
3327 Clouds 24 1018 53 10000 10.8 20 16:41 09.05.2020
3328 Clouds 24 1018 57 10000 11.8 30 16:20 09.05.2020
3329 Clouds 24 1018 57 10000 12.3 10 15:54 09.05.2020
3330 Clouds 24 1018 57 10000 12.3 30 15:36 09.05.2020
3331 Clouds 24 1018 57 10000 12.3 30 15:18 09.05.2020
3332 Clouds 24 1019 61 10000 11.8 30 14:42 09.05.2020
3333 Clouds 24 1019 61 10000 12.3 30 14:20 09.05.2020
3334 Clouds 23 1019 60 10000 11.3 30 13:58 09.05.2020
3335 Clouds 23 1019 60 10000 9.3 30 13:40 09.05.2020
3336 Clouds 23 1019 60 10000 9.3 30 13:21 09.05.2020
3337 Clouds 22 1019 64 10000 2.1 140 12:55 09.05.2020
3338 Clouds 22 1020 68 10000 4.1 160 12:37 09.05.2020
3339 Clouds 22 1020 68 10000 4.1 160 12:19 09.05.2020
3340 Clouds 21 1020 64 10000 4.6 160 11:42 09.05.2020
3341 Clouds 21 1019 64 10000 4.1 130 11:19 09.05.2020
3342 Clouds 20 1019 64 10000 2.1 220 10:48 09.05.2020
3343 Clouds 20 1019 64 10000 4.6 360 10:26 09.05.2020
3344 Clouds 20 1019 68 10000 1.5 320 09:58 09.05.2020
3345 Clouds 19 1019 72 10000 1 0 09:40 09.05.2020
3346 Clouds 19 1019 72 10000 1 0 09:19 09.05.2020
3347 Clouds 18 1018 72 10000 2.6 310 08:51 09.05.2020
3348 Clouds 18 1018 72 10000 3.6 330 08:33 09.05.2020
3349 Clouds 18 1018 68 10000 3.1 320 07:54 09.05.2020
3350 Clouds 17 1018 72 10000 3.1 330 07:36 09.05.2020
3351 Clouds 17 1018 72 10000 3.1 330 07:18 09.05.2020
3352 Clouds 17 1019 72 10000 2.6 340 06:26 09.05.2020
3353 Clouds 18 1019 72 10000 3.1 320 05:49 09.05.2020
3354 Clouds 18 1019 72 10000 2.1 320 04:43 09.05.2020
3355 Clouds 19 1019 72 10000 5.7 20 03:38 09.05.2020
3356 Clouds 19 1019 72 10000 5.1 20 02:50 09.05.2020
3357 Clouds 20 1019 72 10000 5.1 20 01:54 09.05.2020
3358 Clouds 20 1020 72 10000 6.2 20 01:26 09.05.2020
3359 -273 0 0 0 0 0 00:59 09.05.2020
3360 Clouds 20 1019 72 10000 6.2 30 00:38 09.05.2020
3361 Clouds 20 1019 72 10000 7.2 20 23:57 08.05.2020
3362 Clouds 20 1019 72 10000 7.2 20 23:39 08.05.2020
3363 Clouds 20 1019 72 10000 7.2 20 23:19 08.05.2020
3364 Clouds 20 1018 72 10000 8.2 20 22:54 08.05.2020
3365 Clouds 21 1018 68 10000 8.2 20 22:36 08.05.2020
3366 Clouds 21 1018 68 10000 8.2 20 22:18 08.05.2020
3367 Clouds 21 1018 68 10000 9.3 20 21:42 08.05.2020
3368 Clouds 21 1018 64 10000 9.3 20 21:19 08.05.2020
3369 Clouds 22 1018 68 10000 9.8 30 20:59 08.05.2020
3370 Clouds 22 1017 64 10000 9.8 30 20:40 08.05.2020
3371 Clouds 22 1017 64 10000 9.8 30 20:22 08.05.2020
3372 Clouds 23 1017 64 10000 9.8 40 19:46 08.05.2020
3373 Clouds 23 1017 64 10000 10.3 40 19:24 08.05.2020
3374 Clouds 24 1017 60 10000 10.3 40 18:58 08.05.2020
3375 Clouds 23 1017 60 10000 11.3 30 18:40 08.05.2020
3376 Clouds 22 1017 60 10000 11.3 30 18:22 08.05.2020
3377 Clouds 22 1017 64 10000 11.3 30 17:42 08.05.2020
3378 Clouds 22 1018 60 10000 12.3 30 17:19 08.05.2020
3379 Clouds 22 1018 57 10000 11.8 30 16:48 08.05.2020
3380 Clouds 23 1018 57 10000 12.3 30 16:27 08.05.2020
3381 Clouds 22 1018 64 10000 11.8 30 15:59 08.05.2020
3382 Clouds 22 1018 60 10000 11.8 30 15:41 08.05.2020
3383 Clouds 22 1018 60 10000 11.8 30 15:18 08.05.2020
3384 Clouds 22 1018 57 10000 10.8 30 14:54 08.05.2020
3385 Clouds 22 1018 60 10000 10.8 30 14:36 08.05.2020
3386 Clouds 22 1018 60 10000 10.8 30 14:18 08.05.2020
3387 Clouds 22 1019 60 10000 9.8 30 13:41 08.05.2020
3388 Clouds 22 1019 60 10000 9.8 30 13:20 08.05.2020
3389 Clouds 21 1018 56 10000 9.3 40 12:55 08.05.2020
3390 Clouds 22 1018 56 10000 9.3 30 12:36 08.05.2020
3391 Clouds 21 1018 56 10000 9.3 30 12:18 08.05.2020
3392 Clouds 22 1018 64 10000 7.7 30 11:43 08.05.2020
3393 Clouds 19 1018 64 10000 7.7 30 11:22 08.05.2020
3394 Clouds 19 1018 64 10000 6.2 20 10:58 08.05.2020
3395 Clouds 19 1018 60 10000 5.1 10 10:40 08.05.2020
3396 Clouds 18 1018 60 10000 5.1 10 10:19 08.05.2020
3397 Clouds 16 1017 63 10000 3.6 10 09:42 08.05.2020
3398 Clouds 16 1017 68 10000 4.6 10 09:20 08.05.2020
3399 Clouds 18 1017 63 10000 4.1 20 08:59 08.05.2020
3400 Clouds 16 1017 68 10000 4.6 20 08:40 08.05.2020
3401 Clouds 16 1017 68 10000 4.6 20 08:20 08.05.2020
3402 Clouds 16 1017 68 10000 3.1 360 07:41 08.05.2020
3403 Clouds 16 1017 68 10000 5.1 10 07:23 08.05.2020
3404 Clouds 16 1017 72 10000 4.6 20 06:49 08.05.2020
3405 Clouds 17 1017 68 10000 5.1 360 06:20 08.05.2020
3406 Clouds 16 1018 68 10000 5.1 360 05:35 08.05.2020
3407 Clouds 19 1018 72 10000 5.1 360 03:55 08.05.2020
3408 Clouds 19 1019 68 10000 4.6 360 02:31 08.05.2020
3409 Clouds 20 1019 68 10000 5.7 10 01:41 08.05.2020
3410 Clouds 17 1019 68 10000 6.2 10 01:21 08.05.2020
3411 Clouds 17 1018 72 10000 5.7 10 00:48 08.05.2020
3412 Clouds 17 1018 72 10000 5.7 10 00:48 08.05.2020
3413 Clouds 17 1018 68 10000 5.7 10 00:27 08.05.2020
3414 Clouds 17 1018 68 10000 5.7 10 23:57 07.05.2020
3415 Clouds 17 1017 68 10000 5.1 360 23:39 07.05.2020
3416 Clouds 20 1017 68 10000 5.1 360 23:20 07.05.2020
3417 Clouds 18 1017 68 10000 6.2 360 22:42 07.05.2020
3418 Clouds 20 1017 64 10000 7.2 10 22:21 07.05.2020
3419 Clouds 18 1016 64 10000 7.2 10 21:58 07.05.2020
3420 Clouds 18 1016 68 10000 9.3 30 21:39 07.05.2020
3421 Clouds 20 1016 68 10000 9.3 30 21:20 07.05.2020
3422 Clouds 19 1016 68 10000 9.8 30 20:58 07.05.2020
3423 Clouds 19 1015 68 10000 10.3 30 20:40 07.05.2020
3424 Clouds 21 1015 68 10000 10.3 30 20:20 07.05.2020
3425 Clouds 21 1015 68 10000 10.3 30 20:20 07.05.2020
3426 Clouds 20 1015 68 10000 11.3 20 19:48 07.05.2020
3427 Clouds 20 1016 64 10000 10.3 20 19:23 07.05.2020
3428 Clouds 20 1016 60 10000 10.8 20 18:57 07.05.2020
3429 Clouds 20 1016 60 10000 10.8 20 18:38 07.05.2020
3430 Clouds 22 1016 60 10000 10.8 20 18:20 07.05.2020
3431 Clouds 21 1016 56 10000 10.3 20 17:41 07.05.2020
3432 Clouds 21 1016 56 10000 10.3 20 17:20 07.05.2020
3433 Clouds 21 1016 56 10000 10.8 30 16:43 07.05.2020
3434 Clouds 21 1016 56 10000 10.8 30 16:19 07.05.2020
3435 Clouds 21 1016 53 10000 10.3 30 15:58 07.05.2020
3436 Clouds 21 1016 53 10000 10.3 30 15:39 07.05.2020
3437 Clouds 21 1016 53 10000 10.3 30 15:18 07.05.2020
3438 Clouds 21 1016 60 10000 10.3 20 14:57 07.05.2020
3439 Clouds 21 1016 60 10000 10.3 30 14:39 07.05.2020
3440 Clouds 21 1016 60 10000 10.3 30 14:18 07.05.2020
3441 Clouds 21 1016 60 10000 10.3 30 14:18 07.05.2020
3442 Clouds 21 1016 56 10000 9.8 20 13:42 07.05.2020
3443 Clouds 21 1016 56 10000 9.8 20 13:22 07.05.2020
3444 Clouds 20 1016 64 10000 9.8 30 12:43 07.05.2020
3445 Clouds 20 1016 64 10000 9.3 30 12:20 07.05.2020
3446 Clouds 20 1016 64 10000 9.3 30 12:20 07.05.2020
3447 Clouds 19 1016 60 10000 8.2 20 11:40 07.05.2020
3448 Clouds 19 1016 60 10000 8.2 20 11:22 07.05.2020
3449 Clouds 19 1016 60 10000 6.7 350 10:58 07.05.2020
3450 Clouds 19 1016 60 10000 6.7 350 10:40 07.05.2020
3451 Clouds 19 1016 60 10000 6.7 350 10:40 07.05.2020
3452 Clouds 18 1016 60 10000 6.7 350 10:20 07.05.2020
3453 Clouds 19 1015 68 10000 5.1 350 09:40 07.05.2020
3454 Clouds 19 1015 68 10000 5.1 350 09:20 07.05.2020
3455 Clouds 18 1015 68 10000 5.1 350 08:56 07.05.2020
3456 Clouds 18 1015 68 10000 5.7 350 08:37 07.05.2020
3457 Clouds 18 1015 68 10000 5.7 350 08:18 07.05.2020
3458 Clouds 16 1015 72 10000 4.6 360 07:41 07.05.2020
3459 Clouds 16 1015 72 10000 4.6 360 07:41 07.05.2020
3460 Clouds 16 1015 72 10000 4.6 360 07:22 07.05.2020
3461 Clouds 16 1015 72 10000 5.1 10 06:39 07.05.2020
3462 Clouds 18 1015 72 10000 5.1 10 06:21 07.05.2020
3463 Clouds 19 1015 72 10000 5.1 360 05:25 07.05.2020
3464 Clouds 19 1016 72 10000 4.6 360 03:50 07.05.2020
3465 Clouds 19 1017 72 10000 4.6 360 03:21 07.05.2020
3466 Clouds 19 1017 77 10000 5.1 10 02:41 07.05.2020
3467 Clouds 17 1017 72 10000 6.2 10 01:40 07.05.2020
3468 Clouds 17 1017 72 10000 6.2 10 01:22 07.05.2020
3469 Clouds 18 1017 68 10000 4.6 360 00:44 07.05.2020
3470 Clouds 18 1017 68 10000 5.7 350 00:25 07.05.2020
3471 Clouds 20 1017 68 10000 5.1 360 23:46 06.05.2020
3472 Clouds 18 1017 68 10000 5.1 360 23:24 06.05.2020
3473 Clouds 18 1016 68 10000 6.2 360 22:57 06.05.2020
3474 Clouds 18 1016 72 10000 7.7 20 22:38 06.05.2020
3475 Clouds 18 1016 72 10000 7.7 20 22:19 06.05.2020
3476 Clouds 21 1016 68 10000 7.7 20 21:56 06.05.2020
3477 Clouds 19 1015 68 10000 8.2 10 21:37 06.05.2020
3478 Clouds 19 1015 68 10000 8.2 10 21:18 06.05.2020
3479 Clouds 19 1015 68 10000 9.3 10 20:42 06.05.2020
3480 Clouds 21 1015 64 10000 9.3 10 20:22 06.05.2020
3481 Clouds 21 1015 64 10000 9.3 10 20:22 06.05.2020
3482 Clouds 21 1015 60 10000 9.3 20 19:57 06.05.2020
3483 Clouds 21 1015 60 10000 10.3 30 19:38 06.05.2020
3484 Clouds 22 1015 60 10000 10.3 30 19:19 06.05.2020
3485 Clouds 22 1015 60 10000 10.3 20 18:58 06.05.2020
3486 Clouds 22 1016 60 10000 9.8 20 18:38 06.05.2020
3487 Clouds 22 1016 60 10000 9.8 20 18:20 06.05.2020
3488 Clouds 22 1016 60 10000 9.8 20 18:20 06.05.2020
3489 Clouds 22 1016 60 10000 9.8 30 17:56 06.05.2020
3490 Clouds 22 1016 60 10000 9.8 30 17:56 06.05.2020
3491 Clouds 22 1016 64 10000 9.8 30 17:38 06.05.2020
3492 Clouds 22 1016 64 10000 9.8 30 17:20 06.05.2020
3493 Clouds 22 1016 64 10000 9.8 20 16:58 06.05.2020
3494 Clouds 22 1016 60 10000 9.8 30 16:40 06.05.2020
3495 Clouds 23 1016 60 10000 9.8 30 16:20 06.05.2020
3496 Clouds 22 1016 60 10000 9.8 30 15:57 06.05.2020
3497 Clouds 23 1016 60 10000 10.3 30 15:39 06.05.2020
3498 Clouds 21 1016 60 10000 10.3 30 15:19 06.05.2020
3499 Clouds 21 1017 60 10000 9.8 30 14:41 06.05.2020
3500 Clouds 21 1017 56 10000 10.3 30 14:19 06.05.2020
3501 Clouds 21 1017 56 10000 10.3 30 14:19 06.05.2020
3502 Clouds 21 1017 56 10000 10.8 30 13:59 06.05.2020
3503 Clouds 21 1017 56 10000 10.8 30 13:59 06.05.2020
3504 Clouds 21 1017 64 10000 10.3 20 13:39 06.05.2020
3505 Clouds 22 1017 64 10000 10.3 20 13:19 06.05.2020
3506 Clouds 20 1017 64 10000 10.3 20 13:19 06.05.2020
3507 Clouds 21 1017 56 10000 9.3 20 12:44 06.05.2020
3508 Clouds 20 1017 60 10000 10.3 30 12:26 06.05.2020
3509 Clouds 20 1017 60 10000 10.3 30 11:56 06.05.2020
3510 Clouds 20 1017 60 10000 8.7 20 11:37 06.05.2020
3511 Clouds 20 1017 60 10000 8.7 20 11:19 06.05.2020
3512 Clouds 19 1016 64 10000 8.2 10 10:56 06.05.2020
3513 Clouds 19 1016 64 10000 7.2 350 10:37 06.05.2020
3514 Clouds 19 1016 64 10000 7.2 350 10:18 06.05.2020
3515 Clouds 17 1016 68 10000 6.7 350 09:39 06.05.2020
3516 Clouds 19 1016 68 10000 6.7 350 09:21 06.05.2020
3517 Clouds 18 1016 68 10000 5.1 360 08:45 06.05.2020
3518 Clouds 18 1016 68 10000 5.7 360 08:21 06.05.2020
3519 Clouds 17 1016 68 10000 4.6 360 07:58 06.05.2020
3520 Clouds 17 1016 68 10000 6.2 350 07:39 06.05.2020
3521 Clouds 17 1016 68 10000 6.2 350 07:20 06.05.2020
3522 Clouds 18 1016 63 10000 5.1 350 06:49 06.05.2020
3523 Clouds 18 1016 63 10000 5.7 350 06:21 06.05.2020
3524 Clouds 18 1017 63 10000 5.7 350 05:50 06.05.2020
3525 Clouds 18 1017 68 10000 6.2 350 05:32 06.05.2020
3526 Clouds 17 1018 68 10000 5.7 360 03:55 06.05.2020
3527 Clouds 17 1019 63 10000 5.7 360 03:34 06.05.2020
3528 Clouds 17 1019 63 10000 6.7 350 02:58 06.05.2020
3529 Clouds 17 1019 63 10000 6.2 360 02:28 06.05.2020
3530 Clouds 19 1019 63 10000 6.2 350 01:46 06.05.2020
3531 Clouds 18 1019 63 10000 7.2 350 01:26 06.05.2020
3532 Clouds 20 1019 64 10000 6.2 360 00:45 06.05.2020
3533 Clouds 18 1019 64 10000 6.7 360 00:23 06.05.2020
3534 Clouds 18 1018 64 10000 7.2 360 23:42 05.05.2020
3535 Clouds 18 1018 64 10000 7.2 360 23:20 05.05.2020
3536 Clouds 18 1018 60 10000 7.2 360 22:57 05.05.2020
3537 Clouds 19 1018 56 10000 7.7 360 22:38 05.05.2020
3538 Clouds 19 1018 56 10000 7.7 360 22:19 05.05.2020
3539 Clouds 21 1017 56 10000 8.7 10 21:41 05.05.2020
3540 Clouds 20 1017 60 10000 9.8 20 21:22 05.05.2020
3541 Clouds 20 1017 56 10000 10.3 20 20:59 05.05.2020
3542 Clouds 21 1017 56 10000 10.8 20 20:41 05.05.2020
3543 Clouds 21 1017 56 10000 10.8 20 20:20 05.05.2020
3544 Clouds 21 1017 53 10000 10.8 20 19:59 05.05.2020
3545 Clouds 21 1017 53 10000 10.8 20 19:59 05.05.2020
3546 Clouds 22 1017 53 10000 11.3 20 19:40 05.05.2020
3547 Clouds 22 1017 53 10000 11.3 20 19:40 05.05.2020
3548 Clouds 22 1017 53 10000 11.3 20 19:21 05.05.2020
3549 Clouds 22 1017 49 10000 11.8 30 18:57 05.05.2020
3550 Clouds 22 1017 49 10000 11.8 30 18:57 05.05.2020
3551 Clouds 22 1017 49 10000 11.8 30 18:57 05.05.2020
3552 Clouds 22 1017 56 10000 12.3 30 18:38 05.05.2020
3553 Clouds 22 1017 56 10000 12.3 30 18:19 05.05.2020
3554 Clouds 23 1017 56 10000 11.8 30 17:56 05.05.2020
3555 Clouds 23 1017 56 10000 11.3 30 17:38 05.05.2020
3556 Clouds 23 1017 56 10000 11.3 30 17:20 05.05.2020
3557 Clouds 22 1018 53 10000 11.3 30 16:38 05.05.2020
3558 Clouds 23 1018 53 10000 11.3 30 16:20 05.05.2020
3559 Clouds 22 1018 53 10000 11.3 30 15:58 05.05.2020
3560 Clouds 22 1018 53 10000 11.3 30 15:39 05.05.2020
3561 Clouds 23 1018 53 10000 11.3 30 15:20 05.05.2020
3562 Clouds 22 1018 53 10000 10.8 30 14:55 05.05.2020
3563 Clouds 23 1018 50 10000 10.3 30 14:37 05.05.2020
3564 Clouds 23 1018 50 10000 10.3 30 14:37 05.05.2020
3565 Clouds 24 1018 50 10000 10.3 30 14:18 05.05.2020
3566 Clouds 23 1018 53 10000 10.8 30 13:55 05.05.2020
3567 Clouds 23 1019 53 10000 10.8 30 13:36 05.05.2020
3568 Clouds 21 1019 53 10000 10.8 30 13:18 05.05.2020
3569 Clouds 21 1019 53 10000 9.8 30 12:43 05.05.2020
3570 Clouds 22 1018 53 10000 9.3 30 12:25 05.05.2020
3571 Clouds 22 1018 53 10000 7.2 10 11:59 05.05.2020
3572 Clouds 19 1018 56 10000 7.7 10 11:40 05.05.2020
3573 Clouds 21 1018 56 10000 7.7 10 11:19 05.05.2020
3574 Clouds 21 1018 60 10000 7.2 10 10:55 05.05.2020
3575 Clouds 18 1018 64 10000 6.2 360 10:36 05.05.2020
3576 Clouds 18 1018 64 10000 6.2 360 10:18 05.05.2020
3577 Clouds 19 1018 68 10000 4.6 340 09:44 05.05.2020
3578 Clouds 18 1017 68 10000 4.6 350 09:26 05.05.2020
3579 Clouds 18 1017 68 10000 4.6 340 08:58 05.05.2020
3580 Clouds 18 1017 72 10000 3.6 350 08:39 05.05.2020
3581 Clouds 18 1017 72 10000 3.6 350 08:18 05.05.2020
3582 Clouds 18 1017 68 10000 4.1 340 07:43 05.05.2020
3583 Clouds 18 1016 72 10000 4.6 350 07:21 05.05.2020
3584 Clouds 16 1016 72 10000 4.1 350 06:54 05.05.2020
3585 Clouds 18 1016 72 10000 4.6 350 06:31 05.05.2020
3586 Clouds 18 1017 72 10000 3.6 340 05:53 05.05.2020
3587 Clouds 19 1017 68 10000 3.6 360 04:58 05.05.2020
3588 Clouds 19 1018 68 10000 4.1 360 02:39 05.05.2020
3589 Clouds 18 1019 68 10000 5.1 360 00:56 05.05.2020
3590 Clouds 18 1019 68 10000 5.1 360 00:56 05.05.2020
3591 Clouds 20 1018 68 10000 5.1 350 00:33 05.05.2020
3592 Clouds 21 1018 64 10000 5.7 360 23:48 04.05.2020
3593 Clouds 20 1018 64 10000 6.7 350 23:26 04.05.2020
3594 Clouds 20 1017 60 10000 6.7 10 22:59 04.05.2020
3595 Clouds 20 1017 64 10000 8.2 10 22:41 04.05.2020
3596 Clouds 19 1017 64 10000 8.2 10 22:22 04.05.2020
3597 Clouds 19 1017 64 10000 8.2 10 22:22 04.05.2020
3598 Clouds 19 1016 68 10000 8.2 20 21:57 04.05.2020
3599 Clouds 19 1016 73 10000 6.2 10 21:37 04.05.2020
3600 Clouds 19 1016 73 10000 6.2 10 21:37 04.05.2020
3601 Clouds 19 1016 73 10000 6.2 10 21:19 04.05.2020
3602 Clouds 20 1016 68 10000 8.2 20 20:41 04.05.2020
3603 Clouds 20 1016 68 10000 8.2 20 20:41 04.05.2020
3604 Clouds 20 1016 68 10000 8.2 20 20:41 04.05.2020
3605 Clouds 21 1016 68 10000 8.2 20 20:21 04.05.2020
3606 Clouds 21 1016 68 10000 8.2 20 20:21 04.05.2020
3607 Clouds 21 1016 73 10000 8.2 30 19:56 04.05.2020
3608 Clouds 20 1016 68 10000 7.7 30 19:37 04.05.2020
3609 Clouds 20 1016 68 10000 7.7 30 19:18 04.05.2020
3610 Clouds 21 1016 69 10000 6.2 30 18:39 04.05.2020
3611 Clouds 22 1016 69 10000 6.2 30 18:20 04.05.2020
3612 Clouds 21 1016 69 10000 5.1 30 17:56 04.05.2020
3613 Clouds 22 1016 73 10000 5.1 30 17:38 04.05.2020
3614 Clouds 22 1016 73 10000 5.1 30 17:20 04.05.2020
3615 Clouds 21 1016 68 10000 5.1 30 16:44 04.05.2020
3616 Clouds 21 1016 68 10000 5.1 30 16:44 04.05.2020
3617 Clouds 22 1016 69 10000 3.6 40 16:23 04.05.2020
3618 Clouds 21 1017 73 10000 3.6 30 15:58 04.05.2020
3619 Clouds 22 1017 73 10000 4.1 70 15:40 04.05.2020
3620 Clouds 21 1017 73 10000 4.1 70 15:21 04.05.2020
3621 Clouds 21 1017 73 10000 4.1 80 14:48 04.05.2020
3622 Clouds 21 1017 73 10000 3.6 90 14:21 04.05.2020
3623 Clouds 21 1017 64 10000 5.1 60 13:21 04.05.2020
3624 Clouds 21 1017 64 10000 5.1 60 13:21 04.05.2020
3625 Clouds 21 1017 64 10000 5.1 60 13:21 04.05.2020
3626 Clouds 21 1017 64 10000 5.1 60 13:21 04.05.2020
3627 Clouds 22 1017 73 10000 4.6 60 12:44 04.05.2020
3628 Clouds 22 1017 73 10000 4.6 60 12:44 04.05.2020
3629 Clouds 22 1017 73 10000 4.6 60 12:44 04.05.2020
3630 Clouds 20 1016 73 10000 5.7 30 11:21 04.05.2020
3631 Clouds 19 1015 77 10000 2.1 340 09:28 04.05.2020
3632 Clouds 18 1015 72 10000 2.6 340 07:53 04.05.2020
3633 Clouds 19 1014 72 10000 0.5 0 07:33 04.05.2020
3634 Clouds 19 1014 72 10000 0.5 0 07:33 04.05.2020
3635 Clouds 19 1014 77 10000 1.5 280 05:49 04.05.2020
3636 Clouds 18 1014 82 10000 1 260 04:51 04.05.2020
3637 Clouds 18 1014 82 10000 1 260 04:51 04.05.2020
3638 Clouds 19 1015 77 10000 2.1 200 02:54 04.05.2020
3639 Clouds 20 1015 73 10000 3.1 200 01:39 04.05.2020
3640 Clouds 21 1015 73 10000 2.6 200 00:18 04.05.2020
3641 Clouds 21 1014 77 10000 1.5 210 23:42 03.05.2020
3642 Clouds 21 1014 77 10000 1.5 210 23:42 03.05.2020
3643 Clouds 21 1014 77 10000 1.5 210 23:23 03.05.2020
3644 Clouds 21 1013 77 10000 1 0 22:43 03.05.2020
3645 Clouds 21 1013 77 10000 1 0 22:43 03.05.2020
3646 Clouds 21 1013 77 10000 1 0 22:43 03.05.2020
3647 Clouds 21 1013 77 10000 1.5 120 22:25 03.05.2020
3648 Clouds 21 1013 77 10000 1.5 120 22:25 03.05.2020
3649 Clouds 21 1013 77 10000 2.1 80 21:42 03.05.2020
3650 Clouds 21 1013 77 10000 3.6 60 21:22 03.05.2020
3651 Clouds 22 1012 73 10000 4.6 30 20:58 03.05.2020
3652 Clouds 22 1012 73 10000 4.6 30 20:58 03.05.2020
3653 Clouds 22 1012 73 10000 4.6 30 20:58 03.05.2020
3654 Clouds 22 1012 73 10000 4.6 30 20:58 03.05.2020
3655 Clouds 22 1012 73 10000 4.6 30 20:58 03.05.2020
3656 Clouds 22 1012 73 10000 5.1 30 20:39 03.05.2020
3657 Clouds 23 1012 73 10000 5.1 30 20:20 03.05.2020
3658 Clouds 23 1012 73 10000 5.1 30 20:20 03.05.2020
3659 Clouds 22 1012 73 10000 5.1 30 20:20 03.05.2020
3660 Clouds 23 1012 68 10000 5.1 40 19:47 03.05.2020
3661 Clouds 23 1012 69 10000 5.1 50 19:27 03.05.2020
3662 Clouds 23 1012 69 10000 5.1 50 19:27 03.05.2020
3663 Clouds 24 1012 73 10000 5.1 60 18:41 03.05.2020
3664 Clouds 24 1012 73 10000 5.1 60 18:41 03.05.2020
3665 Clouds 24 1012 73 10000 5.1 60 18:41 03.05.2020
3666 Clouds 24 1012 73 10000 5.1 60 18:41 03.05.2020
3667 Clouds 24 1012 73 10000 5.1 60 18:41 03.05.2020
3668 Clouds 23 1013 69 10000 4.6 50 18:21 03.05.2020
3669 Clouds 23 1013 69 10000 4.1 70 17:59 03.05.2020
3670 Clouds 23 1013 69 10000 3.1 90 17:40 03.05.2020
3671 Clouds 23 1013 69 10000 3.1 90 17:21 03.05.2020
3672 Clouds 24 1013 64 10000 4.6 130 16:45 03.05.2020
3673 Clouds 24 1013 64 10000 4.6 130 16:45 03.05.2020
3674 Clouds 24 1013 64 10000 6.2 160 16:20 03.05.2020
3675 Clouds 24 1013 64 10000 6.2 160 16:20 03.05.2020
3676 Clouds 23 1014 69 10000 7.2 150 15:58 03.05.2020
3677 Clouds 23 1014 69 10000 6.2 150 15:39 03.05.2020
3678 Clouds 23 1014 69 10000 6.2 150 15:20 03.05.2020
3679 Clouds 24 1014 68 10000 5.1 140 14:58 03.05.2020
3680 Clouds 22 1014 73 10000 4.6 130 14:39 03.05.2020
3681 Clouds 23 1014 73 10000 4.6 130 14:20 03.05.2020
3682 Clouds 23 1014 73 10000 3.1 110 13:45 03.05.2020
3683 Clouds 23 1014 73 10000 3.1 110 13:45 03.05.2020
3684 Clouds 23 1014 73 10000 3.1 110 13:45 03.05.2020
3685 Clouds 21 1015 73 10000 2.6 120 12:59 03.05.2020
3686 Clouds 21 1015 73 10000 2.6 120 12:59 03.05.2020
3687 Clouds 20 1015 72 10000 2.6 100 12:41 03.05.2020
3688 Clouds 20 1015 72 10000 2.6 100 12:18 03.05.2020
3689 Clouds 20 1015 72 10000 2.6 100 11:55 03.05.2020
3690 Clouds 20 1015 72 10000 2.1 80 11:37 03.05.2020
3691 Clouds 20 1015 72 10000 2.1 80 11:18 03.05.2020
3692 Clouds 19 1014 72 10000 1.5 360 10:39 03.05.2020
3693 Clouds 19 1014 72 10000 1.5 360 10:39 03.05.2020
3694 Clouds 19 1014 72 10000 1.5 360 10:39 03.05.2020
3695 Clouds 19 1014 72 10000 1.5 360 10:39 03.05.2020
3696 Clouds 19 1014 72 10000 1.5 360 10:39 03.05.2020
3697 Clouds 19 1014 77 10000 2.6 320 09:52 03.05.2020
3698 Clouds 19 1014 77 10000 2.6 320 09:52 03.05.2020
3699 Clouds 19 1014 77 10000 2.6 320 09:52 03.05.2020
3700 Clouds 19 1014 77 10000 2.6 320 09:52 03.05.2020
3701 Clouds 18 1014 77 10000 3.1 320 09:27 03.05.2020
3702 Clouds 18 1014 77 10000 3.1 320 09:27 03.05.2020
3703 Clouds 18 1014 77 10000 3.1 320 09:27 03.05.2020
3704 Clouds 18 1014 77 10000 3.1 320 09:27 03.05.2020
3705 Clouds 17 1014 82 10000 3.1 330 08:54 03.05.2020
3706 Clouds 17 1014 82 10000 3.1 330 08:54 03.05.2020
3707 Clouds 17 1014 82 10000 3.1 330 08:53 03.05.2020
3708 Clouds 17 1014 82 10000 3.1 330 08:52 03.05.2020
3709 Clouds 17 1014 82 10000 3.1 330 08:52 03.05.2020
3710 Clouds 17 1014 82 10000 3.1 340 08:19 03.05.2020
3711 Clouds 17 1014 82 10000 3.1 340 08:19 03.05.2020
3712 Clouds 17 1014 82 10000 3.1 340 08:19 03.05.2020
3713 Clouds 17 1014 82 10000 3.1 340 08:19 03.05.2020
3714 Clouds 17 1013 82 10000 3.1 360 07:38 03.05.2020
3715 Clouds 17 1013 82 10000 3.1 360 07:38 03.05.2020
3716 Clouds 17 1013 88 10000 2.1 310 06:19 03.05.2020
3717 Clouds 17 1013 88 10000 2.1 310 06:19 03.05.2020
3718 Clouds 18 1013 88 10000 1 0 05:44 03.05.2020
3719 Clouds 18 1014 82 10000 1 0 04:29 03.05.2020
3720 Clouds 18 1015 82 10000 3.12 356 03:59 03.05.2020
3721 Clouds 18 1015 82 10000 3.12 356 03:59 03.05.2020
3722 Clear 19 1015 82 10000 1 300 02:53 03.05.2020
3723 Clear 19 1016 77 10000 0.5 0 02:22 03.05.2020
3724 Clear 20 1016 82 10000 1.5 330 01:42 03.05.2020
3725 Clouds 20 1016 82 10000 2.6 360 01:24 03.05.2020
3726 Clear 21 1016 82 10000 4.6 20 00:41 03.05.2020
3727 Clear 20 1016 82 10000 4.6 20 00:21 03.05.2020
3728 Clear 21 1016 82 10000 4.6 20 23:56 02.05.2020
3729 Clear 20 1016 82 10000 4.6 20 23:56 02.05.2020
3730 Clouds 20 1016 82 10000 4.6 20 23:38 02.05.2020
3731 Clouds 20 1016 82 10000 4.6 20 23:19 02.05.2020
3732 Clouds 20 1016 82 10000 5.1 20 22:42 02.05.2020
3733 Clouds 21 1016 82 10000 5.1 30 22:23 02.05.2020
3734 Clear 21 1015 77 10000 4.1 30 21:56 02.05.2020
3735 Clear 21 1015 77 10000 4.6 30 21:37 02.05.2020
3736 Clear 22 1015 77 10000 4.6 30 21:18 02.05.2020
3737 Clear 23 1015 73 10000 4.1 40 20:55 02.05.2020
3738 Clear 22 1015 73 10000 5.1 40 20:37 02.05.2020
3739 Clear 23 1015 73 10000 5.1 40 20:18 02.05.2020
3740 Clear 22 1015 73 10000 5.1 50 19:55 02.05.2020
3741 Clear 24 1015 69 10000 4.1 50 19:36 02.05.2020
3742 Clear 23 1015 69 10000 4.1 50 19:18 02.05.2020
3743 Clear 22 1016 73 10000 4.1 60 18:40 02.05.2020
3744 Clear 22 1016 73 10000 4.1 60 18:21 02.05.2020
3745 Clear 22 1016 68 10000 3.6 70 17:57 02.05.2020
3746 Clear 22 1017 68 10000 3.6 70 17:38 02.05.2020
3747 Clear 22 1017 68 10000 3.6 70 17:19 02.05.2020
3748 Clear 22 1017 68 10000 3.6 70 16:56 02.05.2020
3749 Clear 22 1017 68 10000 3.6 70 16:38 02.05.2020
3750 Clear 22 1017 68 10000 3.6 70 16:20 02.05.2020
3751 Clear 22 1018 64 10000 4.1 60 15:41 02.05.2020
3752 Clear 22 1018 68 10000 4.1 60 15:20 02.05.2020
3753 Clear 22 1018 68 10000 4.1 60 15:20 02.05.2020
3754 Clouds 21 1019 73 10000 3.6 70 14:44 02.05.2020
3755 Clouds 21 1019 68 10000 4.1 60 14:26 02.05.2020
3756 Clouds 21 1019 68 10000 4.6 70 13:59 02.05.2020
3757 Clouds 21 1019 68 10000 4.6 60 13:39 02.05.2020
3758 Clouds 22 1019 68 10000 4.6 60 13:19 02.05.2020
3759 Clouds 21 1019 64 10000 6.2 30 12:41 02.05.2020
3760 Clouds 21 1019 64 10000 6.2 30 12:22 02.05.2020
3761 Clouds 21 1020 68 10000 6.2 30 11:57 02.05.2020
3762 Clouds 21 1020 72 10000 5.7 30 11:39 02.05.2020
3763 Clouds 20 1020 72 10000 5.7 30 11:20 02.05.2020
3764 Clouds 19 1020 72 10000 6.2 30 10:41 02.05.2020
3765 Clouds 19 1020 72 10000 6.2 30 10:41 02.05.2020
3766 Clouds 19 1020 72 10000 6.2 30 10:22 02.05.2020
3767 Clouds 18 1019 77 10000 4.6 360 09:59 02.05.2020
3768 Clouds 19 1019 72 10000 5.1 10 09:41 02.05.2020
3769 Clouds 19 1019 72 10000 5.1 10 09:23 02.05.2020
3770 Clouds 18 1019 77 10000 6.7 20 08:57 02.05.2020
3771 Clouds 18 1019 72 10000 6.2 10 08:38 02.05.2020
3772 Clouds 18 1019 72 10000 6.2 10 08:19 02.05.2020
3773 Clouds 18 1019 72 10000 7.2 20 07:45 02.05.2020
3774 Clouds 18 1019 72 10000 6.7 10 07:27 02.05.2020
3775 Clouds 18 1019 72 10000 6.7 10 07:27 02.05.2020
3776 Clouds 18 1019 72 10000 7.7 20 06:43 02.05.2020
3777 Clouds 19 1020 72 10000 8.7 360 05:28 02.05.2020
3778 Clouds 18 1020 77 10000 8.7 10 04:31 02.05.2020
3779 Clouds 19 1021 68 10000 7.2 360 03:59 02.05.2020
3780 Clouds 19 1022 72 10000 8.2 20 02:43 02.05.2020
3781 Clouds 19 1022 77 10000 9.8 10 01:59 02.05.2020
3782 Clouds 19 1022 77 10000 9.3 10 01:28 02.05.2020
3783 Clouds 19 1022 72 10000 7.7 360 00:44 02.05.2020
3784 Clouds 20 1022 77 10000 8.7 10 00:24 02.05.2020
3785 Clouds 20 1022 77 10000 8.2 10 23:56 01.05.2020
3786 Clouds 20 1022 72 10000 8.2 10 23:37 01.05.2020
3787 Clouds 19 1022 72 10000 8.2 10 23:18 01.05.2020
3788 Clouds 19 1021 77 10000 9.8 20 22:40 01.05.2020
3789 Clouds 20 1021 77 10000 9.8 20 22:21 01.05.2020
3790 Clouds 20 1020 77 10000 9.8 10 21:58 01.05.2020
3791 Clouds 20 1020 73 10000 10.3 20 21:39 01.05.2020
3792 Clouds 21 1020 73 10000 10.3 20 21:20 01.05.2020
3793 Clouds 21 1020 73 10000 10.3 20 20:58 01.05.2020
3794 Clouds 21 1020 73 10000 10.3 20 20:58 01.05.2020
3795 Clouds 21 1020 68 10000 9.3 20 20:40 01.05.2020
3796 Clouds 22 1020 68 10000 9.3 20 20:20 01.05.2020
3797 Clouds 22 1020 68 10000 9.3 20 19:56 01.05.2020
3798 Clouds 22 1020 68 10000 10.3 30 19:38 01.05.2020
3799 Clouds 22 1020 68 10000 10.3 30 19:19 01.05.2020
3800 Clouds 23 1020 60 10000 9.8 20 18:55 01.05.2020
3801 Clouds 23 1021 60 10000 10.8 20 18:37 01.05.2020
3802 Clouds 23 1021 60 10000 10.8 20 18:18 01.05.2020
3803 Clouds 23 1021 60 10000 10.3 30 17:40 01.05.2020
3804 Clouds 23 1021 60 10000 10.3 30 17:21 01.05.2020
3805 Clouds 23 1021 60 10000 10.8 30 16:57 01.05.2020
3806 Clouds 23 1022 60 10000 10.8 30 16:39 01.05.2020
3807 Clouds 23 1022 60 10000 10.8 30 16:20 01.05.2020
3808 Clouds 23 1022 60 10000 9.3 10 15:57 01.05.2020
3809 Clouds 23 1022 60 10000 10.3 30 15:39 01.05.2020
3810 Clouds 24 1022 60 10000 10.3 30 15:19 01.05.2020
3811 Clouds 23 1023 56 10000 10.3 30 14:43 01.05.2020
3812 Clouds 23 1023 60 10000 10.8 30 14:24 01.05.2020
3813 Clouds 22 1023 64 10000 8.7 10 13:55 01.05.2020
3814 Clouds 21 1023 68 10000 8.7 30 13:36 01.05.2020
3815 Clouds 21 1023 68 10000 8.7 30 13:18 01.05.2020
3816 Clouds 21 1023 64 10000 7.7 10 12:54 01.05.2020
3817 Clouds 21 1023 60 10000 8.2 20 12:36 01.05.2020
3818 Clouds 21 1023 60 10000 8.2 20 12:18 01.05.2020
3819 Clouds 21 1023 64 10000 8.7 360 11:41 01.05.2020
3820 Clouds 21 1023 64 10000 8.7 360 11:21 01.05.2020
3821 Clouds 20 1023 60 10000 8.7 10 10:56 01.05.2020
3822 Clouds 20 1023 64 10000 9.8 10 10:37 01.05.2020
3823 Clouds 19 1023 64 10000 9.8 10 10:19 01.05.2020
3824 Clouds 19 1023 64 10000 7.2 360 09:43 01.05.2020
3825 Clouds 19 1023 68 10000 6.2 360 09:19 01.05.2020
3826 Clouds 18 1023 68 10000 6.7 360 08:47 01.05.2020
3827 Clouds 17 1023 68 10000 5.7 360 08:28 01.05.2020
3828 Clouds 18 1022 68 10000 8.2 360 07:59 01.05.2020
3829 Clouds 18 1022 68 10000 8.2 360 07:40 01.05.2020
3830 Clouds 18 1022 68 10000 8.2 360 07:21 01.05.2020
3831 Clouds 18 1023 68 10000 8.2 10 06:30 01.05.2020
3832 Clouds 18 1023 64 10000 7.7 360 05:26 01.05.2020
3833 Clouds 19 1024 68 10000 9.3 10 04:19 01.05.2020
3834 Clouds 18 1025 68 10000 8.7 10 02:57 01.05.2020
3835 Clouds 19 1025 68 10000 8.7 10 02:38 01.05.2020
3836 Clouds 18 1024 68 10000 9.3 10 01:54 01.05.2020
3837 Clouds 18 1025 68 10000 8.7 10 01:27 01.05.2020
3838 Clouds 18 1024 68 10000 7.7 360 00:41 01.05.2020
3839 Clouds 18 1024 68 10000 7.7 360 00:41 01.05.2020
3840 Clouds 18 1024 68 10000 7.7 360 00:22 01.05.2020
3841 Clouds 20 1024 68 10000 10.3 360 23:57 30.04.2020
3842 Clouds 18 1023 68 10000 11.3 10 23:39 30.04.2020
3843 Clouds 20 1023 68 10000 11.3 10 23:21 30.04.2020
3844 Clouds 20 1023 68 10000 11.3 10 22:59 30.04.2020
3845 Clouds 19 1023 68 10000 11.3 10 22:39 30.04.2020
3846 Clouds 20 1023 68 10000 11.3 10 22:19 30.04.2020
3847 Clouds 20 1022 68 10000 10.3 10 21:43 30.04.2020
3848 Clouds 20 1022 64 10000 10.8 10 21:23 30.04.2020
3849 Clouds 21 1022 64 10000 11.8 20 20:58 30.04.2020
3850 Clouds 22 1022 60 10000 12.3 20 20:40 30.04.2020
3851 Clouds 21 1022 60 10000 12.3 20 20:18 30.04.2020
3852 Clouds 21 1022 60 10000 12.9 20 19:47 30.04.2020
3853 Clouds 22 1022 56 10000 11.8 20 19:27 30.04.2020
3854 Clouds 23 1022 56 10000 12.9 30 18:59 30.04.2020
3855 Clouds 23 1022 60 10000 12.3 30 18:39 30.04.2020
3856 Clouds 22 1022 60 10000 12.3 30 18:21 30.04.2020
3857 Clouds 22 1022 60 10000 13.9 30 17:58 30.04.2020
3858 Clouds 23 1023 60 10000 12.3 30 17:40 30.04.2020
3859 Clouds 22 1023 60 10000 12.3 30 17:21 30.04.2020
3860 Clouds 22 1023 56 10000 12.3 30 16:57 30.04.2020
3861 Clouds 23 1023 56 10000 11.3 30 16:38 30.04.2020
3862 Clouds 23 1023 56 10000 11.3 30 16:19 30.04.2020
3863 Clouds 23 1023 60 10000 12.3 20 15:48 30.04.2020
3864 Clouds 22 1024 56 10000 12.9 30 15:25 30.04.2020
3865 Clouds 23 1024 56 10000 13.4 30 14:57 30.04.2020
3866 Clouds 21 1024 50 10000 11.8 30 14:39 30.04.2020
3867 Clouds 23 1024 50 10000 11.8 30 14:19 30.04.2020
3868 Clouds 23 1024 50 10000 10.3 10 13:55 30.04.2020
3869 Clouds 23 1024 47 10000 10.8 20 13:36 30.04.2020
3870 Clouds 23 1024 47 10000 10.8 20 13:18 30.04.2020
3871 Clouds 22 1024 56 10000 9.8 10 12:41 30.04.2020
3872 Clouds 22 1024 56 10000 9.8 10 12:20 30.04.2020
3873 Clouds 21 1024 60 10000 10.3 360 11:58 30.04.2020
3874 Clouds 21 1024 56 10000 9.3 360 11:36 30.04.2020
3875 Clouds 21 1024 56 10000 9.3 360 11:18 30.04.2020
3876 Clouds 20 1024 64 10000 8.7 10 10:41 30.04.2020
3877 Clouds 17 1024 64 10000 8.7 10 10:22 30.04.2020
3878 Clouds 19 1023 68 10000 7.7 360 09:57 30.04.2020
3879 Clouds 18 1023 68 10000 7.2 360 09:39 30.04.2020
3880 Clouds 16 1023 68 10000 7.2 360 09:20 30.04.2020
3881 Clouds 16 1023 68 10000 7.2 360 09:20 30.04.2020
3882 Clouds 16 1023 68 10000 8.2 360 08:47 30.04.2020
3883 Clouds 16 1022 68 10000 8.2 360 08:26 30.04.2020
3884 Clouds 17 1022 68 10000 7.7 360 07:45 30.04.2020
3885 Clouds 17 1022 68 10000 8.2 10 07:26 30.04.2020
3886 Clouds 16 1022 68 10000 8.2 10 06:59 30.04.2020
3887 Clouds 16 1022 68 10000 8.2 10 06:59 30.04.2020
3888 Clouds 16 1022 68 10000 8.2 10 06:32 30.04.2020
3889 Clouds 17 1022 68 10000 9.8 10 05:47 30.04.2020
3890 Clouds 16 1023 68 10000 8.2 10 04:43 30.04.2020
3891 Clouds 16 1023 68 10000 8.2 360 04:23 30.04.2020
3892 Clouds 17 1024 63 10000 7.2 360 02:48 30.04.2020
3893 Clouds 17 1025 63 10000 6.7 360 02:27 30.04.2020
3894 Clouds 17 1025 63 10000 8.2 360 01:37 30.04.2020
3895 Clouds 17 1024 63 10000 8.2 360 00:50 30.04.2020
3896 Clouds 17 1024 63 10000 9.3 360 00:20 30.04.2020
3897 Clouds 19 1024 63 10000 7.7 360 23:58 29.04.2020
3898 Clouds 19 1023 63 10000 7.2 360 23:39 29.04.2020
3899 Clouds 17 1023 63 10000 7.2 360 23:21 29.04.2020
3900 Clouds 19 1023 63 10000 6.7 360 22:56 29.04.2020
3901 Clouds 19 1022 63 10000 8.2 360 22:38 29.04.2020
3902 Clouds 19 1022 63 10000 8.2 360 22:18 29.04.2020
3903 Clouds 20 1022 60 10000 9.3 10 21:38 29.04.2020
3904 Clouds 18 1022 60 10000 9.3 10 21:20 29.04.2020
3905 Clouds 19 1022 56 10000 10.3 10 20:58 29.04.2020
3906 Clouds 19 1022 60 10000 10.8 20 20:38 29.04.2020
3907 Clouds 21 1022 60 10000 10.8 20 20:19 29.04.2020
3908 Clouds 20 1022 60 10000 10.8 20 20:19 29.04.2020
3909 Clouds 20 1022 60 10000 10.8 20 20:19 29.04.2020
3910 Clouds 21 1022 60 10000 10.3 20 19:43 29.04.2020
3911 Clouds 22 1022 56 10000 11.8 20 19:22 29.04.2020
3912 Clouds 21 1022 56 10000 11.8 20 18:57 29.04.2020
3913 Clouds 22 1022 56 10000 11.3 30 18:39 29.04.2020
3914 Clouds 22 1022 56 10000 11.3 30 18:19 29.04.2020
3915 Clouds 21 1022 60 10000 11.3 20 17:42 29.04.2020
3916 Clouds 21 1022 60 10000 11.3 20 17:21 29.04.2020
3917 Clouds 22 1023 56 10000 10.8 30 16:56 29.04.2020
3918 Clouds 21 1023 49 10000 10.3 30 16:36 29.04.2020
3919 Clouds 21 1023 49 10000 10.3 30 16:18 29.04.2020
3920 Clouds 21 1023 56 10000 11.8 30 15:55 29.04.2020
3921 Clouds 21 1023 53 10000 12.3 30 15:36 29.04.2020
3922 Clouds 22 1023 53 10000 12.3 30 15:18 29.04.2020
3923 Clouds 22 1023 53 10000 11.8 20 14:42 29.04.2020
3924 Clouds 20 1024 53 10000 11.3 20 14:23 29.04.2020
3925 Clouds 20 1024 56 10000 11.8 20 13:56 29.04.2020
3926 Clouds 20 1024 60 10000 11.3 30 13:38 29.04.2020
3927 Clouds 20 1024 60 10000 11.3 30 13:38 29.04.2020
3928 Clouds 20 1024 60 10000 11.3 30 13:18 29.04.2020
3929 Clouds 21 1023 56 10000 10.8 20 12:41 29.04.2020
3930 Clouds 21 1023 56 10000 10.8 20 12:19 29.04.2020
3931 Clouds 21 1023 60 10000 10.3 20 11:59 29.04.2020
3932 Clouds 20 1023 64 10000 10.3 10 11:38 29.04.2020
3933 Clouds 19 1023 64 10000 10.3 10 11:20 29.04.2020
3934 Clouds 20 1022 68 10000 9.8 10 10:39 29.04.2020
3935 Clouds 19 1022 68 10000 9.8 10 10:20 29.04.2020
3936 Clouds 19 1022 68 10000 8.2 360 09:59 29.04.2020
3937 Clouds 18 1021 72 10000 7.2 360 09:40 29.04.2020
3938 Clouds 18 1021 72 10000 7.2 360 09:19 29.04.2020
3939 Clouds 17 1021 72 10000 6.7 360 08:43 29.04.2020
3940 Clouds 17 1021 72 10000 7.7 360 08:25 29.04.2020
3941 Clouds 17 1021 72 10000 7.2 360 07:53 29.04.2020
3942 Clouds 16 1021 72 10000 6.7 360 07:28 29.04.2020
3943 Clouds 16 1021 68 10000 5.7 360 06:52 29.04.2020
3944 Clouds 18 1021 68 10000 5.7 360 06:32 29.04.2020
3945 Clouds 16 1021 68 10000 5.1 360 05:43 29.04.2020
3946 Clouds 18 1022 59 10000 5.1 360 05:19 29.04.2020
3947 Clouds 18 1022 72 10000 4.6 350 04:19 29.04.2020
3948 Clouds 16 1023 72 10000 4.6 360 02:58 29.04.2020
3949 Clouds 19 1023 72 10000 6.2 20 01:54 29.04.2020
3950 Clouds 19 1023 72 10000 6.2 10 01:28 29.04.2020
3951 Clouds 19 1022 72 10000 6.7 10 00:55 29.04.2020
3952 Clouds 19 1022 72 10000 6.7 20 00:36 29.04.2020
3953 Clouds 19 1022 72 10000 6.7 20 00:18 29.04.2020
3954 Clouds 19 1022 72 10000 7.7 20 23:43 28.04.2020
3955 Clouds 19 1021 72 10000 7.7 20 23:20 28.04.2020
3956 Clouds 20 1021 72 10000 8.2 20 22:38 28.04.2020
3957 Clouds 20 1021 72 10000 8.2 20 22:20 28.04.2020
3958 Clouds 20 1020 72 10000 8.7 20 21:59 28.04.2020
3959 Clouds 20 1020 72 10000 9.3 20 21:40 28.04.2020
3960 Clouds 20 1020 72 10000 9.3 20 21:21 28.04.2020
3961 Clouds 21 1020 68 10000 10.3 20 20:56 28.04.2020
3962 Clouds 21 1020 68 10000 11.3 20 20:38 28.04.2020
3963 Clouds 21 1020 68 10000 11.3 20 20:20 28.04.2020
3964 Clouds 22 1020 64 10000 11.3 30 19:56 28.04.2020
3965 Clouds 23 1020 60 10000 12.3 30 19:37 28.04.2020
3966 Clouds 23 1020 60 10000 12.3 30 19:19 28.04.2020
3967 Clouds 23 1020 60 10000 12.3 30 19:19 28.04.2020
3968 Clouds 23 1020 60 10000 12.3 30 18:41 28.04.2020
3969 Clouds 23 1020 60 10000 12.3 30 18:20 28.04.2020
3970 Clouds 23 1020 56 10000 11.8 30 17:59 28.04.2020
3971 Clouds 23 1020 56 10000 11.8 30 17:37 28.04.2020
3972 Clouds 23 1020 56 10000 11.8 30 17:19 28.04.2020
3973 Clouds 22 1020 56 10000 12.3 30 16:56 28.04.2020
3974 Clouds 23 1020 60 10000 12.3 30 16:37 28.04.2020
3975 Clouds 23 1020 60 10000 12.3 30 16:18 28.04.2020
3976 Clouds 23 1020 60 10000 12.3 30 16:18 28.04.2020
3977 Clouds 24 1020 53 10000 11.3 30 15:54 28.04.2020
3978 Clouds 23 1021 53 10000 12.3 30 15:36 28.04.2020
3979 Clouds 23 1021 53 10000 12.3 30 15:18 28.04.2020
3980 Clouds 23 1021 53 10000 11.8 30 14:43 28.04.2020
3981 Clouds 23 1021 53 10000 11.3 30 14:22 28.04.2020
3982 Clouds 23 1021 56 10000 11.3 30 13:59 28.04.2020
3983 Clouds 22 1021 56 10000 10.8 40 13:39 28.04.2020
3984 Clouds 22 1021 56 10000 10.8 40 13:21 28.04.2020
3985 Clouds 22 1021 60 10000 9.3 40 12:57 28.04.2020
3986 Clouds 21 1021 60 10000 8.7 20 12:37 28.04.2020
3987 Clouds 22 1021 60 10000 8.7 20 12:19 28.04.2020
3988 Clouds 21 1020 64 10000 8.2 30 11:40 28.04.2020
3989 Clouds 20 1020 64 10000 8.2 30 11:20 28.04.2020
3990 Clouds 20 1020 60 10000 4.1 20 10:55 28.04.2020
3991 Clouds 20 1020 56 10000 3.6 350 10:37 28.04.2020
3992 Clouds 20 1020 56 10000 3.6 350 10:18 28.04.2020
3993 Clouds 18 1019 63 10000 3.1 300 09:42 28.04.2020
3994 Clouds 18 1019 63 10000 3.1 300 09:24 28.04.2020
3995 Clouds 17 1019 77 10000 3.1 340 08:49 28.04.2020
3996 Clouds 17 1019 72 10000 3.6 340 08:30 28.04.2020
3997 Clouds 17 1019 72 10000 4.1 340 07:58 28.04.2020
3998 Clouds 17 1018 72 10000 2.6 340 07:39 28.04.2020
3999 Clouds 17 1018 72 10000 2.6 340 07:18 28.04.2020
4000 Clouds 17 1018 77 10000 2.6 340 06:28 28.04.2020
4001 Clouds 18 1019 77 10000 2.1 360 05:45 28.04.2020
4002 Clouds 18 1019 82 10000 3.1 340 05:26 28.04.2020
4003 Clouds 18 1019 82 10000 3.6 350 04:33 28.04.2020
4004 Clouds 18 1019 82 10000 3.6 350 04:33 28.04.2020
4005 Clouds 19 1020 77 10000 3.1 340 02:36 28.04.2020
4006 Clouds 19 1021 77 10000 2.6 350 01:25 28.04.2020
4007 Clouds 19 1021 77 10000 2.6 350 01:25 28.04.2020
4008 Clouds 19 1021 77 10000 4.6 360 00:59 28.04.2020
4009 Clouds 20 1021 68 10000 3.1 350 00:27 28.04.2020
4010 Clouds 20 1020 68 10000 3.6 30 23:48 27.04.2020
4011 Clouds 20 1020 68 10000 1.5 40 23:25 27.04.2020
4012 Clouds 20 1019 68 10000 2.1 360 22:57 27.04.2020
4013 Clouds 20 1019 68 10000 3.6 350 22:38 27.04.2020
4014 Clouds 20 1019 68 10000 3.6 350 22:20 27.04.2020
4015 Clouds 20 1018 68 10000 3.1 310 21:56 27.04.2020
4016 Clouds 20 1018 68 10000 2.6 190 21:38 27.04.2020
4017 Clouds 21 1018 68 10000 2.6 190 21:18 27.04.2020
4018 Clouds 21 1018 68 10000 2.6 190 21:18 27.04.2020
4019 Clouds 20 1018 68 10000 1.5 170 20:54 27.04.2020
4020 Clouds 21 1018 68 10000 1.5 140 20:36 27.04.2020
4021 Clouds 21 1018 68 10000 1.5 140 20:36 27.04.2020
4022 Clouds 21 1018 68 10000 1.5 140 20:18 27.04.2020
4023 Clouds 21 1018 68 10000 2.1 110 19:40 27.04.2020
4024 Clouds 21 1018 68 10000 2.1 110 19:21 27.04.2020
4025 Clouds 21 1018 68 10000 1.5 110 18:59 27.04.2020
4026 Clouds 21 1018 64 10000 1 0 18:40 27.04.2020
4027 Clouds 21 1018 64 10000 1 0 18:19 27.04.2020
4028 Clouds 21 1018 64 10000 1.5 150 17:57 27.04.2020
4029 Clouds 21 1018 64 10000 2.6 160 17:38 27.04.2020
4030 Clouds 21 1018 64 10000 2.6 160 17:18 27.04.2020
4031 Clouds 21 1019 64 10000 2.6 130 16:40 27.04.2020
4032 Clouds 21 1019 64 10000 2.6 130 16:22 27.04.2020
4033 Clouds 21 1019 68 10000 2.6 130 15:57 27.04.2020
4034 Clouds 21 1019 64 10000 3.1 150 15:38 27.04.2020
4035 Clouds 21 1019 64 10000 3.1 150 15:19 27.04.2020
4036 Clouds 21 1019 64 10000 3.1 110 14:56 27.04.2020
4037 Clouds 22 1019 60 10000 3.1 90 14:38 27.04.2020
4038 Clouds 22 1019 60 10000 3.1 90 14:18 27.04.2020
4039 Clouds 21 1019 68 10000 3.1 100 13:42 27.04.2020
4040 Clouds 21 1019 68 10000 3.1 100 13:42 27.04.2020
4041 Clouds 21 1019 64 10000 3.1 110 13:22 27.04.2020
4042 Clouds 21 1019 60 10000 2.6 110 12:58 27.04.2020
4043 Clouds 21 1019 64 10000 2.6 110 12:40 27.04.2020
4044 Clouds 21 1019 64 10000 2.6 110 12:20 27.04.2020
4045 Clouds 20 1019 64 10000 2.6 140 11:41 27.04.2020
4046 Clouds 19 1019 64 10000 2.6 140 11:21 27.04.2020
4047 Clouds 19 1018 64 10000 1.5 190 10:58 27.04.2020
4048 Clouds 19 1018 68 10000 1 0 10:39 27.04.2020
4049 Clouds 19 1018 68 10000 1 0 10:20 27.04.2020
4050 Clouds 18 1018 63 10000 2.1 250 09:44 27.04.2020
4051 Clouds 17 1018 67 10000 2.6 260 09:21 27.04.2020
4052 Clouds 16 1018 72 10000 2.6 260 08:59 27.04.2020
4053 Clouds 16 1018 72 10000 2.6 260 08:41 27.04.2020
4054 Clouds 16 1018 72 10000 2.6 260 08:23 27.04.2020
4055 Clouds 16 1018 72 10000 2.6 290 07:44 27.04.2020
4056 Clouds 16 1018 72 10000 2.1 280 07:20 27.04.2020
4057 Clouds 16 1018 72 10000 2.6 270 06:56 27.04.2020
4058 Clouds 17 1018 67 10000 2.6 260 06:27 27.04.2020
4059 Clouds 17 1018 67 10000 2.6 260 06:27 27.04.2020
4060 Clouds 17 1018 72 10000 2.1 260 05:50 27.04.2020
4061 Clouds 17 1018 72 10000 2.1 280 04:49 27.04.2020
4062 Clouds 17 1018 72 10000 2.1 270 03:59 27.04.2020
4063 Clouds 17 1018 72 10000 2.1 280 03:35 27.04.2020
4064 Clouds 18 1019 68 10000 2.6 320 01:41 27.04.2020
4065 Clouds 18 1019 68 10000 2.1 340 00:58 27.04.2020
4066 Clouds 18 1019 68 10000 2.6 350 00:20 27.04.2020
4067 Clouds 19 1019 63 10000 3.1 360 23:56 26.04.2020
4068 Clouds 19 1018 63 10000 4.6 360 23:38 26.04.2020
4069 Clouds 19 1018 63 10000 4.6 360 23:19 26.04.2020
4070 Clouds 19 1018 68 10000 5.1 20 22:58 26.04.2020
4071 Clouds 19 1018 68 10000 4.6 30 22:39 26.04.2020
4072 Clouds 19 1018 68 10000 4.6 30 22:39 26.04.2020
4073 Clouds 19 1018 68 10000 4.6 30 22:20 26.04.2020
4074 Clouds 19 1017 68 10000 4.1 30 21:57 26.04.2020
4075 Clouds 19 1017 64 10000 3.6 40 21:38 26.04.2020
4076 Clouds 19 1017 64 10000 3.6 40 21:18 26.04.2020
4077 Clouds 19 1017 60 10000 4.1 30 20:42 26.04.2020
4078 Clouds 20 1017 56 10000 4.1 30 20:24 26.04.2020
4079 Clouds 19 1017 60 10000 4.1 40 19:59 26.04.2020
4080 Clouds 20 1017 64 10000 4.6 40 19:39 26.04.2020
4081 Clouds 20 1017 64 10000 4.6 40 19:21 26.04.2020
4082 Clouds 20 1017 64 10000 4.6 40 18:57 26.04.2020
4083 Clouds 20 1017 60 10000 5.1 50 18:39 26.04.2020
4084 Clouds 20 1017 60 10000 5.1 50 18:21 26.04.2020
4085 Clouds 20 1018 60 10000 5.7 50 17:42 26.04.2020
4086 Clouds 20 1018 60 10000 6.7 30 17:22 26.04.2020
4087 Clouds 20 1018 60 10000 6.7 50 16:55 26.04.2020
4088 Clouds 20 1018 60 10000 6.7 40 16:37 26.04.2020
4089 Clouds 21 1018 56 10000 7.2 40 16:18 26.04.2020
4090 Clouds 21 1018 56 10000 7.2 40 15:55 26.04.2020
4091 Clouds 21 1018 56 10000 7.2 50 15:36 26.04.2020
4092 Clouds 21 1018 56 10000 7.2 50 15:18 26.04.2020
4093 Clouds 21 1019 56 10000 7.2 40 14:40 26.04.2020
4094 Clouds 21 1019 56 10000 7.2 40 14:19 26.04.2020
4095 Clouds 20 1019 60 10000 6.7 30 13:58 26.04.2020
4096 Clouds 21 1019 53 10000 6.7 30 13:38 26.04.2020
4097 Clouds 21 1019 53 10000 6.7 30 13:20 26.04.2020
4098 Clouds 20 1019 56 10000 6.7 30 12:54 26.04.2020
4099 Clouds 21 1019 56 10000 6.2 30 12:36 26.04.2020
4100 Clouds 21 1019 56 10000 6.2 30 12:18 26.04.2020
4101 Clouds 20 1019 52 10000 6.2 30 11:42 26.04.2020
4102 Clouds 19 1018 60 10000 4.1 10 11:23 26.04.2020
4103 -273 0 0 0 0 0 10:59 26.04.2020
4104 Clouds 19 1018 59 10000 4.6 350 10:41 26.04.2020
4105 Clouds 19 1018 59 10000 4.6 350 10:41 26.04.2020
4106 Clouds 19 1018 59 10000 4.6 350 10:23 26.04.2020
4107 Clouds 18 1018 55 10000 4.1 340 09:57 26.04.2020
4108 Clouds 17 1018 59 10000 3.6 330 09:37 26.04.2020
4109 Clouds 17 1018 59 10000 3.6 330 09:18 26.04.2020
4110 Clouds 15 1017 59 10000 4.1 340 08:41 26.04.2020
4111 Clouds 15 1017 59 10000 4.1 340 08:41 26.04.2020
4112 Clouds 16 1017 59 10000 4.1 340 08:21 26.04.2020
4113 Clouds 16 1017 67 10000 3.6 340 07:48 26.04.2020
4114 Clouds 16 1017 72 10000 3.6 330 07:23 26.04.2020
4115 Clouds 16 1017 72 10000 3.1 340 06:46 26.04.2020
4116 Clouds 16 1017 72 10000 3.6 350 06:20 26.04.2020
4117 Clouds 16 1018 72 10000 3.1 340 05:47 26.04.2020
4118 Clouds 17 1018 67 10000 3.6 340 05:28 26.04.2020
4119 Clouds 17 1018 72 10000 3.1 340 04:30 26.04.2020
4120 Clouds 17 1019 68 10000 3.6 350 03:33 26.04.2020
4121 Clouds 18 1019 68 10000 6.2 10 02:33 26.04.2020
4122 Clouds 18 1019 63 10000 6.7 10 01:54 26.04.2020
4123 Clouds 18 1020 63 10000 6.2 10 01:35 26.04.2020
4124 Clouds 19 1020 63 10000 6.2 10 00:41 26.04.2020
4125 Clouds 19 1020 63 10000 6.2 10 00:20 26.04.2020
4126 Clouds 19 1019 63 10000 5.7 10 23:40 25.04.2020
4127 Clouds 19 1019 63 10000 5.7 10 23:21 25.04.2020
4128 Clouds 19 1019 63 10000 6.2 10 22:59 25.04.2020
4129 Clouds 19 1019 63 10000 7.7 10 22:41 25.04.2020
4130 Clouds 19 1019 63 10000 7.7 10 22:19 25.04.2020
4131 Clouds 19 1019 63 10000 7.7 10 21:57 25.04.2020
4132 Clouds 20 1018 56 10000 8.7 10 21:37 25.04.2020
4133 Clouds 20 1018 56 10000 8.7 10 21:18 25.04.2020
4134 Clouds 20 1018 56 10000 10.3 10 20:42 25.04.2020
4135 Clouds 20 1018 60 10000 11.3 20 20:22 25.04.2020
4136 Clouds 21 1018 56 10000 11.3 30 19:58 25.04.2020
4137 Clouds 21 1018 60 10000 11.8 30 19:38 25.04.2020
4138 Clouds 21 1018 60 10000 11.8 30 19:19 25.04.2020
4139 Clouds 21 1018 53 10000 11.8 30 18:43 25.04.2020
4140 Clouds 22 1018 49 10000 11.3 30 18:21 25.04.2020
4141 Clouds 22 1018 49 10000 11.3 30 18:21 25.04.2020
4142 Clouds 22 1018 56 10000 10.8 30 17:59 25.04.2020
4143 Clouds 21 1018 56 10000 10.3 30 17:39 25.04.2020
4144 Clouds 20 1018 56 10000 10.3 30 17:21 25.04.2020
4145 Clouds 20 1019 60 10000 10.3 30 16:59 25.04.2020
4146 Clouds 20 1019 60 10000 9.3 30 16:41 25.04.2020
4147 Clouds 21 1019 60 10000 9.3 30 16:21 25.04.2020
4148 Clouds 20 1019 56 10000 9.3 30 15:54 25.04.2020
4149 Clouds 20 1019 56 10000 9.3 30 15:36 25.04.2020
4150 Clouds 21 1019 56 10000 9.3 30 15:18 25.04.2020
4151 Clouds 21 1019 56 10000 9.8 30 14:39 25.04.2020
4152 Clouds 21 1019 56 10000 9.8 30 14:20 25.04.2020
4153 Clouds 21 1019 56 10000 9.8 30 13:59 25.04.2020
4154 Clouds 21 1019 43 10000 8.2 10 13:40 25.04.2020
4155 Clouds 21 1019 43 10000 8.2 10 13:18 25.04.2020
4156 Clouds 21 1020 49 10000 6.7 360 12:55 25.04.2020
4157 Clouds 20 1019 49 10000 7.7 10 12:36 25.04.2020
4158 Clouds 20 1019 49 10000 7.7 10 12:18 25.04.2020
4159 Clouds 20 1019 64 10000 5.7 350 11:41 25.04.2020
4160 Clouds 20 1019 64 10000 5.7 350 11:23 25.04.2020
4161 Clouds 19 1019 59 10000 5.7 330 10:57 25.04.2020
4162 Clouds 19 1019 63 10000 5.7 360 10:38 25.04.2020
4163 Clouds 19 1019 63 10000 5.7 360 10:19 25.04.2020
4164 Clouds 18 1019 68 10000 3.6 10 09:43 25.04.2020
4165 Clouds 17 1019 72 10000 3.1 360 09:22 25.04.2020
4166 Clouds 16 1018 77 10000 3.1 350 08:55 25.04.2020
4167 Clouds 17 1018 77 10000 3.6 350 08:36 25.04.2020
4168 Clouds 17 1018 77 10000 3.6 350 08:18 25.04.2020
4169 Clouds 17 1018 77 10000 4.1 340 07:42 25.04.2020
4170 Clouds 17 1018 77 10000 7.7 10 07:22 25.04.2020
4171 Clouds 17 1018 72 10000 5.1 20 06:42 25.04.2020
4172 Clouds 17 1018 72 10000 5.1 20 06:42 25.04.2020
4173 Clouds 17 1017 72 10000 5.7 20 05:44 25.04.2020
4174 Clouds 18 1017 68 10000 4.6 10 05:26 25.04.2020
4175 Clouds 18 1018 63 10000 3.6 360 04:24 25.04.2020
4176 Clouds 18 1019 63 10000 7.2 360 02:44 25.04.2020
4177 Clouds 18 1019 63 10000 7.2 360 02:18 25.04.2020
4178 Clouds 19 1019 68 10000 6.2 360 01:45 25.04.2020
4179 Clouds 19 1019 63 10000 5.7 360 01:19 25.04.2020
4180 Clouds 19 1018 63 10000 7.2 360 00:42 25.04.2020
4181 Clouds 19 1018 63 10000 7.2 360 00:18 25.04.2020
4182 Clouds 19 1018 63 10000 7.2 360 23:41 24.04.2020
4183 Clouds 19 1018 63 10000 7.2 360 23:20 24.04.2020
4184 Clouds 19 1017 56 10000 7.2 350 22:41 24.04.2020
4185 Clouds 20 1017 56 10000 7.2 350 22:21 24.04.2020
4186 Clouds 20 1017 56 10000 7.2 350 21:59 24.04.2020
4187 Clouds 20 1017 56 10000 9.8 360 21:40 24.04.2020
4188 Clouds 20 1017 56 10000 9.8 360 21:22 24.04.2020
4189 Clouds 20 1016 52 10000 10.3 360 20:58 24.04.2020
4190 Clouds 20 1016 52 10000 9.8 360 20:40 24.04.2020
4191 Clouds 21 1016 52 10000 9.8 360 20:19 24.04.2020
4192 Clouds 21 1016 46 10000 9.3 10 19:47 24.04.2020
4193 Clouds 21 1016 46 10000 10.8 10 19:28 24.04.2020
4194 Clouds 19 1016 46 10000 11.3 20 18:58 24.04.2020
4195 Clouds 19 1016 53 10000 11.8 20 18:39 24.04.2020
4196 Clouds 19 1016 53 10000 11.8 20 18:20 24.04.2020
4197 Clouds 19 1016 53 10000 11.8 20 18:20 24.04.2020
4198 Clouds 22 1016 53 10000 12.3 30 17:42 24.04.2020
4199 Clouds 22 1016 46 10000 9.8 350 17:24 24.04.2020
4200 Clouds 22 1016 46 10000 10.8 20 16:59 24.04.2020
4201 Clouds 22 1016 49 10000 11.8 30 16:41 24.04.2020
4202 Clouds 22 1016 49 10000 11.8 30 16:41 24.04.2020
4203 Clouds 22 1016 49 10000 11.8 30 16:22 24.04.2020
4204 Clouds 22 1016 49 10000 11.3 20 15:59 24.04.2020
4205 Clouds 22 1016 49 10000 10.8 30 15:38 24.04.2020
4206 Clouds 22 1016 49 10000 10.8 30 15:18 24.04.2020
4207 Clouds 22 1016 46 10000 10.8 30 14:40 24.04.2020
4208 Clouds 19 1016 46 10000 10.8 30 14:20 24.04.2020
4209 Clouds 21 1017 53 10000 10.3 30 13:57 24.04.2020
4210 Clouds 22 1017 53 10000 11.3 20 13:38 24.04.2020
4211 Clouds 21 1017 53 10000 11.3 20 13:19 24.04.2020
4212 Clouds 20 1017 56 10000 10.8 20 12:42 24.04.2020
4213 Clouds 21 1017 56 10000 9.3 10 12:23 24.04.2020
4214 Clouds 20 1017 52 10000 8.7 10 11:58 24.04.2020
4215 Clouds 20 1017 60 10000 6.7 360 11:38 24.04.2020
4216 Clouds 19 1017 60 10000 6.7 360 11:19 24.04.2020
4217 Clouds 19 1017 68 10000 7.2 360 10:54 24.04.2020
4218 Clouds 19 1016 59 10000 7.2 360 10:36 24.04.2020
4219 Clouds 19 1016 59 10000 7.2 360 10:18 24.04.2020
4220 Clouds 18 1016 63 10000 4.1 360 09:45 24.04.2020
4221 Clouds 18 1016 63 10000 4.1 360 09:24 24.04.2020
4222 Clouds 17 1015 63 10000 5.1 350 08:57 24.04.2020
4223 Clouds 17 1015 63 10000 5.1 350 08:37 24.04.2020
4224 Clouds 17 1015 63 10000 5.1 350 08:37 24.04.2020
4225 Clouds 17 1015 63 10000 5.1 350 08:18 24.04.2020
4226 Clouds 17 1014 63 10000 5.7 360 07:44 24.04.2020
4227 Clouds 17 1014 63 10000 7.2 360 07:26 24.04.2020
4228 Clouds 17 1014 68 10000 5.7 360 06:51 24.04.2020
4229 Clouds 17 1014 68 10000 6.7 340 06:32 24.04.2020
4230 Clouds 17 1014 68 10000 6.2 340 05:48 24.04.2020
4231 Clouds 18 1015 68 10000 4.1 350 04:26 24.04.2020
4232 Rain 18 1016 68 10000 5.7 350 02:59 24.04.2020
4233 Clouds 19 1016 63 10000 5.1 360 02:38 24.04.2020
4234 Clouds 19 1016 63 10000 5.1 360 02:20 24.04.2020
4235 Clouds 18 1016 72 10000 5.7 360 01:23 24.04.2020
4236 Clouds 19 1016 68 10000 6.7 360 00:38 24.04.2020
4237 Clouds 19 1016 68 10000 6.7 360 00:18 24.04.2020
4238 Clouds 18 1015 72 10000 7.2 10 23:42 23.04.2020
4239 Rain 19 1015 77 10000 4.6 330 23:23 23.04.2020
4240 Clouds 19 1015 68 10000 6.7 10 22:55 23.04.2020
4241 Clouds 19 1014 68 10000 7.2 10 22:37 23.04.2020
4242 Clouds 19 1014 68 10000 7.2 10 22:18 23.04.2020
4243 Clouds 20 1014 64 10000 7.7 20 21:56 23.04.2020
4244 Clouds 20 1014 64 10000 7.7 10 21:38 23.04.2020
4245 Clouds 20 1014 64 10000 7.7 10 21:19 23.04.2020
4246 Clouds 21 1014 64 10000 9.3 20 20:42 23.04.2020
4247 Clouds 21 1013 64 10000 10.3 10 20:22 23.04.2020
4248 Clouds 21 1013 60 10000 9.8 20 19:59 23.04.2020
4249 Clouds 21 1013 60 10000 9.3 20 19:40 23.04.2020
4250 Clouds 19 1013 60 10000 9.3 20 19:21 23.04.2020
4251 Clouds 22 1014 56 10000 9.3 20 18:56 23.04.2020
4252 Clouds 19 1013 60 10000 9.3 30 18:38 23.04.2020
4253 Clouds 21 1013 60 10000 9.3 30 18:19 23.04.2020
4254 Clouds 21 1013 60 10000 9.3 30 18:19 23.04.2020
4255 Clouds 19 1014 56 10000 9.8 20 17:55 23.04.2020
4256 Clouds 22 1014 56 10000 9.8 20 17:36 23.04.2020
4257 Clouds 22 1014 56 10000 9.8 20 17:18 23.04.2020
4258 Clouds 21 1014 56 10000 9.3 30 16:43 23.04.2020
4259 Clouds 21 1015 64 10000 7.2 20 16:19 23.04.2020
4260 Clouds 21 1015 60 10000 7.2 20 15:43 23.04.2020
4261 Clouds 21 1015 60 10000 7.2 20 15:23 23.04.2020
4262 Clouds 20 1015 68 10000 7.2 20 14:59 23.04.2020
4263 Clouds 21 1015 64 10000 7.7 30 14:39 23.04.2020
4264 Clouds 21 1015 64 10000 7.7 30 14:39 23.04.2020
4265 Clouds 21 1015 64 10000 7.7 30 14:21 23.04.2020
4266 Clouds 21 1015 60 10000 9.3 20 13:57 23.04.2020
4267 Clouds 21 1015 60 10000 9.8 20 13:38 23.04.2020
4268 Clouds 18 1015 60 10000 9.8 20 13:19 23.04.2020
4269 Clouds 21 1015 60 10000 9.3 20 12:55 23.04.2020
4270 Clouds 20 1015 60 10000 8.2 20 12:37 23.04.2020
4271 Clouds 18 1015 60 10000 8.2 20 12:18 23.04.2020
4272 Clouds 20 1015 64 10000 7.2 10 11:43 23.04.2020
4273 Clouds 20 1015 64 10000 6.7 10 11:25 23.04.2020
4274 Clouds 19 1015 64 10000 7.7 20 10:43 23.04.2020
4275 Clouds 19 1015 68 10000 6.2 340 10:24 23.04.2020
4276 Clouds 18 1015 72 10000 6.2 350 09:58 23.04.2020
4277 Clouds 18 1014 72 10000 5.7 350 09:37 23.04.2020
4278 Clouds 17 1014 72 10000 5.7 350 09:18 23.04.2020
4279 Clouds 17 1014 72 10000 4.6 340 08:46 23.04.2020
4280 Clouds 15 1014 72 10000 4.6 320 08:27 23.04.2020
4281 Clouds 16 1014 82 10000 6.7 330 07:43 23.04.2020
4282 Clouds 16 1014 82 10000 6.7 330 07:24 23.04.2020
4283 Clouds 15 1014 77 10000 6.2 340 06:49 23.04.2020
4284 Clouds 17 1014 77 10000 6.2 340 06:27 23.04.2020
4285 Clouds 18 1015 68 10000 4.6 340 05:31 23.04.2020
4286 Clouds 18 1015 68 10000 4.1 350 04:53 23.04.2020
4287 Clouds 18 1016 68 10000 5.7 350 02:25 23.04.2020
4288 Clouds 18 1016 68 10000 6.7 350 01:51 23.04.2020
4289 Clouds 18 1017 63 10000 6.7 350 01:33 23.04.2020
4290 Clouds 18 1017 63 10000 5.7 360 00:47 23.04.2020
4291 Clouds 18 1017 63 10000 6.2 350 00:23 23.04.2020
4292 Clouds 18 1017 63 10000 7.2 350 23:50 22.04.2020
4293 Clouds 18 1016 63 10000 7.7 360 23:25 22.04.2020
4294 Clouds 18 1016 63 10000 7.7 10 22:58 22.04.2020
4295 Clouds 18 1016 59 10000 7.7 360 22:38 22.04.2020
4296 Clouds 18 1016 59 10000 7.7 360 22:19 22.04.2020
4297 Clouds 19 1016 55 10000 8.7 10 21:56 22.04.2020
4298 Clouds 19 1016 55 10000 9.8 10 21:38 22.04.2020
4299 Clouds 19 1016 55 10000 9.8 10 21:19 22.04.2020
4300 Clouds 19 1016 55 10000 10.3 10 20:43 22.04.2020
4301 Clouds 19 1016 56 10000 11.3 20 20:20 22.04.2020
4302 Clouds 20 1016 56 10000 11.8 20 19:58 22.04.2020
4303 Clouds 20 1016 49 10000 11.8 20 19:39 22.04.2020
4304 Clouds 19 1016 49 10000 11.8 20 19:19 22.04.2020
4305 Clouds 20 1016 49 10000 11.8 20 18:59 22.04.2020
4306 Clouds 20 1016 49 10000 11.8 20 18:41 22.04.2020
4307 Clouds 20 1016 49 10000 11.8 20 18:22 22.04.2020
4308 Clouds 20 1016 49 10000 12.3 30 17:58 22.04.2020
4309 Clouds 20 1017 49 10000 11.8 20 17:39 22.04.2020
4310 Clouds 19 1017 49 10000 11.8 20 17:21 22.04.2020
4311 Clouds 21 1017 52 10000 12.9 30 16:46 22.04.2020
4312 Clouds 20 1017 46 10000 11.3 20 16:28 22.04.2020
4313 Clouds 21 1018 49 10000 12.3 30 15:54 22.04.2020
4314 Clouds 19 1018 46 10000 10.8 20 15:36 22.04.2020
4315 Clouds 19 1018 46 10000 10.8 20 15:18 22.04.2020
4316 Clouds 21 1018 46 10000 10.8 30 14:41 22.04.2020
4317 Clouds 19 1018 46 10000 10.8 30 14:20 22.04.2020
4318 Clouds 19 1019 49 10000 10.8 20 13:57 22.04.2020
4319 Clouds 19 1019 49 10000 10.8 20 13:57 22.04.2020
4320 Clouds 18 1019 49 10000 11.3 20 13:39 22.04.2020
4321 Clouds 18 1019 49 10000 11.3 20 13:19 22.04.2020
4322 Clouds 18 1019 52 10000 9.8 10 12:42 22.04.2020
4323 Clouds 17 1019 52 10000 9.8 10 12:23 22.04.2020
4324 Clouds 17 1019 49 10000 10.3 20 11:57 22.04.2020
4325 Clouds 17 1019 52 10000 9.3 10 11:36 22.04.2020
4326 Clouds 20 1019 52 10000 9.3 10 11:18 22.04.2020
4327 Clouds 14 1019 59 10000 7.7 360 10:41 22.04.2020
4328 Clouds 14 1019 59 10000 7.7 360 10:21 22.04.2020
4329 Clouds 16 1018 52 10000 7.7 350 09:41 22.04.2020
4330 Clouds 15 1018 52 10000 7.7 350 09:23 22.04.2020
4331 Clouds 15 1018 52 10000 7.2 340 08:59 22.04.2020
4332 Clouds 17 1018 52 10000 8.2 360 08:41 22.04.2020
4333 Clouds 18 1018 52 10000 8.2 360 08:22 22.04.2020
4334 Clouds 15 1018 55 10000 8.2 360 07:53 22.04.2020
4335 Clouds 15 1018 55 10000 7.7 360 07:33 22.04.2020
4336 Clouds 15 1018 55 10000 8.2 360 06:53 22.04.2020
4337 Clouds 18 1018 55 10000 8.7 360 06:23 22.04.2020
4338 Clouds 18 1019 59 10000 9.3 10 05:38 22.04.2020
4339 Clouds 18 1020 59 10000 8.7 10 04:32 22.04.2020
4340 Clouds 18 1021 55 10000 9.3 10 02:59 22.04.2020
4341 Clouds 16 1020 59 10000 8.2 10 01:55 22.04.2020
4342 Clouds 16 1021 52 10000 8.2 360 01:28 22.04.2020
4343 -273 0 0 0 0 0 00:59 22.04.2020
4344 Clouds 16 1021 52 10000 8.2 360 00:59 22.04.2020
4345 Clouds 16 1021 52 10000 8.7 360 00:41 22.04.2020
4346 Clouds 16 1021 52 10000 8.7 360 00:20 22.04.2020
4347 Clouds 16 1021 59 10000 10.3 10 23:44 21.04.2020
4348 Clouds 16 1021 59 10000 10.3 10 23:20 21.04.2020
4349 Clouds 17 1020 55 10000 8.2 350 22:41 21.04.2020
4350 Clouds 17 1020 55 10000 8.2 350 22:22 21.04.2020
4351 Clouds 17 1020 55 10000 9.3 10 22:00 21.04.2020
4352 Clouds 17 1020 55 10000 9.8 10 21:41 21.04.2020
4353 Clouds 18 1020 55 10000 9.8 10 21:23 21.04.2020
4354 Clouds 18 1020 49 10000 11.3 20 20:58 21.04.2020
4355 Clouds 18 1020 52 10000 11.3 10 20:40 21.04.2020
4356 Clouds 18 1020 52 10000 11.3 10 20:21 21.04.2020
4357 Clouds 20 1020 52 10000 12.3 20 19:41 21.04.2020
4358 Clouds 19 1020 52 10000 12.3 20 19:20 21.04.2020
4359 Clouds 19 1020 60 10000 12.9 20 18:59 21.04.2020
4360 Clouds 19 1020 60 10000 12.9 20 18:59 21.04.2020
4361 Clouds 20 1020 49 10000 11.3 20 18:39 21.04.2020
4362 Clouds 20 1020 49 10000 11.3 20 18:19 21.04.2020
4363 Clouds 20 1020 46 10000 11.8 30 17:59 21.04.2020
4364 Clouds 20 1021 46 10000 10.8 20 17:38 21.04.2020
4365 Clouds 21 1021 46 10000 10.8 20 17:19 21.04.2020
4366 Clouds 21 1021 46 10000 11.3 30 16:39 21.04.2020
4367 Clouds 20 1021 46 10000 11.3 30 16:20 21.04.2020
4368 Clouds 20 1021 46 10000 11.8 40 15:59 21.04.2020
4369 Clouds 20 1021 46 10000 11.8 40 15:59 21.04.2020
4370 Clouds 21 1022 46 10000 11.8 30 15:41 21.04.2020
4371 Clouds 21 1022 46 10000 11.8 30 15:23 21.04.2020
4372 Clouds 21 1022 49 10000 11.8 30 14:58 21.04.2020
4373 Clouds 20 1022 49 10000 11.8 30 14:40 21.04.2020
4374 Clouds 20 1022 49 10000 11.8 30 14:22 21.04.2020
4375 Clouds 20 1022 46 10000 11.8 30 13:42 21.04.2020
4376 Clouds 19 1022 49 10000 12.3 30 13:24 21.04.2020
4377 Clouds 18 1022 56 10000 10.8 20 12:58 21.04.2020
4378 Clouds 19 1022 52 10000 10.3 10 12:38 21.04.2020
4379 Clouds 18 1022 52 10000 10.3 10 12:19 21.04.2020
4380 Clouds 17 1022 52 10000 8.2 10 11:57 21.04.2020
4381 Clouds 17 1022 56 10000 11.3 20 11:37 21.04.2020
4382 Clouds 17 1022 56 10000 11.3 20 11:18 21.04.2020
4383 Clouds 17 1022 56 10000 10.8 20 10:56 21.04.2020
4384 Clouds 15 1021 59 10000 6.7 360 10:38 21.04.2020
4385 Clouds 19 1021 59 10000 6.7 360 10:20 21.04.2020
4386 Clouds 16 1021 55 10000 7.7 360 09:38 21.04.2020
4387 Clouds 16 1021 55 10000 7.7 360 09:20 21.04.2020
4388 Clouds 18 1020 59 10000 9.3 10 08:58 21.04.2020
4389 Clouds 18 1020 59 10000 9.3 10 08:58 21.04.2020
4390 Clouds 15 1020 63 10000 6.7 360 08:39 21.04.2020
4391 Clouds 15 1020 63 10000 6.7 360 08:39 21.04.2020
4392 Clouds 16 1020 63 10000 6.7 360 08:19 21.04.2020
4393 Clouds 18 1020 59 10000 6.7 350 07:45 21.04.2020
4394 Clouds 18 1020 55 10000 6.7 350 07:23 21.04.2020
4395 Clouds 18 1020 59 10000 8.7 10 06:49 21.04.2020
4396 Clouds 18 1021 59 10000 6.7 350 06:20 21.04.2020
4397 Clouds 18 1021 55 10000 8.2 350 05:49 21.04.2020
4398 Clouds 16 1021 63 10000 7.7 360 04:21 21.04.2020
4399 Clouds 16 1022 68 10000 8.7 360 03:42 21.04.2020
4400 Clouds 19 1023 68 10000 8.2 360 01:46 21.04.2020
4401 Clouds 17 1023 72 10000 7.7 10 01:18 21.04.2020
4402 Clouds 17 1023 60 10000 6.2 350 00:35 21.04.2020
4403 Clouds 20 1023 64 10000 6.7 350 23:45 20.04.2020
4404 Clouds 20 1022 64 10000 6.7 350 23:25 20.04.2020
4405 Clouds 19 1022 68 10000 8.2 350 22:58 20.04.2020
4406 Clouds 18 1021 60 10000 6.2 360 22:39 20.04.2020
4407 Clouds 20 1021 60 10000 6.2 360 22:20 20.04.2020
4408 Clouds 18 1021 60 10000 7.2 10 21:57 20.04.2020
4409 Clouds 18 1021 53 10000 7.2 350 21:38 20.04.2020
4410 Clouds 19 1021 53 10000 7.2 350 21:19 20.04.2020
4411 Clouds 21 1021 53 10000 8.7 360 20:58 20.04.2020
4412 Clouds 21 1021 56 10000 9.8 360 20:38 20.04.2020
4413 Clouds 21 1021 56 10000 9.8 360 20:18 20.04.2020
4414 Clouds 21 1021 56 10000 9.8 360 20:18 20.04.2020
4415 Clouds 19 1021 56 10000 9.3 360 19:57 20.04.2020
4416 Clouds 20 1021 49 10000 10.3 10 19:38 20.04.2020
4417 Clouds 20 1021 49 10000 10.3 10 19:19 20.04.2020
4418 Clouds 21 1020 44 10000 9.8 10 18:42 20.04.2020
4419 Clouds 22 1020 47 10000 11.3 10 18:23 20.04.2020
4420 Clouds 22 1020 44 10000 10.8 10 17:56 20.04.2020
4421 Clouds 22 1020 44 10000 11.8 20 17:37 20.04.2020
4422 Clouds 22 1020 44 10000 11.8 20 17:19 20.04.2020
4423 Clouds 23 1021 47 10000 10.3 10 16:58 20.04.2020
4424 Clouds 22 1021 47 10000 9.3 10 16:39 20.04.2020
4425 Clouds 22 1021 47 10000 9.3 10 16:18 20.04.2020
4426 Clouds 21 1022 47 10000 10.8 360 15:43 20.04.2020
4427 Clouds 21 1022 47 10000 10.8 360 15:23 20.04.2020
4428 Clouds 21 1022 47 10000 11.3 10 14:56 20.04.2020
4429 Clouds 20 1022 46 10000 11.3 360 14:38 20.04.2020
4430 Clouds 20 1022 46 10000 11.3 360 14:18 20.04.2020
4431 Clouds 21 1023 47 10000 11.8 20 13:54 20.04.2020
4432 Clouds 21 1023 43 10000 11.8 10 13:36 20.04.2020
4433 Clouds 20 1023 43 10000 11.8 10 13:18 20.04.2020
4434 Clouds 19 1022 56 10000 9.3 360 12:42 20.04.2020
4435 Clouds 18 1022 56 10000 9.3 360 12:19 20.04.2020
4436 Clouds 17 1022 64 10000 7.2 10 11:41 20.04.2020
4437 Clouds 17 1022 64 10000 7.2 10 11:22 20.04.2020
4438 Clouds 16 1022 68 10000 7.7 350 10:57 20.04.2020
4439 Clouds 15 1022 63 10000 5.1 360 10:39 20.04.2020
4440 Clouds 15 1022 63 10000 5.1 360 10:19 20.04.2020
4441 Clouds 15 1022 59 10000 4.6 360 09:58 20.04.2020
4442 Clouds 16 1021 63 10000 4.6 350 09:39 20.04.2020
4443 Clouds 14 1021 63 10000 4.6 350 09:20 20.04.2020
4444 Clouds 13 1021 72 10000 3.6 360 08:41 20.04.2020
4445 Clouds 13 1021 72 10000 3.6 360 08:22 20.04.2020
4446 Clouds 17 1021 72 10000 5.1 350 07:53 20.04.2020
4447 Clouds 18 1021 68 10000 5.1 350 07:29 20.04.2020
4448 Clouds 18 1021 68 10000 5.1 350 06:58 20.04.2020
4449 Clouds 18 1021 68 10000 4.6 350 06:36 20.04.2020
4450 Clouds 17 1020 72 10000 4.1 360 05:44 20.04.2020
4451 Clouds 18 1021 68 10000 5.7 350 04:21 20.04.2020
4452 Clouds 18 1021 68 10000 4.6 350 02:47 20.04.2020
4453 Clouds 18 1022 68 10000 6.7 350 01:54 20.04.2020
4454 Clouds 19 1022 63 10000 6.7 360 01:28 20.04.2020
4455 Clouds 19 1022 63 10000 7.2 360 00:37 20.04.2020
4456 Clouds 19 1022 63 10000 6.2 360 23:59 19.04.2020
4457 Clouds 19 1022 63 10000 7.2 360 23:39 19.04.2020
4458 Clouds 19 1022 63 10000 7.2 360 23:20 19.04.2020
4459 Clouds 19 1021 63 10000 6.7 360 22:43 19.04.2020
4460 Clouds 20 1021 64 10000 6.7 360 22:23 19.04.2020
4461 Clouds 16 1020 64 10000 8.2 10 21:59 19.04.2020
4462 Clouds 16 1020 64 10000 7.7 360 21:41 19.04.2020
4463 Clouds 16 1020 64 10000 7.7 360 21:41 19.04.2020
4464 Clouds 20 1020 64 10000 7.7 360 21:21 19.04.2020
4465 Clouds 21 1020 56 10000 9.8 10 20:55 19.04.2020
4466 Clouds 21 1019 56 10000 10.3 360 20:37 19.04.2020
4467 Clouds 21 1019 56 10000 10.3 360 20:19 19.04.2020
4468 Clouds 18 1019 56 10000 11.3 30 19:41 19.04.2020
4469 Clouds 18 1019 56 10000 11.3 30 19:23 19.04.2020
4470 Clouds 19 1019 56 10000 11.8 30 18:59 19.04.2020
4471 Clouds 19 1019 56 10000 12.3 30 18:40 19.04.2020
4472 Clouds 19 1019 56 10000 12.3 30 18:21 19.04.2020
4473 Clouds 20 1020 53 10000 11.8 30 17:59 19.04.2020
4474 Clouds 19 1020 53 10000 11.8 30 17:41 19.04.2020
4475 Clouds 19 1020 53 10000 11.8 30 17:22 19.04.2020
4476 Clouds 20 1020 49 10000 12.3 30 16:59 19.04.2020
4477 Clouds 19 1020 53 10000 12.9 30 16:39 19.04.2020
4478 Clouds 19 1020 53 10000 12.9 30 16:21 19.04.2020
4479 Clouds 19 1020 53 10000 12.3 30 15:54 19.04.2020
4480 Clouds 19 1021 53 10000 11.8 30 15:36 19.04.2020
4481 Clouds 19 1021 53 10000 11.8 30 15:18 19.04.2020
4482 Clouds 19 1021 56 10000 10.8 30 14:38 19.04.2020
4483 Clouds 18 1021 56 10000 10.8 30 14:20 19.04.2020
4484 Clouds 18 1021 56 10000 10.8 30 14:20 19.04.2020
4485 Clouds 18 1021 53 10000 9.3 30 13:54 19.04.2020
4486 Clouds 18 1021 46 10000 10.3 30 13:36 19.04.2020
4487 Clouds 18 1021 46 10000 10.3 30 13:18 19.04.2020
4488 Clouds 17 1021 52 10000 8.2 10 12:42 19.04.2020
4489 Clouds 17 1021 52 10000 8.2 10 12:23 19.04.2020
4490 Clouds 19 1020 56 10000 7.2 350 11:39 19.04.2020
4491 Clouds 19 1020 56 10000 7.2 350 11:20 19.04.2020
4492 Clouds 16 1020 60 10000 7.2 10 10:58 19.04.2020
4493 Clouds 18 1020 68 10000 4.6 360 10:40 19.04.2020
4494 Clouds 15 1020 68 10000 4.6 360 10:20 19.04.2020
4495 Clouds 15 1019 72 10000 4.1 350 09:47 19.04.2020
4496 Clouds 14 1019 72 10000 4.6 350 09:28 19.04.2020
4497 Clouds 13 1018 77 10000 5.1 350 08:59 19.04.2020
4498 Clouds 13 1018 77 10000 4.1 330 08:38 19.04.2020
4499 Clouds 14 1018 77 10000 4.1 330 08:18 19.04.2020
4500 Clouds 14 1018 77 10000 4.6 350 07:44 19.04.2020
4501 Clouds 14 1018 77 10000 4.1 340 07:25 19.04.2020
4502 Clouds 14 1018 77 10000 4.1 350 06:32 19.04.2020
4503 Clouds 17 1018 77 10000 4.6 350 05:58 19.04.2020
4504 Clouds 17 1018 72 10000 4.6 320 04:54 19.04.2020
4505 Clouds 17 1018 77 10000 7.2 360 03:19 19.04.2020
4506 Clouds 17 1018 72 10000 9.3 330 02:22 19.04.2020
4507 Clouds 17 1018 72 10000 7.2 340 01:39 19.04.2020
4508 Clouds 17 1018 77 10000 6.7 340 00:50 19.04.2020
4509 Clouds 17 1018 82 10000 6.7 350 00:26 19.04.2020
4510 Clouds 18 1018 72 10000 5.1 350 23:59 18.04.2020
4511 Clouds 18 1017 68 10000 6.2 350 23:39 18.04.2020
4512 Clouds 18 1017 68 10000 6.2 350 23:39 18.04.2020
4513 Clouds 18 1017 68 10000 6.2 350 23:19 18.04.2020
4514 Clouds 18 1017 68 10000 8.2 350 22:42 18.04.2020
4515 Clouds 18 1016 63 10000 7.7 350 22:22 18.04.2020
4516 Clouds 19 1016 59 10000 7.7 360 21:58 18.04.2020
4517 Clouds 20 1016 56 10000 8.2 10 21:38 18.04.2020
4518 Rain 20 1015 61 0 6.59 331 21:20 18.04.2020
4519 Rain 20 1015 61 0 6.59 331 20:42 18.04.2020
4520 Rain 20 1015 61 0 6.59 331 20:23 18.04.2020
4521 Rain 20 1015 61 0 6.59 331 19:59 18.04.2020
4522 Clouds 20 1015 68 10000 7.2 30 19:39 18.04.2020
4523 Clouds 20 1015 68 10000 7.2 30 19:21 18.04.2020
4524 Clouds 18 1015 77 10000 7.7 10 18:39 18.04.2020
4525 Clouds 18 1015 77 10000 7.7 10 18:20 18.04.2020
4526 Rain 18 1015 88 7000 8.7 20 17:56 18.04.2020
4527 Rain 18 1015 88 7000 8.7 20 17:56 18.04.2020
4528 Thunderstorm 18 1015 88 9000 10.8 10 17:38 18.04.2020
4529 Thunderstorm 17 1015 88 9000 10.8 10 17:18 18.04.2020
4530 Rain 19 1015 77 10000 11.3 10 16:42 18.04.2020
4531 Thunderstorm 20 1014 72 10000 6.7 240 16:22 18.04.2020
4532 Clouds 19 1014 53 10000 8.7 240 15:55 18.04.2020
4533 Clouds 19 1014 53 10000 9.8 50 15:37 18.04.2020
4534 Clouds 20 1014 53 10000 9.8 50 15:18 18.04.2020
4535 Clouds 19 1015 56 10000 3.6 70 14:41 18.04.2020
4536 Clouds 19 1015 56 10000 3.6 70 14:19 18.04.2020
4537 Clouds 19 1015 60 10000 3.1 70 13:43 18.04.2020
4538 Clouds 19 1016 64 10000 5.1 20 13:20 18.04.2020
4539 Clouds 18 1015 77 10000 6.2 20 12:43 18.04.2020
4540 Clouds 18 1015 77 10000 6.2 20 12:25 18.04.2020
4541 Clouds 16 1015 72 10000 5.1 10 11:58 18.04.2020
4542 Rain 17 1015 68 10000 6.7 10 11:40 18.04.2020
4543 Rain 17 1015 68 10000 6.7 10 11:21 18.04.2020
4544 Rain 17 1015 68 10000 6.7 10 11:21 18.04.2020
4545 Rain 17 1015 68 10000 6.7 10 11:21 18.04.2020
4546 Clouds 16 1014 77 10000 1 0 10:42 18.04.2020
4547 Clouds 15 1014 77 10000 1 0 10:22 18.04.2020
4548 Clouds 19 1014 72 10000 2.1 310 09:59 18.04.2020
4549 Clouds 16 1014 77 10000 1.5 290 09:40 18.04.2020
4550 Clouds 18 1014 77 10000 1.5 290 09:20 18.04.2020
4551 Clouds 14 1014 72 10000 2.1 310 08:43 18.04.2020
4552 Clouds 14 1014 72 10000 1.5 320 08:22 18.04.2020
4553 Clouds 15 1014 68 10000 1.5 260 07:49 18.04.2020
4554 Clouds 14 1013 72 10000 2.1 270 07:29 18.04.2020
4555 Clouds 15 1013 72 10000 1.5 280 06:49 18.04.2020
4556 Clouds 18 1013 72 10000 1 270 05:49 18.04.2020
4557 Clouds 19 1014 72 10000 1 290 04:56 18.04.2020
4558 Clouds 19 1014 68 10000 1 290 04:31 18.04.2020
4559 Clouds 20 1015 68 10000 1 290 03:34 18.04.2020
4560 Clouds 19 1015 72 10000 1 0 02:40 18.04.2020
4561 Clouds 19 1015 72 10000 1 0 02:21 18.04.2020
4562 Clouds 19 1015 72 10000 1 0 02:21 18.04.2020
4563 Clouds 19 1015 72 10000 2.1 60 01:45 18.04.2020
4564 Clouds 20 1015 68 10000 1.5 60 01:22 18.04.2020
4565 Clouds 20 1015 68 10000 2.1 30 00:24 18.04.2020
4566 Clouds 20 1015 68 10000 2.1 30 00:24 18.04.2020
4567 Clouds 20 1015 68 10000 2.6 30 23:59 17.04.2020
4568 Clouds 20 1015 68 10000 2.1 50 23:40 17.04.2020
4569 Clouds 16 1015 68 10000 2.1 50 23:20 17.04.2020
4570 Clouds 16 1015 64 10000 2.1 30 22:58 17.04.2020
4571 Clouds 16 1015 64 10000 2.1 30 22:58 17.04.2020
4572 Clouds 20 1015 60 10000 2.6 30 22:40 17.04.2020
4573 Clouds 20 1015 60 10000 2.6 30 22:20 17.04.2020
4574 Clouds 17 1015 56 10000 2.6 60 21:58 17.04.2020
4575 Clouds 20 1014 60 10000 2.6 50 21:39 17.04.2020
4576 Clouds 17 1014 60 10000 2.6 50 21:19 17.04.2020
4577 Clouds 21 1014 56 10000 3.1 60 20:55 17.04.2020
4578 Clouds 18 1014 60 10000 2.6 30 20:36 17.04.2020
4579 Clouds 17 1014 60 10000 2.6 30 20:18 17.04.2020
4580 Clouds 18 1014 60 10000 2.6 60 19:44 17.04.2020
4581 Clouds 21 1014 64 10000 2.6 80 19:24 17.04.2020
4582 Clouds 18 1014 64 10000 2.6 90 18:47 17.04.2020
4583 Clouds 18 1014 64 10000 2.6 90 18:47 17.04.2020
4584 Clouds 18 1014 64 10000 2.1 100 18:25 17.04.2020
4585 Clouds 18 1015 64 10000 2.6 100 17:58 17.04.2020
4586 Clouds 18 1015 64 10000 2.1 100 17:37 17.04.2020
4587 Clouds 18 1015 64 10000 2.1 100 17:19 17.04.2020
4588 Clouds 18 1015 64 10000 2.6 90 16:44 17.04.2020
4589 Clouds 18 1015 64 10000 3.1 50 16:23 17.04.2020
4590 Clouds 19 1016 64 10000 3.1 100 15:58 17.04.2020
4591 Clouds 18 1016 68 10000 3.6 90 15:37 17.04.2020
4592 Clouds 18 1016 68 10000 3.6 90 15:19 17.04.2020
4593 Clouds 22 1016 60 10000 3.1 90 14:40 17.04.2020
4594 Clouds 19 1016 60 10000 3.1 90 14:22 17.04.2020
4595 Clouds 18 1016 64 10000 3.6 90 13:56 17.04.2020
4596 Clouds 18 1016 64 10000 4.1 80 13:37 17.04.2020
4597 Clouds 21 1016 64 10000 4.1 80 13:18 17.04.2020
4598 Clouds 22 1016 49 10000 4.1 70 12:46 17.04.2020
4599 Clouds 19 1016 53 10000 3.6 50 12:25 17.04.2020
4600 Clouds 18 1016 52 10000 3.6 30 11:42 17.04.2020
4601 Clouds 18 1016 52 10000 3.6 30 11:20 17.04.2020
4602 Clouds 18 1016 49 10000 3.6 20 10:57 17.04.2020
4603 Clouds 20 1016 60 10000 3.6 360 10:39 17.04.2020
4604 Clouds 17 1016 60 10000 3.6 360 10:19 17.04.2020
4605 Clouds 16 1016 55 10000 3.1 330 09:41 17.04.2020
4606 Clouds 16 1016 55 10000 3.1 330 09:22 17.04.2020
4607 Clouds 17 1016 55 10000 2.1 330 08:59 17.04.2020
4608 Clouds 16 1016 55 10000 2.1 330 08:40 17.04.2020
4609 Clouds 17 1016 55 10000 2.1 330 08:21 17.04.2020
4610 Clouds 17 1015 55 10000 3.1 320 07:44 17.04.2020
4611 Clouds 17 1015 55 10000 3.1 320 07:24 17.04.2020
4612 Clouds 18 1015 59 10000 2.6 360 06:50 17.04.2020
4613 Clouds 18 1015 59 10000 2.6 360 06:23 17.04.2020
4614 Clouds 18 1016 59 10000 1.5 350 05:27 17.04.2020
4615 Clouds 19 1016 68 10000 3.6 340 03:20 17.04.2020
4616 Clouds 19 1017 72 10000 3.6 340 02:33 17.04.2020
4617 Clouds 19 1017 68 10000 2.6 340 01:29 17.04.2020
4618 Clouds 17 1017 68 10000 3.1 340 00:52 17.04.2020
4619 Clouds 19 1017 68 10000 5.7 10 00:19 17.04.2020
4620 Clouds 19 1017 72 10000 4.1 360 23:44 16.04.2020
4621 Clouds 17 1017 72 10000 4.1 360 23:22 16.04.2020
4622 Clouds 17 1016 72 10000 5.1 350 22:57 16.04.2020
4623 Clouds 18 1016 68 10000 5.1 10 22:37 16.04.2020
4624 Clouds 20 1016 68 10000 5.1 10 22:19 16.04.2020
4625 Clouds 18 1016 68 10000 6.2 20 21:42 16.04.2020
4626 Clouds 20 1016 68 10000 6.2 20 21:20 16.04.2020
4627 Clouds 19 1016 68 10000 6.2 30 20:59 16.04.2020
4628 Clouds 20 1016 64 10000 5.7 30 20:39 16.04.2020
4629 Clouds 22 1016 64 10000 5.7 30 20:19 16.04.2020
4630 Clouds 22 1015 68 10000 5.7 40 19:55 16.04.2020
4631 Clouds 22 1015 68 10000 5.1 30 19:36 16.04.2020
4632 Clouds 20 1015 64 10000 5.1 60 19:18 16.04.2020
4633 Clouds 21 1016 68 10000 4.1 60 18:42 16.04.2020
4634 Clouds 21 1016 68 10000 4.1 60 18:23 16.04.2020
4635 Clouds 21 1016 68 10000 3.6 90 17:57 16.04.2020
4636 Clouds 21 1016 68 10000 3.6 100 17:39 16.04.2020
4637 Clouds 21 1016 68 10000 3.6 100 17:18 16.04.2020
4638 Clouds 21 1017 68 10000 3.6 80 16:42 16.04.2020
4639 Clouds 22 1017 68 10000 3.6 80 16:24 16.04.2020
4640 Clouds 21 1017 60 10000 4.6 60 15:45 16.04.2020
4641 Clouds 21 1017 60 10000 4.6 60 15:20 16.04.2020
4642 Clouds 21 1017 60 10000 4.6 60 15:20 16.04.2020
4643 Clouds 21 1017 56 10000 4.1 60 14:59 16.04.2020
4644 Clouds 21 1017 60 10000 5.1 60 14:40 16.04.2020
4645 Clouds 22 1017 60 10000 5.1 60 14:21 16.04.2020
4646 Clouds 21 1017 53 10000 4.1 40 13:57 16.04.2020
4647 Clouds 21 1017 53 10000 2.6 70 13:38 16.04.2020
4648 Clouds 23 1017 53 10000 2.6 70 13:20 16.04.2020
4649 Clouds 20 1017 68 10000 3.1 100 12:57 16.04.2020
4650 Clouds 20 1017 68 10000 2.6 110 12:38 16.04.2020
4651 Clouds 21 1017 72 10000 2.6 100 12:19 16.04.2020
4652 Clouds 18 1017 72 10000 2.6 100 11:56 16.04.2020
4653 Clouds 21 1017 64 10000 2.1 100 11:37 16.04.2020
4654 Clouds 18 1017 64 10000 2.1 100 11:18 16.04.2020
4655 Clouds 19 1017 59 10000 1 0 10:40 16.04.2020
4656 Clouds 17 1017 59 10000 1 0 10:19 16.04.2020
4657 Clouds 16 1016 59 10000 2.1 270 09:59 16.04.2020
4658 Clouds 15 1016 67 10000 3.1 230 09:38 16.04.2020
4659 Clouds 15 1016 67 10000 3.1 230 09:38 16.04.2020
4660 Clouds 15 1016 67 10000 3.1 230 09:20 16.04.2020
4661 Clouds 17 1016 67 10000 2.6 260 08:45 16.04.2020
4662 Clouds 17 1016 67 10000 2.6 260 08:25 16.04.2020
4663 Clouds 17 1015 72 10000 2.6 290 07:46 16.04.2020
4664 Clouds 15 1015 72 10000 2.6 290 07:28 16.04.2020
4665 Clouds 15 1015 72 10000 2.6 280 06:58 16.04.2020
4666 Clouds 15 1016 72 10000 2.6 290 06:39 16.04.2020
4667 Clouds 17 1016 72 10000 2.6 290 06:21 16.04.2020
4668 Clouds 17 1016 77 10000 2.6 290 04:48 16.04.2020
4669 Clouds 18 1016 77 10000 2.6 260 03:25 16.04.2020
4670 Clouds 18 1017 77 10000 2.6 260 02:57 16.04.2020
4671 Clouds 18 1017 77 10000 2.1 260 02:33 16.04.2020
4672 Clouds 19 1017 72 10000 2.1 280 01:22 16.04.2020
4673 Clouds 16 1017 72 10000 1.5 310 00:39 16.04.2020
4674 Clouds 19 1016 72 10000 2.6 330 00:18 16.04.2020
4675 Clouds 19 1016 72 10000 2.1 330 23:43 15.04.2020
4676 Clouds 19 1016 72 10000 2.1 330 23:22 15.04.2020
4677 Clouds 19 1015 68 10000 3.6 20 22:58 15.04.2020
4678 Clouds 20 1015 68 10000 4.1 20 22:37 15.04.2020
4679 Clouds 17 1015 68 10000 4.1 20 22:19 15.04.2020
4680 Clouds 18 1014 60 10000 2.6 20 21:41 15.04.2020
4681 Clouds 21 1014 60 10000 2.6 20 21:23 15.04.2020
4682 Clouds 21 1014 60 10000 3.1 150 20:59 15.04.2020
4683 Clouds 21 1014 68 10000 5.1 160 20:41 15.04.2020
4684 Clouds 19 1014 68 10000 6.2 160 20:22 15.04.2020
4685 Clouds 19 1014 68 10000 6.2 160 19:57 15.04.2020
4686 Clouds 20 1014 64 10000 7.2 190 19:39 15.04.2020
4687 Clouds 20 1014 64 10000 8.2 190 19:18 15.04.2020
4688 Clouds 20 1014 64 10000 9.3 180 18:40 15.04.2020
4689 Clouds 20 1014 64 10000 9.3 180 18:22 15.04.2020
4690 Clouds 22 1014 64 10000 8.2 180 17:56 15.04.2020
4691 Clouds 20 1014 64 10000 8.2 170 17:38 15.04.2020
4692 Clouds 20 1014 64 10000 8.2 170 17:20 15.04.2020
4693 Clouds 19 1015 68 10000 8.2 160 16:55 15.04.2020
4694 Clouds 21 1015 68 10000 6.2 160 16:36 15.04.2020
4695 Clouds 20 1015 68 10000 6.2 160 16:18 15.04.2020
4696 Clouds 21 1016 68 10000 4.6 160 15:55 15.04.2020
4697 Clouds 20 1016 68 10000 3.6 150 15:37 15.04.2020
4698 Clouds 21 1016 68 10000 3.6 150 15:18 15.04.2020
4699 Clouds 19 1016 64 10000 3.1 130 14:54 15.04.2020
4700 Clouds 19 1016 64 10000 3.1 110 14:36 15.04.2020
4701 Clouds 21 1017 60 10000 2.6 90 14:18 15.04.2020
4702 Clouds 19 1016 64 10000 2.6 100 13:40 15.04.2020
4703 Clouds 19 1016 64 10000 2.6 100 13:40 15.04.2020
4704 Clouds 19 1016 64 10000 3.1 70 13:21 15.04.2020
4705 Clouds 19 1016 64 10000 3.1 70 12:59 15.04.2020
4706 Clouds 19 1016 64 10000 3.6 40 12:41 15.04.2020
4707 Clouds 19 1016 64 10000 3.6 40 12:22 15.04.2020
4708 Clouds 19 1015 60 10000 4.1 50 11:58 15.04.2020
4709 Clouds 18 1015 64 10000 3.6 40 11:38 15.04.2020
4710 Clouds 18 1015 64 10000 3.6 40 11:20 15.04.2020
4711 Clouds 17 1015 64 10000 1.5 340 10:38 15.04.2020
4712 Clouds 20 1015 64 10000 1.5 340 10:20 15.04.2020
4713 Clouds 19 1014 68 10000 1 0 09:57 15.04.2020
4714 Clouds 18 1014 63 10000 1.5 330 09:38 15.04.2020
4715 Clouds 18 1014 63 10000 1.5 330 09:20 15.04.2020
4716 Clouds 16 1014 63 10000 2.6 350 08:55 15.04.2020
4717 Clouds 18 1014 72 10000 2.1 360 08:36 15.04.2020
4718 Clouds 15 1013 68 10000 1.5 330 08:18 15.04.2020
4719 Clouds 17 1013 77 10000 1.5 310 07:46 15.04.2020
4720 Clouds 15 1013 77 10000 1.5 310 07:27 15.04.2020
4721 Clouds 17 1013 68 10000 2.1 320 06:29 15.04.2020
4722 Clouds 17 1013 68 10000 2.6 310 05:49 15.04.2020
4723 Clouds 18 1013 77 10000 2.6 340 04:48 15.04.2020
4724 Clouds 18 1013 77 10000 2.6 340 04:22 15.04.2020
4725 Clouds 18 1014 68 10000 3.6 360 03:22 15.04.2020
4726 Clouds 16 1014 72 10000 1.5 10 02:49 15.04.2020
4727 Clouds 16 1014 72 10000 3.1 350 01:52 15.04.2020
4728 Clouds 16 1014 77 10000 3.1 10 01:25 15.04.2020
4729 Clouds 17 1014 72 10000 2.6 360 00:49 15.04.2020
4730 Clouds 19 1014 72 10000 2.6 360 00:27 15.04.2020
4731 Clouds 19 1014 68 10000 3.6 10 23:56 14.04.2020
4732 Clouds 19 1014 68 10000 3.6 10 23:56 14.04.2020
4733 Clouds 19 1014 72 10000 4.1 10 23:38 14.04.2020
4734 Clouds 19 1014 72 10000 4.1 10 23:20 14.04.2020
4735 Clouds 19 1013 72 10000 5.7 10 22:56 14.04.2020
4736 Rain 17 1013 72 10000 4.6 10 22:38 14.04.2020
4737 Rain 17 1013 72 10000 4.6 10 22:20 14.04.2020
4738 Clouds 18 1013 72 10000 5.1 20 21:56 14.04.2020
4739 Clouds 18 1013 72 10000 5.1 20 21:56 14.04.2020
4740 Clouds 19 1012 68 10000 4.1 30 21:38 14.04.2020
4741 Clouds 21 1012 68 10000 4.1 30 21:19 14.04.2020
4742 Clouds 19 1012 68 10000 5.1 30 20:57 14.04.2020
4743 Clouds 19 1012 73 10000 6.2 30 20:38 14.04.2020
4744 Clouds 19 1012 73 10000 6.2 30 20:38 14.04.2020
4745 Clouds 19 1012 73 10000 6.2 30 20:19 14.04.2020
4746 Clouds 19 1012 60 10000 6.7 30 19:41 14.04.2020
4747 Clouds 19 1012 60 10000 6.7 30 19:22 14.04.2020
4748 Clouds 20 1012 60 10000 7.7 20 18:58 14.04.2020
4749 Clouds 20 1012 53 10000 6.7 20 18:39 14.04.2020
4750 Clouds 22 1012 53 10000 6.7 20 18:21 14.04.2020
4751 Clouds 20 1012 56 10000 6.7 20 17:58 14.04.2020
4752 Clouds 21 1012 56 10000 5.7 50 17:38 14.04.2020
4753 Clouds 20 1012 56 10000 6.2 40 17:19 14.04.2020
4754 Clouds 22 1012 56 10000 6.2 40 16:55 14.04.2020
4755 Clouds 21 1012 50 10000 2.6 0 16:37 14.04.2020
4756 Clouds 21 1012 50 10000 2.6 0 16:19 14.04.2020
4757 Clouds 21 1013 56 10000 5.1 50 15:42 14.04.2020
4758 Clouds 21 1013 56 10000 5.1 50 15:23 14.04.2020
4759 Clouds 21 1013 60 10000 5.1 60 14:59 14.04.2020
4760 Clouds 22 1013 60 10000 4.1 70 14:41 14.04.2020
4761 Clouds 21 1013 60 10000 4.1 70 14:22 14.04.2020
4762 Clouds 20 1014 60 10000 3.1 90 13:58 14.04.2020
4763 Clouds 20 1014 64 10000 3.1 100 13:40 14.04.2020
4764 Clouds 20 1014 64 10000 3.1 100 13:21 14.04.2020
4765 Clouds 19 1013 64 10000 3.1 70 12:42 14.04.2020
4766 Clouds 19 1013 64 10000 3.1 70 12:22 14.04.2020
4767 Clouds 18 1013 68 10000 2.6 70 11:57 14.04.2020
4768 Clouds 18 1013 68 10000 1.5 90 11:38 14.04.2020
4769 Clouds 18 1013 68 10000 1.5 90 11:19 14.04.2020
4770 Clouds 19 1013 68 10000 1 0 10:46 14.04.2020
4771 Clouds 16 1013 68 10000 1 0 10:27 14.04.2020
4772 Clouds 16 1013 68 10000 2.6 310 09:58 14.04.2020
4773 Clouds 17 1013 72 10000 2.1 290 09:40 14.04.2020
4774 Clear 17 1013 81 0 2.48 289 09:21 14.04.2020
4775 Clouds 15 1013 72 10000 2.1 300 08:41 14.04.2020
4776 Clouds 15 1013 72 10000 2.1 300 08:23 14.04.2020
4777 Clouds 15 1013 72 10000 2.1 300 08:22 14.04.2020
4778 Clouds 14 1013 67 10000 2.1 310 07:55 14.04.2020
4779 Clouds 16 1013 77 10000 2.6 310 07:31 14.04.2020
4780 Clouds 16 1013 77 10000 1 0 06:51 14.04.2020
4781 Clouds 15 1013 82 10000 0.5 0 06:27 14.04.2020
4782 Clear 17 1013 75 0 2.86 306 04:43 14.04.2020
4783 Clouds 18 1015 77 0 2.92 316 02:56 14.04.2020
4784 Clouds 18 1015 72 10000 2.1 290 01:49 14.04.2020
4785 Clouds 16 1015 72 10000 2.1 290 01:24 14.04.2020
4786 Clouds 16 1015 68 10000 2.6 300 00:39 14.04.2020
4787 Clouds 18 1015 68 10000 2.6 300 00:19 14.04.2020
4788 Clouds 19 1015 68 10000 3.1 30 23:44 13.04.2020
4789 Clouds 19 1015 68 10000 3.1 30 23:26 13.04.2020
4790 Clouds 19 1015 68 10000 2.6 30 22:58 13.04.2020
4791 Clouds 19 1015 72 10000 1.5 120 22:40 13.04.2020
4792 Clouds 17 1015 72 10000 1.5 120 22:22 13.04.2020
4793 Clouds 19 1014 72 10000 2.1 160 21:56 13.04.2020
4794 Clouds 17 1014 72 10000 3.1 160 21:37 13.04.2020
4795 Clouds 19 1014 68 10000 3.1 150 21:19 13.04.2020
4796 Clouds 18 1014 64 10000 3.6 190 20:42 13.04.2020
4797 Clouds 20 1014 64 10000 3.6 190 20:21 13.04.2020
4798 Clouds 20 1014 64 10000 3.1 200 20:00 13.04.2020
4799 Clouds 19 1014 60 10000 3.6 160 19:38 13.04.2020
4800 Rain 19 1014 60 10000 3.1 0 19:20 13.04.2020
4801 Rain 21 1014 60 10000 3.1 0 18:59 13.04.2020
4802 Clouds 19 1014 64 10000 6.2 330 18:39 13.04.2020
4803 Clouds 19 1014 64 10000 6.2 330 18:20 13.04.2020
4804 Clouds 19 1014 64 10000 6.2 330 18:20 13.04.2020
4805 Clouds 19 1014 64 10000 9.3 30 17:58 13.04.2020
4806 Clouds 21 1015 64 10000 8.7 30 17:38 13.04.2020
4807 Clouds 19 1015 64 10000 8.7 30 17:19 13.04.2020
4808 Clouds 19 1015 60 10000 4.6 340 16:58 13.04.2020
4809 Clouds 19 1015 60 10000 7.7 30 16:40 13.04.2020
4810 Clouds 21 1015 60 10000 7.7 30 16:20 13.04.2020
4811 Clouds 19 1015 60 10000 8.2 30 15:57 13.04.2020
4812 Clouds 20 1015 60 10000 8.2 30 15:39 13.04.2020
4813 Clouds 20 1015 60 10000 8.2 30 15:20 13.04.2020
4814 Clouds 19 1016 60 10000 8.7 30 14:54 13.04.2020
4815 Clouds 20 1016 49 10000 8.2 30 14:36 13.04.2020
4816 Clouds 21 1016 60 10000 8.7 30 14:18 13.04.2020
4817 Clouds 19 1016 60 10000 8.7 30 13:54 13.04.2020
4818 Clouds 19 1017 49 10000 7.7 30 13:36 13.04.2020
4819 Clouds 21 1017 56 10000 7.7 30 13:18 13.04.2020
4820 Clouds 19 1017 56 10000 7.7 30 12:55 13.04.2020
4821 Clouds 18 1017 53 10000 4.6 20 12:37 13.04.2020
4822 Clouds 18 1017 56 10000 5.1 340 12:18 13.04.2020
4823 Clouds 20 1017 56 10000 5.1 360 11:41 13.04.2020
4824 Clouds 17 1017 56 10000 5.1 360 11:18 13.04.2020
4825 Clouds 17 1017 56 10000 5.1 360 11:18 13.04.2020
4826 Clouds 20 1016 56 10000 5.1 360 10:55 13.04.2020
4827 Clouds 19 1017 59 10000 4.1 360 10:37 13.04.2020
4828 Clouds 16 1017 59 10000 4.1 360 10:19 13.04.2020
4829 Clouds 18 1016 68 10000 4.1 350 09:45 13.04.2020
4830 Clouds 18 1016 68 10000 4.1 350 09:26 13.04.2020
4831 Clouds 17 1016 68 10000 4.6 350 08:51 13.04.2020
4832 Clouds 17 1016 68 10000 4.6 330 08:30 13.04.2020
4833 Clouds 17 1016 68 10000 4.6 330 08:30 13.04.2020
4834 Clouds 17 1016 72 10000 5.1 350 07:59 13.04.2020
4835 Clouds 17 1016 72 10000 4.1 350 07:39 13.04.2020
4836 Clouds 17 1016 72 10000 4.1 350 07:20 13.04.2020
4837 Clouds 18 1017 63 10000 3.6 340 06:47 13.04.2020
4838 Clouds 18 1017 68 10000 4.6 350 05:59 13.04.2020
4839 Clouds 18 1017 68 10000 4.1 330 05:28 13.04.2020
4840 Clouds 18 1017 72 10000 4.6 340 04:52 13.04.2020
4841 Clouds 18 1017 72 10000 5.1 350 04:22 13.04.2020
4842 Clouds 18 1018 72 10000 3.6 350 03:46 13.04.2020
4843 Clouds 18 1018 68 10000 4.1 350 02:50 13.04.2020
4844 Clouds 18 1018 63 10000 5.7 350 01:54 13.04.2020
4845 Clouds 18 1018 68 10000 5.1 350 01:35 13.04.2020
4846 Clouds 16 1018 68 10000 5.1 350 00:56 13.04.2020
4847 Clouds 19 1018 63 10000 5.7 350 00:38 13.04.2020
4848 Clouds 19 1018 59 10000 6.2 350 00:18 13.04.2020
4849 Clouds 19 1018 63 10000 5.7 350 23:43 12.04.2020
4850 Clouds 19 1018 63 10000 5.7 350 23:22 12.04.2020
4851 Clouds 19 1018 63 10000 5.7 350 22:57 12.04.2020
4852 Clouds 19 1018 59 10000 6.7 350 22:37 12.04.2020
4853 Clouds 19 1018 59 10000 6.7 350 22:19 12.04.2020
4854 Clouds 19 1018 59 10000 6.7 350 22:19 12.04.2020
4855 Clouds 17 1017 60 10000 8.7 360 21:40 12.04.2020
4856 Clouds 20 1017 60 10000 8.7 360 21:21 12.04.2020
4857 Clouds 20 1017 60 10000 10.3 10 20:56 12.04.2020
4858 Clouds 20 1017 60 10000 9.8 10 20:38 12.04.2020
4859 Clouds 18 1017 60 10000 9.8 10 20:19 12.04.2020
4860 Clouds 21 1017 56 10000 10.3 20 19:55 12.04.2020
4861 Clouds 19 1016 49 10000 11.3 10 19:36 12.04.2020
4862 Clouds 22 1016 46 10000 11.3 10 19:18 12.04.2020
4863 Clouds 22 1016 49 10000 11.8 20 18:40 12.04.2020
4864 Clouds 20 1017 50 10000 10.8 10 18:20 12.04.2020
4865 Clouds 23 1017 50 10000 10.8 10 17:56 12.04.2020
4866 Clouds 20 1017 46 10000 10.8 20 17:38 12.04.2020
4867 Clouds 20 1017 46 10000 10.8 20 17:18 12.04.2020
4868 Clouds 20 1017 60 10000 11.3 30 16:56 12.04.2020
4869 Clouds 19 1018 56 10000 11.3 30 16:36 12.04.2020
4870 Clouds 19 1018 56 10000 11.3 30 16:18 12.04.2020
4871 Clouds 19 1018 64 10000 10.3 30 15:41 12.04.2020
4872 Clouds 21 1018 64 10000 10.3 30 15:21 12.04.2020
4873 Clouds 20 1019 68 10000 8.7 20 14:40 12.04.2020
4874 Clouds 20 1019 68 10000 8.7 20 14:22 12.04.2020
4875 Rain 20 1019 68 10000 10.3 30 13:58 12.04.2020
4876 Clouds 20 1019 64 10000 8.2 30 13:40 12.04.2020
4877 Clouds 20 1019 64 10000 8.2 30 13:21 12.04.2020
4878 Rain 19 1020 82 10000 5.7 340 12:47 12.04.2020
4879 Rain 19 1020 82 10000 5.7 340 12:22 12.04.2020
4880 Rain 19 1019 82 8000 8.2 10 11:59 12.04.2020
4881 Clouds 20 1019 64 10000 7.2 350 11:38 12.04.2020
4882 Clouds 20 1019 64 10000 7.2 350 11:20 12.04.2020
4883 Clouds 20 1019 68 10000 6.2 10 10:56 12.04.2020
4884 Clouds 19 1019 63 10000 5.7 350 10:38 12.04.2020
4885 Clouds 19 1019 63 10000 5.7 350 10:20 12.04.2020
4886 Clouds 18 1018 72 10000 6.2 360 09:58 12.04.2020
4887 Clouds 18 1018 68 10000 5.1 10 09:37 12.04.2020
4888 Clouds 18 1018 68 10000 5.1 10 09:19 12.04.2020
4889 Clouds 18 1018 68 10000 5.1 360 08:50 12.04.2020
4890 Clouds 18 1018 68 10000 5.7 360 08:30 12.04.2020
4891 Clouds 18 1017 68 10000 5.7 10 07:47 12.04.2020
4892 Clouds 18 1017 68 10000 6.2 360 07:19 12.04.2020
4893 Clouds 18 1017 68 10000 6.2 360 06:54 12.04.2020
4894 Clouds 18 1017 68 10000 6.7 360 06:28 12.04.2020
4895 Clouds 18 1018 68 10000 7.7 360 05:48 12.04.2020
4896 Clouds 18 1018 68 10000 8.2 360 04:44 12.04.2020
4897 Clouds 19 1019 68 10000 7.7 360 03:30 12.04.2020
4898 Clouds 19 1019 72 10000 7.2 360 02:48 12.04.2020
4899 Clouds 19 1019 72 10000 8.2 360 02:29 12.04.2020
4900 Clouds 19 1020 72 10000 8.7 10 01:23 12.04.2020
4901 Clouds 20 1020 72 10000 8.7 10 00:43 12.04.2020
4902 Clouds 20 1020 72 10000 8.7 10 00:21 12.04.2020
4903 Clouds 20 1020 68 10000 7.7 360 23:58 11.04.2020
4904 Clouds 20 1019 68 10000 7.7 360 23:40 11.04.2020
4905 Clouds 20 1019 68 10000 7.7 360 23:22 11.04.2020
4906 Clouds 20 1019 64 10000 8.2 10 22:38 11.04.2020
4907 Clouds 20 1019 64 10000 8.2 10 22:38 11.04.2020
4908 Clouds 20 1019 64 10000 8.2 10 22:20 11.04.2020
4909 Clouds 21 1019 60 10000 9.3 360 21:55 11.04.2020
4910 Clouds 21 1018 64 10000 9.8 10 21:36 11.04.2020
4911 Clouds 21 1018 64 10000 9.8 10 21:18 11.04.2020
4912 Clouds 21 1018 64 10000 11.3 20 20:56 11.04.2020
4913 Clouds 21 1018 64 10000 11.3 20 20:56 11.04.2020
4914 Clouds 22 1018 60 10000 11.3 20 20:37 11.04.2020
4915 Clouds 22 1018 60 10000 11.3 20 20:19 11.04.2020
4916 Clouds 22 1018 60 10000 11.3 20 20:19 11.04.2020
4917 Clouds 22 1018 56 10000 12.3 20 19:56 11.04.2020
4918 Clouds 22 1018 60 10000 12.3 20 19:38 11.04.2020
4919 Clouds 22 1018 56 10000 12.9 30 19:18 11.04.2020
4920 Clouds 23 1018 56 10000 12.9 30 18:55 11.04.2020
4921 Clouds 22 1018 64 10000 13.4 30 18:37 11.04.2020
4922 Clouds 23 1018 56 10000 13.9 30 18:18 11.04.2020
4923 Clouds 23 1018 56 10000 13.9 30 17:57 11.04.2020
4924 Clouds 23 1018 56 10000 13.9 30 17:57 11.04.2020
4925 Clouds 23 1018 56 10000 13.9 20 17:37 11.04.2020
4926 Clouds 23 1018 56 10000 13.9 20 17:37 11.04.2020
4927 Clouds 23 1018 56 10000 13.9 20 17:19 11.04.2020
4928 Clouds 23 1018 56 10000 12.3 30 16:42 11.04.2020
4929 Clouds 23 1018 56 10000 12.3 30 16:21 11.04.2020
4930 Clouds 22 1019 60 10000 12.9 30 15:42 11.04.2020
4931 Clouds 22 1019 60 10000 12.9 30 15:21 11.04.2020
4932 Clouds 22 1019 60 10000 12.3 30 14:59 11.04.2020
4933 Clouds 23 1019 53 10000 12.3 30 14:40 11.04.2020
4934 Clouds 23 1019 53 10000 12.3 30 14:22 11.04.2020
4935 Clouds 23 1020 56 10000 11.3 20 13:43 11.04.2020
4936 Clouds 23 1020 56 10000 11.3 20 13:25 11.04.2020
4937 Clouds 23 1020 60 10000 11.8 30 12:59 11.04.2020
4938 Clouds 23 1020 60 10000 9.8 10 12:38 11.04.2020
4939 Clouds 22 1019 64 10000 11.3 10 12:18 11.04.2020
4940 Clouds 21 1019 68 10000 9.8 10 11:43 11.04.2020
4941 Clouds 21 1019 68 10000 9.8 10 11:22 11.04.2020
4942 Clouds 20 1019 72 10000 8.2 10 10:57 11.04.2020
4943 Clouds 20 1019 72 10000 8.7 10 10:39 11.04.2020
4944 Clouds 20 1019 72 10000 8.7 10 10:21 11.04.2020
4945 Clouds 20 1019 72 10000 7.2 360 09:57 11.04.2020
4946 Clouds 19 1019 77 10000 7.7 10 09:38 11.04.2020
4947 Clouds 19 1019 77 10000 7.7 10 09:20 11.04.2020
4948 Clouds 19 1019 72 10000 7.2 360 08:43 11.04.2020
4949 Clouds 19 1019 72 10000 7.2 360 08:25 11.04.2020
4950 Clouds 19 1019 72 10000 7.2 360 07:49 11.04.2020
4951 Clouds 19 1019 72 10000 7.2 360 07:28 11.04.2020
4952 Clouds 19 1019 72 10000 8.7 10 06:47 11.04.2020
4953 Clouds 19 1019 72 10000 8.7 10 05:59 11.04.2020
4954 Clouds 19 1020 72 10000 9.3 360 04:34 11.04.2020
4955 Clouds 20 1020 77 10000 9.3 10 03:40 11.04.2020
4956 Clouds 20 1021 72 10000 7.7 360 01:52 11.04.2020
4957 Clouds 20 1021 68 10000 8.7 360 01:20 11.04.2020
4958 Clouds 20 1020 68 10000 8.7 10 00:44 11.04.2020
4959 Clouds 20 1020 68 10000 8.7 10 00:19 11.04.2020
4960 Clouds 20 1020 68 10000 7.7 10 23:56 10.04.2020
4961 Clouds 20 1020 68 10000 7.7 10 23:56 10.04.2020
4962 Clouds 21 1020 64 10000 8.7 10 23:37 10.04.2020
4963 Clouds 21 1020 64 10000 8.2 10 23:18 10.04.2020
4964 Clouds 21 1019 60 10000 7.7 10 22:43 10.04.2020
4965 Clouds 21 1019 60 10000 7.7 10 22:21 10.04.2020
4966 Clouds 21 1019 64 10000 7.7 360 21:58 10.04.2020
4967 Clouds 21 1019 60 10000 9.3 360 21:39 10.04.2020
4968 Clouds 21 1019 60 10000 9.3 360 21:20 10.04.2020
4969 Clouds 22 1019 64 10000 10.8 20 20:41 10.04.2020
4970 Clouds 22 1019 64 10000 10.8 20 20:23 10.04.2020
4971 Clouds 23 1019 60 10000 11.3 30 19:58 10.04.2020
4972 Clouds 24 1019 57 10000 10.8 20 19:40 10.04.2020
4973 Clouds 24 1019 57 10000 10.8 20 19:20 10.04.2020
4974 Clouds 24 1019 53 10000 11.3 10 18:57 10.04.2020
4975 Clouds 24 1019 57 10000 11.8 20 18:39 10.04.2020
4976 Clouds 24 1019 57 10000 11.8 20 18:21 10.04.2020
4977 Clouds 24 1019 53 10000 11.8 20 17:58 10.04.2020
4978 Clouds 24 1019 53 10000 12.3 30 17:39 10.04.2020
4979 Clouds 24 1019 53 10000 12.3 30 17:20 10.04.2020
4980 Clouds 24 1020 53 10000 11.8 30 16:56 10.04.2020
4981 Clouds 24 1020 53 10000 11.3 20 16:38 10.04.2020
4982 Clouds 23 1020 53 10000 11.3 20 16:19 10.04.2020
4983 Clouds 24 1020 50 10000 11.3 10 15:55 10.04.2020
4984 Clouds 24 1020 50 10000 11.3 10 15:55 10.04.2020
4985 Clouds 24 1020 53 10000 12.9 20 15:36 10.04.2020
4986 Clouds 24 1021 57 10000 11.8 20 15:18 10.04.2020
4987 Clouds 24 1021 57 10000 11.8 20 14:56 10.04.2020
4988 Clouds 23 1021 69 10000 11.8 30 14:37 10.04.2020
4989 Clouds 23 1021 69 10000 11.8 30 14:18 10.04.2020
4990 Clouds 23 1021 69 10000 11.8 30 14:18 10.04.2020
4991 Clouds 23 1021 69 10000 10.8 20 13:43 10.04.2020
4992 Clouds 23 1021 69 10000 10.8 20 13:21 10.04.2020
4993 Clouds 22 1021 73 10000 9.3 20 12:43 10.04.2020
4994 Clouds 22 1021 73 10000 9.3 20 12:23 10.04.2020
4995 Clouds 22 1021 78 10000 9.3 20 11:56 10.04.2020
4996 Clouds 21 1021 77 10000 9.8 20 11:38 10.04.2020
4997 Clouds 21 1021 77 10000 9.8 20 11:20 10.04.2020
4998 Clouds 21 1020 88 10000 8.7 10 10:44 10.04.2020
4999 Clouds 20 1020 88 10000 8.7 10 10:23 10.04.2020
5000 Clouds 20 1020 88 10000 7.7 20 09:57 10.04.2020
5001 Clouds 20 1020 83 10000 6.7 360 09:38 10.04.2020
5002 Clouds 20 1020 83 10000 6.7 10 09:18 10.04.2020
5003 Clouds 20 1019 83 10000 7.2 10 08:42 10.04.2020
5004 Clouds 19 1019 83 10000 7.2 10 08:23 10.04.2020
5005 Clouds 20 1019 77 10000 8.7 10 07:45 10.04.2020
5006 Clouds 20 1019 77 10000 8.7 10 07:24 10.04.2020
5007 Clouds 20 1019 73 10000 8.2 10 06:49 10.04.2020
5008 Clouds 20 1019 73 10000 8.2 10 06:28 10.04.2020
5009 Clouds 20 1019 77 10000 7.7 360 05:42 10.04.2020
5010 Clouds 20 1020 73 10000 7.2 360 04:58 10.04.2020
5011 Clouds 20 1020 73 10000 6.7 10 03:50 10.04.2020
5012 Clouds 20 1020 73 10000 7.2 360 03:31 10.04.2020
5013 Clouds 20 1021 77 10000 7.2 10 02:49 10.04.2020
5014 Clouds 20 1021 77 10000 8.2 20 02:30 10.04.2020
5015 Clouds 20 1021 77 10000 8.2 10 01:30 10.04.2020
5016 Clouds 20 1021 73 10000 8.2 10 00:50 10.04.2020
5017 Clouds 20 1021 73 10000 8.2 10 00:24 10.04.2020
5018 Clouds 20 1021 73 10000 7.2 10 23:56 09.04.2020
5019 Clouds 21 1021 73 10000 6.7 360 23:38 09.04.2020
5020 Clouds 21 1021 73 10000 6.7 360 23:19 09.04.2020
5021 Clouds 21 1020 68 10000 7.7 10 22:41 09.04.2020
5022 Clouds 21 1020 68 10000 7.7 10 22:41 09.04.2020
5023 Clouds 22 1020 68 10000 7.7 10 22:23 09.04.2020
5024 Clouds 22 1020 68 10000 9.3 20 21:55 09.04.2020
5025 Clouds 22 1019 68 10000 10.3 30 21:37 09.04.2020
5026 Clouds 22 1019 68 10000 10.3 30 21:18 09.04.2020
5027 Clouds 23 1019 64 10000 11.3 10 20:41 09.04.2020
5028 Clouds 23 1019 64 10000 11.3 10 20:20 09.04.2020
5029 Clouds 23 1019 60 10000 10.8 10 19:57 09.04.2020
5030 Clouds 23 1019 64 10000 10.3 20 19:36 09.04.2020
5031 Clouds 23 1019 64 10000 10.3 20 19:18 09.04.2020
5032 Clouds 23 1019 64 10000 10.8 30 18:41 09.04.2020
5033 Clouds 23 1019 64 10000 11.8 30 18:19 09.04.2020
5034 Clouds 24 1020 64 10000 10.8 20 17:41 09.04.2020
5035 Clouds 24 1020 64 10000 10.8 20 17:23 09.04.2020
5036 Clouds 24 1020 69 10000 12.3 30 16:56 09.04.2020
5037 Clouds 24 1020 64 10000 12.9 20 16:38 09.04.2020
5038 Clouds 24 1020 60 10000 12.3 20 16:18 09.04.2020
5039 Clouds 24 1020 60 10000 12.3 20 15:54 09.04.2020
5040 Clouds 24 1021 64 10000 13.4 20 15:36 09.04.2020
5041 Clouds 24 1021 64 10000 13.4 20 15:36 09.04.2020
5042 Clouds 23 1021 60 10000 13.4 20 15:18 09.04.2020
5043 Clouds 23 1021 60 10000 13.4 20 15:18 09.04.2020
5044 Clouds 23 1021 64 10000 12.9 20 14:39 09.04.2020
5045 Clouds 23 1021 64 10000 12.9 20 14:21 09.04.2020
5046 Clouds 23 1021 64 10000 10.8 20 13:44 09.04.2020
5047 Clouds 23 1021 64 10000 10.8 20 13:26 09.04.2020
5048 Clouds 23 1021 69 10000 11.3 20 12:59 09.04.2020
5049 Clouds 23 1021 64 10000 10.3 10 12:41 09.04.2020
5050 Clouds 23 1021 64 10000 10.3 10 12:41 09.04.2020
5051 Clouds 23 1021 64 10000 10.3 10 12:21 09.04.2020
5052 Clouds 23 1021 64 10000 9.8 20 11:57 09.04.2020
5053 Clouds 22 1020 68 10000 9.3 10 11:38 09.04.2020
5054 Clouds 22 1020 68 10000 9.3 10 11:19 09.04.2020
5055 Clouds 21 1020 73 10000 9.8 10 10:55 09.04.2020
5056 Clouds 21 1019 73 10000 9.3 20 10:37 09.04.2020
5057 Clouds 21 1019 73 10000 9.3 20 10:37 09.04.2020
5058 Clouds 20 1019 77 10000 8.2 20 10:18 09.04.2020
5059 Clouds 20 1019 77 10000 7.2 30 09:40 09.04.2020
5060 Clouds 19 1019 77 10000 7.2 30 09:21 09.04.2020
5061 Clouds 19 1019 77 10000 8.2 20 08:58 09.04.2020
5062 Clouds 19 1018 77 10000 10.3 20 08:40 09.04.2020
5063 Clouds 19 1018 77 10000 10.3 20 08:21 09.04.2020
5064 Clouds 19 1018 72 10000 8.2 20 07:46 09.04.2020
5065 Clouds 19 1018 72 10000 8.2 20 07:21 09.04.2020
5066 Clouds 19 1018 72 10000 8.7 10 06:48 09.04.2020
5067 Clouds 20 1019 77 10000 8.7 20 05:49 09.04.2020
5068 Clouds 20 1019 77 10000 8.7 20 05:25 09.04.2020
5069 Clouds 20 1020 82 10000 9.3 20 02:36 09.04.2020
5070 Clouds 20 1020 77 10000 9.3 10 01:46 09.04.2020
5071 Clouds 20 1020 77 10000 9.3 10 01:27 09.04.2020
5072 Clouds 20 1020 82 10000 10.3 20 00:55 09.04.2020
5073 Clouds 20 1020 82 10000 9.3 20 00:37 09.04.2020
5074 Clouds 20 1020 77 10000 9.3 20 00:18 09.04.2020
5075 Clouds 20 1019 82 10000 9.8 20 23:42 08.04.2020
5076 Clouds 20 1019 82 10000 9.8 20 23:23 08.04.2020
5077 Clouds 20 1018 82 10000 9.8 30 22:56 08.04.2020
5078 Clouds 20 1018 82 10000 9.8 30 22:38 08.04.2020
5079 Clouds 20 1018 77 10000 8.7 20 22:19 08.04.2020
5080 Clouds 21 1018 77 10000 8.7 20 21:55 08.04.2020
5081 Clouds 21 1018 73 10000 10.8 20 21:37 08.04.2020
5082 Clouds 21 1018 73 10000 10.8 20 21:18 08.04.2020
5083 Clouds 21 1018 73 10000 10.8 30 20:40 08.04.2020
5084 Clouds 21 1018 73 10000 10.8 30 20:21 08.04.2020
5085 Clouds 22 1018 73 10000 10.8 30 19:59 08.04.2020
5086 Clouds 22 1018 68 10000 11.3 30 19:40 08.04.2020
5087 Clouds 22 1018 73 10000 11.8 30 19:21 08.04.2020
5088 Clouds 22 1018 69 10000 12.3 30 18:45 08.04.2020
5089 Clouds 23 1018 69 10000 12.3 30 18:27 08.04.2020
5090 Clouds 22 1018 68 10000 13.4 20 17:57 08.04.2020
5091 Clouds 23 1018 69 10000 12.9 30 17:39 08.04.2020
5092 Clouds 23 1019 69 10000 12.9 30 17:20 08.04.2020
5093 Clouds 23 1019 64 10000 11.8 30 16:56 08.04.2020
5094 Clouds 23 1019 64 10000 11.8 30 16:37 08.04.2020
5095 Clouds 23 1019 64 10000 10.8 30 16:19 08.04.2020
5096 Clouds 24 1019 69 10000 10.3 30 15:38 08.04.2020
5097 Clouds 24 1020 69 10000 10.3 30 15:20 08.04.2020
5098 Clouds 24 1020 69 10000 10.8 30 14:54 08.04.2020
5099 Clouds 24 1020 69 10000 10.8 30 14:36 08.04.2020
5100 Clouds 23 1020 64 10000 10.3 30 14:18 08.04.2020
5101 Clouds 23 1020 64 10000 9.3 30 13:43 08.04.2020
5102 Clouds 23 1020 64 10000 9.3 30 13:43 08.04.2020
5103 Clouds 23 1020 64 10000 9.3 30 13:21 08.04.2020
5104 Clouds 22 1020 68 10000 10.3 20 12:43 08.04.2020
5105 Clouds 22 1020 73 10000 9.8 30 12:19 08.04.2020
5106 Clouds 21 1020 73 10000 9.8 30 11:59 08.04.2020
5107 Clouds 22 1020 68 10000 9.3 20 11:40 08.04.2020
5108 Clouds 21 1020 68 10000 9.3 20 11:22 08.04.2020
5109 Clouds 21 1020 73 10000 9.3 20 10:57 08.04.2020
5110 Clouds 20 1020 77 10000 8.7 10 10:39 08.04.2020
5111 Clouds 20 1020 77 10000 8.7 10 10:20 08.04.2020
5112 Clouds 20 1020 77 10000 7.2 20 09:56 08.04.2020
5113 Clouds 19 1019 88 10000 7.7 20 09:38 08.04.2020
5114 Clouds 19 1019 88 10000 7.7 20 09:18 08.04.2020
5115 Clouds 18 1019 88 10000 7.7 20 08:42 08.04.2020
5116 Clouds 18 1019 88 10000 7.7 20 08:42 08.04.2020
5117 Clouds 18 1019 88 10000 7.7 20 08:23 08.04.2020
5118 Clouds 18 1019 88 10000 7.7 20 08:23 08.04.2020
5119 Clouds 19 1019 77 10000 7.2 20 07:47 08.04.2020
5120 Clouds 19 1019 77 10000 7.2 20 07:28 08.04.2020
5121 Clouds 19 1019 77 10000 5.7 20 06:59 08.04.2020
5122 Clouds 19 1020 77 10000 8.2 10 06:19 08.04.2020
5123 Clouds 20 1020 72 10000 8.2 360 04:19 08.04.2020
5124 Clouds 20 1021 72 10000 7.7 10 02:49 08.04.2020
5125 Clouds 20 1021 72 10000 7.2 360 02:20 08.04.2020
5126 Clouds 20 1021 77 10000 7.2 10 01:45 08.04.2020
5127 Clouds 20 1021 77 10000 7.2 10 01:23 08.04.2020
5128 Clouds 20 1021 77 10000 9.3 20 00:41 08.04.2020
5129 Clouds 20 1021 77 10000 9.3 20 00:21 08.04.2020
5130 Clouds 20 1020 77 10000 8.2 10 23:39 07.04.2020
5131 Clouds 20 1020 77 10000 8.2 10 23:21 07.04.2020
5132 Clouds 20 1020 77 10000 8.2 10 22:57 07.04.2020
5133 Clouds 20 1019 73 10000 8.7 10 22:39 07.04.2020
5134 Clouds 20 1019 73 10000 8.7 10 22:19 07.04.2020
5135 Clouds 20 1019 73 10000 8.7 10 21:56 07.04.2020
5136 Clouds 21 1019 77 10000 10.8 30 21:38 07.04.2020
5137 Clouds 21 1019 77 10000 10.8 30 21:19 07.04.2020
5138 Clouds 21 1019 77 10000 9.3 20 20:56 07.04.2020
5139 Clouds 21 1019 73 10000 8.7 30 20:37 07.04.2020
5140 Clouds 21 1019 73 10000 8.7 30 20:19 07.04.2020
5141 Clouds 22 1019 73 10000 8.2 30 19:56 07.04.2020
5142 Clouds 22 1019 73 10000 8.2 30 19:56 07.04.2020
5143 Clouds 22 1019 73 10000 8.2 30 19:36 07.04.2020
5144 Clouds 21 1019 73 10000 6.7 30 19:18 07.04.2020
5145 Clouds 22 1019 73 10000 6.7 30 18:54 07.04.2020
5146 Clouds 22 1019 73 10000 6.2 30 18:36 07.04.2020
5147 Clouds 22 1019 69 10000 6.7 40 18:18 07.04.2020
5148 Clouds 23 1020 69 10000 7.2 30 17:41 07.04.2020
5149 Clouds 23 1020 69 10000 7.7 40 17:20 07.04.2020
5150 Clouds 23 1020 69 10000 7.7 30 16:45 07.04.2020
5151 Clouds 23 1021 69 10000 7.7 30 16:27 07.04.2020
5152 Clouds 23 1021 69 10000 7.7 30 15:55 07.04.2020
5153 Clouds 23 1021 69 10000 7.7 30 15:36 07.04.2020
5154 Clouds 23 1022 69 10000 6.7 40 15:18 07.04.2020
5155 Clouds 23 1022 69 10000 7.2 30 14:39 07.04.2020
5156 Clouds 23 1022 69 10000 7.2 30 14:21 07.04.2020
5157 Clouds 23 1022 69 10000 7.7 30 13:54 07.04.2020
5158 Clouds 23 1022 69 10000 7.7 30 13:36 07.04.2020
5159 Clouds 22 1022 73 10000 7.7 40 13:18 07.04.2020
5160 Clouds 22 1022 73 10000 7.7 30 12:40 07.04.2020
5161 Clouds 22 1022 73 10000 7.7 30 12:22 07.04.2020
5162 Clouds 21 1021 73 10000 7.2 40 11:59 07.04.2020
5163 Clouds 21 1021 73 10000 6.7 20 11:41 07.04.2020
5164 Clouds 21 1021 73 10000 6.7 20 11:21 07.04.2020
5165 Clouds 21 1021 73 10000 6.2 20 10:56 07.04.2020
5166 Clouds 20 1021 77 10000 5.1 360 10:37 07.04.2020
5167 Clouds 19 1021 77 10000 4.6 360 10:18 07.04.2020
5168 Clouds 19 1020 77 10000 6.2 360 09:44 07.04.2020
5169 Clouds 19 1020 77 10000 6.7 10 09:18 07.04.2020
5170 Clouds 19 1020 77 10000 7.2 360 08:42 07.04.2020
5171 Clouds 19 1020 77 10000 7.2 360 08:24 07.04.2020
5172 Clouds 19 1020 72 10000 7.7 360 07:58 07.04.2020
5173 Clouds 19 1020 77 10000 6.7 360 07:40 07.04.2020
5174 Clouds 18 1020 77 10000 6.7 360 07:21 07.04.2020
5175 Clouds 18 1020 82 10000 6.2 360 06:48 07.04.2020
5176 Clouds 18 1020 82 10000 6.2 360 06:20 07.04.2020
5177 Clouds 18 1021 82 10000 7.7 360 05:32 07.04.2020
5178 Clouds 19 1021 82 10000 6.2 360 04:35 07.04.2020
5179 Clouds 19 1022 77 10000 7.7 360 03:24 07.04.2020
5180 Clouds 19 1022 77 10000 7.2 10 02:48 07.04.2020
5181 Clouds 19 1022 77 10000 6.2 10 01:48 07.04.2020
5182 Clouds 19 1022 77 10000 6.2 10 01:24 07.04.2020
5183 Clouds 20 1022 77 10000 7.2 10 00:28 07.04.2020
5184 Clouds 20 1021 73 10000 7.2 10 23:44 06.04.2020
5185 Clouds 20 1021 73 10000 7.2 10 23:24 06.04.2020
5186 Clouds 20 1021 73 10000 6.7 360 22:58 06.04.2020
5187 Clouds 20 1021 73 10000 7.2 10 22:38 06.04.2020
5188 Clouds 21 1021 73 10000 7.2 10 22:20 06.04.2020
5189 Clouds 21 1021 77 10000 8.2 20 21:57 06.04.2020
5190 Clouds 21 1020 77 10000 8.7 40 21:38 06.04.2020
5191 Clouds 21 1020 77 10000 8.7 40 21:18 06.04.2020
5192 Clouds 21 1020 73 10000 9.8 30 20:54 06.04.2020
5193 Clouds 21 1020 73 10000 10.3 30 20:36 06.04.2020
5194 Clouds 22 1020 69 10000 8.2 40 20:18 06.04.2020
5195 Clouds 22 1020 69 10000 8.2 40 20:18 06.04.2020
5196 Clouds 22 1020 69 10000 7.7 30 19:40 06.04.2020
5197 Clouds 22 1020 69 10000 7.7 30 19:22 06.04.2020
5198 Clouds 22 1020 64 10000 7.2 30 18:57 06.04.2020
5199 Clouds 23 1020 64 10000 7.7 30 18:39 06.04.2020
5200 Clouds 23 1020 64 10000 7.7 30 18:20 06.04.2020
5201 Clouds 23 1021 57 10000 7.2 30 17:42 06.04.2020
5202 Clouds 24 1021 57 10000 7.2 30 17:20 06.04.2020
5203 Clouds 24 1021 60 10000 7.7 40 16:50 06.04.2020
5204 Clouds 24 1021 60 10000 7.7 40 16:31 06.04.2020
5205 Clouds 23 1021 69 10000 7.2 40 15:41 06.04.2020
5206 Clouds 24 1022 64 10000 9.8 30 13:46 06.04.2020
5207 Clouds 23 1022 60 10000 9.3 40 13:24 06.04.2020
5208 Clouds 23 1022 60 10000 9.3 40 13:02 06.04.2020
5209 Clouds 23 1022 60 10000 9.3 40 13:02 06.04.2020
5210 Clouds 23 1022 60 10000 9.3 40 13:02 06.04.2020
5211 Clouds 22 1022 64 10000 7.7 40 12:22 06.04.2020
5212 Clouds 22 1022 64 10000 7.7 40 12:22 06.04.2020
5213 Clouds 22 1022 69 10000 7.2 30 11:54 06.04.2020
5214 Clouds 22 1022 69 10000 7.2 30 11:54 06.04.2020
5215 Clouds 21 1022 77 10000 5.7 30 11:33 06.04.2020
5216 Clouds 21 1022 77 10000 5.7 30 11:33 06.04.2020
5217 Clouds 21 1022 77 10000 5.7 30 11:33 06.04.2020
5218 Clouds 21 1022 77 10000 5.7 30 11:33 06.04.2020
5219 Clouds 21 1022 77 10000 5.7 30 11:33 06.04.2020
5220 Clouds 21 1022 73 10000 2.6 0 10:51 06.04.2020
5221 Clouds 21 1022 73 10000 2.6 0 10:51 06.04.2020
5222 Clouds 21 1022 73 10000 2.6 0 10:51 06.04.2020
5223 Clouds 21 1022 73 10000 2.6 0 10:51 06.04.2020
5224 Clouds 21 1022 73 10000 2.6 0 10:51 06.04.2020
5225 Clouds 19 1021 72 10000 2.1 310 10:21 06.04.2020
5226 Clouds 19 1021 72 10000 2.6 320 09:47 06.04.2020
5227 Clouds 19 1021 72 10000 2.6 320 09:47 06.04.2020
5228 Clouds 19 1021 72 10000 2.6 320 09:47 06.04.2020
5229 Clouds 19 1021 72 10000 2.6 330 09:21 06.04.2020
5230 Clouds 18 1020 77 10000 3.1 320 08:54 06.04.2020
5231 Clouds 18 1020 77 10000 3.1 310 08:30 06.04.2020
5232 Clouds 18 1019 77 10000 1.5 280 07:37 06.04.2020
5233 Clouds 18 1019 77 10000 1.5 280 07:37 06.04.2020
5234 Clouds 19 1019 77 10000 2.1 300 06:42 06.04.2020
5235 Clouds 19 1019 77 10000 2.6 320 06:23 06.04.2020
5236 Clouds 19 1020 77 10000 3.6 340 04:20 06.04.2020
5237 Clouds 20 1021 88 10000 5.1 10 02:58 06.04.2020
5238 Clouds 20 1021 88 10000 4.1 20 02:36 06.04.2020
5239 Clouds 20 1021 73 10000 4.6 20 01:26 06.04.2020
5240 Clouds 20 1021 73 10000 4.1 20 00:44 06.04.2020
5241 Clouds 20 1021 73 10000 3.6 20 00:23 06.04.2020
5242 Clouds 21 1021 77 10000 2.1 30 23:44 05.04.2020
5243 Clouds 21 1020 77 10000 2.1 70 23:25 05.04.2020
5244 Clouds 21 1020 77 10000 2.1 70 23:25 05.04.2020
5245 Clouds 21 1020 68 10000 2.1 50 22:55 05.04.2020
5246 Clouds 21 1020 68 10000 3.6 40 22:37 05.04.2020
5247 Clouds 21 1020 68 10000 3.6 40 22:18 05.04.2020
5248 Clouds 21 1019 68 10000 1.5 80 21:46 05.04.2020
5249 Clouds 21 1019 73 10000 1.5 140 21:25 05.04.2020
5250 Clouds 22 1019 73 10000 2.1 150 20:46 05.04.2020
5251 Clouds 22 1018 68 10000 2.1 140 20:18 05.04.2020
5252 Clouds 22 1018 68 10000 2.1 140 20:18 05.04.2020
5253 Clouds 22 1018 68 10000 2.1 140 20:18 05.04.2020
5254 Clouds 22 1018 68 10000 2.1 140 20:18 05.04.2020
5255 Clouds 22 1018 73 10000 3.1 150 19:37 05.04.2020
5256 Clouds 22 1018 73 10000 3.1 150 19:19 05.04.2020
5257 Clouds 23 1018 69 10000 3.1 150 18:44 05.04.2020
5258 Clouds 23 1018 69 10000 3.1 150 18:44 05.04.2020
5259 Clouds 23 1018 69 10000 3.1 150 18:44 05.04.2020
5260 Clouds 23 1018 69 10000 3.1 150 18:44 05.04.2020
5261 Clouds 23 1018 69 10000 3.1 150 18:44 05.04.2020
5262 Clouds 22 1018 73 10000 3.1 140 17:52 05.04.2020
5263 Clouds 22 1018 73 10000 3.1 140 17:52 05.04.2020
5264 Clouds 22 1018 73 10000 3.1 140 17:52 05.04.2020
5265 Clouds 22 1018 73 10000 3.1 140 17:52 05.04.2020
5266 Clouds 22 1018 73 10000 3.1 130 17:24 05.04.2020
5267 Clouds 22 1018 73 10000 3.1 130 17:24 05.04.2020
5268 Clouds 22 1018 73 10000 3.1 140 16:49 05.04.2020
5269 Clouds 22 1018 73 10000 3.1 140 16:49 05.04.2020
5270 Clouds 22 1018 73 10000 3.1 140 16:49 05.04.2020
5271 Clouds 22 1019 78 10000 2.6 110 16:20 05.04.2020
5272 Clouds 22 1019 73 10000 2.6 110 15:51 05.04.2020
5273 Clouds 22 1019 78 10000 2.6 130 15:32 05.04.2020
5274 Clouds 22 1019 78 10000 2.6 130 15:32 05.04.2020
5275 Clouds 22 1019 73 10000 2.6 140 14:50 05.04.2020
5276 Clouds 22 1019 73 10000 2.6 140 14:50 05.04.2020
5277 Clouds 22 1019 73 10000 2.6 140 14:25 05.04.2020
5278 Clouds 22 1019 73 10000 2.6 140 14:25 05.04.2020
5279 Clouds 22 1019 73 10000 2.6 130 13:43 05.04.2020
5280 Clouds 21 1019 73 10000 2.6 110 12:49 05.04.2020
5281 Clouds 21 1019 73 10000 2.6 110 12:49 05.04.2020
5282 Clouds 21 1019 73 10000 1.5 100 11:41 05.04.2020
5283 Clouds 21 1018 68 10000 1.5 90 11:21 05.04.2020
5284 Clouds 21 1018 68 10000 0.74 71 10:49 05.04.2020
5285 Clouds 19 1018 72 10000 0.5 0 10:24 05.04.2020
5286 Clouds 18 1017 72 10000 1.5 300 09:58 05.04.2020
5287 Clouds 18 1017 72 10000 1.5 300 09:58 05.04.2020
5288 Clouds 17 1017 72 10000 0.5 0 09:31 05.04.2020
5289 Clouds 17 1017 77 10000 1 250 09:02 05.04.2020
5290 Clouds 17 1017 77 10000 1 250 09:02 05.04.2020
5291 Clouds 17 1017 77 10000 1 250 09:02 05.04.2020
5292 Clouds 18 1016 72 10000 0.07 322 07:31 05.04.2020
5293 Clouds 18 1016 82 10000 1 230 04:36 05.04.2020
5294 Clouds 18 1016 82 10000 2.1 240 03:31 05.04.2020
5295 Clouds 19 1016 82 10000 1.5 250 02:49 05.04.2020
5296 Clouds 19 1016 77 10000 1 0 01:47 05.04.2020
5297 Clouds 19 1016 77 10000 1.5 330 01:28 05.04.2020
5298 Clouds 20 1016 82 10000 2.6 10 00:44 05.04.2020
5299 Clouds 20 1016 82 10000 2.1 20 00:21 05.04.2020
5300 Clouds 20 1015 82 10000 1.5 20 23:43 04.04.2020
5301 Clouds 20 1015 77 10000 2.1 50 23:23 04.04.2020
5302 Clouds 20 1014 77 10000 2.1 60 22:59 04.04.2020
5303 Clouds 21 1014 77 10000 2.1 60 22:40 04.04.2020
5304 Clouds 21 1014 83 10000 1 0 22:21 04.04.2020
5305 Clouds 21 1013 77 10000 2.1 80 21:58 04.04.2020
5306 Clouds 21 1013 77 10000 2.1 80 21:39 04.04.2020
5307 Clouds 21 1013 83 10000 1.5 80 21:19 04.04.2020
5308 Clouds 21 1013 83 10000 1.5 90 20:58 04.04.2020
5309 Clouds 21 1013 83 10000 1.5 90 20:39 04.04.2020
5310 Clouds 21 1013 77 10000 2.6 140 20:20 04.04.2020
5311 Clouds 22 1012 78 10000 3.1 130 19:57 04.04.2020
5312 Clouds 22 1012 78 10000 3.1 110 19:37 04.04.2020
5313 Clouds 23 1012 78 10000 3.1 110 19:19 04.04.2020
5314 Clouds 23 1012 73 10000 3.1 130 18:55 04.04.2020
5315 Clouds 23 1012 78 10000 3.1 130 18:37 04.04.2020
5316 Clouds 23 1012 78 10000 3.1 130 18:18 04.04.2020
5317 Clouds 22 1012 77 10000 3.1 130 17:41 04.04.2020
5318 Clouds 23 1013 73 10000 3.6 140 17:20 04.04.2020
5319 Clouds 23 1013 73 10000 4.1 130 16:55 04.04.2020
5320 Clouds 23 1013 68 10000 3.6 130 16:37 04.04.2020
5321 Clouds 23 1013 68 10000 3.6 130 16:19 04.04.2020
5322 Clouds 23 1013 69 10000 3.6 130 15:41 04.04.2020
5323 Clouds 23 1013 69 10000 3.6 140 15:22 04.04.2020
5324 Clouds 22 1013 73 10000 3.6 130 14:57 04.04.2020
5325 Clouds 22 1013 73 10000 3.6 130 14:39 04.04.2020
5326 Clouds 23 1013 73 10000 3.6 130 14:21 04.04.2020
5327 Clouds 22 1013 73 10000 3.6 120 13:55 04.04.2020
5328 Clouds 22 1013 73 10000 3.6 110 13:37 04.04.2020
5329 Clouds 22 1013 73 10000 3.6 110 13:18 04.04.2020
5330 Clouds 22 1012 60 10000 3.6 70 12:44 04.04.2020
5331 Clouds 22 1012 60 10000 3.6 70 12:44 04.04.2020
5332 Clouds 22 1012 64 10000 4.6 50 12:23 04.04.2020
5333 Clouds 21 1012 73 10000 3.6 70 11:58 04.04.2020
5334 Clouds 21 1011 68 10000 3.1 50 11:38 04.04.2020
5335 Clouds 21 1011 68 10000 3.1 50 11:19 04.04.2020
5336 Clouds 20 1011 72 10000 2.1 50 10:55 04.04.2020
5337 Clouds 19 1010 77 10000 0.5 0 10:37 04.04.2020
5338 Clouds 19 1010 77 10000 0.5 0 10:18 04.04.2020
5339 Clouds 18 1010 77 10000 0.5 0 09:54 04.04.2020
5340 Clouds 18 1010 77 10000 0.99 353 09:36 04.04.2020
5341 Clouds 17 1010 77 10000 1.01 215 09:18 04.04.2020
5342 Clouds 18 1010 77 10000 1 0 08:38 04.04.2020
5343 Clouds 18 1010 77 10000 1 0 08:20 04.04.2020
5344 Clouds 18 1009 72 10000 1.01 215 07:41 04.04.2020
5345 Clouds 18 1010 72 10000 1.5 330 07:23 04.04.2020
5346 Clouds 18 1010 77 10000 1 0 06:47 04.04.2020
5347 Clouds 18 1009 77 10000 1 0 06:18 04.04.2020
5348 Clouds 18 1010 77 10000 0.5 0 05:41 04.04.2020
5349 Clouds 18 1010 72 10000 1 0 05:23 04.04.2020
5350 Clouds 18 1010 77 10000 1.5 310 04:27 04.04.2020
5351 Clouds 18 1011 77 10000 1.5 290 03:49 04.04.2020
5352 Clouds 19 1011 72 10000 1.5 280 02:50 04.04.2020
5353 Clouds 19 1011 72 10000 0.5 0 02:32 04.04.2020
5354 Clouds 19 1011 72 10000 1.5 310 01:53 04.04.2020
5355 Clouds 19 1011 72 10000 1.5 280 01:25 04.04.2020
5356 Clouds 19 1011 72 10000 1 0 00:48 04.04.2020
5357 Clouds 19 1011 72 10000 2.1 20 00:29 04.04.2020
5358 Clouds 19 1011 68 10000 2.1 350 23:39 03.04.2020
5359 Clouds 19 1011 68 10000 2.1 350 23:21 03.04.2020
5360 Clouds 19 1010 68 10000 3.1 10 22:58 03.04.2020
5361 Clouds 19 1010 68 10000 3.1 10 22:39 03.04.2020
5362 Clouds 20 1010 68 10000 2.6 30 22:18 03.04.2020
5363 Clouds 20 1010 64 10000 3.1 30 21:44 03.04.2020
5364 Clouds 20 1010 64 10000 4.6 20 21:24 03.04.2020
5365 Clouds 20 1010 64 10000 5.7 20 20:57 03.04.2020
5366 Clouds 21 1009 60 10000 5.7 20 20:37 03.04.2020
5367 Clouds 21 1009 60 10000 5.7 20 20:19 03.04.2020
5368 Clouds 22 1009 57 10000 4.1 180 19:57 03.04.2020
5369 Clouds 22 1009 53 10000 6.2 190 19:38 03.04.2020
5370 Clouds 22 1009 53 10000 6.2 190 19:20 03.04.2020
5371 Clouds 22 1009 53 10000 7.2 180 18:59 03.04.2020
5372 Clouds 22 1009 53 10000 7.2 180 18:41 03.04.2020
5373 Clouds 22 1009 60 10000 8.2 190 18:22 03.04.2020
5374 Clouds 22 1010 56 10000 9.8 200 17:55 03.04.2020
5375 Clouds 22 1010 53 10000 9.3 190 17:36 03.04.2020
5376 Clouds 22 1010 53 10000 9.3 190 17:18 03.04.2020
5377 Clouds 21 1010 56 10000 9.3 160 16:43 03.04.2020
5378 Clouds 21 1011 53 10000 8.7 170 16:21 03.04.2020
5379 Clouds 21 1011 56 10000 8.2 170 15:58 03.04.2020
5380 Clouds 21 1012 60 10000 8.7 160 15:39 03.04.2020
5381 Clouds 21 1012 60 10000 8.7 160 15:20 03.04.2020
5382 Clouds 20 1012 68 10000 8.2 160 14:55 03.04.2020
5383 Clouds 20 1012 66 0 5.36 233 14:37 03.04.2020
5384 Clouds 20 1013 72 10000 5.7 160 14:19 03.04.2020
5385 Clouds 19 1013 72 10000 5.7 160 13:42 03.04.2020
5386 Clouds 19 1013 72 10000 5.7 160 13:24 03.04.2020
5387 Clouds 19 1013 64 10000 4.6 150 12:45 03.04.2020
5388 Clouds 19 1013 68 10000 3.1 140 12:21 03.04.2020
5389 Clouds 19 1013 68 10000 1 0 11:59 03.04.2020
5390 Clouds 19 1013 68 10000 1 0 11:40 03.04.2020
5391 Clouds 18 1013 68 10000 0.5 0 11:21 03.04.2020
5392 Clouds 18 1013 68 10000 1.5 250 10:59 03.04.2020
5393 Clouds 18 1013 68 10000 1.5 250 10:39 03.04.2020
5394 Clouds 17 1013 72 10000 1.5 260 10:20 03.04.2020
5395 Clouds 16 1013 77 10000 1.5 290 09:59 03.04.2020
5396 Clouds 16 1013 77 10000 1.5 290 09:40 03.04.2020
5397 Clouds 16 1013 77 10000 2.6 270 09:22 03.04.2020
5398 Clouds 16 1013 77 10000 2.1 300 08:57 03.04.2020
5399 Clouds 17 1013 72 10000 2.1 300 08:38 03.04.2020
5400 Clouds 17 1013 72 10000 2.1 300 08:20 03.04.2020
5401 Clouds 17 1013 72 10000 1.5 290 07:48 03.04.2020
5402 Clouds 17 1013 72 10000 2.1 300 07:29 03.04.2020
5403 Clouds 17 1013 72 10000 1.5 290 06:42 03.04.2020
5404 Clouds 16 1013 77 10000 2.1 280 06:23 03.04.2020
5405 Clouds 17 1013 77 10000 2.1 290 05:39 03.04.2020
5406 Clouds 17 1015 72 10000 1.5 290 03:42 03.04.2020
5407 Clouds 18 1015 68 10000 1.5 340 02:56 03.04.2020
5408 Clouds 18 1016 68 10000 2.6 20 02:18 03.04.2020
5409 Clouds 18 1017 68 10000 3.1 20 01:22 03.04.2020
5410 Clouds 18 1017 68 10000 4.1 30 00:36 03.04.2020
5411 Clouds 18 1017 68 10000 4.1 30 00:18 03.04.2020
5412 Clouds 18 1016 72 10000 4.6 30 23:40 02.04.2020
5413 Clouds 18 1016 72 10000 5.1 30 23:21 02.04.2020
5414 Clouds 18 1016 72 10000 5.7 30 22:57 02.04.2020
5415 Clouds 18 1016 72 10000 5.7 20 22:37 02.04.2020
5416 Clouds 18 1016 72 10000 5.7 20 22:18 02.04.2020
5417 Clouds 18 1015 72 10000 6.7 20 21:39 02.04.2020
5418 Clouds 19 1015 68 10000 6.2 30 21:20 02.04.2020
5419 Clouds 19 1015 68 10000 6.7 30 20:58 02.04.2020
5420 Clouds 20 1015 68 10000 6.7 30 20:40 02.04.2020
5421 Clouds 20 1015 64 10000 6.7 40 20:21 02.04.2020
5422 Clouds 20 1015 60 10000 7.2 40 19:44 02.04.2020
5423 Clouds 21 1016 60 10000 6.2 40 19:21 02.04.2020
5424 Clouds 20 1016 60 10000 6.2 40 18:58 02.04.2020
5425 Clouds 21 1016 64 10000 6.7 40 18:39 02.04.2020
5426 Clouds 21 1016 64 10000 6.7 40 18:20 02.04.2020
5427 Clouds 21 1016 60 10000 6.7 50 17:56 02.04.2020
5428 Clouds 21 1016 56 10000 6.7 40 17:38 02.04.2020
5429 Clouds 21 1016 56 10000 6.7 40 17:18 02.04.2020
5430 Clouds 22 1016 56 10000 6.2 40 16:55 02.04.2020
5431 Clouds 21 1017 64 10000 6.7 40 16:37 02.04.2020
5432 Clouds 21 1017 64 10000 6.7 40 16:18 02.04.2020
5433 Clouds 21 1017 64 10000 6.7 50 15:44 02.04.2020
5434 Clouds 22 1017 60 10000 6.2 60 15:21 02.04.2020
5435 Clouds 22 1018 60 10000 6.7 60 14:59 02.04.2020
5436 Clouds 22 1018 60 10000 6.2 50 14:40 02.04.2020
5437 Clouds 22 1018 60 10000 6.2 50 14:19 02.04.2020
5438 Clouds 21 1018 68 10000 5.7 40 13:56 02.04.2020
5439 Clouds 21 1018 64 10000 5.1 30 13:38 02.04.2020
5440 Clouds 20 1018 64 10000 5.1 30 13:20 02.04.2020
5441 Clouds 21 1018 56 10000 4.6 40 12:55 02.04.2020
5442 Clouds 21 1018 60 10000 4.6 40 12:36 02.04.2020
5443 Clouds 21 1018 60 10000 4.6 40 12:18 02.04.2020
5444 Clouds 20 1018 64 10000 5.7 20 11:55 02.04.2020
5445 Clouds 20 1018 64 10000 5.7 20 11:55 02.04.2020
5446 Clouds 20 1017 64 10000 5.7 30 11:36 02.04.2020
5447 Clouds 20 1017 64 10000 5.7 30 11:18 02.04.2020
5448 Clouds 19 1017 68 10000 4.6 350 10:54 02.04.2020
5449 Clouds 19 1017 68 10000 4.1 350 10:36 02.04.2020
5450 Clouds 18 1017 68 10000 4.1 350 10:18 02.04.2020
5451 Clouds 18 1017 68 10000 3.6 350 09:42 02.04.2020
5452 Clouds 17 1016 72 10000 4.1 350 09:24 02.04.2020
5453 Clouds 16 1016 68 10000 4.6 350 08:58 02.04.2020
5454 Clouds 16 1016 68 10000 4.6 350 08:39 02.04.2020
5455 Clouds 17 1016 72 10000 5.1 350 08:19 02.04.2020
5456 Clouds 16 1015 72 10000 4.1 360 07:42 02.04.2020
5457 Clouds 16 1015 72 10000 5.1 350 07:19 02.04.2020
5458 Clouds 16 1016 72 10000 4.6 350 06:46 02.04.2020
5459 Clouds 17 1016 68 10000 5.1 350 06:20 02.04.2020
5460 Clouds 17 1016 72 10000 5.1 340 05:42 02.04.2020
5461 Clouds 17 1018 72 10000 4.1 350 02:59 02.04.2020
5462 Clouds 18 1018 72 10000 4.6 360 01:30 02.04.2020
5463 Clouds 18 1018 72 10000 6.2 10 00:42 02.04.2020
5464 Clouds 18 1018 68 10000 4.6 360 00:24 02.04.2020
5465 Clouds 19 1018 68 10000 4.6 360 23:41 01.04.2020
5466 Clouds 19 1018 68 10000 5.7 10 23:20 01.04.2020
5467 Clouds 19 1017 68 10000 6.2 20 22:58 01.04.2020
5468 Clouds 19 1017 68 10000 6.2 20 22:58 01.04.2020
5469 Clouds 19 1017 68 10000 6.2 20 22:39 01.04.2020
5470 Clouds 19 1017 68 10000 7.2 20 22:21 01.04.2020
5471 Clouds 19 1017 68 10000 7.2 20 22:21 01.04.2020
5472 Clouds 19 1016 68 10000 6.7 20 21:42 01.04.2020
5473 Clouds 19 1016 68 10000 6.7 20 21:42 01.04.2020
5474 Clouds 19 1016 68 10000 7.2 30 21:22 01.04.2020
5475 Clouds 19 1016 68 10000 7.2 30 21:22 01.04.2020
5476 Clouds 19 1016 68 10000 7.2 30 21:22 01.04.2020
5477 Clouds 19 1016 64 10000 6.7 30 20:57 01.04.2020
5478 Clouds 19 1016 64 10000 6.7 30 20:39 01.04.2020
5479 Clouds 19 1016 64 10000 6.7 30 20:21 01.04.2020
5480 Clouds 20 1016 60 10000 6.2 30 19:59 01.04.2020
5481 Clouds 20 1016 60 10000 6.2 30 19:41 01.04.2020
5482 Clouds 20 1016 64 10000 6.2 30 19:20 01.04.2020
5483 Clouds 21 1016 64 10000 5.7 40 18:44 01.04.2020
5484 Clouds 20 1016 64 10000 5.1 50 18:26 01.04.2020
5485 Clouds 21 1016 60 10000 4.6 60 17:58 01.04.2020
5486 Clouds 21 1016 60 10000 4.6 50 17:38 01.04.2020
5487 Clouds 21 1016 60 10000 4.6 50 17:20 01.04.2020
5488 Clouds 21 1016 64 10000 5.1 40 16:59 01.04.2020
5489 Clouds 21 1016 64 10000 5.1 40 16:39 01.04.2020
5490 Clouds 21 1017 64 10000 4.6 60 16:21 01.04.2020
5491 Clouds 21 1017 60 10000 4.6 60 15:57 01.04.2020
5492 Clouds 21 1017 64 10000 5.1 50 15:38 01.04.2020
5493 Clouds 21 1017 64 10000 5.1 50 15:19 01.04.2020
5494 Clouds 21 1017 60 10000 5.1 60 14:55 01.04.2020
5495 Clouds 21 1017 60 10000 5.1 60 14:55 01.04.2020
5496 Clouds 21 1017 64 10000 5.1 70 14:37 01.04.2020
5497 Clouds 21 1017 64 10000 5.1 70 14:19 01.04.2020
5498 Clouds 21 1018 64 10000 4.1 70 13:56 01.04.2020
5499 Clouds 21 1018 60 10000 4.6 60 13:37 01.04.2020
5500 Clouds 21 1018 60 10000 4.6 60 13:18 01.04.2020
5501 Clouds 20 1018 64 10000 4.6 60 12:42 01.04.2020
5502 Clouds 20 1018 68 10000 3.1 60 12:24 01.04.2020
5503 Clouds 20 1018 64 10000 2.6 60 11:59 01.04.2020
5504 Clouds 20 1017 68 10000 2.6 40 11:39 01.04.2020
5505 Clouds 19 1017 68 10000 2.6 40 11:20 01.04.2020
5506 Clouds 19 1017 72 10000 2.6 30 10:56 01.04.2020
5507 Clouds 19 1017 68 10000 2.6 330 10:37 01.04.2020
5508 Clouds 19 1017 68 10000 2.6 330 10:37 01.04.2020
5509 Clouds 18 1017 68 10000 2.6 330 10:18 01.04.2020
5510 Clouds 18 1016 77 10000 2.6 340 09:40 01.04.2020
5511 Clouds 18 1016 77 10000 2.6 340 09:40 01.04.2020
5512 Clouds 17 1016 77 10000 2.6 350 09:21 01.04.2020
5513 Clouds 17 1016 72 10000 4.1 340 08:59 01.04.2020
5514 Clouds 17 1016 72 10000 4.1 340 08:40 01.04.2020
5515 Clouds 17 1016 72 10000 3.6 350 08:18 01.04.2020
5516 Clouds 17 1016 77 10000 3.1 350 07:42 01.04.2020
5517 Clouds 17 1016 82 10000 3.1 350 07:19 01.04.2020
5518 Clouds 17 1016 82 10000 3.1 340 06:47 01.04.2020
5519 Clouds 18 1015 77 10000 3.1 360 06:21 01.04.2020
5520 Clouds 17 1016 77 10000 4.1 360 05:53 01.04.2020
5521 Clouds 18 1016 77 10000 3.6 350 04:29 01.04.2020
5522 Clouds 19 1016 77 10000 2.6 340 03:27 01.04.2020
5523 Clouds 19 1017 77 10000 2.6 10 02:46 01.04.2020
5524 Clouds 19 1017 77 10000 2.6 10 01:53 01.04.2020
5525 Clouds 19 1017 77 10000 1 340 01:29 01.04.2020
5526 Clouds 19 1017 77 10000 1 330 00:48 01.04.2020
5527 Clouds 19 1017 77 10000 3.76 347 00:25 01.04.2020
5528 Clouds 19 1016 77 10000 3.54 341 23:59 31.03.2020
5529 Clouds 19 1016 77 10000 3.54 341 23:41 31.03.2020
5530 Clouds 19 1016 77 10000 1 0 23:22 31.03.2020
5531 Clouds 19 1016 77 10000 1 0 23:22 31.03.2020
5532 Clouds 19 1015 77 10000 1.5 320 22:42 31.03.2020
5533 Clouds 19 1015 77 10000 1.5 320 22:22 31.03.2020
5534 Clouds 19 1015 77 10000 1.5 340 21:59 31.03.2020
5535 Clouds 19 1015 77 10000 3.1 10 21:40 31.03.2020
5536 Clouds 19 1015 77 10000 3.1 10 21:40 31.03.2020
5537 Clouds 19 1015 77 10000 3.1 10 21:21 31.03.2020
5538 Rain 19 1015 77 10000 1.5 90 20:58 31.03.2020
5539 Clouds 19 1015 72 10000 2.1 110 20:38 31.03.2020
5540 Clouds 19 1015 77 10000 2.6 130 20:19 31.03.2020
5541 Clouds 20 1015 77 10000 2.6 130 19:57 31.03.2020
5542 Clouds 20 1014 77 10000 3.1 140 19:39 31.03.2020
5543 Clouds 20 1014 77 10000 3.1 140 19:21 31.03.2020
5544 Clouds 20 1014 72 10000 3.1 140 18:46 31.03.2020
5545 Clouds 21 1014 77 10000 3.1 130 18:21 31.03.2020
5546 Clouds 20 1014 72 10000 3.1 150 17:58 31.03.2020
5547 Clouds 21 1015 72 10000 3.6 160 17:40 31.03.2020
5548 Clouds 20 1015 72 10000 3.6 160 17:21 31.03.2020
5549 Clouds 21 1015 72 10000 3.6 160 16:57 31.03.2020
5550 Clouds 20 1015 72 10000 3.1 160 16:37 31.03.2020
5551 Clouds 20 1015 72 10000 3.1 160 16:18 31.03.2020
5552 Clouds 20 1015 72 10000 3.6 160 15:56 31.03.2020
5553 Clouds 20 1015 77 10000 3.1 150 15:37 31.03.2020
5554 Clouds 20 1015 77 10000 3.1 150 15:18 31.03.2020
5555 Clouds 20 1015 72 10000 3.6 150 14:43 31.03.2020
5556 Clouds 20 1015 77 10000 3.1 150 14:24 31.03.2020
5557 Clouds 20 1015 72 10000 3.6 160 13:59 31.03.2020
5558 Clouds 20 1015 72 10000 3.6 160 13:41 31.03.2020
5559 Clouds 21 1014 68 10000 3.1 140 13:19 31.03.2020
5560 Clouds 21 1014 68 10000 3.1 140 13:19 31.03.2020
5561 Clouds 20 1014 72 10000 3.1 130 12:46 31.03.2020
5562 Clouds 20 1014 72 10000 3.1 120 12:21 31.03.2020
5563 Clouds 20 1014 72 10000 3.1 120 12:21 31.03.2020
5564 Clouds 20 1014 68 10000 2.6 110 11:59 31.03.2020
5565 Clouds 20 1014 64 10000 2.1 110 11:38 31.03.2020
5566 Clouds 20 1014 64 10000 2.1 110 11:19 31.03.2020
5567 Clouds 20 1014 64 10000 3.07 318 10:56 31.03.2020
5568 Clouds 18 1014 68 10000 1.5 260 10:38 31.03.2020
5569 Clouds 18 1014 68 10000 1.5 260 10:20 31.03.2020
5570 Clouds 17 1014 72 10000 2.6 260 09:45 31.03.2020
5571 Clouds 17 1013 72 10000 3.1 260 09:27 31.03.2020
5572 Clouds 16 1013 77 10000 2.6 250 08:59 31.03.2020
5573 Clouds 16 1013 77 10000 2.6 250 08:41 31.03.2020
5574 Clouds 17 1013 77 10000 1.5 280 08:21 31.03.2020
5575 Clouds 17 1013 77 10000 2.1 270 07:59 31.03.2020
5576 Clouds 17 1013 77 10000 2.1 270 07:41 31.03.2020
5577 Clouds 17 1013 77 10000 1.5 300 07:22 31.03.2020
5578 Clouds 17 1013 82 10000 1 320 06:55 31.03.2020
5579 Clouds 17 1013 87 10000 1.5 310 06:36 31.03.2020
5580 Clouds 17 1013 82 10000 1 250 05:42 31.03.2020
5581 Clouds 17 1013 77 10000 2.6 250 05:20 31.03.2020
5582 Clouds 17 1014 72 10000 2.1 320 02:40 31.03.2020
5583 Clouds 17 1014 72 10000 2.1 310 01:47 31.03.2020
5584 Clouds 17 1014 77 10000 2.1 310 01:19 31.03.2020
5585 Clouds 17 1014 82 10000 2.1 320 00:42 31.03.2020
5586 Clouds 18 1014 77 10000 2.1 340 00:19 31.03.2020
5587 Clouds 18 1014 77 10000 3.1 340 23:39 30.03.2020
5588 Clouds 18 1014 77 10000 3.1 340 23:20 30.03.2020
5589 Clouds 18 1014 72 10000 3.1 340 22:57 30.03.2020
5590 Clouds 18 1014 72 10000 3.1 340 22:38 30.03.2020
5591 Clouds 18 1014 72 10000 3.1 340 22:18 30.03.2020
5592 Clouds 19 1013 72 10000 3.6 360 21:57 30.03.2020
5593 Clouds 19 1013 68 10000 3.6 10 21:37 30.03.2020
5594 Clouds 19 1013 68 10000 3.6 10 21:19 30.03.2020
5595 Clouds 20 1013 64 10000 3.6 10 20:56 30.03.2020
5596 Clouds 20 1013 64 10000 2.1 60 20:37 30.03.2020
5597 Clouds 20 1013 64 10000 2.1 60 20:19 30.03.2020
5598 Clouds 20 1013 64 10000 2.6 110 19:41 30.03.2020
5599 Clouds 20 1013 64 10000 2.6 110 19:41 30.03.2020
5600 Clouds 21 1013 68 10000 5.1 150 19:22 30.03.2020
5601 Clouds 21 1013 68 10000 6.7 160 18:57 30.03.2020
5602 Clouds 21 1013 64 10000 6.7 160 18:39 30.03.2020
5603 Clouds 21 1013 64 10000 6.7 160 18:21 30.03.2020
5604 Clouds 21 1014 64 10000 7.2 160 17:57 30.03.2020
5605 Clouds 21 1014 64 10000 7.7 160 17:38 30.03.2020
5606 Clouds 20 1014 64 10000 7.7 160 17:19 30.03.2020
5607 Clouds 20 1015 64 10000 7.7 160 16:56 30.03.2020
5608 Clouds 20 1015 64 10000 7.7 160 16:56 30.03.2020
5609 Clouds 21 1015 56 10000 6.2 170 16:38 30.03.2020
5610 Clouds 21 1015 56 10000 6.2 170 16:20 30.03.2020
5611 Clouds 21 1015 60 10000 6.7 150 15:55 30.03.2020
5612 Clouds 20 1016 64 10000 6.2 150 15:36 30.03.2020
5613 Clouds 20 1016 64 10000 6.2 150 15:18 30.03.2020
5614 Clouds 20 1016 64 10000 4.6 140 14:54 30.03.2020
5615 Clouds 20 1016 68 10000 4.1 140 14:36 30.03.2020
5616 Clouds 20 1016 68 10000 4.1 140 14:18 30.03.2020
5617 Clouds 20 1016 68 10000 4.1 150 13:43 30.03.2020
5618 Clouds 20 1017 68 10000 4.1 150 13:21 30.03.2020
5619 Clouds 20 1017 68 10000 3.6 150 12:56 30.03.2020
5620 Clouds 19 1017 72 10000 3.1 150 12:37 30.03.2020
5621 Clouds 19 1017 72 10000 3.1 150 12:19 30.03.2020
5622 Clouds 19 1016 60 10000 2.1 180 11:56 30.03.2020
5623 Clouds 19 1016 63 10000 1 0 11:38 30.03.2020
5624 Clouds 19 1016 63 10000 1 0 11:20 30.03.2020
5625 Clouds 18 1016 68 10000 0.5 0 10:39 30.03.2020
5626 Clouds 18 1016 68 10000 1.5 260 10:21 30.03.2020
5627 Clouds 16 1016 77 10000 2.1 270 09:55 30.03.2020
5628 Clouds 16 1016 72 10000 3.1 270 09:37 30.03.2020
5629 Clouds 16 1016 72 10000 3.1 270 09:18 30.03.2020
5630 Clouds 15 1015 77 10000 2.6 270 08:40 30.03.2020
5631 Clouds 15 1015 77 10000 2.1 310 08:22 30.03.2020
5632 Clouds 15 1015 82 10000 2.6 320 07:49 30.03.2020
5633 Clouds 16 1015 77 10000 2.6 310 07:26 30.03.2020
5634 Clouds 16 1015 77 10000 2.6 290 06:52 30.03.2020
5635 Clouds 16 1016 77 10000 2.1 290 06:30 30.03.2020
5636 Clouds 16 1016 72 10000 2.6 300 05:47 30.03.2020
5637 Clouds 17 1016 72 10000 2.1 290 05:18 30.03.2020
5638 Clouds 17 1017 77 10000 2.1 290 04:21 30.03.2020
5639 Clouds 17 1018 72 10000 1.5 290 03:34 30.03.2020
5640 Clouds 17 1018 77 10000 1.5 280 02:37 30.03.2020
5641 Clouds 17 1018 77 10000 1.5 290 01:26 30.03.2020
5642 Clouds 17 1018 77 10000 1.84 341 00:33 30.03.2020
5643 Clouds 18 1018 72 10000 1.64 343 23:59 29.03.2020
5644 Clouds 18 1018 72 10000 1.64 343 23:41 29.03.2020
5645 Clouds 18 1018 72 10000 0.5 0 23:22 29.03.2020
5646 Clouds 18 1018 72 10000 0.5 0 22:56 29.03.2020
5647 Clouds 18 1018 72 10000 1 0 22:37 29.03.2020
5648 Clouds 18 1018 72 10000 1 0 22:18 29.03.2020
5649 Clouds 18 1018 72 10000 0.5 0 21:40 29.03.2020
5650 Clouds 19 1018 68 10000 1 0 21:21 29.03.2020
5651 Clouds 19 1018 68 10000 1.5 120 20:56 29.03.2020
5652 Clouds 19 1018 68 10000 1.5 130 20:37 29.03.2020
5653 Clouds 19 1018 68 10000 1.5 130 20:19 29.03.2020
5654 Clouds 20 1018 68 10000 2.1 140 19:58 29.03.2020
5655 Clouds 20 1018 68 10000 2.1 140 19:40 29.03.2020
5656 Clouds 20 1018 68 10000 2.1 140 19:22 29.03.2020
5657 Clouds 20 1018 68 10000 2.1 140 18:57 29.03.2020
5658 Clouds 20 1018 68 10000 2.1 150 18:38 29.03.2020
5659 Clouds 20 1018 68 10000 2.1 150 18:19 29.03.2020
5660 Clouds 20 1019 68 10000 2.1 140 17:56 29.03.2020
5661 Clouds 20 1019 68 10000 1.5 150 17:38 29.03.2020
5662 Clouds 19 1019 68 10000 1.5 150 17:19 29.03.2020
5663 Clouds 19 1019 63 10000 1.5 130 16:56 29.03.2020
5664 Clouds 19 1020 63 10000 1.5 130 16:38 29.03.2020
5665 Clouds 19 1020 63 10000 1.5 130 16:19 29.03.2020
5666 Clouds 19 1020 68 10000 2.1 130 15:41 29.03.2020
5667 Clouds 19 1020 68 10000 2.1 130 15:41 29.03.2020
5668 Clouds 19 1020 68 10000 2.6 120 15:23 29.03.2020
5669 Clouds 19 1020 68 10000 2.6 90 14:58 29.03.2020
5670 Clouds 19 1020 68 10000 2.6 90 14:40 29.03.2020
5671 Clouds 19 1020 64 10000 3.1 100 14:20 29.03.2020
5672 Clouds 19 1020 60 10000 3.1 110 13:58 29.03.2020
5673 Clouds 20 1020 64 10000 3.1 90 13:39 29.03.2020
5674 Clouds 20 1020 64 10000 3.1 90 13:20 29.03.2020
5675 Clouds 20 1020 64 10000 3.1 60 12:56 29.03.2020
5676 Clouds 19 1020 68 10000 3.1 80 12:37 29.03.2020
5677 Clouds 19 1020 68 10000 3.1 80 12:37 29.03.2020
5678 Clouds 19 1020 68 10000 3.1 80 12:19 29.03.2020
5679 Clouds 19 1020 63 10000 3.1 50 11:55 29.03.2020
5680 Clouds 19 1020 63 10000 2.1 20 11:37 29.03.2020
5681 Clouds 19 1020 63 10000 2.1 20 11:18 29.03.2020
5682 Clouds 19 1020 63 10000 2.1 20 11:18 29.03.2020
5683 Clouds 18 1019 67 10000 2.6 300 10:38 29.03.2020
5684 Clouds 17 1019 67 10000 2.6 300 10:19 29.03.2020
5685 Clouds 16 1019 72 10000 3.1 300 09:41 29.03.2020
5686 Clouds 15 1019 77 10000 3.1 300 09:22 29.03.2020
5687 Clouds 15 1019 77 10000 3.1 310 08:54 29.03.2020
5688 Clouds 15 1019 72 10000 3.6 310 08:36 29.03.2020
5689 Clouds 15 1019 72 10000 3.6 310 08:18 29.03.2020
5690 Clouds 15 1018 77 10000 3.6 310 07:42 29.03.2020
5691 Clouds 15 1018 77 10000 3.1 310 07:21 29.03.2020
5692 Clouds 15 1019 77 10000 3.1 320 05:50 29.03.2020
5693 Clouds 15 1019 72 10000 3.1 330 04:29 29.03.2020
5694 Clouds 16 1020 72 10000 3.1 330 03:31 29.03.2020
5695 Clouds 16 1020 67 10000 3.1 340 01:51 29.03.2020
5696 Clouds 16 1020 72 10000 3.1 340 01:23 29.03.2020
5697 Clouds 17 1020 63 10000 3.1 340 00:58 29.03.2020
5698 Clouds 17 1020 67 10000 3.1 340 00:33 29.03.2020
5699 Clouds 17 1020 67 10000 3.6 340 23:57 28.03.2020
5700 Clouds 17 1020 72 10000 4.1 350 23:39 28.03.2020
5701 Clouds 17 1020 72 10000 4.1 350 23:19 28.03.2020
5702 Clouds 17 1020 72 10000 4.1 350 22:41 28.03.2020
5703 Clouds 18 1019 68 10000 4.1 340 22:22 28.03.2020
5704 Clouds 18 1019 68 10000 3.6 360 21:55 28.03.2020
5705 Clouds 18 1019 72 10000 5.1 10 21:37 28.03.2020
5706 Clouds 18 1019 72 10000 5.1 10 21:18 28.03.2020
5707 Clouds 18 1018 72 10000 6.2 20 20:42 28.03.2020
5708 Clouds 19 1018 68 10000 6.7 30 20:24 28.03.2020
5709 Clouds 19 1018 68 10000 6.7 30 19:58 28.03.2020
5710 Clouds 19 1018 64 10000 7.2 30 19:39 28.03.2020
5711 Clouds 19 1018 64 10000 7.2 30 19:21 28.03.2020
5712 Clouds 20 1017 60 10000 7.2 30 18:58 28.03.2020
5713 Clouds 20 1017 64 10000 7.2 30 18:39 28.03.2020
5714 Clouds 20 1017 64 10000 7.2 30 18:19 28.03.2020
5715 Clouds 20 1017 60 10000 8.2 30 17:39 28.03.2020
5716 Clouds 20 1017 60 10000 8.2 30 17:20 28.03.2020
5717 Clouds 20 1017 56 10000 8.2 30 16:43 28.03.2020
5718 Clouds 20 1017 60 10000 9.3 30 16:20 28.03.2020
5719 Clouds 20 1017 60 10000 9.3 30 16:20 28.03.2020
5720 Clouds 20 1017 60 10000 9.3 30 16:20 28.03.2020
5721 Clouds 19 1017 64 10000 9.3 30 15:59 28.03.2020
5722 Clouds 20 1017 64 10000 9.3 30 15:39 28.03.2020
5723 Clouds 20 1017 56 10000 9.8 30 15:19 28.03.2020
5724 Clouds 20 1017 60 10000 9.8 30 14:55 28.03.2020
5725 Clouds 20 1017 60 10000 9.8 30 14:37 28.03.2020
5726 Clouds 19 1017 60 10000 9.8 30 14:18 28.03.2020
5727 Clouds 18 1017 64 10000 10.8 30 13:40 28.03.2020
5728 Clouds 20 1017 64 10000 10.8 30 13:21 28.03.2020
5729 Clouds 18 1018 52 10000 7.7 10 12:40 28.03.2020
5730 Clouds 20 1018 52 10000 7.7 10 12:22 28.03.2020
5731 Clouds 19 1018 56 10000 6.7 10 11:43 28.03.2020
5732 Clouds 17 1018 52 10000 6.7 360 11:23 28.03.2020
5733 Clouds 16 1017 55 10000 7.2 350 10:57 28.03.2020
5734 Clouds 16 1017 63 10000 5.7 360 10:38 28.03.2020
5735 Clouds 16 1017 63 10000 5.7 360 10:18 28.03.2020
5736 Clouds 17 1017 72 10000 5.1 10 09:42 28.03.2020
5737 Clouds 16 1017 72 10000 3.1 360 09:23 28.03.2020
5738 Clouds 15 1016 72 10000 4.1 360 08:47 28.03.2020
5739 Clouds 15 1016 72 10000 4.6 10 08:28 28.03.2020
5740 Clouds 15 1016 72 10000 5.1 20 07:59 28.03.2020
5741 Clouds 15 1016 72 10000 5.1 20 07:41 28.03.2020
5742 Clouds 15 1015 63 10000 3.1 10 06:58 28.03.2020
5743 Clouds 15 1015 72 10000 5.7 10 06:34 28.03.2020
5744 Clouds 15 1015 72 10000 3.6 20 05:41 28.03.2020
5745 Clouds 15 1014 72 10000 3.6 320 05:21 28.03.2020
5746 Clouds 15 1014 82 10000 5.1 360 04:40 28.03.2020
5747 Clouds 15 1015 87 10000 2.1 280 03:21 28.03.2020
5748 Rain 16 1016 87 9000 4.1 350 01:49 28.03.2020
5749 Rain 16 1016 87 9000 4.1 40 01:24 28.03.2020
5750 Clouds 16 1016 87 10000 4.1 10 00:55 28.03.2020
5751 Rain 16 1016 87 10000 4.1 360 00:35 28.03.2020
5752 Clouds 15 1016 88 10000 1.5 320 23:54 27.03.2020
5753 Clouds 17 1015 88 10000 0.5 0 23:36 27.03.2020
5754 Clouds 17 1015 88 10000 0.5 0 23:18 27.03.2020
5755 Clouds 17 1015 82 10000 3.71 326 22:54 27.03.2020
5756 Clouds 17 1015 88 10000 1.5 60 22:36 27.03.2020
5757 Clouds 17 1015 88 10000 1.5 60 22:18 27.03.2020
5758 Clouds 17 1015 88 10000 1 0 21:42 27.03.2020
5759 Rain 17 1014 88 10000 1 0 21:23 27.03.2020
5760 Clouds 17 1014 82 10000 3.71 326 20:58 27.03.2020
5761 Clouds 16 1014 82 10000 3.75 324 20:39 27.03.2020
5762 Clouds 17 1014 82 10000 1 0 20:19 27.03.2020
5763 Clouds 17 1014 82 10000 1 0 20:19 27.03.2020
5764 Clouds 16 1014 77 10000 1.5 130 19:56 27.03.2020
5765 Clouds 18 1014 77 10000 2.1 120 19:38 27.03.2020
5766 Clouds 16 1014 77 10000 2.1 120 19:19 27.03.2020
5767 Clouds 17 1014 82 10000 2.1 110 18:43 27.03.2020
5768 Rain 17 1014 82 10000 2.1 110 18:23 27.03.2020
5769 Rain 17 1014 77 10000 3.1 160 17:55 27.03.2020
5770 Clouds 19 1014 68 10000 3.1 130 17:36 27.03.2020
5771 Clouds 18 1014 68 10000 3.1 130 17:18 27.03.2020
5772 Clouds 17 1014 64 10000 2.6 120 16:43 27.03.2020
5773 Clouds 17 1014 68 10000 3.1 110 16:24 27.03.2020
5774 Clouds 17 1014 64 10000 2.6 120 15:44 27.03.2020
5775 Clouds 18 1013 61 0 1.65 336 15:26 27.03.2020
5776 Clouds 18 1013 61 0 1.65 336 14:56 27.03.2020
5777 Clouds 18 1013 61 0 1.65 336 14:36 27.03.2020
5778 Clouds 19 1014 58 0 3.32 339 14:18 27.03.2020
5779 Clouds 19 1014 58 0 3.32 339 13:42 27.03.2020
5780 Clouds 19 1014 58 0 3.32 339 13:21 27.03.2020
5781 Clouds 19 1014 57 0 3.47 338 12:58 27.03.2020
5782 Clouds 19 1014 57 0 3.47 338 12:39 27.03.2020
5783 Clouds 19 1014 57 0 3.47 338 12:19 27.03.2020
5784 Clouds 19 1014 57 0 3.47 338 11:42 27.03.2020
5785 Clouds 19 1014 57 0 3.47 338 11:24 27.03.2020
5786 Clouds 17 1014 67 0 3.88 324 10:55 27.03.2020
5787 Clouds 17 1014 67 0 3.88 324 10:37 27.03.2020
5788 Clouds 17 1014 67 0 3.88 324 10:19 27.03.2020
5789 Clouds 17 1014 67 0 3.88 324 09:57 27.03.2020
5790 Clouds 17 1014 67 0 3.88 324 09:38 27.03.2020
5791 Clouds 17 1014 67 0 3.88 324 09:19 27.03.2020
5792 Clouds 17 1014 67 0 3.88 324 08:56 27.03.2020
5793 Clouds 17 1014 67 0 3.88 324 08:38 27.03.2020
5794 Clouds 15 1013 73 0 4 323 08:20 27.03.2020
5795 Clouds 15 1013 73 0 4 323 07:52 27.03.2020
5796 Clouds 15 1013 73 0 4 323 07:25 27.03.2020
5797 Clouds 15 1013 73 0 4 323 06:53 27.03.2020
5798 Clouds 15 1013 73 0 4 323 06:35 27.03.2020
5799 Clouds 15 1013 73 0 3.11 329 04:59 27.03.2020
5800 Clouds 15 1013 73 0 3.11 329 02:36 27.03.2020
5801 Clouds 16 1015 70 0 2.88 348 01:23 27.03.2020
5802 Clouds 15 1015 70 0 3.26 345 00:51 27.03.2020
5803 Clouds 15 1015 70 0 3.26 345 00:31 27.03.2020
5804 Clouds 15 1015 70 0 3.26 345 23:44 26.03.2020
5805 Clouds 15 1015 70 0 3.26 345 23:23 26.03.2020
5806 Clouds 16 1015 68 0 3.18 358 22:59 26.03.2020
5807 Clouds 16 1015 68 0 3.18 358 22:38 26.03.2020
5808 Clouds 16 1015 68 0 3.18 358 22:20 26.03.2020
5809 Clouds 16 1015 68 0 3.18 358 22:20 26.03.2020
5810 Clouds 16 1015 68 0 3.18 358 21:57 26.03.2020
5811 Clouds 16 1015 68 0 3.18 358 21:38 26.03.2020
5812 Clouds 16 1015 68 0 3.18 358 21:20 26.03.2020
5813 Clouds 16 1015 68 0 3.18 358 20:57 26.03.2020
5814 Clouds 16 1015 68 0 3.18 358 20:38 26.03.2020
5815 Clouds 17 1013 64 0 2.58 23 20:20 26.03.2020
5816 Clouds 17 1013 64 0 2.58 23 19:54 26.03.2020
5817 Clouds 17 1013 64 0 2.58 23 19:36 26.03.2020
5818 Clouds 17 1013 64 0 2.58 23 19:18 26.03.2020
5819 Clouds 17 1013 64 0 2.58 23 18:41 26.03.2020
5820 Clouds 17 1013 64 0 2.58 23 18:23 26.03.2020
5821 Clouds 17 1013 64 0 2.58 23 17:55 26.03.2020
5822 Clouds 17 1013 64 0 2.58 23 17:37 26.03.2020
5823 Clouds 17 1014 63 0 2.84 41 17:18 26.03.2020
5824 Clouds 17 1014 63 0 2.84 41 16:40 26.03.2020
5825 Clouds 17 1014 63 0 2.84 41 16:21 26.03.2020
5826 Clouds 17 1014 63 0 2.84 41 15:57 26.03.2020
5827 Clouds 17 1014 63 0 2.84 41 15:57 26.03.2020
5828 Clouds 17 1014 63 0 2.84 41 15:39 26.03.2020
5829 Clouds 17 1014 63 0 2.84 41 15:20 26.03.2020
5830 Clouds 17 1014 63 0 2.84 41 14:55 26.03.2020
5831 Clouds 17 1014 63 0 2.84 41 14:36 26.03.2020
5832 Clouds 18 1016 59 0 2.59 28 14:18 26.03.2020
5833 Clouds 18 1016 59 0 2.59 28 13:40 26.03.2020
5834 Clouds 18 1016 59 0 2.59 28 13:22 26.03.2020
5835 Rain 18 1016 58 0 2.81 19 12:54 26.03.2020
5836 Rain 18 1016 58 0 2.81 19 12:36 26.03.2020
5837 Rain 18 1016 58 0 2.81 19 12:18 26.03.2020
5838 Rain 18 1016 58 0 2.81 19 11:43 26.03.2020
5839 Clouds 16 1015 65 0 2.25 25 11:19 26.03.2020
5840 Clouds 16 1015 65 0 2.25 25 10:42 26.03.2020
5841 Clouds 16 1015 65 0 2.25 25 10:42 26.03.2020
5842 Clouds 16 1015 65 0 2.25 25 10:20 26.03.2020
5843 Clouds 16 1015 65 0 2.25 25 10:20 26.03.2020
5844 Clouds 16 1015 65 0 2.25 25 09:55 26.03.2020
5845 Clouds 16 1015 65 0 2.25 25 09:55 26.03.2020
5846 Clouds 16 1015 65 0 2.25 25 09:37 26.03.2020
5847 Clouds 16 1015 65 0 2.25 25 09:19 26.03.2020
5848 Clouds 16 1015 65 0 2.25 25 08:42 26.03.2020
5849 Clouds 16 1015 65 0 2.25 25 08:24 26.03.2020
5850 Rain 16 1014 72 0 2.89 29 07:57 26.03.2020
5851 Rain 16 1014 72 0 2.89 29 07:38 26.03.2020
5852 Rain 16 1014 72 0 2.89 29 07:19 26.03.2020
5853 Rain 16 1014 72 0 2.89 29 06:33 26.03.2020
5854 Rain 16 1014 72 0 2.89 29 05:48 26.03.2020
5855 Rain 16 1015 73 0 3.29 34 03:46 26.03.2020
5856 Rain 16 1015 73 0 3.29 34 02:58 26.03.2020
5857 Clouds 16 1016 75 0 3.33 40 01:51 26.03.2020
5858 Clouds 16 1016 74 0 3.36 40 01:18 26.03.2020
5859 Clouds 16 1016 74 0 3.36 40 00:32 26.03.2020
5860 Clouds 16 1016 74 0 3.36 40 23:44 25.03.2020
5861 Clouds 16 1016 74 0 3.36 40 23:26 25.03.2020
5862 Clouds 17 1017 69 0 3.76 27 22:54 25.03.2020
5863 Clouds 17 1017 69 0 3.76 27 22:36 25.03.2020
5864 Clouds 17 1017 69 0 3.76 27 22:18 25.03.2020
5865 Clouds 17 1017 69 0 3.76 27 21:42 25.03.2020
5866 Clouds 17 1017 69 0 3.76 27 21:24 25.03.2020
5867 Clouds 17 1017 69 0 3.76 27 20:58 25.03.2020
5868 Clouds 17 1017 69 0 3.76 27 20:38 25.03.2020
5869 Clouds 17 1016 66 0 3.45 24 20:19 25.03.2020
5870 Clouds 17 1016 66 0 3.78 13 19:55 25.03.2020
5871 Clouds 17 1016 66 0 3.45 24 19:36 25.03.2020
5872 Clouds 17 1016 66 0 3.78 13 19:18 25.03.2020
5873 Clouds 17 1016 66 0 3.45 24 18:42 25.03.2020
5874 Clouds 17 1016 66 0 3.45 24 18:24 25.03.2020
5875 Clouds 17 1016 66 0 3.78 13 17:58 25.03.2020
5876 Clouds 17 1016 66 0 3.45 24 17:58 25.03.2020
5877 Clouds 17 1016 66 0 3.45 24 17:40 25.03.2020
5878 Clouds 17 1016 66 0 3.45 24 17:21 25.03.2020
5879 Clouds 17 1017 64 0 2.82 21 16:56 25.03.2020
5880 Clouds 17 1017 66 0 2.77 33 16:38 25.03.2020
5881 Clouds 17 1017 66 0 2.77 33 16:20 25.03.2020
5882 Clouds 17 1017 66 0 2.77 33 15:42 25.03.2020
5883 Clouds 17 1017 64 0 2.82 21 15:20 25.03.2020
5884 Clouds 17 1017 66 0 2.77 33 14:56 25.03.2020
5885 Clouds 17 1017 66 0 2.77 33 14:37 25.03.2020
5886 Clouds 18 1018 60 0 2.79 33 14:19 25.03.2020
5887 Clouds 18 1018 60 0 2.63 22 13:44 25.03.2020
5888 Clouds 18 1018 60 0 2.63 22 13:22 25.03.2020
5889 Clouds 18 1018 60 0 2.63 22 12:39 25.03.2020
5890 Clouds 18 1018 60 0 2.63 22 12:20 25.03.2020
5891 Clouds 18 1018 60 0 2.63 22 11:57 25.03.2020
5892 Clouds 18 1018 60 0 2.63 22 11:39 25.03.2020
5893 Clouds 18 1018 60 0 2.63 22 11:20 25.03.2020
5894 Clouds 17 1018 63 0 3.41 3 10:57 25.03.2020
5895 Clouds 17 1018 63 0 3.41 3 10:39 25.03.2020
5896 Clouds 17 1018 63 0 3.41 3 10:18 25.03.2020
5897 Clouds 17 1018 63 0 3.41 3 09:43 25.03.2020
5898 Clouds 17 1018 63 0 3.41 3 09:25 25.03.2020
5899 Clouds 17 1018 63 0 3.41 3 08:58 25.03.2020
5900 Clouds 17 1018 63 0 3.41 3 08:39 25.03.2020
5901 Clear 16 1016 71 0 3.69 351 08:20 25.03.2020
5902 Clear 16 1015 72 0 3.72 357 07:44 25.03.2020
5903 Clear 16 1015 72 0 3.72 357 07:24 25.03.2020
5904 Clear 16 1015 72 0 3.72 357 06:57 25.03.2020
5905 Clear 16 1015 72 0 3.72 357 06:37 25.03.2020
5906 Clear 16 1015 72 0 3.72 357 06:19 25.03.2020
5907 Clear 16 1015 72 0 3.72 357 05:42 25.03.2020
5908 Clear 16 1016 73 0 4.26 2 04:41 25.03.2020
5909 Clear 16 1016 73 0 4.26 2 03:53 25.03.2020
5910 Clear 16 1016 73 0 4.26 2 03:29 25.03.2020
5911 Rain 17 1017 72 0 4.93 1 01:31 25.03.2020
5912 Clouds 16 1017 72 0 5.07 0 00:49 25.03.2020
5913 Clouds 16 1017 72 0 5.07 0 00:26 25.03.2020
5914 Clouds 16 1017 72 0 5.07 0 23:53 24.03.2020
5915 Clouds 16 1017 72 0 5.07 0 23:28 24.03.2020
5916 Rain 17 1017 72 0 5.42 344 22:58 24.03.2020
5917 Rain 17 1017 72 0 5.42 344 22:38 24.03.2020
5918 Rain 17 1017 72 0 5.42 344 22:38 24.03.2020
5919 Rain 17 1017 72 0 5.42 344 22:19 24.03.2020
5920 Rain 17 1017 72 0 5.42 344 22:19 24.03.2020
5921 Rain 17 1017 72 0 5.42 344 21:57 24.03.2020
5922 Rain 17 1017 72 0 5.42 344 21:57 24.03.2020
5923 Rain 17 1017 72 0 5.42 344 21:38 24.03.2020
5924 Rain 17 1017 72 0 5.42 344 21:18 24.03.2020
5925 Rain 17 1017 72 0 5.42 344 20:57 24.03.2020
5926 Rain 17 1017 72 0 5.42 344 20:39 24.03.2020
5927 Rain 18 1016 64 0 6.42 336 20:21 24.03.2020
5928 Clear 18 1016 62 0 7.08 328 19:45 24.03.2020
5929 Clear 18 1016 62 0 7.08 328 19:19 24.03.2020
5930 Clear 18 1016 62 0 7.08 328 18:56 24.03.2020
5931 Clear 18 1016 62 0 7.08 328 18:56 24.03.2020
5932 Clear 18 1016 62 0 7.08 328 18:37 24.03.2020
5933 Clear 18 1016 62 0 7.08 328 18:37 24.03.2020
5934 Clear 18 1016 62 0 7.08 328 18:19 24.03.2020
5935 Clear 18 1016 62 0 7.08 328 17:42 24.03.2020
5936 Clear 18 1016 62 0 7.08 328 17:42 24.03.2020
5937 Clear 18 1016 62 0 7.08 328 17:24 24.03.2020
5938 Clouds 22 1015 43 10000 10.8 350 16:59 24.03.2020
5939 Clouds 22 1015 38 10000 11.3 360 16:41 24.03.2020
5940 Clouds 22 1015 38 10000 11.3 360 16:23 24.03.2020
5941 Clouds 22 1015 38 10000 11.3 360 16:23 24.03.2020
5942 Clouds 22 1016 40 10000 10.3 350 15:59 24.03.2020
5943 Clouds 22 1016 43 10000 9.8 340 15:39 24.03.2020
5944 Clouds 22 1016 43 10000 9.8 340 15:21 24.03.2020
5945 Clouds 22 1016 43 10000 9.8 340 15:21 24.03.2020
5946 Clouds 22 1016 43 10000 9.8 340 15:21 24.03.2020
5947 Clouds 22 1016 38 10000 10.3 350 14:43 24.03.2020
5948 Clouds 19 1016 56 0 6.76 328 14:21 24.03.2020
5949 Rain 19 1017 61 0 6.93 330 13:55 24.03.2020
5950 Rain 19 1017 61 0 6.93 330 13:36 24.03.2020
5951 Rain 19 1017 62 0 7.22 330 13:18 24.03.2020
5952 Rain 19 1017 62 0 7.22 330 12:41 24.03.2020
5953 Rain 19 1017 62 0 7.22 330 12:41 24.03.2020
5954 Rain 19 1017 62 0 7.22 330 12:22 24.03.2020
5955 Rain 19 1017 62 0 7.22 330 11:41 24.03.2020
5956 Clouds 20 1017 56 10000 8.2 360 11:20 24.03.2020
5957 Clouds 19 1017 68 10000 5.1 350 10:55 24.03.2020
5958 Clouds 19 1017 68 10000 5.7 360 10:36 24.03.2020
5959 Clouds 18 1017 68 10000 5.7 360 10:18 24.03.2020
5960 Clouds 17 1016 72 10000 4.6 340 09:43 24.03.2020
5961 Clouds 17 1016 67 10000 4.6 340 09:24 24.03.2020
5962 Clouds 16 1015 72 10000 4.6 330 08:40 24.03.2020
5963 Clouds 16 1015 72 10000 4.6 350 08:21 24.03.2020
5964 Clouds 16 1015 77 10000 3.1 340 07:52 24.03.2020
5965 Clouds 16 1015 77 10000 4.1 350 07:25 24.03.2020
5966 Clouds 17 1015 82 10000 4.6 350 06:59 24.03.2020
5967 Clouds 17 1015 82 10000 3.6 360 06:34 24.03.2020
5968 Clouds 17 1015 72 10000 3.6 350 05:30 24.03.2020
5969 Clouds 17 1014 72 10000 4.6 340 04:49 24.03.2020
5970 Clouds 17 1015 67 10000 4.6 350 03:19 24.03.2020
5971 Clouds 15 1015 72 10000 8.2 340 01:59 24.03.2020
5972 Clouds 15 1015 72 10000 3.6 360 00:52 24.03.2020
5973 Clouds 17 1015 67 10000 4.1 350 00:26 24.03.2020
5974 Clouds 17 1015 67 10000 5.1 350 23:50 23.03.2020
5975 Clouds 17 1015 67 10000 6.7 340 23:29 23.03.2020
5976 Clouds 17 1014 72 10000 5.1 350 22:59 23.03.2020
5977 Clouds 17 1014 72 10000 6.2 360 22:40 23.03.2020
5978 Clouds 17 1014 72 10000 6.2 360 22:22 23.03.2020
5979 Rain 17 1014 72 10000 7.7 350 21:44 23.03.2020
5980 Clouds 18 1013 63 10000 7.2 360 21:21 23.03.2020
5981 Clouds 18 1013 59 10000 9.3 350 20:59 23.03.2020
5982 Clouds 18 1013 59 10000 9.3 350 20:41 23.03.2020
5983 Clouds 18 1012 63 10000 10.8 350 20:23 23.03.2020
5984 Clouds 19 1012 55 10000 11.3 350 19:55 23.03.2020
5985 Clouds 19 1012 55 10000 10.3 350 19:37 23.03.2020
5986 Clouds 19 1012 55 10000 10.3 350 19:18 23.03.2020
5987 Clouds 19 1012 59 10000 11.3 360 18:43 23.03.2020
5988 Clouds 19 1012 55 10000 10.8 360 18:24 23.03.2020
5989 Clouds 20 1012 59 10000 11.8 20 17:57 23.03.2020
5990 Clouds 20 1012 59 10000 11.8 20 17:57 23.03.2020
5991 Clouds 21 1012 52 10000 10.8 10 17:38 23.03.2020
5992 Clouds 20 1012 52 10000 10.8 10 17:19 23.03.2020
5993 Clouds 19 1011 59 10000 13.4 10 16:43 23.03.2020
5994 Clouds 20 1011 60 10000 11.8 10 16:25 23.03.2020
5995 Clouds 20 1011 56 10000 12.9 10 15:44 23.03.2020
5996 Clouds 20 1011 56 10000 11.8 360 15:21 23.03.2020
5997 Clouds 20 1011 56 10000 12.9 360 14:57 23.03.2020
5998 Clouds 19 1011 63 10000 12.9 360 14:37 23.03.2020
5999 Clouds 19 1011 63 10000 12.9 360 14:18 23.03.2020
6000 Clouds 19 1011 63 10000 12.9 360 14:18 23.03.2020
6001 Clouds 18 1012 77 10000 10.3 340 13:41 23.03.2020
6002 Clouds 18 1012 77 10000 10.3 340 13:41 23.03.2020
6003 Rain 19 1012 63 10000 12.3 360 13:22 23.03.2020
6004 Clouds 19 1012 68 10000 10.3 350 12:58 23.03.2020
6005 Clouds 19 1012 68 10000 10.3 350 12:40 23.03.2020
6006 Rain 18 1012 72 10000 9.8 340 12:22 23.03.2020
6007 Clouds 18 1011 67 10000 12.9 350 11:42 23.03.2020
6008 Clouds 17 1011 67 10000 12.9 350 11:22 23.03.2020
6009 Rain 17 1010 72 10000 9.8 350 10:58 23.03.2020
6010 Clouds 17 1010 72 10000 8.2 350 10:40 23.03.2020
6011 Clouds 15 1010 72 10000 8.2 350 10:21 23.03.2020
6012 Rain 16 1010 77 10000 8.7 340 09:58 23.03.2020
6013 Rain 16 1010 77 10000 8.7 340 09:40 23.03.2020
6014 Clouds 16 1009 72 10000 10.3 340 09:19 23.03.2020
6015 Clouds 15 1009 76 10000 8.7 330 08:38 23.03.2020
6016 Clouds 15 1009 76 10000 8.7 330 08:19 23.03.2020
6017 Clouds 15 1008 67 10000 6.7 320 07:50 23.03.2020
6018 Clouds 15 1008 67 10000 7.7 320 07:32 23.03.2020
6019 Clouds 16 1008 55 10000 5.7 350 06:54 23.03.2020
6020 Clouds 16 1008 51 10000 4.6 350 06:32 23.03.2020
6021 Clouds 16 1009 54 10000 3.1 360 05:42 23.03.2020
6022 Clouds 16 1010 59 10000 6.7 340 03:45 23.03.2020
6023 Clouds 17 1010 67 10000 4.1 350 02:43 23.03.2020
6024 Clouds 16 1012 72 10000 2.6 260 01:39 23.03.2020
6025 Clouds 17 1011 67 10000 2.1 250 00:44 23.03.2020
6026 Clouds 17 1012 67 10000 1.5 290 23:54 22.03.2020
6027 Clouds 17 1012 55 10000 2.1 350 23:36 22.03.2020
6028 Clouds 17 1012 55 10000 2.1 350 23:18 22.03.2020
6029 Clouds 18 1012 52 10000 3.6 340 22:40 22.03.2020
6030 Clouds 18 1012 52 10000 3.6 340 22:19 22.03.2020
6031 Clouds 17 1012 59 10000 5.1 360 21:40 22.03.2020
6032 Clouds 17 1012 67 10000 7.2 330 21:21 22.03.2020
6033 Clouds 16 1012 77 10000 7.2 10 20:58 22.03.2020
6034 Clouds 16 1012 77 10000 7.2 10 20:39 22.03.2020
6035 Clouds 17 1012 77 10000 7.2 360 20:21 22.03.2020
6036 Clouds 18 1012 68 10000 2.1 30 19:55 22.03.2020
6037 Clouds 18 1012 72 10000 2.1 120 19:37 22.03.2020
6038 Clouds 19 1012 72 10000 2.1 120 19:19 22.03.2020
6039 Clouds 17 1012 72 10000 3.6 150 18:56 22.03.2020
6040 Clouds 17 1012 68 10000 5.7 160 18:38 22.03.2020
6041 Clouds 17 1012 68 10000 5.7 160 18:18 22.03.2020
6042 Clouds 19 1013 63 10000 5.1 160 17:56 22.03.2020
6043 Clouds 20 1013 60 10000 6.2 170 17:37 22.03.2020
6044 Clouds 18 1013 60 10000 6.2 170 17:19 22.03.2020
6045 Clouds 18 1014 63 10000 4.6 130 16:55 22.03.2020
6046 Clouds 19 1014 56 10000 4.6 140 16:36 22.03.2020
6047 Clouds 18 1014 56 10000 4.6 140 16:18 22.03.2020
6048 Clouds 19 1015 56 10000 5.1 150 15:39 22.03.2020
6049 Clouds 18 1015 56 10000 5.1 160 14:55 22.03.2020
6050 Clouds 20 1016 56 10000 5.1 160 14:37 22.03.2020
6051 Clouds 18 1016 56 10000 5.1 160 14:18 22.03.2020
6052 Clouds 17 1016 56 10000 5.7 170 13:41 22.03.2020
6053 Clouds 19 1016 52 10000 6.2 160 13:19 22.03.2020
6054 Clouds 19 1017 52 10000 5.7 350 12:47 22.03.2020
6055 Clouds 18 1017 63 10000 8.2 30 12:23 22.03.2020
6056 Clouds 19 1017 59 10000 5.1 10 11:59 22.03.2020
6057 Clouds 19 1018 55 10000 6.2 350 11:41 22.03.2020
6058 Clouds 19 1018 55 10000 6.2 350 11:23 22.03.2020
6059 Clouds 18 1017 55 10000 7.7 360 10:54 22.03.2020
6060 Clouds 18 1017 55 10000 5.1 360 10:36 22.03.2020
6061 Clouds 18 1017 55 10000 5.1 360 10:18 22.03.2020
6062 Clouds 18 1017 52 10000 3.1 340 09:41 22.03.2020
6063 Clouds 13 1017 59 10000 4.1 10 09:19 22.03.2020
6064 Clouds 14 1017 63 10000 2.6 330 08:43 22.03.2020
6065 Clouds 14 1017 59 10000 5.1 340 08:24 22.03.2020
6066 Clouds 14 1017 59 10000 5.1 350 07:51 22.03.2020
6067 Clouds 13 1017 67 10000 3.1 360 07:23 22.03.2020
6068 Clouds 16 1017 67 10000 4.6 350 06:35 22.03.2020
6069 Clouds 14 1017 59 10000 4.6 350 05:31 22.03.2020
6070 Clouds 14 1019 55 10000 3.6 330 03:30 22.03.2020
6071 Clouds 14 1020 77 10000 5.7 350 01:27 22.03.2020
6072 Clouds 14 1020 67 10000 4.6 350 00:47 22.03.2020
6073 Clouds 14 1020 67 10000 6.2 360 00:25 22.03.2020
6074 Clouds 14 1020 77 10000 5.1 350 23:42 21.03.2020
6075 Rain 14 1020 67 10000 6.2 360 23:19 21.03.2020
6076 Clouds 17 1020 59 10000 6.2 340 22:55 21.03.2020
6077 Clouds 17 1020 63 10000 7.7 330 22:36 21.03.2020
6078 Clouds 15 1020 63 10000 7.7 330 22:18 21.03.2020
6079 Clouds 15 1020 63 10000 6.7 330 21:41 21.03.2020
6080 Clouds 17 1019 59 10000 7.2 340 21:22 21.03.2020
6081 Clouds 18 1019 52 10000 7.2 360 20:56 21.03.2020
6082 Clouds 18 1019 48 10000 6.7 360 20:38 21.03.2020
6083 Clouds 18 1019 48 10000 6.7 360 20:19 21.03.2020
6084 Clouds 18 1019 48 10000 8.2 10 19:43 21.03.2020
6085 Clouds 18 1019 48 10000 9.3 10 19:24 21.03.2020
6086 Clouds 16 1019 48 10000 10.8 20 18:55 21.03.2020
6087 Clouds 19 1019 48 10000 10.8 20 18:37 21.03.2020
6088 Clouds 17 1019 48 10000 10.8 20 18:19 21.03.2020
6089 Clouds 18 1019 49 10000 11.3 20 17:55 21.03.2020
6090 Clouds 17 1019 52 10000 11.8 30 17:37 21.03.2020
6091 Clouds 18 1019 52 10000 11.8 30 17:18 21.03.2020
6092 Clouds 18 1020 49 10000 12.3 30 16:40 21.03.2020
6093 Clouds 18 1020 49 10000 12.3 30 16:19 21.03.2020
6094 Clouds 20 1020 52 10000 12.3 30 15:55 21.03.2020
6095 Clouds 18 1020 56 10000 11.8 30 15:36 21.03.2020
6096 Clouds 18 1020 56 10000 11.8 30 15:18 21.03.2020
6097 Clouds 17 1021 52 10000 11.8 30 14:54 21.03.2020
6098 Clouds 17 1022 52 10000 11.8 30 14:36 21.03.2020
6099 Clouds 17 1022 52 10000 11.8 30 14:36 21.03.2020
6100 Clouds 17 1022 52 10000 11.8 30 14:18 21.03.2020
6101 Clouds 20 1022 45 10000 9.8 20 13:54 21.03.2020
6102 Clouds 19 1022 48 10000 9.8 10 13:36 21.03.2020
6103 Clouds 19 1022 48 10000 9.8 10 13:18 21.03.2020
6104 Clouds 18 1022 55 10000 7.2 330 12:39 21.03.2020
6105 Clouds 18 1022 55 10000 7.2 330 12:19 21.03.2020
6106 Clouds 18 1022 55 10000 6.7 340 11:57 21.03.2020
6107 Clouds 17 1022 59 10000 6.7 330 11:38 21.03.2020
6108 Clouds 17 1022 59 10000 6.7 330 11:19 21.03.2020
6109 Clouds 17 1022 59 10000 6.2 350 10:57 21.03.2020
6110 Clouds 17 1022 55 10000 6.2 10 10:38 21.03.2020
6111 Clouds 17 1022 55 10000 6.2 10 10:19 21.03.2020
6112 Clouds 17 1022 51 10000 7.2 20 09:56 21.03.2020
6113 Clouds 17 1021 55 10000 6.7 10 09:37 21.03.2020
6114 Clouds 17 1021 55 10000 6.7 10 09:19 21.03.2020
6115 Clouds 17 1021 55 10000 7.2 10 08:43 21.03.2020
6116 Clouds 17 1021 55 10000 6.7 10 08:24 21.03.2020
6117 Clouds 17 1020 55 10000 6.2 360 07:47 21.03.2020
6118 Clouds 17 1020 55 10000 5.1 350 07:28 21.03.2020
6119 Clouds 17 1020 59 10000 4.6 340 06:48 21.03.2020
6120 Clouds 17 1020 59 10000 4.6 340 06:28 21.03.2020
6121 Clouds 17 1020 63 10000 5.7 340 05:48 21.03.2020
6122 Clouds 16 1020 67 10000 4.6 340 04:47 21.03.2020
6123 Clouds 17 1021 67 10000 7.7 10 02:55 21.03.2020
6124 Clouds 17 1021 77 10000 7.2 350 02:33 21.03.2020
6125 Clouds 17 1021 82 10000 8.2 20 01:33 21.03.2020
6126 Clouds 18 1021 77 10000 7.7 10 00:56 21.03.2020
6127 Clouds 18 1021 72 10000 8.7 10 00:37 21.03.2020
6128 Clouds 15 1021 82 10000 9.3 20 23:58 20.03.2020
6129 Rain 15 1021 82 10000 8.7 20 23:40 20.03.2020
6130 Rain 17 1021 82 10000 8.7 20 23:18 20.03.2020
6131 Clouds 17 1021 82 10000 8.2 10 22:41 20.03.2020
6132 Clouds 17 1021 82 10000 8.2 10 22:22 20.03.2020
6133 Rain 17 1021 82 8000 5.7 350 21:56 20.03.2020
6134 Clouds 15 1020 72 10000 7.7 10 21:38 20.03.2020
6135 Clouds 16 1020 72 10000 7.7 10 21:18 20.03.2020
6136 Clouds 18 1020 72 10000 7.7 350 20:57 20.03.2020
6137 Clouds 16 1020 68 10000 7.7 350 20:38 20.03.2020
6138 Clouds 19 1020 68 10000 7.7 350 20:18 20.03.2020
6139 Clouds 17 1020 63 10000 6.7 340 19:45 20.03.2020
6140 Clouds 17 1019 60 10000 8.2 10 19:19 20.03.2020
6141 Clouds 17 1019 60 10000 8.2 10 19:19 20.03.2020
6142 Clouds 18 1019 52 10000 8.2 360 18:55 20.03.2020
6143 Clouds 21 1019 52 10000 9.3 360 18:37 20.03.2020
6144 Clouds 18 1019 52 10000 9.3 360 18:19 20.03.2020
6145 Clouds 18 1019 52 10000 9.3 360 18:19 20.03.2020
6146 Clouds 19 1019 46 10000 10.8 10 17:39 20.03.2020
6147 Clouds 21 1019 46 10000 10.8 10 17:21 20.03.2020
6148 Clouds 22 1019 43 10000 10.8 360 16:58 20.03.2020
6149 Clouds 22 1019 43 10000 10.8 360 16:58 20.03.2020
6150 Clouds 22 1019 49 10000 10.3 10 16:40 20.03.2020
6151 Clouds 21 1019 49 10000 10.3 10 16:19 20.03.2020
6152 Clouds 19 1019 53 10000 10.8 20 15:43 20.03.2020
6153 Clouds 21 1020 53 10000 11.3 20 15:22 20.03.2020
6154 Clouds 21 1020 53 10000 12.3 20 14:56 20.03.2020
6155 Clouds 21 1020 53 10000 10.3 10 14:37 20.03.2020
6156 Clouds 19 1020 53 10000 10.3 10 14:19 20.03.2020
6157 Clouds 21 1020 53 10000 8.2 360 13:45 20.03.2020
6158 Clouds 21 1020 52 10000 9.8 10 13:19 20.03.2020
6159 Clouds 21 1020 52 10000 9.3 10 12:41 20.03.2020
6160 Clouds 20 1020 56 10000 8.7 10 12:23 20.03.2020
6161 Clouds 17 1020 68 10000 7.7 350 11:59 20.03.2020
6162 Clouds 20 1020 60 10000 8.7 350 11:38 20.03.2020
6163 Clouds 17 1020 60 10000 8.7 350 11:19 20.03.2020
6164 Clouds 20 1020 60 10000 8.2 350 10:42 20.03.2020
6165 Clouds 19 1019 63 10000 7.2 350 10:21 20.03.2020
6166 Clouds 19 1019 68 10000 6.7 350 10:00 20.03.2020
6167 Clouds 18 1019 68 10000 6.7 350 09:41 20.03.2020
6168 Rain 18 1018 72 10000 6.2 360 09:19 20.03.2020
6169 Clouds 15 1018 68 10000 6.2 350 08:43 20.03.2020
6170 Clouds 17 1018 68 10000 6.2 350 08:22 20.03.2020
6171 Clouds 15 1017 68 10000 7.7 360 07:57 20.03.2020
6172 Clouds 15 1017 72 10000 7.2 360 07:38 20.03.2020
6173 Clouds 15 1017 72 10000 7.2 360 07:19 20.03.2020
6174 Clouds 17 1017 72 10000 7.7 360 06:42 20.03.2020
6175 Clouds 15 1017 72 10000 7.7 360 04:54 20.03.2020
6176 Clouds 17 1017 72 10000 6.2 350 03:50 20.03.2020
6177 Clouds 18 1018 72 10000 7.2 350 02:27 20.03.2020
6178 Clouds 18 1019 72 10000 6.7 350 01:47 20.03.2020
6179 Clouds 18 1019 72 10000 7.7 360 00:33 20.03.2020
6180 Clouds 18 1019 77 10000 8.2 360 23:53 19.03.2020
6181 Clouds 18 1019 77 10000 7.2 360 23:34 19.03.2020
6182 Clouds 19 1019 72 10000 7.2 360 22:58 19.03.2020
6183 Clouds 19 1019 68 10000 7.7 360 22:38 19.03.2020
6184 Clouds 19 1019 68 10000 7.7 360 22:20 19.03.2020
6185 Clouds 16 1019 72 10000 8.7 360 21:56 19.03.2020
6186 Clouds 16 1018 72 10000 7.7 360 21:37 19.03.2020
6187 Clouds 19 1018 72 10000 7.7 360 21:18 19.03.2020
6188 Clouds 19 1018 68 10000 8.7 360 20:42 19.03.2020
6189 Clouds 19 1018 68 10000 9.8 360 20:23 19.03.2020
6190 Clouds 20 1018 64 10000 9.8 360 19:57 19.03.2020
6191 Clouds 20 1017 64 10000 10.8 360 19:38 19.03.2020
6192 Clouds 20 1017 64 10000 10.8 360 19:20 19.03.2020
6193 Clouds 21 1017 60 10000 9.8 350 18:56 19.03.2020
6194 Clouds 22 1017 53 10000 9.8 350 18:38 19.03.2020
6195 Clouds 22 1017 53 10000 9.8 350 18:38 19.03.2020
6196 Clouds 22 1017 53 10000 9.8 350 18:19 19.03.2020
6197 Clouds 22 1017 53 10000 10.3 350 17:42 19.03.2020
6198 Clouds 22 1017 53 10000 10.3 350 17:19 19.03.2020
6199 Clouds 22 1017 49 10000 11.8 350 16:45 19.03.2020
6200 Clouds 22 1017 49 10000 11.8 350 16:45 19.03.2020
6201 Clouds 23 1017 43 10000 11.8 10 16:25 19.03.2020
6202 Clouds 22 1017 38 10000 11.3 360 15:55 19.03.2020
6203 Clouds 22 1017 35 10000 11.8 350 15:36 19.03.2020
6204 Clouds 22 1017 35 10000 11.8 350 15:18 19.03.2020
6205 Clouds 22 1017 38 10000 12.3 10 14:43 19.03.2020
6206 Clouds 22 1018 46 10000 12.3 10 14:21 19.03.2020
6207 Clouds 22 1018 46 10000 13.9 10 13:41 19.03.2020
6208 Clouds 21 1018 46 10000 13.4 10 13:19 19.03.2020
6209 Clouds 21 1018 49 10000 12.9 360 12:57 19.03.2020
6210 Clouds 22 1018 56 10000 12.3 360 12:39 19.03.2020
6211 Clouds 21 1018 56 10000 12.3 360 12:21 19.03.2020
6212 Clouds 21 1017 68 10000 10.8 340 11:42 19.03.2020
6213 Clouds 21 1017 68 10000 10.8 340 11:23 19.03.2020
6214 Clouds 20 1017 64 10000 11.3 350 10:57 19.03.2020
6215 Clouds 20 1016 72 10000 11.8 340 10:38 19.03.2020
6216 Clouds 19 1016 72 10000 11.8 340 10:19 19.03.2020
6217 Clouds 19 1016 68 10000 10.8 330 09:45 19.03.2020
6218 Clouds 19 1016 63 10000 10.3 340 09:27 19.03.2020
6219 Clouds 18 1016 68 10000 9.3 340 08:58 19.03.2020
6220 Clouds 17 1016 68 10000 9.3 340 08:40 19.03.2020
6221 Rain 17 1016 63 10000 8.2 340 08:19 19.03.2020
6222 Clouds 17 1016 63 10000 7.2 330 07:44 19.03.2020
6223 Clouds 17 1016 63 10000 9.8 330 07:23 19.03.2020
6224 Clouds 17 1016 59 10000 8.7 330 06:32 19.03.2020
6225 Clouds 17 1016 59 10000 8.2 330 05:46 19.03.2020
6226 Clouds 17 1016 67 10000 7.2 350 04:51 19.03.2020
6227 Clouds 17 1016 68 10000 8.2 350 04:24 19.03.2020
6228 Clouds 18 1016 63 10000 8.7 330 02:34 19.03.2020
6229 Clouds 18 1017 55 10000 8.7 320 00:55 19.03.2020
6230 Clouds 18 1017 55 10000 5.7 330 00:20 19.03.2020
6231 Clouds 18 1017 55 10000 5.7 330 23:45 18.03.2020
6232 Clouds 18 1018 55 10000 8.7 340 23:26 18.03.2020
6233 Clouds 18 1018 59 10000 7.7 350 22:43 18.03.2020
6234 Clouds 18 1017 63 10000 7.2 350 22:24 18.03.2020
6235 Clouds 18 1017 68 10000 7.7 360 21:59 18.03.2020
6236 Clouds 18 1017 68 10000 7.7 360 21:40 18.03.2020
6237 Rain 18 1017 68 10000 7.7 350 21:21 18.03.2020
6238 Rain 18 1017 68 10000 7.7 350 21:21 18.03.2020
6239 Clouds 18 1017 63 10000 8.2 340 20:56 18.03.2020
6240 Clouds 18 1017 63 10000 8.7 350 20:38 18.03.2020
6241 Clouds 18 1017 63 10000 8.7 350 20:19 18.03.2020
6242 Clouds 19 1016 55 10000 9.3 340 19:42 18.03.2020
6243 Clouds 19 1016 52 10000 10.3 340 19:21 18.03.2020
6244 Clouds 19 1017 55 10000 10.8 350 18:59 18.03.2020
6245 Clouds 19 1017 55 10000 10.3 340 18:40 18.03.2020
6246 Clouds 19 1017 55 10000 10.3 340 18:19 18.03.2020
6247 Clouds 20 1016 49 10000 10.8 340 17:57 18.03.2020
6248 Clouds 20 1016 43 10000 9.3 340 17:39 18.03.2020
6249 Clouds 21 1016 43 10000 9.3 340 17:19 18.03.2020
6250 Clouds 21 1017 43 10000 9.3 330 16:43 18.03.2020
6251 Clouds 21 1017 46 10000 10.3 340 16:22 18.03.2020
6252 Clouds 21 1017 40 10000 9.3 350 15:59 18.03.2020
6253 Clouds 21 1017 40 10000 7.2 350 15:39 18.03.2020
6254 Clouds 21 1017 40 10000 7.2 350 15:20 18.03.2020
6255 Clouds 21 1018 37 10000 8.7 350 14:44 18.03.2020
6256 Clouds 21 1018 40 10000 8.7 360 14:21 18.03.2020
6257 Clouds 20 1018 45 10000 9.3 340 13:42 18.03.2020
6258 Clouds 21 1019 40 10000 8.7 350 13:20 18.03.2020
6259 Clouds 20 1019 43 10000 9.8 340 12:58 18.03.2020
6260 Clouds 19 1019 52 10000 9.3 330 12:39 18.03.2020
6261 Clouds 19 1019 52 10000 9.3 330 12:19 18.03.2020
6262 Clouds 19 1019 48 10000 9.8 350 11:39 18.03.2020
6263 Clouds 19 1019 48 10000 9.8 350 11:19 18.03.2020
6264 Clouds 18 1019 48 10000 6.7 350 10:58 18.03.2020
6265 Clouds 18 1019 59 10000 7.7 350 10:38 18.03.2020
6266 Clouds 17 1019 59 10000 7.7 350 10:19 18.03.2020
6267 Clouds 17 1018 59 10000 7.2 330 09:43 18.03.2020
6268 Clouds 17 1018 59 10000 7.2 330 09:24 18.03.2020
6269 Clouds 16 1018 63 10000 5.7 350 08:56 18.03.2020
6270 Clouds 15 1018 67 10000 6.7 350 08:38 18.03.2020
6271 Clouds 15 1018 67 10000 6.7 350 08:38 18.03.2020
6272 Clouds 16 1018 67 10000 6.7 350 08:20 18.03.2020
6273 Clouds 15 1018 67 10000 6.7 360 07:44 18.03.2020
6274 Clouds 16 1018 67 10000 6.7 340 07:25 18.03.2020
6275 Clouds 15 1018 72 10000 7.2 330 06:44 18.03.2020
6276 Clouds 15 1018 77 10000 8.2 340 06:18 18.03.2020
6277 Clouds 13 1018 67 10000 6.7 360 05:34 18.03.2020
6278 Clouds 15 1019 72 10000 8.2 330 04:24 18.03.2020
6279 Clouds 16 1019 77 10000 7.7 360 02:42 18.03.2020
6280 Rain 16 1020 77 10000 9.3 340 01:47 18.03.2020
6281 Clouds 16 1020 77 10000 7.7 350 01:21 18.03.2020
6282 Rain 14 1020 72 10000 7.7 340 00:23 18.03.2020
6283 Clouds 15 1020 63 10000 7.2 360 23:47 17.03.2020
6284 Clouds 17 1020 59 10000 10.3 350 23:26 17.03.2020
6285 Clouds 17 1020 72 10000 10.8 10 22:48 17.03.2020
6286 Rain 14 1020 72 10000 9.3 10 22:29 17.03.2020
6287 Clouds 17 1020 72 10000 8.7 360 21:59 17.03.2020
6288 Clouds 17 1020 72 10000 8.7 360 21:39 17.03.2020
6289 Clouds 17 1019 63 10000 7.7 350 21:20 17.03.2020
6290 Clouds 17 1019 67 10000 12.3 10 20:39 17.03.2020
6291 Clouds 17 1019 67 10000 12.3 10 20:39 17.03.2020
6292 Clouds 17 1019 67 10000 12.3 10 20:21 17.03.2020
6293 Clouds 18 1019 55 10000 9.8 360 19:56 17.03.2020
6294 Clouds 18 1019 48 10000 9.8 360 19:38 17.03.2020
6295 Clouds 18 1019 48 10000 9.8 360 19:18 17.03.2020
6296 Clouds 18 1019 52 10000 10.8 10 18:55 17.03.2020
6297 Clouds 19 1019 55 10000 11.8 10 18:37 17.03.2020
6298 Clouds 16 1019 55 10000 11.8 10 18:19 17.03.2020
6299 Clouds 19 1019 52 10000 10.8 360 17:40 17.03.2020
6300 Clouds 19 1019 52 10000 10.8 360 17:21 17.03.2020
6301 Clouds 18 1019 59 10000 10.3 360 16:45 17.03.2020
6302 Clouds 19 1019 55 10000 11.3 20 16:20 17.03.2020
6303 Clouds 19 1019 55 10000 12.3 20 15:58 17.03.2020
6304 Clouds 19 1020 59 10000 9.8 350 15:39 17.03.2020
6305 Clouds 19 1020 59 10000 9.8 350 15:18 17.03.2020
6306 Clouds 18 1020 72 10000 13.4 10 14:41 17.03.2020
6307 Clouds 19 1020 63 10000 11.8 30 14:21 17.03.2020
6308 Clouds 18 1021 77 10000 12.9 20 13:43 17.03.2020
6309 Clouds 19 1021 59 10000 11.8 360 13:25 17.03.2020
6310 Clouds 19 1021 63 10000 8.2 10 12:54 17.03.2020
6311 Clouds 17 1021 77 10000 9.3 10 12:36 17.03.2020
6312 Clouds 17 1021 77 10000 9.3 10 12:18 17.03.2020
6313 Clouds 18 1021 55 10000 9.8 10 11:42 17.03.2020
6314 Clouds 17 1021 72 10000 8.2 340 11:24 17.03.2020
6315 Clouds 18 1021 59 10000 10.3 20 10:57 17.03.2020
6316 Clouds 18 1021 59 10000 10.3 20 10:57 17.03.2020
6317 Clouds 17 1021 67 10000 7.7 340 10:37 17.03.2020
6318 Clouds 17 1021 67 10000 7.7 340 10:18 17.03.2020
6319 Rain 17 1021 67 10000 8.2 330 09:46 17.03.2020
6320 Clouds 17 1020 67 10000 8.2 340 09:20 17.03.2020
6321 Rain 16 1020 72 10000 7.2 340 08:59 17.03.2020
6322 Rain 16 1020 72 10000 7.2 340 08:41 17.03.2020
6323 Rain 16 1020 63 10000 7.2 350 08:20 17.03.2020
6324 Clouds 15 1020 72 10000 7.2 350 07:49 17.03.2020
6325 Clouds 15 1020 77 10000 9.3 340 07:21 17.03.2020
6326 Rain 15 1019 82 10000 7.2 350 06:51 17.03.2020
6327 Clouds 16 1019 72 10000 8.2 340 06:25 17.03.2020
6328 Rain 16 1019 77 8000 7.7 360 05:26 17.03.2020
6329 Clouds 17 1020 55 10000 11.3 10 03:34 17.03.2020
6330 Clouds 17 1020 55 10000 11.8 10 02:31 17.03.2020
6331 Clouds 17 1020 63 10000 14.4 20 01:38 17.03.2020
6332 Clouds 17 1020 63 10000 12.3 10 00:53 17.03.2020
6333 Clouds 17 1021 67 10000 11.3 10 00:18 17.03.2020
6334 Rain 15 1021 72 7000 10.8 360 23:35 16.03.2020
6335 Clouds 18 1020 68 10000 11.8 10 22:58 16.03.2020
6336 Clouds 18 1020 72 10000 12.9 10 22:38 16.03.2020
6337 Clouds 18 1020 72 10000 12.9 10 22:19 16.03.2020
6338 Clouds 16 1020 72 10000 11.3 10 21:44 16.03.2020
6339 Clouds 15 1019 72 10000 9.8 360 21:25 16.03.2020
6340 Clouds 15 1019 72 10000 13.4 10 20:58 16.03.2020
6341 Rain 15 1019 72 10000 11.3 10 20:39 16.03.2020
6342 Rain 18 1019 72 10000 11.3 10 20:20 16.03.2020
6343 Clouds 19 1019 72 10000 12.9 10 19:46 16.03.2020
6344 Rain 20 1019 72 10000 12.9 10 19:23 16.03.2020
6345 Clouds 20 1019 68 10000 12.9 10 18:57 16.03.2020
6346 Clouds 20 1019 68 10000 12.3 20 18:39 16.03.2020
6347 Clouds 19 1019 68 10000 12.3 20 18:19 16.03.2020
6348 Clouds 20 1019 60 10000 10.8 10 17:46 16.03.2020
6349 Clouds 21 1019 52 10000 11.8 20 17:25 16.03.2020
6350 Clouds 22 1019 49 10000 11.8 10 16:54 16.03.2020
6351 Clouds 22 1019 46 10000 11.8 360 16:36 16.03.2020
6352 Clouds 22 1019 46 10000 11.8 360 16:18 16.03.2020
6353 Clouds 22 1019 46 10000 13.4 10 15:42 16.03.2020
6354 Clouds 22 1019 43 10000 12.9 10 15:22 16.03.2020
6355 Clouds 22 1020 46 10000 12.3 10 14:45 16.03.2020
6356 Clouds 22 1020 40 10000 12.3 10 14:20 16.03.2020
6357 Clouds 21 1021 43 10000 12.9 10 13:45 16.03.2020
6358 Clouds 21 1021 46 10000 13.4 360 13:26 16.03.2020
6359 Clouds 21 1021 49 10000 13.9 20 12:56 16.03.2020
6360 Clouds 21 1021 43 10000 14.4 20 12:37 16.03.2020
6361 Clouds 20 1021 43 10000 14.4 20 12:19 16.03.2020
6362 Clouds 20 1021 45 10000 13.9 20 11:42 16.03.2020
6363 Clouds 19 1021 56 10000 13.9 20 11:20 16.03.2020
6364 Clouds 19 1021 56 10000 12.3 10 10:43 16.03.2020
6365 Clouds 18 1020 68 10000 12.9 10 10:24 16.03.2020
6366 Clouds 18 1020 68 10000 11.3 360 09:47 16.03.2020
6367 Clouds 18 1020 68 10000 9.3 360 09:28 16.03.2020
6368 Clouds 17 1019 59 10000 9.8 360 08:59 16.03.2020
6369 Clouds 17 1019 68 10000 11.8 10 08:26 16.03.2020
6370 Clouds 16 1019 72 10000 7.2 360 07:56 16.03.2020
6371 Clouds 17 1019 63 10000 9.8 360 07:38 16.03.2020
6372 Clouds 17 1019 63 10000 9.8 360 07:18 16.03.2020
6373 Clouds 17 1019 68 10000 9.8 10 06:27 16.03.2020
6374 Clouds 17 1019 72 10000 7.7 360 05:54 16.03.2020
6375 Clouds 18 1019 77 10000 7.2 10 03:31 16.03.2020
6376 Clouds 18 1020 68 10000 7.7 350 01:20 16.03.2020
6377 Clouds 18 1020 68 10000 8.2 360 00:43 16.03.2020
6378 Clouds 18 1020 72 10000 9.8 10 23:49 15.03.2020
6379 Clouds 18 1019 68 10000 8.7 10 23:22 15.03.2020
6380 Clouds 18 1019 68 10000 7.2 360 22:58 15.03.2020
6381 Clouds 18 1019 63 10000 7.2 350 22:37 15.03.2020
6382 Clouds 18 1019 63 10000 7.2 350 22:19 15.03.2020
6383 Clouds 18 1019 63 10000 8.2 360 21:39 15.03.2020
6384 Clouds 18 1019 63 10000 8.2 360 21:19 15.03.2020
6385 Clouds 18 1019 63 10000 8.7 360 20:44 15.03.2020
6386 Clouds 18 1018 63 10000 10.8 10 20:22 15.03.2020
6387 Clouds 19 1018 72 10000 11.3 10 19:59 15.03.2020
6388 Clouds 19 1018 72 10000 11.3 10 19:40 15.03.2020
6389 Clouds 20 1018 60 10000 9.3 360 19:22 15.03.2020
6390 Clouds 19 1018 63 10000 11.3 10 18:58 15.03.2020
6391 Rain 19 1018 68 10000 10.3 10 18:39 15.03.2020
6392 Rain 19 1018 68 10000 10.3 10 18:21 15.03.2020
6393 Rain 19 1018 82 9000 7.2 360 17:54 15.03.2020
6394 Clouds 21 1018 52 10000 10.3 20 17:36 15.03.2020
6395 Clouds 21 1018 52 10000 10.3 20 17:18 15.03.2020
6396 Clouds 21 1018 46 10000 9.8 10 16:42 15.03.2020
6397 Clouds 21 1018 46 10000 9.3 20 16:23 15.03.2020
6398 Clouds 21 1018 46 10000 9.3 10 15:57 15.03.2020
6399 Clouds 21 1019 46 10000 10.3 30 15:38 15.03.2020
6400 Clouds 21 1019 46 10000 10.3 30 15:19 15.03.2020
6401 Clouds 20 1019 52 10000 9.8 360 14:43 15.03.2020
6402 Clouds 20 1019 60 10000 9.3 20 14:24 15.03.2020
6403 Rain 20 1020 60 10000 9.3 10 13:56 15.03.2020
6404 Clouds 20 1020 52 10000 8.2 10 13:38 15.03.2020
6405 Clouds 20 1020 52 10000 8.2 10 13:38 15.03.2020
6406 Clouds 20 1020 52 10000 8.2 10 13:19 15.03.2020
6407 Clouds 20 1020 49 10000 9.3 10 12:41 15.03.2020
6408 Clouds 19 1020 52 10000 9.8 10 12:23 15.03.2020
6409 Clouds 19 1020 59 10000 9.8 20 11:45 15.03.2020
6410 Clouds 19 1020 63 10000 7.2 360 11:26 15.03.2020
6411 Clouds 18 1020 67 10000 7.7 10 10:59 15.03.2020
6412 Clouds 18 1019 68 10000 8.7 10 10:41 15.03.2020
6413 Clouds 18 1019 68 10000 8.7 10 10:22 15.03.2020
6414 Clouds 18 1019 68 10000 8.7 10 10:22 15.03.2020
6415 Clouds 18 1019 72 10000 7.7 360 09:59 15.03.2020
6416 Clouds 17 1019 67 10000 5.7 350 09:39 15.03.2020
6417 Clouds 17 1019 67 10000 5.7 350 09:20 15.03.2020
6418 Clouds 17 1018 67 10000 5.7 350 08:41 15.03.2020
6419 Clouds 17 1018 72 10000 7.2 360 08:20 15.03.2020
6420 Clouds 17 1018 67 10000 5.1 350 07:50 15.03.2020
6421 Clouds 16 1018 67 10000 6.2 350 07:23 15.03.2020
6422 Clouds 17 1017 67 10000 6.7 340 06:44 15.03.2020
6423 Clouds 17 1017 72 10000 7.2 340 05:49 15.03.2020
6424 Clouds 17 1017 67 10000 7.7 340 04:57 15.03.2020
6425 Clouds 17 1017 72 10000 5.7 350 04:39 15.03.2020
6426 Clouds 17 1017 72 10000 5.7 350 04:20 15.03.2020
6427 Clouds 17 1018 72 10000 5.7 360 03:24 15.03.2020
6428 Clouds 17 1019 67 10000 5.1 360 02:28 15.03.2020
6429 Clouds 17 1019 63 10000 7.7 350 00:59 15.03.2020
6430 Clouds 17 1019 63 10000 7.7 350 00:41 15.03.2020
6431 Clouds 17 1019 63 10000 7.7 350 00:19 15.03.2020
6432 Clouds 18 1019 63 10000 7.7 350 23:40 14.03.2020
6433 Clouds 18 1019 63 10000 7.7 350 23:20 14.03.2020
6434 Clouds 18 1019 63 10000 7.2 350 22:56 14.03.2020
6435 Clouds 18 1019 63 10000 6.7 350 22:38 14.03.2020
6436 Clouds 18 1019 63 10000 6.7 350 22:19 14.03.2020
6437 Clouds 18 1019 59 10000 6.7 360 21:55 14.03.2020
6438 Clouds 18 1019 59 10000 6.7 360 21:55 14.03.2020
6439 Clouds 18 1018 59 10000 6.7 350 21:36 14.03.2020
6440 Clouds 18 1018 59 10000 6.7 350 21:36 14.03.2020
6441 Clouds 18 1018 59 10000 6.7 350 21:18 14.03.2020
6442 Clouds 18 1018 59 10000 6.7 350 21:18 14.03.2020
6443 Clouds 18 1018 59 10000 8.2 350 20:56 14.03.2020
6444 Clouds 18 1018 59 10000 8.2 350 20:56 14.03.2020
6445 Clouds 19 1018 55 10000 8.7 350 20:38 14.03.2020
6446 Clouds 19 1018 55 10000 8.7 350 20:18 14.03.2020
6447 Clouds 19 1018 55 10000 9.8 10 19:41 14.03.2020
6448 Clouds 19 1017 55 10000 10.3 20 19:21 14.03.2020
6449 Clouds 20 1018 56 10000 10.3 30 18:40 14.03.2020
6450 Clouds 20 1018 56 10000 10.3 30 18:21 14.03.2020
6451 Clouds 20 1018 52 10000 10.8 30 17:43 14.03.2020
6452 Clouds 20 1018 52 10000 10.8 30 17:24 14.03.2020
6453 Clouds 21 1018 49 10000 10.8 20 16:59 14.03.2020
6454 Clouds 21 1018 49 10000 10.3 20 16:39 14.03.2020
6455 Clouds 21 1018 49 10000 10.3 20 16:20 14.03.2020
6456 Clouds 20 1018 52 10000 9.8 20 15:48 14.03.2020
6457 Clouds 20 1019 56 10000 9.8 20 15:25 14.03.2020
6458 Clouds 21 1019 56 10000 10.3 20 14:44 14.03.2020
6459 Clouds 21 1019 53 10000 10.3 30 14:22 14.03.2020
6460 Clouds 21 1020 56 10000 9.8 30 13:57 14.03.2020
6461 Clouds 21 1020 60 10000 9.3 30 13:39 14.03.2020
6462 Clouds 21 1020 60 10000 9.3 30 13:20 14.03.2020
6463 Clouds 21 1020 60 10000 9.8 20 12:44 14.03.2020
6464 Clouds 20 1020 64 10000 9.3 20 12:26 14.03.2020
6465 Clouds 20 1020 64 10000 8.7 30 11:46 14.03.2020
6466 Clouds 20 1020 64 10000 8.7 20 11:26 14.03.2020
6467 Clouds 20 1019 64 10000 9.3 10 10:57 14.03.2020
6468 Clouds 19 1019 63 10000 8.2 360 10:39 14.03.2020
6469 Clouds 19 1019 63 10000 8.2 360 10:20 14.03.2020
6470 Clouds 18 1019 68 10000 8.7 360 09:41 14.03.2020
6471 Clouds 18 1019 68 10000 7.7 360 09:22 14.03.2020
6472 Clouds 17 1019 63 10000 9.3 10 08:47 14.03.2020
6473 Clouds 17 1019 68 10000 9.3 10 08:28 14.03.2020
6474 Clouds 17 1019 72 10000 8.7 10 07:51 14.03.2020
6475 Clouds 17 1019 72 10000 8.2 10 07:23 14.03.2020
6476 Clouds 17 1018 72 10000 7.7 10 06:59 14.03.2020
6477 Clouds 17 1018 72 10000 7.7 360 06:39 14.03.2020
6478 Clouds 17 1019 72 10000 9.3 10 05:19 14.03.2020
6479 Clouds 18 1019 77 10000 9.3 10 03:43 14.03.2020
6480 Clouds 18 1020 77 10000 7.7 360 03:23 14.03.2020
6481 Clouds 17 1020 77 10000 9.3 10 02:22 14.03.2020
6482 Clouds 18 1021 72 10000 8.2 360 00:44 14.03.2020
6483 Clouds 18 1020 72 10000 9.8 10 23:45 13.03.2020
6484 Clouds 19 1020 72 10000 9.8 10 23:27 13.03.2020
6485 Clouds 19 1020 68 10000 8.7 360 22:49 13.03.2020
6486 Clouds 19 1020 68 10000 9.8 360 22:26 13.03.2020
6487 Clouds 19 1019 72 10000 10.8 10 21:44 13.03.2020
6488 Clouds 19 1019 72 10000 10.8 10 21:21 13.03.2020
6489 Clouds 19 1019 72 10000 10.8 10 20:58 13.03.2020
6490 Clouds 19 1019 72 10000 10.8 10 20:39 13.03.2020
6491 Clouds 19 1019 72 10000 10.8 10 20:39 13.03.2020
6492 Clouds 19 1019 72 10000 10.8 10 20:20 13.03.2020
6493 Clouds 19 1019 72 10000 11.3 10 19:47 13.03.2020
6494 Clouds 20 1019 68 10000 11.3 20 19:28 13.03.2020
6495 Clouds 20 1019 64 10000 11.8 20 18:47 13.03.2020
6496 Clouds 20 1019 64 10000 12.3 20 18:29 13.03.2020
6497 Clouds 21 1019 64 10000 11.8 20 17:57 13.03.2020
6498 Clouds 21 1019 60 10000 11.3 20 17:38 13.03.2020
6499 Clouds 21 1019 60 10000 11.3 20 17:19 13.03.2020
6500 Clouds 21 1019 60 10000 10.8 20 16:42 13.03.2020
6501 Clouds 21 1019 60 10000 10.8 20 16:24 13.03.2020
6502 Clouds 21 1019 60 10000 11.3 30 15:56 13.03.2020
6503 Clouds 21 1019 60 10000 10.8 20 15:37 13.03.2020
6504 Clouds 21 1019 60 10000 10.8 20 15:19 13.03.2020
6505 Clouds 21 1020 64 10000 10.8 20 14:41 13.03.2020
6506 Clouds 21 1020 64 10000 10.8 20 14:22 13.03.2020
6507 Clouds 21 1020 64 10000 10.8 20 14:22 13.03.2020
6508 Clouds 21 1021 60 10000 10.8 20 13:56 13.03.2020
6509 Clouds 21 1021 60 10000 11.3 20 13:38 13.03.2020
6510 Clouds 21 1021 60 10000 11.3 20 13:19 13.03.2020
6511 Clouds 22 1021 60 10000 9.8 360 12:40 13.03.2020
6512 Clouds 21 1021 60 10000 9.8 360 12:22 13.03.2020
6513 Clouds 20 1021 68 10000 10.3 20 11:57 13.03.2020
6514 Clouds 20 1021 68 10000 10.3 20 11:39 13.03.2020
6515 Clouds 20 1021 68 10000 10.3 20 11:21 13.03.2020
6516 Clouds 20 1021 68 10000 10.3 10 10:47 13.03.2020
6517 Clouds 19 1020 68 10000 10.3 10 10:27 13.03.2020
6518 Clouds 18 1020 72 10000 10.3 10 09:57 13.03.2020
6519 Clouds 18 1020 72 10000 10.3 10 09:57 13.03.2020
6520 Clouds 18 1020 72 10000 9.3 10 09:39 13.03.2020
6521 Clouds 18 1020 72 10000 9.3 10 09:20 13.03.2020
6522 Clouds 17 1019 72 10000 9.3 360 08:45 13.03.2020
6523 Clouds 17 1019 72 10000 8.7 360 08:22 13.03.2020
6524 Clouds 17 1019 72 10000 9.3 10 07:49 13.03.2020
6525 Clouds 17 1019 72 10000 10.3 360 07:28 13.03.2020
6526 Clouds 17 1019 77 10000 9.3 10 06:47 13.03.2020
6527 Clouds 17 1019 77 10000 9.3 10 06:28 13.03.2020
6528 Clouds 17 1018 72 10000 8.7 360 05:53 13.03.2020
6529 Clouds 18 1018 77 10000 8.7 360 05:20 13.03.2020
6530 Clouds 18 1019 77 10000 9.8 360 04:37 13.03.2020
6531 Clouds 18 1019 77 10000 8.7 10 03:31 13.03.2020
6532 Clouds 19 1019 82 10000 9.3 10 01:45 13.03.2020
6533 Clouds 19 1019 82 10000 8.7 360 01:18 13.03.2020
6534 Clouds 19 1019 82 10000 8.7 360 01:18 13.03.2020
6535 Clouds 18 1019 77 10000 7.7 360 00:46 13.03.2020
6536 Clouds 18 1019 82 10000 8.2 360 00:23 13.03.2020
6537 Clouds 18 1019 88 10000 8.2 10 23:47 12.03.2020
6538 Clouds 18 1019 88 10000 8.2 10 23:26 12.03.2020
6539 Clouds 19 1019 82 10000 7.7 10 22:55 12.03.2020
6540 Clouds 19 1019 82 10000 8.2 10 22:37 12.03.2020
6541 Clouds 19 1019 82 10000 8.2 10 22:19 12.03.2020
6542 Clouds 19 1019 82 10000 8.2 20 21:42 12.03.2020
6543 Clouds 19 1018 82 10000 8.7 20 21:24 12.03.2020
6544 Clouds 20 1018 82 10000 8.7 20 20:55 12.03.2020
6545 Clouds 20 1018 88 10000 8.7 20 20:37 12.03.2020
6546 Clouds 20 1018 88 10000 8.7 20 20:18 12.03.2020
6547 Clouds 21 1018 82 10000 9.3 20 19:39 12.03.2020
6548 Clouds 22 1018 82 10000 9.3 20 19:20 12.03.2020
6549 Clouds 21 1018 77 10000 8.7 30 18:43 12.03.2020
6550 Clouds 21 1018 77 10000 8.7 30 18:23 12.03.2020
6551 Clouds 22 1018 73 10000 8.7 30 17:56 12.03.2020
6552 Clouds 22 1018 73 10000 8.2 30 17:37 12.03.2020
6553 Clouds 23 1018 73 10000 8.2 30 17:18 12.03.2020
6554 Clouds 22 1018 73 10000 7.7 30 16:43 12.03.2020
6555 Clouds 23 1018 69 10000 7.2 30 16:24 12.03.2020
6556 Clouds 23 1018 56 10000 5.7 30 15:59 12.03.2020
6557 Clouds 24 1018 57 10000 3.6 40 15:39 12.03.2020
6558 Clouds 24 1018 57 10000 3.6 40 15:21 12.03.2020
6559 Clear 23 1019 69 10000 4.6 30 14:38 12.03.2020
6560 Clear 23 1019 69 10000 4.6 30 14:19 12.03.2020
6561 Clear 23 1019 64 10000 4.6 40 13:40 12.03.2020
6562 Clear 23 1019 64 10000 5.1 30 13:22 12.03.2020
6563 Clear 22 1019 68 10000 6.2 30 12:55 12.03.2020
6564 Clear 22 1019 73 10000 5.7 40 12:37 12.03.2020
6565 Clear 22 1019 73 10000 5.7 40 12:18 12.03.2020
6566 Clear 22 1019 68 10000 6.2 30 11:56 12.03.2020
6567 Clear 21 1019 73 10000 6.7 30 11:37 12.03.2020
6568 Clear 21 1019 73 10000 6.7 30 11:19 12.03.2020
6569 Clear 21 1019 73 10000 6.7 20 10:55 12.03.2020
6570 Clear 21 1019 73 10000 6.7 20 10:55 12.03.2020
6571 Clear 21 1019 82 10000 8.2 20 10:37 12.03.2020
6572 Clear 20 1019 82 10000 8.2 20 10:18 12.03.2020
6573 Clouds 19 1018 88 10000 7.7 10 09:42 12.03.2020
6574 Clouds 18 1018 88 10000 6.7 360 09:23 12.03.2020
6575 Clouds 17 1018 88 10000 5.7 360 08:40 12.03.2020
6576 Clouds 17 1018 88 10000 5.7 360 08:19 12.03.2020
6577 Clouds 17 1018 93 10000 7.7 10 07:52 12.03.2020
6578 Clouds 18 1017 77 10000 7.7 20 07:23 12.03.2020
6579 Clouds 18 1017 39 10000 5.1 10 06:38 12.03.2020
6580 Clouds 19 1017 42 10000 3.1 330 05:40 12.03.2020
6581 Clouds 19 1018 68 10000 5.1 350 04:27 12.03.2020
6582 Clouds 18 1019 88 10000 4.1 10 02:34 12.03.2020
6583 Clouds 18 1019 88 10000 7.2 10 01:30 12.03.2020
6584 Clouds 18 1019 88 10000 7.7 10 00:42 12.03.2020
6585 Clouds 18 1019 93 10000 7.2 10 23:59 11.03.2020
6586 Clouds 18 1019 93 10000 7.2 10 23:59 11.03.2020
6587 Clouds 20 1018 82 10000 5.1 20 23:40 11.03.2020
6588 Clouds 18 1018 82 10000 5.1 20 23:22 11.03.2020
6589 Clouds 20 1018 82 10000 5.1 360 22:45 11.03.2020
6590 Clouds 20 1018 82 10000 6.7 20 22:25 11.03.2020
6591 Clouds 20 1018 88 10000 6.2 10 21:58 11.03.2020
6592 Clouds 20 1018 88 10000 6.2 10 21:40 11.03.2020
6593 Clouds 20 1018 88 10000 6.2 20 21:22 11.03.2020
6594 Clouds 20 1018 82 10000 6.2 20 20:57 11.03.2020
6595 Clouds 21 1017 82 10000 6.2 30 20:37 11.03.2020
6596 Clouds 21 1017 82 10000 6.2 30 20:19 11.03.2020
6597 Clouds 22 1017 77 10000 5.1 30 19:42 11.03.2020
6598 Clouds 21 1017 77 10000 5.1 30 19:24 11.03.2020
6599 Clouds 22 1017 73 10000 5.7 30 18:57 11.03.2020
6600 Clouds 22 1017 56 10000 4.1 30 18:38 11.03.2020
6601 Clouds 22 1017 56 10000 4.1 30 18:20 11.03.2020
6602 Clouds 23 1017 53 10000 3.6 30 17:55 11.03.2020
6603 Clouds 23 1017 53 10000 3.6 30 17:55 11.03.2020
6604 Clouds 23 1017 60 10000 3.6 60 17:37 11.03.2020
6605 Clouds 24 1017 60 10000 3.6 60 17:19 11.03.2020
6606 Clouds 24 1018 64 10000 3.1 70 16:44 11.03.2020
6607 Clouds 23 1018 53 10000 3.1 80 16:20 11.03.2020
6608 Clouds 23 1018 49 10000 3.1 80 15:43 11.03.2020
6609 Clouds 23 1018 53 10000 2.6 60 15:23 11.03.2020
6610 Clouds 23 1019 56 10000 3.1 60 14:56 11.03.2020
6611 Clouds 23 1019 49 10000 3.1 60 14:37 11.03.2020
6612 Clouds 23 1019 49 10000 3.1 60 14:18 11.03.2020
6613 Clouds 23 1019 49 10000 2.6 50 13:42 11.03.2020
6614 Clouds 23 1019 64 10000 3.6 50 13:24 11.03.2020
6615 Clouds 22 1019 73 10000 4.1 30 12:56 11.03.2020
6616 Clouds 21 1019 72 10000 4.6 30 12:38 11.03.2020
6617 Clouds 21 1019 72 10000 4.6 30 12:19 11.03.2020
6618 Clouds 20 1019 77 10000 4.6 30 11:41 11.03.2020
6619 Clouds 19 1019 77 10000 4.1 30 11:21 11.03.2020
6620 Clouds 19 1019 77 10000 4.1 40 10:47 11.03.2020
6621 Clouds 18 1019 82 10000 4.1 10 10:21 11.03.2020
6622 Clouds 18 1019 82 10000 4.1 10 10:21 11.03.2020
6623 Clouds 18 1019 82 10000 4.1 10 10:21 11.03.2020
6624 Clouds 18 1018 77 10000 3.6 360 09:59 11.03.2020
6625 Clouds 17 1018 82 10000 4.1 360 09:40 11.03.2020
6626 Clouds 17 1018 82 10000 4.1 360 09:21 11.03.2020
6627 Clouds 16 1018 82 10000 4.1 350 08:43 11.03.2020
6628 Clouds 16 1018 82 10000 4.6 340 08:25 11.03.2020
6629 Clouds 16 1018 82 10000 4.1 350 07:47 11.03.2020
6630 Clouds 16 1018 82 10000 4.6 350 07:21 11.03.2020
6631 Clouds 15 1018 87 10000 5.1 350 06:50 11.03.2020
6632 Clouds 16 1018 87 10000 4.6 350 06:31 11.03.2020
6633 Clouds 16 1019 87 10000 5.7 350 05:32 11.03.2020
6634 Clouds 17 1019 82 10000 5.7 360 03:26 11.03.2020
6635 Clouds 17 1019 82 10000 5.7 360 03:26 11.03.2020
6636 Clouds 17 1019 88 10000 6.2 360 01:53 11.03.2020
6637 Clouds 17 1020 82 10000 6.7 10 01:23 11.03.2020
6638 Clouds 17 1020 88 10000 6.7 360 00:40 11.03.2020
6639 Clouds 18 1020 82 10000 7.7 10 23:50 10.03.2020
6640 Clouds 18 1020 82 10000 7.7 20 23:28 10.03.2020
6641 Clouds 18 1020 82 10000 7.2 10 22:58 10.03.2020
6642 Clouds 18 1020 88 10000 7.2 10 22:37 10.03.2020
6643 Clouds 18 1020 88 10000 7.2 10 22:19 10.03.2020
6644 Clouds 18 1019 88 10000 6.2 10 21:56 10.03.2020
6645 Clouds 18 1019 82 10000 6.7 20 21:38 10.03.2020
6646 Clouds 18 1019 82 10000 6.7 20 21:19 10.03.2020
6647 Clouds 19 1019 77 10000 6.7 20 20:43 10.03.2020
6648 Clouds 19 1019 77 10000 6.7 20 20:21 10.03.2020
6649 Clouds 20 1019 82 10000 7.2 20 19:59 10.03.2020
6650 Clouds 20 1019 82 10000 7.2 20 19:41 10.03.2020
6651 Clouds 20 1019 72 10000 7.7 30 19:23 10.03.2020
6652 Clouds 21 1019 73 10000 8.7 30 18:58 10.03.2020
6653 Clouds 21 1019 73 10000 8.7 30 18:40 10.03.2020
6654 Clouds 21 1019 73 10000 8.7 30 18:21 10.03.2020
6655 Clouds 21 1019 73 10000 9.3 30 17:56 10.03.2020
6656 Clouds 21 1019 68 10000 9.8 30 17:37 10.03.2020
6657 Clouds 22 1019 68 10000